<?xml version="1.0" encoding="UTF-8" standalone="no" ?>
<gpx xmlns="http://www.topografix.com/GPX/1/1" xmlns:xsi="http://www.w3.org/2001/XMLSchema-instance" xsi:schemaLocation="http://www.topografix.com/GPX/1/1 http://www.topografix.com/GPX/1/1/gpx.xsd" version="1.1" creator="VisuGPX - https://www.visugpx.com">
  <metadata>
    <name>Voiteur-Château-Chalon-Frontenay-Blandans</name>
  </metadata>
  <trk>
    <name><![CDATA[Voiteur-Château-Chalon-Frontenay-Blandans_1]]></name>
    <extensions>
      <line xmlns="http://www.topografix.com/GPX/gpx_style/0/2">
        <color>0000FF</color>
        <width>4</width>
      </line>
    </extensions>
    <trkseg>
      <trkpt lat="46.75483" lon="5.61174">
        <ele>255.4</ele>
        <time>2021-10-07T07:11:29Z</time>
      </trkpt>
      <trkpt lat="46.75485" lon="5.61179">
        <ele>253.9</ele>
        <time>2021-10-07T07:12:08Z</time>
      </trkpt>
      <trkpt lat="46.75486" lon="5.61186">
        <ele>254.2</ele>
        <time>2021-10-07T07:12:16Z</time>
      </trkpt>
      <trkpt lat="46.75485" lon="5.61193">
        <ele>254</ele>
        <time>2021-10-07T07:12:25Z</time>
      </trkpt>
      <trkpt lat="46.75482" lon="5.61199">
        <ele>254.4</ele>
        <time>2021-10-07T07:12:32Z</time>
      </trkpt>
      <trkpt lat="46.75478" lon="5.61203">
        <ele>253.9</ele>
        <time>2021-10-07T07:12:37Z</time>
      </trkpt>
      <trkpt lat="46.75476" lon="5.61209">
        <ele>253.2</ele>
        <time>2021-10-07T07:12:45Z</time>
      </trkpt>
      <trkpt lat="46.75473" lon="5.61215">
        <ele>252.8</ele>
        <time>2021-10-07T07:12:59Z</time>
      </trkpt>
      <trkpt lat="46.75471" lon="5.61221">
        <ele>253.1</ele>
        <time>2021-10-07T07:13:10Z</time>
      </trkpt>
      <trkpt lat="46.75473" lon="5.61228">
        <ele>253.9</ele>
        <time>2021-10-07T07:13:17Z</time>
      </trkpt>
      <trkpt lat="46.75475" lon="5.61235">
        <ele>254.8</ele>
        <time>2021-10-07T07:13:22Z</time>
      </trkpt>
      <trkpt lat="46.75477" lon="5.61241">
        <ele>255.8</ele>
        <time>2021-10-07T07:13:27Z</time>
      </trkpt>
      <trkpt lat="46.7548" lon="5.61248">
        <ele>256.6</ele>
        <time>2021-10-07T07:13:33Z</time>
      </trkpt>
      <trkpt lat="46.75484" lon="5.61251">
        <ele>257.3</ele>
        <time>2021-10-07T07:13:38Z</time>
      </trkpt>
      <trkpt lat="46.75488" lon="5.61256">
        <ele>258.4</ele>
        <time>2021-10-07T07:13:43Z</time>
      </trkpt>
      <trkpt lat="46.75491" lon="5.61261">
        <ele>259.2</ele>
        <time>2021-10-07T07:13:48Z</time>
      </trkpt>
      <trkpt lat="46.75496" lon="5.61265">
        <ele>259.4</ele>
        <time>2021-10-07T07:13:52Z</time>
      </trkpt>
      <trkpt lat="46.755" lon="5.61265">
        <ele>259.6</ele>
        <time>2021-10-07T07:13:56Z</time>
      </trkpt>
      <trkpt lat="46.75505" lon="5.61268">
        <ele>259.5</ele>
        <time>2021-10-07T07:14:01Z</time>
      </trkpt>
      <trkpt lat="46.75509" lon="5.6127">
        <ele>258.9</ele>
        <time>2021-10-07T07:14:06Z</time>
      </trkpt>
      <trkpt lat="46.75514" lon="5.61272">
        <ele>257.9</ele>
        <time>2021-10-07T07:14:12Z</time>
      </trkpt>
      <trkpt lat="46.75519" lon="5.61274">
        <ele>257.3</ele>
        <time>2021-10-07T07:14:17Z</time>
      </trkpt>
      <trkpt lat="46.75525" lon="5.61273">
        <ele>257.4</ele>
        <time>2021-10-07T07:14:23Z</time>
      </trkpt>
      <trkpt lat="46.7553" lon="5.61273">
        <ele>257.6</ele>
        <time>2021-10-07T07:14:27Z</time>
      </trkpt>
      <trkpt lat="46.75534" lon="5.61274">
        <ele>258.5</ele>
        <time>2021-10-07T07:14:31Z</time>
      </trkpt>
      <trkpt lat="46.75538" lon="5.61277">
        <ele>259.2</ele>
        <time>2021-10-07T07:14:35Z</time>
      </trkpt>
      <trkpt lat="46.75542" lon="5.61281">
        <ele>259.4</ele>
        <time>2021-10-07T07:14:39Z</time>
      </trkpt>
      <trkpt lat="46.75547" lon="5.61285">
        <ele>259.4</ele>
        <time>2021-10-07T07:14:45Z</time>
      </trkpt>
      <trkpt lat="46.75551" lon="5.61288">
        <ele>260</ele>
        <time>2021-10-07T07:14:50Z</time>
      </trkpt>
      <trkpt lat="46.75556" lon="5.6129">
        <ele>261.1</ele>
        <time>2021-10-07T07:14:56Z</time>
      </trkpt>
      <trkpt lat="46.75561" lon="5.61293">
        <ele>262.2</ele>
        <time>2021-10-07T07:15:01Z</time>
      </trkpt>
      <trkpt lat="46.75564" lon="5.61297">
        <ele>263.6</ele>
        <time>2021-10-07T07:15:06Z</time>
      </trkpt>
      <trkpt lat="46.75568" lon="5.61303">
        <ele>264.5</ele>
        <time>2021-10-07T07:15:11Z</time>
      </trkpt>
      <trkpt lat="46.75573" lon="5.61306">
        <ele>265</ele>
        <time>2021-10-07T07:15:15Z</time>
      </trkpt>
      <trkpt lat="46.75578" lon="5.61307">
        <ele>265</ele>
        <time>2021-10-07T07:15:17Z</time>
      </trkpt>
      <trkpt lat="46.75584" lon="5.61308">
        <ele>265</ele>
        <time>2021-10-07T07:15:22Z</time>
      </trkpt>
      <trkpt lat="46.75589" lon="5.61308">
        <ele>264.6</ele>
        <time>2021-10-07T07:15:26Z</time>
      </trkpt>
      <trkpt lat="46.75593" lon="5.61307">
        <ele>264.1</ele>
        <time>2021-10-07T07:15:31Z</time>
      </trkpt>
      <trkpt lat="46.75598" lon="5.61308">
        <ele>262.6</ele>
        <time>2021-10-07T07:15:38Z</time>
      </trkpt>
      <trkpt lat="46.75603" lon="5.6131">
        <ele>261.7</ele>
        <time>2021-10-07T07:15:43Z</time>
      </trkpt>
      <trkpt lat="46.75607" lon="5.61311">
        <ele>260.9</ele>
        <time>2021-10-07T07:15:47Z</time>
      </trkpt>
      <trkpt lat="46.75612" lon="5.61312">
        <ele>260.1</ele>
        <time>2021-10-07T07:15:51Z</time>
      </trkpt>
      <trkpt lat="46.75617" lon="5.61315">
        <ele>259.1</ele>
        <time>2021-10-07T07:15:56Z</time>
      </trkpt>
      <trkpt lat="46.75621" lon="5.61318">
        <ele>257.9</ele>
        <time>2021-10-07T07:16:02Z</time>
      </trkpt>
      <trkpt lat="46.75626" lon="5.61321">
        <ele>257.2</ele>
        <time>2021-10-07T07:16:08Z</time>
      </trkpt>
      <trkpt lat="46.7563" lon="5.61326">
        <ele>257.1</ele>
        <time>2021-10-07T07:16:12Z</time>
      </trkpt>
      <trkpt lat="46.75635" lon="5.61329">
        <ele>257.1</ele>
        <time>2021-10-07T07:16:17Z</time>
      </trkpt>
      <trkpt lat="46.75638" lon="5.61334">
        <ele>257</ele>
        <time>2021-10-07T07:16:22Z</time>
      </trkpt>
      <trkpt lat="46.75641" lon="5.61339">
        <ele>256.8</ele>
        <time>2021-10-07T07:16:31Z</time>
      </trkpt>
      <trkpt lat="46.75646" lon="5.61335">
        <ele>256.8</ele>
        <time>2021-10-07T07:16:35Z</time>
      </trkpt>
      <trkpt lat="46.75651" lon="5.61331">
        <ele>256.8</ele>
        <time>2021-10-07T07:16:39Z</time>
      </trkpt>
      <trkpt lat="46.75656" lon="5.6133">
        <ele>256.6</ele>
        <time>2021-10-07T07:16:43Z</time>
      </trkpt>
      <trkpt lat="46.75661" lon="5.61332">
        <ele>255.9</ele>
        <time>2021-10-07T07:16:47Z</time>
      </trkpt>
      <trkpt lat="46.75664" lon="5.61337">
        <ele>255</ele>
        <time>2021-10-07T07:16:51Z</time>
      </trkpt>
      <trkpt lat="46.75667" lon="5.61342">
        <ele>254.2</ele>
        <time>2021-10-07T07:16:55Z</time>
      </trkpt>
      <trkpt lat="46.7567" lon="5.61348">
        <ele>253.5</ele>
        <time>2021-10-07T07:17:00Z</time>
      </trkpt>
      <trkpt lat="46.75674" lon="5.61353">
        <ele>253.2</ele>
        <time>2021-10-07T07:17:05Z</time>
      </trkpt>
      <trkpt lat="46.75677" lon="5.6136">
        <ele>253</ele>
        <time>2021-10-07T07:17:10Z</time>
      </trkpt>
      <trkpt lat="46.7568" lon="5.61365">
        <ele>252.4</ele>
        <time>2021-10-07T07:17:15Z</time>
      </trkpt>
      <trkpt lat="46.75682" lon="5.61372">
        <ele>251.5</ele>
        <time>2021-10-07T07:17:21Z</time>
      </trkpt>
      <trkpt lat="46.75685" lon="5.61377">
        <ele>250.8</ele>
        <time>2021-10-07T07:17:27Z</time>
      </trkpt>
      <trkpt lat="46.75686" lon="5.61383">
        <ele>250.5</ele>
        <time>2021-10-07T07:17:32Z</time>
      </trkpt>
      <trkpt lat="46.75689" lon="5.6139">
        <ele>250.1</ele>
        <time>2021-10-07T07:17:37Z</time>
      </trkpt>
      <trkpt lat="46.75693" lon="5.61395">
        <ele>249.6</ele>
        <time>2021-10-07T07:17:42Z</time>
      </trkpt>
      <trkpt lat="46.75698" lon="5.61399">
        <ele>249.5</ele>
        <time>2021-10-07T07:17:46Z</time>
      </trkpt>
      <trkpt lat="46.75703" lon="5.61402">
        <ele>249.4</ele>
        <time>2021-10-07T07:17:49Z</time>
      </trkpt>
      <trkpt lat="46.75707" lon="5.61405">
        <ele>249.3</ele>
        <time>2021-10-07T07:17:52Z</time>
      </trkpt>
      <trkpt lat="46.75711" lon="5.6141">
        <ele>248.3</ele>
        <time>2021-10-07T07:17:58Z</time>
      </trkpt>
      <trkpt lat="46.7571" lon="5.61417">
        <ele>247.6</ele>
        <time>2021-10-07T07:18:03Z</time>
      </trkpt>
      <trkpt lat="46.75709" lon="5.61424">
        <ele>247.1</ele>
        <time>2021-10-07T07:18:07Z</time>
      </trkpt>
      <trkpt lat="46.7571" lon="5.61431">
        <ele>246</ele>
        <time>2021-10-07T07:18:12Z</time>
      </trkpt>
      <trkpt lat="46.75714" lon="5.61435">
        <ele>245.3</ele>
        <time>2021-10-07T07:18:16Z</time>
      </trkpt>
      <trkpt lat="46.75718" lon="5.61439">
        <ele>245.2</ele>
        <time>2021-10-07T07:18:20Z</time>
      </trkpt>
      <trkpt lat="46.75721" lon="5.61443">
        <ele>245.3</ele>
        <time>2021-10-07T07:18:24Z</time>
      </trkpt>
      <trkpt lat="46.75726" lon="5.61448">
        <ele>245.5</ele>
        <time>2021-10-07T07:18:28Z</time>
      </trkpt>
      <trkpt lat="46.7573" lon="5.61454">
        <ele>245.9</ele>
        <time>2021-10-07T07:18:33Z</time>
      </trkpt>
      <trkpt lat="46.75733" lon="5.61458">
        <ele>246.6</ele>
        <time>2021-10-07T07:18:37Z</time>
      </trkpt>
      <trkpt lat="46.75737" lon="5.61462">
        <ele>247.1</ele>
        <time>2021-10-07T07:18:41Z</time>
      </trkpt>
      <trkpt lat="46.75742" lon="5.61467">
        <ele>247.5</ele>
        <time>2021-10-07T07:18:46Z</time>
      </trkpt>
      <trkpt lat="46.75745" lon="5.61473">
        <ele>247.6</ele>
        <time>2021-10-07T07:18:51Z</time>
      </trkpt>
      <trkpt lat="46.75747" lon="5.61479">
        <ele>247.7</ele>
        <time>2021-10-07T07:18:56Z</time>
      </trkpt>
      <trkpt lat="46.7575" lon="5.61485">
        <ele>247.9</ele>
        <time>2021-10-07T07:19:01Z</time>
      </trkpt>
      <trkpt lat="46.75752" lon="5.61491">
        <ele>248.2</ele>
        <time>2021-10-07T07:19:05Z</time>
      </trkpt>
      <trkpt lat="46.75756" lon="5.61497">
        <ele>248.9</ele>
        <time>2021-10-07T07:19:10Z</time>
      </trkpt>
      <trkpt lat="46.75759" lon="5.61503">
        <ele>249.5</ele>
        <time>2021-10-07T07:19:15Z</time>
      </trkpt>
      <trkpt lat="46.75762" lon="5.61508">
        <ele>249.9</ele>
        <time>2021-10-07T07:19:19Z</time>
      </trkpt>
      <trkpt lat="46.75766" lon="5.61514">
        <ele>250.7</ele>
        <time>2021-10-07T07:19:24Z</time>
      </trkpt>
      <trkpt lat="46.75769" lon="5.6152">
        <ele>251.8</ele>
        <time>2021-10-07T07:19:29Z</time>
      </trkpt>
      <trkpt lat="46.75773" lon="5.61525">
        <ele>252.7</ele>
        <time>2021-10-07T07:19:34Z</time>
      </trkpt>
      <trkpt lat="46.75777" lon="5.6153">
        <ele>253.5</ele>
        <time>2021-10-07T07:19:39Z</time>
      </trkpt>
      <trkpt lat="46.7578" lon="5.61535">
        <ele>253.8</ele>
        <time>2021-10-07T07:19:44Z</time>
      </trkpt>
      <trkpt lat="46.75784" lon="5.61541">
        <ele>253.6</ele>
        <time>2021-10-07T07:19:49Z</time>
      </trkpt>
      <trkpt lat="46.75788" lon="5.61545">
        <ele>253.1</ele>
        <time>2021-10-07T07:19:54Z</time>
      </trkpt>
      <trkpt lat="46.7579" lon="5.61551">
        <ele>250.2</ele>
        <time>2021-10-07T07:20:37Z</time>
      </trkpt>
      <trkpt lat="46.75786" lon="5.61554">
        <ele>248.3</ele>
        <time>2021-10-07T07:20:50Z</time>
      </trkpt>
      <trkpt lat="46.75781" lon="5.61555">
        <ele>247.1</ele>
        <time>2021-10-07T07:21:04Z</time>
      </trkpt>
      <trkpt lat="46.75776" lon="5.61556">
        <ele>245.8</ele>
        <time>2021-10-07T07:21:10Z</time>
      </trkpt>
      <trkpt lat="46.75772" lon="5.61558">
        <ele>244.6</ele>
        <time>2021-10-07T07:21:15Z</time>
      </trkpt>
      <trkpt lat="46.75768" lon="5.61564">
        <ele>243.7</ele>
        <time>2021-10-07T07:21:22Z</time>
      </trkpt>
      <trkpt lat="46.75768" lon="5.61571">
        <ele>243.6</ele>
        <time>2021-10-07T07:21:27Z</time>
      </trkpt>
      <trkpt lat="46.75771" lon="5.61578">
        <ele>244</ele>
        <time>2021-10-07T07:21:32Z</time>
      </trkpt>
      <trkpt lat="46.75773" lon="5.61584">
        <ele>244.4</ele>
        <time>2021-10-07T07:21:36Z</time>
      </trkpt>
      <trkpt lat="46.75771" lon="5.61592">
        <ele>245.1</ele>
        <time>2021-10-07T07:21:41Z</time>
      </trkpt>
      <trkpt lat="46.7577" lon="5.61599">
        <ele>246.9</ele>
        <time>2021-10-07T07:21:49Z</time>
      </trkpt>
      <trkpt lat="46.75767" lon="5.61606">
        <ele>247.7</ele>
        <time>2021-10-07T07:21:53Z</time>
      </trkpt>
      <trkpt lat="46.75766" lon="5.61612">
        <ele>248.9</ele>
        <time>2021-10-07T07:21:59Z</time>
      </trkpt>
      <trkpt lat="46.75764" lon="5.6162">
        <ele>249.1</ele>
        <time>2021-10-07T07:22:06Z</time>
      </trkpt>
      <trkpt lat="46.75762" lon="5.61626">
        <ele>249.5</ele>
        <time>2021-10-07T07:22:10Z</time>
      </trkpt>
      <trkpt lat="46.75761" lon="5.61633">
        <ele>250.2</ele>
        <time>2021-10-07T07:22:15Z</time>
      </trkpt>
      <trkpt lat="46.7576" lon="5.61641">
        <ele>251</ele>
        <time>2021-10-07T07:22:21Z</time>
      </trkpt>
      <trkpt lat="46.75756" lon="5.61645">
        <ele>251.9</ele>
        <time>2021-10-07T07:22:26Z</time>
      </trkpt>
      <trkpt lat="46.75751" lon="5.61648">
        <ele>252.3</ele>
        <time>2021-10-07T07:22:31Z</time>
      </trkpt>
      <trkpt lat="46.75748" lon="5.61655">
        <ele>252.5</ele>
        <time>2021-10-07T07:22:37Z</time>
      </trkpt>
      <trkpt lat="46.75745" lon="5.6166">
        <ele>252.5</ele>
        <time>2021-10-07T07:22:42Z</time>
      </trkpt>
      <trkpt lat="46.75741" lon="5.61664">
        <ele>252.8</ele>
        <time>2021-10-07T07:22:46Z</time>
      </trkpt>
      <trkpt lat="46.75736" lon="5.61667">
        <ele>253</ele>
        <time>2021-10-07T07:22:50Z</time>
      </trkpt>
      <trkpt lat="46.75733" lon="5.61672">
        <ele>252.3</ele>
        <time>2021-10-07T07:22:57Z</time>
      </trkpt>
      <trkpt lat="46.75727" lon="5.61673">
        <ele>249.9</ele>
        <time>2021-10-07T07:23:15Z</time>
      </trkpt>
      <trkpt lat="46.75722" lon="5.61673">
        <ele>250.3</ele>
        <time>2021-10-07T07:23:20Z</time>
      </trkpt>
      <trkpt lat="46.75718" lon="5.61673">
        <ele>250.4</ele>
        <time>2021-10-07T07:23:27Z</time>
      </trkpt>
      <trkpt lat="46.75712" lon="5.61673">
        <ele>250.7</ele>
        <time>2021-10-07T07:23:33Z</time>
      </trkpt>
      <trkpt lat="46.75707" lon="5.61673">
        <ele>251.1</ele>
        <time>2021-10-07T07:23:37Z</time>
      </trkpt>
      <trkpt lat="46.75702" lon="5.61674">
        <ele>251.5</ele>
        <time>2021-10-07T07:23:41Z</time>
      </trkpt>
      <trkpt lat="46.75698" lon="5.61677">
        <ele>251.8</ele>
        <time>2021-10-07T07:23:46Z</time>
      </trkpt>
      <trkpt lat="46.75693" lon="5.6168">
        <ele>251.3</ele>
        <time>2021-10-07T07:23:52Z</time>
      </trkpt>
      <trkpt lat="46.75689" lon="5.61678">
        <ele>250.2</ele>
        <time>2021-10-07T07:23:58Z</time>
      </trkpt>
      <trkpt lat="46.75683" lon="5.6168">
        <ele>250.1</ele>
        <time>2021-10-07T07:24:04Z</time>
      </trkpt>
      <trkpt lat="46.75679" lon="5.61681">
        <ele>250.4</ele>
        <time>2021-10-07T07:24:08Z</time>
      </trkpt>
      <trkpt lat="46.75673" lon="5.61682">
        <ele>250.8</ele>
        <time>2021-10-07T07:24:13Z</time>
      </trkpt>
      <trkpt lat="46.75669" lon="5.61685">
        <ele>251.1</ele>
        <time>2021-10-07T07:24:17Z</time>
      </trkpt>
      <trkpt lat="46.75665" lon="5.61689">
        <ele>251.1</ele>
        <time>2021-10-07T07:24:22Z</time>
      </trkpt>
      <trkpt lat="46.7566" lon="5.61688">
        <ele>251</ele>
        <time>2021-10-07T07:24:29Z</time>
      </trkpt>
      <trkpt lat="46.75656" lon="5.61682">
        <ele>250</ele>
        <time>2021-10-07T07:24:35Z</time>
      </trkpt>
      <trkpt lat="46.75654" lon="5.61675">
        <ele>249.6</ele>
        <time>2021-10-07T07:24:39Z</time>
      </trkpt>
      <trkpt lat="46.75652" lon="5.61668">
        <ele>249.9</ele>
        <time>2021-10-07T07:24:44Z</time>
      </trkpt>
      <trkpt lat="46.75651" lon="5.61661">
        <ele>250.5</ele>
        <time>2021-10-07T07:24:48Z</time>
      </trkpt>
      <trkpt lat="46.7565" lon="5.61654">
        <ele>251.3</ele>
        <time>2021-10-07T07:24:53Z</time>
      </trkpt>
      <trkpt lat="46.75649" lon="5.61648">
        <ele>251.2</ele>
        <time>2021-10-07T07:24:58Z</time>
      </trkpt>
      <trkpt lat="46.75648" lon="5.6164">
        <ele>250.4</ele>
        <time>2021-10-07T07:25:03Z</time>
      </trkpt>
      <trkpt lat="46.75646" lon="5.61634">
        <ele>249.9</ele>
        <time>2021-10-07T07:25:08Z</time>
      </trkpt>
      <trkpt lat="46.75641" lon="5.6163">
        <ele>250</ele>
        <time>2021-10-07T07:25:13Z</time>
      </trkpt>
      <trkpt lat="46.75636" lon="5.61628">
        <ele>249.8</ele>
        <time>2021-10-07T07:25:18Z</time>
      </trkpt>
      <trkpt lat="46.75631" lon="5.61629">
        <ele>249</ele>
        <time>2021-10-07T07:25:23Z</time>
      </trkpt>
      <trkpt lat="46.75626" lon="5.61629">
        <ele>248.2</ele>
        <time>2021-10-07T07:25:28Z</time>
      </trkpt>
      <trkpt lat="46.75621" lon="5.6163">
        <ele>247.2</ele>
        <time>2021-10-07T07:25:33Z</time>
      </trkpt>
      <trkpt lat="46.75616" lon="5.61632">
        <ele>246.1</ele>
        <time>2021-10-07T07:25:38Z</time>
      </trkpt>
      <trkpt lat="46.75612" lon="5.61634">
        <ele>245.7</ele>
        <time>2021-10-07T07:25:43Z</time>
      </trkpt>
      <trkpt lat="46.75607" lon="5.61638">
        <ele>245.5</ele>
        <time>2021-10-07T07:25:48Z</time>
      </trkpt>
      <trkpt lat="46.75602" lon="5.6164">
        <ele>246.2</ele>
        <time>2021-10-07T07:25:54Z</time>
      </trkpt>
      <trkpt lat="46.75598" lon="5.61642">
        <ele>246.7</ele>
        <time>2021-10-07T07:26:01Z</time>
      </trkpt>
      <trkpt lat="46.75593" lon="5.61644">
        <ele>246.8</ele>
        <time>2021-10-07T07:26:06Z</time>
      </trkpt>
      <trkpt lat="46.75589" lon="5.61648">
        <ele>246.8</ele>
        <time>2021-10-07T07:26:12Z</time>
      </trkpt>
      <trkpt lat="46.75585" lon="5.61653">
        <ele>246.8</ele>
        <time>2021-10-07T07:26:16Z</time>
      </trkpt>
      <trkpt lat="46.75581" lon="5.61657">
        <ele>246.6</ele>
        <time>2021-10-07T07:26:20Z</time>
      </trkpt>
      <trkpt lat="46.75576" lon="5.61661">
        <ele>246.2</ele>
        <time>2021-10-07T07:26:25Z</time>
      </trkpt>
      <trkpt lat="46.75572" lon="5.61666">
        <ele>245.6</ele>
        <time>2021-10-07T07:26:30Z</time>
      </trkpt>
      <trkpt lat="46.75568" lon="5.61669">
        <ele>244.8</ele>
        <time>2021-10-07T07:26:35Z</time>
      </trkpt>
      <trkpt lat="46.75563" lon="5.61673">
        <ele>244.2</ele>
        <time>2021-10-07T07:26:40Z</time>
      </trkpt>
      <trkpt lat="46.75558" lon="5.61676">
        <ele>244.2</ele>
        <time>2021-10-07T07:26:46Z</time>
      </trkpt>
      <trkpt lat="46.75553" lon="5.61681">
        <ele>244.7</ele>
        <time>2021-10-07T07:26:51Z</time>
      </trkpt>
      <trkpt lat="46.7555" lon="5.61684">
        <ele>245.2</ele>
        <time>2021-10-07T07:26:55Z</time>
      </trkpt>
      <trkpt lat="46.75547" lon="5.6169">
        <ele>245.5</ele>
        <time>2021-10-07T07:27:00Z</time>
      </trkpt>
      <trkpt lat="46.75545" lon="5.61697">
        <ele>245.8</ele>
        <time>2021-10-07T07:27:05Z</time>
      </trkpt>
      <trkpt lat="46.75542" lon="5.61703">
        <ele>246</ele>
        <time>2021-10-07T07:27:10Z</time>
      </trkpt>
      <trkpt lat="46.75541" lon="5.61711">
        <ele>246.8</ele>
        <time>2021-10-07T07:27:15Z</time>
      </trkpt>
      <trkpt lat="46.75538" lon="5.61717">
        <ele>247.3</ele>
        <time>2021-10-07T07:27:20Z</time>
      </trkpt>
      <trkpt lat="46.75535" lon="5.61723">
        <ele>247.9</ele>
        <time>2021-10-07T07:27:25Z</time>
      </trkpt>
      <trkpt lat="46.75533" lon="5.61729">
        <ele>248.3</ele>
        <time>2021-10-07T07:27:30Z</time>
      </trkpt>
      <trkpt lat="46.7553" lon="5.61735">
        <ele>249</ele>
        <time>2021-10-07T07:27:36Z</time>
      </trkpt>
      <trkpt lat="46.75527" lon="5.61741">
        <ele>249.6</ele>
        <time>2021-10-07T07:27:42Z</time>
      </trkpt>
      <trkpt lat="46.75524" lon="5.61747">
        <ele>250.2</ele>
        <time>2021-10-07T07:27:47Z</time>
      </trkpt>
      <trkpt lat="46.7552" lon="5.61752">
        <ele>250.7</ele>
        <time>2021-10-07T07:27:52Z</time>
      </trkpt>
      <trkpt lat="46.75516" lon="5.61756">
        <ele>251.4</ele>
        <time>2021-10-07T07:27:58Z</time>
      </trkpt>
      <trkpt lat="46.75512" lon="5.61752">
        <ele>251.4</ele>
        <time>2021-10-07T07:28:06Z</time>
      </trkpt>
      <trkpt lat="46.75508" lon="5.61758">
        <ele>254.2</ele>
        <time>2021-10-07T07:28:59Z</time>
      </trkpt>
      <trkpt lat="46.75506" lon="5.61763">
        <ele>254.7</ele>
        <time>2021-10-07T07:29:02Z</time>
      </trkpt>
      <trkpt lat="46.75501" lon="5.61766">
        <ele>254.8</ele>
        <time>2021-10-07T07:29:06Z</time>
      </trkpt>
      <trkpt lat="46.75495" lon="5.61768">
        <ele>254.6</ele>
        <time>2021-10-07T07:29:10Z</time>
      </trkpt>
      <trkpt lat="46.7549" lon="5.61771">
        <ele>254.6</ele>
        <time>2021-10-07T07:29:13Z</time>
      </trkpt>
      <trkpt lat="46.75485" lon="5.61773">
        <ele>254.7</ele>
        <time>2021-10-07T07:29:16Z</time>
      </trkpt>
      <trkpt lat="46.75481" lon="5.61773">
        <ele>254.9</ele>
        <time>2021-10-07T07:29:19Z</time>
      </trkpt>
      <trkpt lat="46.75476" lon="5.61774">
        <ele>255.2</ele>
        <time>2021-10-07T07:29:22Z</time>
      </trkpt>
      <trkpt lat="46.7547" lon="5.61773">
        <ele>255.2</ele>
        <time>2021-10-07T07:29:26Z</time>
      </trkpt>
      <trkpt lat="46.75465" lon="5.61774">
        <ele>255.2</ele>
        <time>2021-10-07T07:29:30Z</time>
      </trkpt>
      <trkpt lat="46.7546" lon="5.61774">
        <ele>255</ele>
        <time>2021-10-07T07:29:35Z</time>
      </trkpt>
      <trkpt lat="46.75456" lon="5.61773">
        <ele>254.7</ele>
        <time>2021-10-07T07:29:39Z</time>
      </trkpt>
      <trkpt lat="46.7545" lon="5.61772">
        <ele>254.6</ele>
        <time>2021-10-07T07:29:43Z</time>
      </trkpt>
      <trkpt lat="46.75445" lon="5.61771">
        <ele>254.3</ele>
        <time>2021-10-07T07:29:48Z</time>
      </trkpt>
      <trkpt lat="46.7544" lon="5.6177">
        <ele>254.2</ele>
        <time>2021-10-07T07:29:53Z</time>
      </trkpt>
      <trkpt lat="46.75436" lon="5.61767">
        <ele>253.8</ele>
        <time>2021-10-07T07:29:59Z</time>
      </trkpt>
      <trkpt lat="46.7543" lon="5.61766">
        <ele>252.9</ele>
        <time>2021-10-07T07:30:05Z</time>
      </trkpt>
      <trkpt lat="46.75425" lon="5.61767">
        <ele>252.4</ele>
        <time>2021-10-07T07:30:09Z</time>
      </trkpt>
      <trkpt lat="46.75421" lon="5.61771">
        <ele>252.3</ele>
        <time>2021-10-07T07:30:15Z</time>
      </trkpt>
      <trkpt lat="46.75423" lon="5.61778">
        <ele>253</ele>
        <time>2021-10-07T07:30:25Z</time>
      </trkpt>
      <trkpt lat="46.75425" lon="5.61784">
        <ele>252.3</ele>
        <time>2021-10-07T07:30:31Z</time>
      </trkpt>
      <trkpt lat="46.75426" lon="5.61791">
        <ele>251.8</ele>
        <time>2021-10-07T07:30:39Z</time>
      </trkpt>
      <trkpt lat="46.75425" lon="5.61798">
        <ele>252.7</ele>
        <time>2021-10-07T07:30:45Z</time>
      </trkpt>
      <trkpt lat="46.75424" lon="5.61805">
        <ele>254.2</ele>
        <time>2021-10-07T07:30:51Z</time>
      </trkpt>
      <trkpt lat="46.75422" lon="5.61812">
        <ele>255.6</ele>
        <time>2021-10-07T07:30:58Z</time>
      </trkpt>
      <trkpt lat="46.7542" lon="5.61818">
        <ele>256.4</ele>
        <time>2021-10-07T07:31:04Z</time>
      </trkpt>
      <trkpt lat="46.75416" lon="5.61823">
        <ele>257.2</ele>
        <time>2021-10-07T07:31:10Z</time>
      </trkpt>
      <trkpt lat="46.75412" lon="5.61827">
        <ele>258.2</ele>
        <time>2021-10-07T07:31:16Z</time>
      </trkpt>
      <trkpt lat="46.75408" lon="5.61831">
        <ele>259.3</ele>
        <time>2021-10-07T07:31:21Z</time>
      </trkpt>
      <trkpt lat="46.75404" lon="5.61835">
        <ele>260.4</ele>
        <time>2021-10-07T07:31:28Z</time>
      </trkpt>
      <trkpt lat="46.75401" lon="5.6184">
        <ele>261.4</ele>
        <time>2021-10-07T07:31:34Z</time>
      </trkpt>
      <trkpt lat="46.75399" lon="5.61847">
        <ele>261.8</ele>
        <time>2021-10-07T07:31:41Z</time>
      </trkpt>
      <trkpt lat="46.75395" lon="5.61851">
        <ele>261.8</ele>
        <time>2021-10-07T07:31:47Z</time>
      </trkpt>
      <trkpt lat="46.75391" lon="5.61854">
        <ele>262.2</ele>
        <time>2021-10-07T07:31:53Z</time>
      </trkpt>
      <trkpt lat="46.75388" lon="5.61859">
        <ele>262.8</ele>
        <time>2021-10-07T07:31:58Z</time>
      </trkpt>
      <trkpt lat="46.75385" lon="5.61864">
        <ele>263.6</ele>
        <time>2021-10-07T07:32:04Z</time>
      </trkpt>
      <trkpt lat="46.75384" lon="5.61871">
        <ele>264.4</ele>
        <time>2021-10-07T07:32:09Z</time>
      </trkpt>
      <trkpt lat="46.75381" lon="5.61876">
        <ele>265.2</ele>
        <time>2021-10-07T07:32:14Z</time>
      </trkpt>
      <trkpt lat="46.75377" lon="5.6188">
        <ele>266.2</ele>
        <time>2021-10-07T07:32:20Z</time>
      </trkpt>
      <trkpt lat="46.75373" lon="5.61884">
        <ele>267.4</ele>
        <time>2021-10-07T07:32:25Z</time>
      </trkpt>
      <trkpt lat="46.7537" lon="5.61891">
        <ele>268.4</ele>
        <time>2021-10-07T07:32:30Z</time>
      </trkpt>
      <trkpt lat="46.75367" lon="5.61897">
        <ele>269.3</ele>
        <time>2021-10-07T07:32:36Z</time>
      </trkpt>
      <trkpt lat="46.75364" lon="5.61903">
        <ele>270</ele>
        <time>2021-10-07T07:32:42Z</time>
      </trkpt>
      <trkpt lat="46.75362" lon="5.61909">
        <ele>270.4</ele>
        <time>2021-10-07T07:32:47Z</time>
      </trkpt>
      <trkpt lat="46.7536" lon="5.61915">
        <ele>270.5</ele>
        <time>2021-10-07T07:32:52Z</time>
      </trkpt>
      <trkpt lat="46.75357" lon="5.61921">
        <ele>270.5</ele>
        <time>2021-10-07T07:32:58Z</time>
      </trkpt>
      <trkpt lat="46.75354" lon="5.61926">
        <ele>270.7</ele>
        <time>2021-10-07T07:33:04Z</time>
      </trkpt>
      <trkpt lat="46.75351" lon="5.61932">
        <ele>270.8</ele>
        <time>2021-10-07T07:33:10Z</time>
      </trkpt>
      <trkpt lat="46.75349" lon="5.61938">
        <ele>270.8</ele>
        <time>2021-10-07T07:33:15Z</time>
      </trkpt>
      <trkpt lat="46.75347" lon="5.61944">
        <ele>271.2</ele>
        <time>2021-10-07T07:33:21Z</time>
      </trkpt>
      <trkpt lat="46.75344" lon="5.6195">
        <ele>271.4</ele>
        <time>2021-10-07T07:33:27Z</time>
      </trkpt>
      <trkpt lat="46.7534" lon="5.61955">
        <ele>271.7</ele>
        <time>2021-10-07T07:33:33Z</time>
      </trkpt>
      <trkpt lat="46.75336" lon="5.6196">
        <ele>272</ele>
        <time>2021-10-07T07:33:38Z</time>
      </trkpt>
      <trkpt lat="46.75333" lon="5.61964">
        <ele>272.5</ele>
        <time>2021-10-07T07:33:43Z</time>
      </trkpt>
      <trkpt lat="46.7533" lon="5.6197">
        <ele>273.1</ele>
        <time>2021-10-07T07:33:48Z</time>
      </trkpt>
      <trkpt lat="46.75327" lon="5.61976">
        <ele>273.6</ele>
        <time>2021-10-07T07:33:53Z</time>
      </trkpt>
      <trkpt lat="46.75325" lon="5.61982">
        <ele>274.1</ele>
        <time>2021-10-07T07:33:59Z</time>
      </trkpt>
      <trkpt lat="46.75321" lon="5.61988">
        <ele>274.7</ele>
        <time>2021-10-07T07:34:05Z</time>
      </trkpt>
      <trkpt lat="46.75318" lon="5.61993">
        <ele>275.1</ele>
        <time>2021-10-07T07:34:11Z</time>
      </trkpt>
      <trkpt lat="46.75315" lon="5.61999">
        <ele>275.5</ele>
        <time>2021-10-07T07:34:17Z</time>
      </trkpt>
      <trkpt lat="46.75313" lon="5.62006">
        <ele>276</ele>
        <time>2021-10-07T07:34:24Z</time>
      </trkpt>
      <trkpt lat="46.75309" lon="5.62011">
        <ele>276.7</ele>
        <time>2021-10-07T07:34:30Z</time>
      </trkpt>
      <trkpt lat="46.75307" lon="5.62016">
        <ele>277.1</ele>
        <time>2021-10-07T07:34:36Z</time>
      </trkpt>
      <trkpt lat="46.75303" lon="5.62021">
        <ele>277.2</ele>
        <time>2021-10-07T07:34:43Z</time>
      </trkpt>
      <trkpt lat="46.75299" lon="5.62023">
        <ele>276.8</ele>
        <time>2021-10-07T07:34:51Z</time>
      </trkpt>
      <trkpt lat="46.75294" lon="5.62028">
        <ele>276.6</ele>
        <time>2021-10-07T07:34:59Z</time>
      </trkpt>
      <trkpt lat="46.75291" lon="5.62033">
        <ele>276.1</ele>
        <time>2021-10-07T07:35:06Z</time>
      </trkpt>
      <trkpt lat="46.75287" lon="5.62038">
        <ele>275.8</ele>
        <time>2021-10-07T07:35:13Z</time>
      </trkpt>
      <trkpt lat="46.75284" lon="5.62043">
        <ele>275.5</ele>
        <time>2021-10-07T07:35:19Z</time>
      </trkpt>
      <trkpt lat="46.7528" lon="5.62048">
        <ele>274.6</ele>
        <time>2021-10-07T07:35:25Z</time>
      </trkpt>
      <trkpt lat="46.75278" lon="5.62053">
        <ele>273.9</ele>
        <time>2021-10-07T07:35:30Z</time>
      </trkpt>
      <trkpt lat="46.75273" lon="5.62057">
        <ele>273.2</ele>
        <time>2021-10-07T07:35:36Z</time>
      </trkpt>
      <trkpt lat="46.7527" lon="5.62062">
        <ele>272.6</ele>
        <time>2021-10-07T07:35:42Z</time>
      </trkpt>
      <trkpt lat="46.75266" lon="5.62067">
        <ele>272.3</ele>
        <time>2021-10-07T07:35:47Z</time>
      </trkpt>
      <trkpt lat="46.75263" lon="5.62073">
        <ele>272.2</ele>
        <time>2021-10-07T07:35:52Z</time>
      </trkpt>
      <trkpt lat="46.7526" lon="5.62078">
        <ele>272.4</ele>
        <time>2021-10-07T07:35:57Z</time>
      </trkpt>
      <trkpt lat="46.75257" lon="5.62083">
        <ele>273</ele>
        <time>2021-10-07T07:36:03Z</time>
      </trkpt>
      <trkpt lat="46.75253" lon="5.62088">
        <ele>273.3</ele>
        <time>2021-10-07T07:36:09Z</time>
      </trkpt>
      <trkpt lat="46.7525" lon="5.62093">
        <ele>273.3</ele>
        <time>2021-10-07T07:36:14Z</time>
      </trkpt>
      <trkpt lat="46.75247" lon="5.62098">
        <ele>273.6</ele>
        <time>2021-10-07T07:36:20Z</time>
      </trkpt>
      <trkpt lat="46.75242" lon="5.62102">
        <ele>274</ele>
        <time>2021-10-07T07:36:25Z</time>
      </trkpt>
      <trkpt lat="46.75238" lon="5.62106">
        <ele>273.7</ele>
        <time>2021-10-07T07:36:31Z</time>
      </trkpt>
      <trkpt lat="46.75236" lon="5.62112">
        <ele>273.5</ele>
        <time>2021-10-07T07:36:36Z</time>
      </trkpt>
      <trkpt lat="46.75232" lon="5.62117">
        <ele>273.2</ele>
        <time>2021-10-07T07:36:41Z</time>
      </trkpt>
      <trkpt lat="46.75229" lon="5.62122">
        <ele>272.6</ele>
        <time>2021-10-07T07:36:46Z</time>
      </trkpt>
      <trkpt lat="46.75225" lon="5.62126">
        <ele>272.7</ele>
        <time>2021-10-07T07:36:50Z</time>
      </trkpt>
      <trkpt lat="46.75222" lon="5.62131">
        <ele>272.7</ele>
        <time>2021-10-07T07:36:55Z</time>
      </trkpt>
      <trkpt lat="46.75218" lon="5.62137">
        <ele>272.7</ele>
        <time>2021-10-07T07:37:00Z</time>
      </trkpt>
      <trkpt lat="46.75215" lon="5.62142">
        <ele>272.5</ele>
        <time>2021-10-07T07:37:05Z</time>
      </trkpt>
      <trkpt lat="46.75213" lon="5.62148">
        <ele>272.3</ele>
        <time>2021-10-07T07:37:09Z</time>
      </trkpt>
      <trkpt lat="46.75209" lon="5.62152">
        <ele>272.3</ele>
        <time>2021-10-07T07:37:14Z</time>
      </trkpt>
      <trkpt lat="46.75206" lon="5.62158">
        <ele>272.5</ele>
        <time>2021-10-07T07:37:20Z</time>
      </trkpt>
      <trkpt lat="46.75204" lon="5.62164">
        <ele>272.8</ele>
        <time>2021-10-07T07:37:26Z</time>
      </trkpt>
      <trkpt lat="46.75202" lon="5.62171">
        <ele>273.3</ele>
        <time>2021-10-07T07:37:32Z</time>
      </trkpt>
      <trkpt lat="46.752" lon="5.62178">
        <ele>273.9</ele>
        <time>2021-10-07T07:37:38Z</time>
      </trkpt>
      <trkpt lat="46.75197" lon="5.62183">
        <ele>274.3</ele>
        <time>2021-10-07T07:37:44Z</time>
      </trkpt>
      <trkpt lat="46.75194" lon="5.62188">
        <ele>274.8</ele>
        <time>2021-10-07T07:37:50Z</time>
      </trkpt>
      <trkpt lat="46.75191" lon="5.62193">
        <ele>275.5</ele>
        <time>2021-10-07T07:37:56Z</time>
      </trkpt>
      <trkpt lat="46.75189" lon="5.62199">
        <ele>276.2</ele>
        <time>2021-10-07T07:38:02Z</time>
      </trkpt>
      <trkpt lat="46.75186" lon="5.62205">
        <ele>276.7</ele>
        <time>2021-10-07T07:38:08Z</time>
      </trkpt>
      <trkpt lat="46.75183" lon="5.62211">
        <ele>277.4</ele>
        <time>2021-10-07T07:38:14Z</time>
      </trkpt>
      <trkpt lat="46.7518" lon="5.62216">
        <ele>278.4</ele>
        <time>2021-10-07T07:38:20Z</time>
      </trkpt>
      <trkpt lat="46.75176" lon="5.62221">
        <ele>279.3</ele>
        <time>2021-10-07T07:38:26Z</time>
      </trkpt>
      <trkpt lat="46.75173" lon="5.62226">
        <ele>280.1</ele>
        <time>2021-10-07T07:38:32Z</time>
      </trkpt>
      <trkpt lat="46.75169" lon="5.6223">
        <ele>280.9</ele>
        <time>2021-10-07T07:38:37Z</time>
      </trkpt>
      <trkpt lat="46.75165" lon="5.62235">
        <ele>282.1</ele>
        <time>2021-10-07T07:38:43Z</time>
      </trkpt>
      <trkpt lat="46.75162" lon="5.62241">
        <ele>283.2</ele>
        <time>2021-10-07T07:38:48Z</time>
      </trkpt>
      <trkpt lat="46.75158" lon="5.62246">
        <ele>284.5</ele>
        <time>2021-10-07T07:38:54Z</time>
      </trkpt>
      <trkpt lat="46.75155" lon="5.62252">
        <ele>285.6</ele>
        <time>2021-10-07T07:39:00Z</time>
      </trkpt>
      <trkpt lat="46.75151" lon="5.62256">
        <ele>286.2</ele>
        <time>2021-10-07T07:39:05Z</time>
      </trkpt>
      <trkpt lat="46.75147" lon="5.62261">
        <ele>286.3</ele>
        <time>2021-10-07T07:39:10Z</time>
      </trkpt>
      <trkpt lat="46.75143" lon="5.62266">
        <ele>286.2</ele>
        <time>2021-10-07T07:39:15Z</time>
      </trkpt>
      <trkpt lat="46.7514" lon="5.6227">
        <ele>286.5</ele>
        <time>2021-10-07T07:39:20Z</time>
      </trkpt>
      <trkpt lat="46.75136" lon="5.62275">
        <ele>286.8</ele>
        <time>2021-10-07T07:39:25Z</time>
      </trkpt>
      <trkpt lat="46.75132" lon="5.62279">
        <ele>287.1</ele>
        <time>2021-10-07T07:39:30Z</time>
      </trkpt>
      <trkpt lat="46.75129" lon="5.62284">
        <ele>287.4</ele>
        <time>2021-10-07T07:39:36Z</time>
      </trkpt>
      <trkpt lat="46.75125" lon="5.62288">
        <ele>287.5</ele>
        <time>2021-10-07T07:39:42Z</time>
      </trkpt>
      <trkpt lat="46.7512" lon="5.62292">
        <ele>287.5</ele>
        <time>2021-10-07T07:39:48Z</time>
      </trkpt>
      <trkpt lat="46.75118" lon="5.62299">
        <ele>287.2</ele>
        <time>2021-10-07T07:39:54Z</time>
      </trkpt>
      <trkpt lat="46.75119" lon="5.62306">
        <ele>286.9</ele>
        <time>2021-10-07T07:40:00Z</time>
      </trkpt>
      <trkpt lat="46.75121" lon="5.62313">
        <ele>286.7</ele>
        <time>2021-10-07T07:40:05Z</time>
      </trkpt>
      <trkpt lat="46.75123" lon="5.62318">
        <ele>286.5</ele>
        <time>2021-10-07T07:40:11Z</time>
      </trkpt>
      <trkpt lat="46.75126" lon="5.62324">
        <ele>286.5</ele>
        <time>2021-10-07T07:40:16Z</time>
      </trkpt>
      <trkpt lat="46.75128" lon="5.62331">
        <ele>286.6</ele>
        <time>2021-10-07T07:40:23Z</time>
      </trkpt>
      <trkpt lat="46.7513" lon="5.62337">
        <ele>286.9</ele>
        <time>2021-10-07T07:40:29Z</time>
      </trkpt>
      <trkpt lat="46.75132" lon="5.62342">
        <ele>287.4</ele>
        <time>2021-10-07T07:40:35Z</time>
      </trkpt>
      <trkpt lat="46.75134" lon="5.62349">
        <ele>287.9</ele>
        <time>2021-10-07T07:40:42Z</time>
      </trkpt>
      <trkpt lat="46.75137" lon="5.62355">
        <ele>288.4</ele>
        <time>2021-10-07T07:40:48Z</time>
      </trkpt>
      <trkpt lat="46.75139" lon="5.6236">
        <ele>288.9</ele>
        <time>2021-10-07T07:40:53Z</time>
      </trkpt>
      <trkpt lat="46.75142" lon="5.62367">
        <ele>289.9</ele>
        <time>2021-10-07T07:40:59Z</time>
      </trkpt>
      <trkpt lat="46.75144" lon="5.62373">
        <ele>291</ele>
        <time>2021-10-07T07:41:05Z</time>
      </trkpt>
      <trkpt lat="46.75146" lon="5.6238">
        <ele>292.1</ele>
        <time>2021-10-07T07:41:11Z</time>
      </trkpt>
      <trkpt lat="46.75147" lon="5.62387">
        <ele>293.2</ele>
        <time>2021-10-07T07:41:18Z</time>
      </trkpt>
      <trkpt lat="46.75145" lon="5.62394">
        <ele>294.3</ele>
        <time>2021-10-07T07:41:26Z</time>
      </trkpt>
      <trkpt lat="46.75142" lon="5.62399">
        <ele>295.1</ele>
        <time>2021-10-07T07:41:32Z</time>
      </trkpt>
      <trkpt lat="46.75139" lon="5.62404">
        <ele>296.3</ele>
        <time>2021-10-07T07:41:38Z</time>
      </trkpt>
      <trkpt lat="46.75134" lon="5.62407">
        <ele>297.6</ele>
        <time>2021-10-07T07:41:44Z</time>
      </trkpt>
      <trkpt lat="46.7513" lon="5.62411">
        <ele>298.7</ele>
        <time>2021-10-07T07:41:49Z</time>
      </trkpt>
      <trkpt lat="46.75126" lon="5.62416">
        <ele>299.6</ele>
        <time>2021-10-07T07:41:54Z</time>
      </trkpt>
      <trkpt lat="46.75122" lon="5.62419">
        <ele>300.4</ele>
        <time>2021-10-07T07:41:59Z</time>
      </trkpt>
      <trkpt lat="46.75118" lon="5.62422">
        <ele>301.9</ele>
        <time>2021-10-07T07:42:06Z</time>
      </trkpt>
      <trkpt lat="46.75113" lon="5.62426">
        <ele>303.4</ele>
        <time>2021-10-07T07:42:12Z</time>
      </trkpt>
      <trkpt lat="46.75108" lon="5.6243">
        <ele>303.9</ele>
        <time>2021-10-07T07:42:17Z</time>
      </trkpt>
      <trkpt lat="46.75104" lon="5.62433">
        <ele>303.8</ele>
        <time>2021-10-07T07:42:22Z</time>
      </trkpt>
      <trkpt lat="46.751" lon="5.62437">
        <ele>303.9</ele>
        <time>2021-10-07T07:42:28Z</time>
      </trkpt>
      <trkpt lat="46.75095" lon="5.6244">
        <ele>304.1</ele>
        <time>2021-10-07T07:42:34Z</time>
      </trkpt>
      <trkpt lat="46.7509" lon="5.62443">
        <ele>304.2</ele>
        <time>2021-10-07T07:42:40Z</time>
      </trkpt>
      <trkpt lat="46.75087" lon="5.62449">
        <ele>304.4</ele>
        <time>2021-10-07T07:42:47Z</time>
      </trkpt>
      <trkpt lat="46.75082" lon="5.62452">
        <ele>304.9</ele>
        <time>2021-10-07T07:42:53Z</time>
      </trkpt>
      <trkpt lat="46.75077" lon="5.62455">
        <ele>304.8</ele>
        <time>2021-10-07T07:42:59Z</time>
      </trkpt>
      <trkpt lat="46.75073" lon="5.62456">
        <ele>305.2</ele>
        <time>2021-10-07T07:43:05Z</time>
      </trkpt>
      <trkpt lat="46.75067" lon="5.62455">
        <ele>305.5</ele>
        <time>2021-10-07T07:43:10Z</time>
      </trkpt>
      <trkpt lat="46.75063" lon="5.62457">
        <ele>305.7</ele>
        <time>2021-10-07T07:43:15Z</time>
      </trkpt>
      <trkpt lat="46.75058" lon="5.62458">
        <ele>306.4</ele>
        <time>2021-10-07T07:43:20Z</time>
      </trkpt>
      <trkpt lat="46.75053" lon="5.6246">
        <ele>307.2</ele>
        <time>2021-10-07T07:43:25Z</time>
      </trkpt>
      <trkpt lat="46.75049" lon="5.62464">
        <ele>307.9</ele>
        <time>2021-10-07T07:43:30Z</time>
      </trkpt>
      <trkpt lat="46.75045" lon="5.62468">
        <ele>308.2</ele>
        <time>2021-10-07T07:43:35Z</time>
      </trkpt>
      <trkpt lat="46.75042" lon="5.62474">
        <ele>308.3</ele>
        <time>2021-10-07T07:43:41Z</time>
      </trkpt>
      <trkpt lat="46.7504" lon="5.6248">
        <ele>308.3</ele>
        <time>2021-10-07T07:43:47Z</time>
      </trkpt>
      <trkpt lat="46.75038" lon="5.62487">
        <ele>308.1</ele>
        <time>2021-10-07T07:43:52Z</time>
      </trkpt>
      <trkpt lat="46.75038" lon="5.62495">
        <ele>308.1</ele>
        <time>2021-10-07T07:43:57Z</time>
      </trkpt>
      <trkpt lat="46.75037" lon="5.62502">
        <ele>308.2</ele>
        <time>2021-10-07T07:44:02Z</time>
      </trkpt>
      <trkpt lat="46.75036" lon="5.62508">
        <ele>308.2</ele>
        <time>2021-10-07T07:44:07Z</time>
      </trkpt>
      <trkpt lat="46.75032" lon="5.62514">
        <ele>308.4</ele>
        <time>2021-10-07T07:44:13Z</time>
      </trkpt>
      <trkpt lat="46.75029" lon="5.62519">
        <ele>308.7</ele>
        <time>2021-10-07T07:44:18Z</time>
      </trkpt>
      <trkpt lat="46.75026" lon="5.62524">
        <ele>309.3</ele>
        <time>2021-10-07T07:44:23Z</time>
      </trkpt>
      <trkpt lat="46.75023" lon="5.6253">
        <ele>310.1</ele>
        <time>2021-10-07T07:44:28Z</time>
      </trkpt>
      <trkpt lat="46.7502" lon="5.62535">
        <ele>310.7</ele>
        <time>2021-10-07T07:44:34Z</time>
      </trkpt>
      <trkpt lat="46.75017" lon="5.6254">
        <ele>311.2</ele>
        <time>2021-10-07T07:44:39Z</time>
      </trkpt>
      <trkpt lat="46.75014" lon="5.62547">
        <ele>312.1</ele>
        <time>2021-10-07T07:44:45Z</time>
      </trkpt>
      <trkpt lat="46.75012" lon="5.62553">
        <ele>312.8</ele>
        <time>2021-10-07T07:44:50Z</time>
      </trkpt>
      <trkpt lat="46.75012" lon="5.6256">
        <ele>313.8</ele>
        <time>2021-10-07T07:44:57Z</time>
      </trkpt>
      <trkpt lat="46.75013" lon="5.62566">
        <ele>314.5</ele>
        <time>2021-10-07T07:45:04Z</time>
      </trkpt>
      <trkpt lat="46.75015" lon="5.62572">
        <ele>315.2</ele>
        <time>2021-10-07T07:45:12Z</time>
      </trkpt>
      <trkpt lat="46.75019" lon="5.62576">
        <ele>315.9</ele>
        <time>2021-10-07T07:45:19Z</time>
      </trkpt>
      <trkpt lat="46.75023" lon="5.6258">
        <ele>316.6</ele>
        <time>2021-10-07T07:45:25Z</time>
      </trkpt>
      <trkpt lat="46.75028" lon="5.62582">
        <ele>317.5</ele>
        <time>2021-10-07T07:45:32Z</time>
      </trkpt>
      <trkpt lat="46.75033" lon="5.62585">
        <ele>318.3</ele>
        <time>2021-10-07T07:45:39Z</time>
      </trkpt>
      <trkpt lat="46.75037" lon="5.62587">
        <ele>319</ele>
        <time>2021-10-07T07:45:48Z</time>
      </trkpt>
      <trkpt lat="46.75041" lon="5.6259">
        <ele>319.5</ele>
        <time>2021-10-07T07:45:54Z</time>
      </trkpt>
      <trkpt lat="46.75046" lon="5.62592">
        <ele>320.1</ele>
        <time>2021-10-07T07:45:59Z</time>
      </trkpt>
      <trkpt lat="46.7505" lon="5.62594">
        <ele>320.8</ele>
        <time>2021-10-07T07:46:04Z</time>
      </trkpt>
      <trkpt lat="46.75056" lon="5.62595">
        <ele>321.7</ele>
        <time>2021-10-07T07:46:09Z</time>
      </trkpt>
      <trkpt lat="46.75061" lon="5.62597">
        <ele>323</ele>
        <time>2021-10-07T07:46:15Z</time>
      </trkpt>
      <trkpt lat="46.75065" lon="5.62597">
        <ele>324.1</ele>
        <time>2021-10-07T07:46:20Z</time>
      </trkpt>
      <trkpt lat="46.7507" lon="5.62595">
        <ele>325.2</ele>
        <time>2021-10-07T07:46:25Z</time>
      </trkpt>
      <trkpt lat="46.75075" lon="5.62593">
        <ele>326.2</ele>
        <time>2021-10-07T07:46:30Z</time>
      </trkpt>
      <trkpt lat="46.75079" lon="5.6259">
        <ele>326.9</ele>
        <time>2021-10-07T07:46:36Z</time>
      </trkpt>
      <trkpt lat="46.75084" lon="5.62592">
        <ele>327.9</ele>
        <time>2021-10-07T07:46:43Z</time>
      </trkpt>
      <trkpt lat="46.75088" lon="5.62596">
        <ele>328.3</ele>
        <time>2021-10-07T07:46:48Z</time>
      </trkpt>
      <trkpt lat="46.75093" lon="5.62601">
        <ele>328.6</ele>
        <time>2021-10-07T07:46:54Z</time>
      </trkpt>
      <trkpt lat="46.75095" lon="5.62607">
        <ele>328.8</ele>
        <time>2021-10-07T07:46:59Z</time>
      </trkpt>
      <trkpt lat="46.75096" lon="5.62614">
        <ele>328.8</ele>
        <time>2021-10-07T07:47:04Z</time>
      </trkpt>
      <trkpt lat="46.75097" lon="5.62622">
        <ele>328.4</ele>
        <time>2021-10-07T07:47:10Z</time>
      </trkpt>
      <trkpt lat="46.75097" lon="5.62629">
        <ele>328.1</ele>
        <time>2021-10-07T07:47:16Z</time>
      </trkpt>
      <trkpt lat="46.75099" lon="5.62635">
        <ele>328.2</ele>
        <time>2021-10-07T07:47:21Z</time>
      </trkpt>
      <trkpt lat="46.75099" lon="5.62642">
        <ele>328.1</ele>
        <time>2021-10-07T07:47:26Z</time>
      </trkpt>
      <trkpt lat="46.75098" lon="5.62649">
        <ele>327.9</ele>
        <time>2021-10-07T07:47:35Z</time>
      </trkpt>
      <trkpt lat="46.75098" lon="5.62656">
        <ele>328</ele>
        <time>2021-10-07T07:47:40Z</time>
      </trkpt>
      <trkpt lat="46.75099" lon="5.62662">
        <ele>328.2</ele>
        <time>2021-10-07T07:47:45Z</time>
      </trkpt>
      <trkpt lat="46.75099" lon="5.6267">
        <ele>328.3</ele>
        <time>2021-10-07T07:47:51Z</time>
      </trkpt>
      <trkpt lat="46.751" lon="5.62677">
        <ele>328.4</ele>
        <time>2021-10-07T07:47:57Z</time>
      </trkpt>
      <trkpt lat="46.75101" lon="5.62684">
        <ele>328.4</ele>
        <time>2021-10-07T07:48:02Z</time>
      </trkpt>
      <trkpt lat="46.75103" lon="5.6269">
        <ele>328.8</ele>
        <time>2021-10-07T07:48:07Z</time>
      </trkpt>
      <trkpt lat="46.75105" lon="5.62697">
        <ele>329.6</ele>
        <time>2021-10-07T07:48:13Z</time>
      </trkpt>
      <trkpt lat="46.75105" lon="5.62704">
        <ele>330.1</ele>
        <time>2021-10-07T07:48:19Z</time>
      </trkpt>
      <trkpt lat="46.75103" lon="5.62711">
        <ele>330.9</ele>
        <time>2021-10-07T07:48:26Z</time>
      </trkpt>
      <trkpt lat="46.75104" lon="5.62718">
        <ele>331.1</ele>
        <time>2021-10-07T07:48:32Z</time>
      </trkpt>
      <trkpt lat="46.75104" lon="5.62725">
        <ele>330.8</ele>
        <time>2021-10-07T07:48:38Z</time>
      </trkpt>
      <trkpt lat="46.75103" lon="5.62732">
        <ele>330.4</ele>
        <time>2021-10-07T07:48:43Z</time>
      </trkpt>
      <trkpt lat="46.75104" lon="5.6274">
        <ele>330.5</ele>
        <time>2021-10-07T07:48:48Z</time>
      </trkpt>
      <trkpt lat="46.75103" lon="5.62747">
        <ele>330.3</ele>
        <time>2021-10-07T07:48:54Z</time>
      </trkpt>
      <trkpt lat="46.75103" lon="5.62753">
        <ele>329.1</ele>
        <time>2021-10-07T07:49:00Z</time>
      </trkpt>
      <trkpt lat="46.75102" lon="5.62761">
        <ele>328.2</ele>
        <time>2021-10-07T07:49:05Z</time>
      </trkpt>
      <trkpt lat="46.75102" lon="5.62769">
        <ele>327.2</ele>
        <time>2021-10-07T07:49:11Z</time>
      </trkpt>
      <trkpt lat="46.75101" lon="5.62775">
        <ele>326.9</ele>
        <time>2021-10-07T07:49:15Z</time>
      </trkpt>
      <trkpt lat="46.751" lon="5.62784">
        <ele>327.3</ele>
        <time>2021-10-07T07:49:20Z</time>
      </trkpt>
      <trkpt lat="46.751" lon="5.6279">
        <ele>327.8</ele>
        <time>2021-10-07T07:49:24Z</time>
      </trkpt>
      <trkpt lat="46.75099" lon="5.62797">
        <ele>328.8</ele>
        <time>2021-10-07T07:49:30Z</time>
      </trkpt>
      <trkpt lat="46.75098" lon="5.62804">
        <ele>329.7</ele>
        <time>2021-10-07T07:49:36Z</time>
      </trkpt>
      <trkpt lat="46.75098" lon="5.62811">
        <ele>331</ele>
        <time>2021-10-07T07:49:42Z</time>
      </trkpt>
      <trkpt lat="46.751" lon="5.62818">
        <ele>332.3</ele>
        <time>2021-10-07T07:49:49Z</time>
      </trkpt>
      <trkpt lat="46.751" lon="5.62826">
        <ele>332.9</ele>
        <time>2021-10-07T07:49:55Z</time>
      </trkpt>
      <trkpt lat="46.75101" lon="5.62833">
        <ele>333.3</ele>
        <time>2021-10-07T07:50:02Z</time>
      </trkpt>
      <trkpt lat="46.75102" lon="5.6284">
        <ele>333.7</ele>
        <time>2021-10-07T07:50:07Z</time>
      </trkpt>
      <trkpt lat="46.75105" lon="5.62846">
        <ele>334.3</ele>
        <time>2021-10-07T07:50:12Z</time>
      </trkpt>
      <trkpt lat="46.75107" lon="5.62852">
        <ele>335.3</ele>
        <time>2021-10-07T07:50:17Z</time>
      </trkpt>
      <trkpt lat="46.75109" lon="5.62859">
        <ele>336.3</ele>
        <time>2021-10-07T07:50:22Z</time>
      </trkpt>
      <trkpt lat="46.7511" lon="5.62867">
        <ele>337</ele>
        <time>2021-10-07T07:50:27Z</time>
      </trkpt>
      <trkpt lat="46.75113" lon="5.62873">
        <ele>337.6</ele>
        <time>2021-10-07T07:50:31Z</time>
      </trkpt>
      <trkpt lat="46.75114" lon="5.6288">
        <ele>338.6</ele>
        <time>2021-10-07T07:50:35Z</time>
      </trkpt>
      <trkpt lat="46.75112" lon="5.62886">
        <ele>339.5</ele>
        <time>2021-10-07T07:50:39Z</time>
      </trkpt>
      <trkpt lat="46.75109" lon="5.62892">
        <ele>340.7</ele>
        <time>2021-10-07T07:50:44Z</time>
      </trkpt>
      <trkpt lat="46.75105" lon="5.62895">
        <ele>342.8</ele>
        <time>2021-10-07T07:50:50Z</time>
      </trkpt>
      <trkpt lat="46.75099" lon="5.62894">
        <ele>344</ele>
        <time>2021-10-07T07:50:55Z</time>
      </trkpt>
      <trkpt lat="46.75094" lon="5.62892">
        <ele>344.9</ele>
        <time>2021-10-07T07:51:00Z</time>
      </trkpt>
      <trkpt lat="46.7509" lon="5.6289">
        <ele>345.7</ele>
        <time>2021-10-07T07:51:04Z</time>
      </trkpt>
      <trkpt lat="46.75086" lon="5.62887">
        <ele>346.6</ele>
        <time>2021-10-07T07:51:09Z</time>
      </trkpt>
      <trkpt lat="46.75082" lon="5.62884">
        <ele>347.4</ele>
        <time>2021-10-07T07:51:14Z</time>
      </trkpt>
      <trkpt lat="46.75077" lon="5.62881">
        <ele>347.5</ele>
        <time>2021-10-07T07:51:19Z</time>
      </trkpt>
      <trkpt lat="46.75072" lon="5.6288">
        <ele>347.7</ele>
        <time>2021-10-07T07:51:24Z</time>
      </trkpt>
      <trkpt lat="46.75067" lon="5.62878">
        <ele>348.1</ele>
        <time>2021-10-07T07:51:29Z</time>
      </trkpt>
      <trkpt lat="46.75063" lon="5.62875">
        <ele>348.3</ele>
        <time>2021-10-07T07:51:34Z</time>
      </trkpt>
      <trkpt lat="46.75058" lon="5.62873">
        <ele>348.1</ele>
        <time>2021-10-07T07:51:40Z</time>
      </trkpt>
      <trkpt lat="46.75053" lon="5.62872">
        <ele>347.6</ele>
        <time>2021-10-07T07:51:46Z</time>
      </trkpt>
      <trkpt lat="46.75049" lon="5.6287">
        <ele>347.1</ele>
        <time>2021-10-07T07:51:52Z</time>
      </trkpt>
      <trkpt lat="46.75044" lon="5.62867">
        <ele>346.6</ele>
        <time>2021-10-07T07:51:58Z</time>
      </trkpt>
      <trkpt lat="46.7504" lon="5.62864">
        <ele>346</ele>
        <time>2021-10-07T07:52:04Z</time>
      </trkpt>
      <trkpt lat="46.7504" lon="5.62871">
        <ele>343.5</ele>
        <time>2021-10-07T07:52:15Z</time>
      </trkpt>
      <trkpt lat="46.75044" lon="5.62875">
        <ele>342.6</ele>
        <time>2021-10-07T07:52:19Z</time>
      </trkpt>
      <trkpt lat="46.75048" lon="5.62878">
        <ele>342.1</ele>
        <time>2021-10-07T07:52:23Z</time>
      </trkpt>
      <trkpt lat="46.75052" lon="5.62881">
        <ele>341.9</ele>
        <time>2021-10-07T07:52:29Z</time>
      </trkpt>
      <trkpt lat="46.75056" lon="5.62885">
        <ele>341.8</ele>
        <time>2021-10-07T07:52:35Z</time>
      </trkpt>
      <trkpt lat="46.7506" lon="5.62888">
        <ele>341</ele>
        <time>2021-10-07T07:52:43Z</time>
      </trkpt>
      <trkpt lat="46.75064" lon="5.62891">
        <ele>340.3</ele>
        <time>2021-10-07T07:52:48Z</time>
      </trkpt>
      <trkpt lat="46.75069" lon="5.62894">
        <ele>339.3</ele>
        <time>2021-10-07T07:52:55Z</time>
      </trkpt>
      <trkpt lat="46.75072" lon="5.62899">
        <ele>338.6</ele>
        <time>2021-10-07T07:53:00Z</time>
      </trkpt>
      <trkpt lat="46.75076" lon="5.62902">
        <ele>338.5</ele>
        <time>2021-10-07T07:53:06Z</time>
      </trkpt>
      <trkpt lat="46.7508" lon="5.62905">
        <ele>339.5</ele>
        <time>2021-10-07T07:53:13Z</time>
      </trkpt>
      <trkpt lat="46.75085" lon="5.62905">
        <ele>340.3</ele>
        <time>2021-10-07T07:53:19Z</time>
      </trkpt>
      <trkpt lat="46.7509" lon="5.62906">
        <ele>341.2</ele>
        <time>2021-10-07T07:53:25Z</time>
      </trkpt>
      <trkpt lat="46.75094" lon="5.6291">
        <ele>343.1</ele>
        <time>2021-10-07T07:53:34Z</time>
      </trkpt>
      <trkpt lat="46.75098" lon="5.62913">
        <ele>345.5</ele>
        <time>2021-10-07T07:53:41Z</time>
      </trkpt>
      <trkpt lat="46.75103" lon="5.62916">
        <ele>347.9</ele>
        <time>2021-10-07T07:53:49Z</time>
      </trkpt>
      <trkpt lat="46.75107" lon="5.62919">
        <ele>349.6</ele>
        <time>2021-10-07T07:53:55Z</time>
      </trkpt>
      <trkpt lat="46.75113" lon="5.62922">
        <ele>352</ele>
        <time>2021-10-07T07:54:27Z</time>
      </trkpt>
      <trkpt lat="46.75118" lon="5.62925">
        <ele>352.4</ele>
        <time>2021-10-07T07:54:30Z</time>
      </trkpt>
      <trkpt lat="46.75123" lon="5.62927">
        <ele>353</ele>
        <time>2021-10-07T07:54:33Z</time>
      </trkpt>
      <trkpt lat="46.75128" lon="5.6293">
        <ele>354</ele>
        <time>2021-10-07T07:54:37Z</time>
      </trkpt>
      <trkpt lat="46.75132" lon="5.62933">
        <ele>356.1</ele>
        <time>2021-10-07T07:54:43Z</time>
      </trkpt>
      <trkpt lat="46.75137" lon="5.62937">
        <ele>357.5</ele>
        <time>2021-10-07T07:54:49Z</time>
      </trkpt>
      <trkpt lat="46.7514" lon="5.62943">
        <ele>358.6</ele>
        <time>2021-10-07T07:54:55Z</time>
      </trkpt>
      <trkpt lat="46.75141" lon="5.62952">
        <ele>358.8</ele>
        <time>2021-10-07T07:55:00Z</time>
      </trkpt>
      <trkpt lat="46.75143" lon="5.62958">
        <ele>358.5</ele>
        <time>2021-10-07T07:55:07Z</time>
      </trkpt>
      <trkpt lat="46.75147" lon="5.62961">
        <ele>358.3</ele>
        <time>2021-10-07T07:55:12Z</time>
      </trkpt>
      <trkpt lat="46.75151" lon="5.62962">
        <ele>358</ele>
        <time>2021-10-07T07:55:18Z</time>
      </trkpt>
      <trkpt lat="46.75156" lon="5.62961">
        <ele>358.1</ele>
        <time>2021-10-07T07:55:28Z</time>
      </trkpt>
      <trkpt lat="46.75161" lon="5.62963">
        <ele>359.3</ele>
        <time>2021-10-07T07:55:38Z</time>
      </trkpt>
      <trkpt lat="46.75165" lon="5.62966">
        <ele>360.6</ele>
        <time>2021-10-07T07:55:46Z</time>
      </trkpt>
      <trkpt lat="46.75169" lon="5.62971">
        <ele>361.9</ele>
        <time>2021-10-07T07:55:54Z</time>
      </trkpt>
      <trkpt lat="46.75172" lon="5.62976">
        <ele>362.4</ele>
        <time>2021-10-07T07:55:59Z</time>
      </trkpt>
      <trkpt lat="46.75175" lon="5.62981">
        <ele>362.9</ele>
        <time>2021-10-07T07:56:04Z</time>
      </trkpt>
      <trkpt lat="46.75179" lon="5.62987">
        <ele>362.9</ele>
        <time>2021-10-07T07:56:14Z</time>
      </trkpt>
      <trkpt lat="46.75184" lon="5.6299">
        <ele>364</ele>
        <time>2021-10-07T07:56:19Z</time>
      </trkpt>
      <trkpt lat="46.75186" lon="5.62997">
        <ele>366.9</ele>
        <time>2021-10-07T07:56:32Z</time>
      </trkpt>
      <trkpt lat="46.7519" lon="5.63">
        <ele>367.6</ele>
        <time>2021-10-07T07:56:39Z</time>
      </trkpt>
      <trkpt lat="46.75194" lon="5.63003">
        <ele>368.1</ele>
        <time>2021-10-07T07:56:45Z</time>
      </trkpt>
      <trkpt lat="46.75199" lon="5.63005">
        <ele>368.8</ele>
        <time>2021-10-07T07:56:49Z</time>
      </trkpt>
      <trkpt lat="46.75204" lon="5.63008">
        <ele>370.2</ele>
        <time>2021-10-07T07:56:54Z</time>
      </trkpt>
      <trkpt lat="46.75209" lon="5.63011">
        <ele>371.6</ele>
        <time>2021-10-07T07:57:00Z</time>
      </trkpt>
      <trkpt lat="46.75214" lon="5.63013">
        <ele>373.4</ele>
        <time>2021-10-07T07:57:07Z</time>
      </trkpt>
      <trkpt lat="46.75218" lon="5.63016">
        <ele>374.6</ele>
        <time>2021-10-07T07:57:11Z</time>
      </trkpt>
      <trkpt lat="46.75222" lon="5.6302">
        <ele>376.2</ele>
        <time>2021-10-07T07:57:16Z</time>
      </trkpt>
      <trkpt lat="46.75226" lon="5.63025">
        <ele>378.3</ele>
        <time>2021-10-07T07:57:24Z</time>
      </trkpt>
      <trkpt lat="46.75226" lon="5.63031">
        <ele>378.9</ele>
        <time>2021-10-07T07:57:36Z</time>
      </trkpt>
      <trkpt lat="46.7523" lon="5.63036">
        <ele>378.6</ele>
        <time>2021-10-07T07:57:41Z</time>
      </trkpt>
      <trkpt lat="46.75231" lon="5.63042">
        <ele>378.6</ele>
        <time>2021-10-07T07:57:49Z</time>
      </trkpt>
      <trkpt lat="46.75233" lon="5.63049">
        <ele>378.2</ele>
        <time>2021-10-07T07:57:58Z</time>
      </trkpt>
      <trkpt lat="46.75235" lon="5.63054">
        <ele>378</ele>
        <time>2021-10-07T07:58:05Z</time>
      </trkpt>
      <trkpt lat="46.75238" lon="5.6306">
        <ele>378.5</ele>
        <time>2021-10-07T07:58:12Z</time>
      </trkpt>
      <trkpt lat="46.75243" lon="5.63063">
        <ele>379.3</ele>
        <time>2021-10-07T07:58:17Z</time>
      </trkpt>
      <trkpt lat="46.75246" lon="5.63068">
        <ele>380.8</ele>
        <time>2021-10-07T07:58:23Z</time>
      </trkpt>
      <trkpt lat="46.7525" lon="5.63072">
        <ele>382.9</ele>
        <time>2021-10-07T07:58:30Z</time>
      </trkpt>
      <trkpt lat="46.75245" lon="5.6307">
        <ele>384.7</ele>
        <time>2021-10-07T07:58:50Z</time>
      </trkpt>
      <trkpt lat="46.75249" lon="5.63072">
        <ele>385.4</ele>
        <time>2021-10-07T07:59:15Z</time>
      </trkpt>
      <trkpt lat="46.75254" lon="5.63071">
        <ele>386.6</ele>
        <time>2021-10-07T07:59:20Z</time>
      </trkpt>
      <trkpt lat="46.75256" lon="5.63077">
        <ele>388</ele>
        <time>2021-10-07T07:59:29Z</time>
      </trkpt>
      <trkpt lat="46.75257" lon="5.63084">
        <ele>389.7</ele>
        <time>2021-10-07T07:59:39Z</time>
      </trkpt>
      <trkpt lat="46.7526" lon="5.63089">
        <ele>390</ele>
        <time>2021-10-07T07:59:45Z</time>
      </trkpt>
      <trkpt lat="46.75264" lon="5.63093">
        <ele>390.5</ele>
        <time>2021-10-07T07:59:51Z</time>
      </trkpt>
      <trkpt lat="46.75264" lon="5.63099">
        <ele>391.2</ele>
        <time>2021-10-07T08:00:03Z</time>
      </trkpt>
      <trkpt lat="46.75267" lon="5.63106">
        <ele>391.4</ele>
        <time>2021-10-07T08:00:10Z</time>
      </trkpt>
      <trkpt lat="46.75269" lon="5.63112">
        <ele>391.1</ele>
        <time>2021-10-07T08:00:18Z</time>
      </trkpt>
      <trkpt lat="46.7527" lon="5.6312">
        <ele>390.8</ele>
        <time>2021-10-07T08:00:24Z</time>
      </trkpt>
      <trkpt lat="46.75264" lon="5.63122">
        <ele>390.1</ele>
        <time>2021-10-07T08:00:33Z</time>
      </trkpt>
      <trkpt lat="46.75263" lon="5.63129">
        <ele>389.2</ele>
        <time>2021-10-07T08:00:46Z</time>
      </trkpt>
      <trkpt lat="46.75266" lon="5.63136">
        <ele>389.1</ele>
        <time>2021-10-07T08:01:00Z</time>
      </trkpt>
      <trkpt lat="46.7527" lon="5.63138">
        <ele>389</ele>
        <time>2021-10-07T08:01:05Z</time>
      </trkpt>
      <trkpt lat="46.75274" lon="5.63142">
        <ele>388.9</ele>
        <time>2021-10-07T08:01:11Z</time>
      </trkpt>
      <trkpt lat="46.75277" lon="5.63149">
        <ele>388.8</ele>
        <time>2021-10-07T08:01:15Z</time>
      </trkpt>
      <trkpt lat="46.75279" lon="5.63155">
        <ele>389.1</ele>
        <time>2021-10-07T08:01:20Z</time>
      </trkpt>
      <trkpt lat="46.75283" lon="5.63161">
        <ele>389.8</ele>
        <time>2021-10-07T08:01:26Z</time>
      </trkpt>
      <trkpt lat="46.75284" lon="5.63169">
        <ele>390.7</ele>
        <time>2021-10-07T08:01:32Z</time>
      </trkpt>
      <trkpt lat="46.75282" lon="5.63176">
        <ele>391.9</ele>
        <time>2021-10-07T08:01:41Z</time>
      </trkpt>
      <trkpt lat="46.75286" lon="5.63181">
        <ele>392.8</ele>
        <time>2021-10-07T08:01:46Z</time>
      </trkpt>
      <trkpt lat="46.75289" lon="5.63185">
        <ele>393.6</ele>
        <time>2021-10-07T08:01:51Z</time>
      </trkpt>
      <trkpt lat="46.75292" lon="5.63192">
        <ele>394.4</ele>
        <time>2021-10-07T08:02:00Z</time>
      </trkpt>
      <trkpt lat="46.75296" lon="5.63195">
        <ele>394.7</ele>
        <time>2021-10-07T08:02:04Z</time>
      </trkpt>
      <trkpt lat="46.75298" lon="5.63201">
        <ele>395.1</ele>
        <time>2021-10-07T08:02:10Z</time>
      </trkpt>
      <trkpt lat="46.75296" lon="5.63206">
        <ele>396.2</ele>
        <time>2021-10-07T08:02:20Z</time>
      </trkpt>
      <trkpt lat="46.75297" lon="5.63213">
        <ele>397.8</ele>
        <time>2021-10-07T08:02:26Z</time>
      </trkpt>
      <trkpt lat="46.75293" lon="5.63216">
        <ele>400.6</ele>
        <time>2021-10-07T08:02:33Z</time>
      </trkpt>
      <trkpt lat="46.7529" lon="5.63222">
        <ele>403.8</ele>
        <time>2021-10-07T08:02:45Z</time>
      </trkpt>
      <trkpt lat="46.75288" lon="5.63229">
        <ele>405.7</ele>
        <time>2021-10-07T08:02:55Z</time>
      </trkpt>
      <trkpt lat="46.75291" lon="5.63235">
        <ele>407.1</ele>
        <time>2021-10-07T08:03:03Z</time>
      </trkpt>
      <trkpt lat="46.75295" lon="5.6324">
        <ele>408.5</ele>
        <time>2021-10-07T08:03:08Z</time>
      </trkpt>
      <trkpt lat="46.75296" lon="5.63247">
        <ele>409.9</ele>
        <time>2021-10-07T08:03:16Z</time>
      </trkpt>
      <trkpt lat="46.75295" lon="5.63254">
        <ele>410.2</ele>
        <time>2021-10-07T08:03:25Z</time>
      </trkpt>
      <trkpt lat="46.75297" lon="5.6326">
        <ele>411</ele>
        <time>2021-10-07T08:03:34Z</time>
      </trkpt>
      <trkpt lat="46.75296" lon="5.63267">
        <ele>411.5</ele>
        <time>2021-10-07T08:03:40Z</time>
      </trkpt>
      <trkpt lat="46.75294" lon="5.63273">
        <ele>411.4</ele>
        <time>2021-10-07T08:03:47Z</time>
      </trkpt>
      <trkpt lat="46.75293" lon="5.6328">
        <ele>411.6</ele>
        <time>2021-10-07T08:03:55Z</time>
      </trkpt>
      <trkpt lat="46.75292" lon="5.63286">
        <ele>412.3</ele>
        <time>2021-10-07T08:04:07Z</time>
      </trkpt>
      <trkpt lat="46.75293" lon="5.63293">
        <ele>413</ele>
        <time>2021-10-07T08:04:14Z</time>
      </trkpt>
      <trkpt lat="46.75296" lon="5.63298">
        <ele>414</ele>
        <time>2021-10-07T08:04:22Z</time>
      </trkpt>
      <trkpt lat="46.75298" lon="5.63305">
        <ele>415</ele>
        <time>2021-10-07T08:04:29Z</time>
      </trkpt>
      <trkpt lat="46.753" lon="5.63312">
        <ele>415.6</ele>
        <time>2021-10-07T08:04:39Z</time>
      </trkpt>
      <trkpt lat="46.75303" lon="5.63318">
        <ele>416.4</ele>
        <time>2021-10-07T08:04:46Z</time>
      </trkpt>
      <trkpt lat="46.75306" lon="5.63324">
        <ele>417.9</ele>
        <time>2021-10-07T08:04:52Z</time>
      </trkpt>
      <trkpt lat="46.75307" lon="5.63331">
        <ele>419.9</ele>
        <time>2021-10-07T08:05:01Z</time>
      </trkpt>
      <trkpt lat="46.75308" lon="5.63338">
        <ele>422.5</ele>
        <time>2021-10-07T08:05:12Z</time>
      </trkpt>
      <trkpt lat="46.7531" lon="5.63344">
        <ele>423.6</ele>
        <time>2021-10-07T08:05:17Z</time>
      </trkpt>
      <trkpt lat="46.7531" lon="5.6335">
        <ele>425.5</ele>
        <time>2021-10-07T08:05:25Z</time>
      </trkpt>
      <trkpt lat="46.75311" lon="5.63358">
        <ele>427.4</ele>
        <time>2021-10-07T08:05:41Z</time>
      </trkpt>
      <trkpt lat="46.75315" lon="5.63363">
        <ele>428.5</ele>
        <time>2021-10-07T08:05:46Z</time>
      </trkpt>
      <trkpt lat="46.75319" lon="5.63368">
        <ele>429.7</ele>
        <time>2021-10-07T08:05:50Z</time>
      </trkpt>
      <trkpt lat="46.75323" lon="5.63371">
        <ele>431.5</ele>
        <time>2021-10-07T08:05:55Z</time>
      </trkpt>
      <trkpt lat="46.75324" lon="5.63377">
        <ele>434.1</ele>
        <time>2021-10-07T08:06:10Z</time>
      </trkpt>
      <trkpt lat="46.75327" lon="5.63383">
        <ele>435.1</ele>
        <time>2021-10-07T08:06:18Z</time>
      </trkpt>
      <trkpt lat="46.75327" lon="5.6339">
        <ele>437.1</ele>
        <time>2021-10-07T08:06:34Z</time>
      </trkpt>
      <trkpt lat="46.7533" lon="5.63395">
        <ele>438.2</ele>
        <time>2021-10-07T08:06:41Z</time>
      </trkpt>
      <trkpt lat="46.75335" lon="5.634">
        <ele>440.2</ele>
        <time>2021-10-07T08:06:52Z</time>
      </trkpt>
      <trkpt lat="46.75338" lon="5.63404">
        <ele>441.2</ele>
        <time>2021-10-07T08:06:59Z</time>
      </trkpt>
      <trkpt lat="46.75341" lon="5.6341">
        <ele>441.9</ele>
        <time>2021-10-07T08:07:05Z</time>
      </trkpt>
      <trkpt lat="46.75344" lon="5.63415">
        <ele>442.4</ele>
        <time>2021-10-07T08:07:14Z</time>
      </trkpt>
      <trkpt lat="46.75346" lon="5.63423">
        <ele>442.4</ele>
        <time>2021-10-07T08:07:20Z</time>
      </trkpt>
      <trkpt lat="46.75347" lon="5.63429">
        <ele>441.5</ele>
        <time>2021-10-07T08:07:28Z</time>
      </trkpt>
      <trkpt lat="46.75349" lon="5.63434">
        <ele>441</ele>
        <time>2021-10-07T08:07:35Z</time>
      </trkpt>
      <trkpt lat="46.75352" lon="5.6344">
        <ele>441</ele>
        <time>2021-10-07T08:07:39Z</time>
      </trkpt>
      <trkpt lat="46.75356" lon="5.63444">
        <ele>440.8</ele>
        <time>2021-10-07T08:07:44Z</time>
      </trkpt>
      <trkpt lat="46.7536" lon="5.63449">
        <ele>441.3</ele>
        <time>2021-10-07T08:07:54Z</time>
      </trkpt>
      <trkpt lat="46.75362" lon="5.63454">
        <ele>442.4</ele>
        <time>2021-10-07T08:08:01Z</time>
      </trkpt>
      <trkpt lat="46.75365" lon="5.6346">
        <ele>444.5</ele>
        <time>2021-10-07T08:08:13Z</time>
      </trkpt>
      <trkpt lat="46.75367" lon="5.63466">
        <ele>445.7</ele>
        <time>2021-10-07T08:08:21Z</time>
      </trkpt>
      <trkpt lat="46.75372" lon="5.63463">
        <ele>446.4</ele>
        <time>2021-10-07T08:08:30Z</time>
      </trkpt>
      <trkpt lat="46.75377" lon="5.63459">
        <ele>447.1</ele>
        <time>2021-10-07T08:08:35Z</time>
      </trkpt>
      <trkpt lat="46.75382" lon="5.63458">
        <ele>447.8</ele>
        <time>2021-10-07T08:08:40Z</time>
      </trkpt>
      <trkpt lat="46.75385" lon="5.63453">
        <ele>451.2</ele>
        <time>2021-10-07T08:08:55Z</time>
      </trkpt>
      <trkpt lat="46.75388" lon="5.63459">
        <ele>453.6</ele>
        <time>2021-10-07T08:11:20Z</time>
      </trkpt>
      <trkpt lat="46.75384" lon="5.63455">
        <ele>454.7</ele>
        <time>2021-10-07T08:11:46Z</time>
      </trkpt>
      <trkpt lat="46.75381" lon="5.63447">
        <ele>455.4</ele>
        <time>2021-10-07T08:12:23Z</time>
      </trkpt>
      <trkpt lat="46.75385" lon="5.63449">
        <ele>457.3</ele>
        <time>2021-10-07T08:12:33Z</time>
      </trkpt>
      <trkpt lat="46.75383" lon="5.63443">
        <ele>456.9</ele>
        <time>2021-10-07T08:12:46Z</time>
      </trkpt>
      <trkpt lat="46.7538" lon="5.63437">
        <ele>456.6</ele>
        <time>2021-10-07T08:12:53Z</time>
      </trkpt>
      <trkpt lat="46.75379" lon="5.6343">
        <ele>456.4</ele>
        <time>2021-10-07T08:13:00Z</time>
      </trkpt>
      <trkpt lat="46.75379" lon="5.63423">
        <ele>455.9</ele>
        <time>2021-10-07T08:13:10Z</time>
      </trkpt>
      <trkpt lat="46.75379" lon="5.63416">
        <ele>455.6</ele>
        <time>2021-10-07T08:13:17Z</time>
      </trkpt>
      <trkpt lat="46.7538" lon="5.6341">
        <ele>455.1</ele>
        <time>2021-10-07T08:13:22Z</time>
      </trkpt>
      <trkpt lat="46.7538" lon="5.63403">
        <ele>454.9</ele>
        <time>2021-10-07T08:13:29Z</time>
      </trkpt>
      <trkpt lat="46.75381" lon="5.63396">
        <ele>454.7</ele>
        <time>2021-10-07T08:13:34Z</time>
      </trkpt>
      <trkpt lat="46.75382" lon="5.63389">
        <ele>454.3</ele>
        <time>2021-10-07T08:13:39Z</time>
      </trkpt>
      <trkpt lat="46.75384" lon="5.63383">
        <ele>453.8</ele>
        <time>2021-10-07T08:13:45Z</time>
      </trkpt>
      <trkpt lat="46.75385" lon="5.63375">
        <ele>453.1</ele>
        <time>2021-10-07T08:13:51Z</time>
      </trkpt>
      <trkpt lat="46.75385" lon="5.63368">
        <ele>452.3</ele>
        <time>2021-10-07T08:13:59Z</time>
      </trkpt>
      <trkpt lat="46.75387" lon="5.63362">
        <ele>452</ele>
        <time>2021-10-07T08:14:06Z</time>
      </trkpt>
      <trkpt lat="46.75389" lon="5.63355">
        <ele>452.2</ele>
        <time>2021-10-07T08:14:12Z</time>
      </trkpt>
      <trkpt lat="46.75391" lon="5.63348">
        <ele>451.7</ele>
        <time>2021-10-07T08:14:19Z</time>
      </trkpt>
      <trkpt lat="46.75393" lon="5.63342">
        <ele>451.6</ele>
        <time>2021-10-07T08:14:27Z</time>
      </trkpt>
      <trkpt lat="46.75397" lon="5.63338">
        <ele>451.6</ele>
        <time>2021-10-07T08:14:35Z</time>
      </trkpt>
      <trkpt lat="46.75401" lon="5.63334">
        <ele>451.3</ele>
        <time>2021-10-07T08:14:40Z</time>
      </trkpt>
      <trkpt lat="46.75405" lon="5.63328">
        <ele>450.3</ele>
        <time>2021-10-07T08:14:45Z</time>
      </trkpt>
      <trkpt lat="46.75407" lon="5.63321">
        <ele>449.4</ele>
        <time>2021-10-07T08:14:51Z</time>
      </trkpt>
      <trkpt lat="46.75409" lon="5.63314">
        <ele>448.7</ele>
        <time>2021-10-07T08:14:56Z</time>
      </trkpt>
      <trkpt lat="46.7541" lon="5.63307">
        <ele>448.6</ele>
        <time>2021-10-07T08:15:01Z</time>
      </trkpt>
      <trkpt lat="46.75414" lon="5.63302">
        <ele>448.5</ele>
        <time>2021-10-07T08:15:07Z</time>
      </trkpt>
      <trkpt lat="46.75418" lon="5.63298">
        <ele>448.4</ele>
        <time>2021-10-07T08:15:14Z</time>
      </trkpt>
      <trkpt lat="46.75421" lon="5.63293">
        <ele>448.6</ele>
        <time>2021-10-07T08:15:20Z</time>
      </trkpt>
      <trkpt lat="46.75424" lon="5.63287">
        <ele>449.2</ele>
        <time>2021-10-07T08:15:26Z</time>
      </trkpt>
      <trkpt lat="46.75426" lon="5.63279">
        <ele>449.7</ele>
        <time>2021-10-07T08:15:32Z</time>
      </trkpt>
      <trkpt lat="46.75427" lon="5.63272">
        <ele>450.3</ele>
        <time>2021-10-07T08:15:37Z</time>
      </trkpt>
      <trkpt lat="46.75431" lon="5.63267">
        <ele>450.8</ele>
        <time>2021-10-07T08:15:46Z</time>
      </trkpt>
      <trkpt lat="46.75434" lon="5.63261">
        <ele>450.2</ele>
        <time>2021-10-07T08:15:52Z</time>
      </trkpt>
      <trkpt lat="46.75434" lon="5.63253">
        <ele>450.1</ele>
        <time>2021-10-07T08:15:57Z</time>
      </trkpt>
      <trkpt lat="46.75434" lon="5.63246">
        <ele>450.2</ele>
        <time>2021-10-07T08:16:02Z</time>
      </trkpt>
      <trkpt lat="46.75435" lon="5.63239">
        <ele>450.7</ele>
        <time>2021-10-07T08:16:08Z</time>
      </trkpt>
      <trkpt lat="46.75435" lon="5.63232">
        <ele>451.3</ele>
        <time>2021-10-07T08:16:13Z</time>
      </trkpt>
      <trkpt lat="46.75434" lon="5.63225">
        <ele>451.3</ele>
        <time>2021-10-07T08:16:17Z</time>
      </trkpt>
      <trkpt lat="46.75435" lon="5.63218">
        <ele>451.3</ele>
        <time>2021-10-07T08:16:22Z</time>
      </trkpt>
      <trkpt lat="46.75435" lon="5.6321">
        <ele>451.2</ele>
        <time>2021-10-07T08:16:29Z</time>
      </trkpt>
      <trkpt lat="46.75435" lon="5.63204">
        <ele>451.1</ele>
        <time>2021-10-07T08:16:35Z</time>
      </trkpt>
      <trkpt lat="46.75436" lon="5.63197">
        <ele>451.4</ele>
        <time>2021-10-07T08:16:41Z</time>
      </trkpt>
      <trkpt lat="46.75438" lon="5.6319">
        <ele>451.3</ele>
        <time>2021-10-07T08:16:46Z</time>
      </trkpt>
      <trkpt lat="46.75436" lon="5.63183">
        <ele>451.2</ele>
        <time>2021-10-07T08:16:51Z</time>
      </trkpt>
      <trkpt lat="46.75435" lon="5.63176">
        <ele>451.2</ele>
        <time>2021-10-07T08:16:56Z</time>
      </trkpt>
      <trkpt lat="46.75433" lon="5.63169">
        <ele>451.3</ele>
        <time>2021-10-07T08:17:01Z</time>
      </trkpt>
      <trkpt lat="46.75434" lon="5.63162">
        <ele>451.1</ele>
        <time>2021-10-07T08:17:06Z</time>
      </trkpt>
      <trkpt lat="46.75432" lon="5.63154">
        <ele>451.2</ele>
        <time>2021-10-07T08:17:11Z</time>
      </trkpt>
      <trkpt lat="46.75431" lon="5.63147">
        <ele>452.1</ele>
        <time>2021-10-07T08:17:15Z</time>
      </trkpt>
      <trkpt lat="46.7543" lon="5.63139">
        <ele>453.6</ele>
        <time>2021-10-07T08:17:21Z</time>
      </trkpt>
      <trkpt lat="46.7543" lon="5.63132">
        <ele>454.4</ele>
        <time>2021-10-07T08:17:28Z</time>
      </trkpt>
      <trkpt lat="46.75429" lon="5.63125">
        <ele>453.7</ele>
        <time>2021-10-07T08:17:36Z</time>
      </trkpt>
      <trkpt lat="46.75427" lon="5.63119">
        <ele>453.6</ele>
        <time>2021-10-07T08:17:39Z</time>
      </trkpt>
      <trkpt lat="46.75426" lon="5.63113">
        <ele>453.2</ele>
        <time>2021-10-07T08:17:44Z</time>
      </trkpt>
      <trkpt lat="46.75424" lon="5.63103">
        <ele>452.1</ele>
        <time>2021-10-07T08:17:56Z</time>
      </trkpt>
      <trkpt lat="46.75421" lon="5.63095">
        <ele>452.3</ele>
        <time>2021-10-07T08:17:59Z</time>
      </trkpt>
      <trkpt lat="46.75419" lon="5.63088">
        <ele>452.8</ele>
        <time>2021-10-07T08:18:03Z</time>
      </trkpt>
      <trkpt lat="46.75418" lon="5.63081">
        <ele>453.5</ele>
        <time>2021-10-07T08:18:08Z</time>
      </trkpt>
      <trkpt lat="46.75416" lon="5.63074">
        <ele>454.5</ele>
        <time>2021-10-07T08:18:14Z</time>
      </trkpt>
      <trkpt lat="46.75416" lon="5.63067">
        <ele>454.9</ele>
        <time>2021-10-07T08:18:22Z</time>
      </trkpt>
      <trkpt lat="46.75417" lon="5.6306">
        <ele>454.6</ele>
        <time>2021-10-07T08:18:29Z</time>
      </trkpt>
      <trkpt lat="46.75419" lon="5.63054">
        <ele>454</ele>
        <time>2021-10-07T08:18:34Z</time>
      </trkpt>
      <trkpt lat="46.7542" lon="5.63047">
        <ele>452.7</ele>
        <time>2021-10-07T08:18:40Z</time>
      </trkpt>
      <trkpt lat="46.75422" lon="5.6304">
        <ele>452</ele>
        <time>2021-10-07T08:18:45Z</time>
      </trkpt>
      <trkpt lat="46.75422" lon="5.63034">
        <ele>451.9</ele>
        <time>2021-10-07T08:18:49Z</time>
      </trkpt>
      <trkpt lat="46.75424" lon="5.63027">
        <ele>452</ele>
        <time>2021-10-07T08:18:55Z</time>
      </trkpt>
      <trkpt lat="46.75423" lon="5.63019">
        <ele>452.4</ele>
        <time>2021-10-07T08:19:00Z</time>
      </trkpt>
      <trkpt lat="46.75421" lon="5.63012">
        <ele>452.7</ele>
        <time>2021-10-07T08:19:05Z</time>
      </trkpt>
      <trkpt lat="46.7542" lon="5.63004">
        <ele>453.1</ele>
        <time>2021-10-07T08:19:11Z</time>
      </trkpt>
      <trkpt lat="46.75417" lon="5.62998">
        <ele>453.5</ele>
        <time>2021-10-07T08:19:16Z</time>
      </trkpt>
      <trkpt lat="46.75416" lon="5.62991">
        <ele>454.1</ele>
        <time>2021-10-07T08:19:21Z</time>
      </trkpt>
      <trkpt lat="46.75416" lon="5.62984">
        <ele>454.4</ele>
        <time>2021-10-07T08:19:26Z</time>
      </trkpt>
      <trkpt lat="46.75416" lon="5.62977">
        <ele>454.5</ele>
        <time>2021-10-07T08:19:32Z</time>
      </trkpt>
      <trkpt lat="46.75416" lon="5.62969">
        <ele>455.1</ele>
        <time>2021-10-07T08:19:39Z</time>
      </trkpt>
      <trkpt lat="46.75414" lon="5.62962">
        <ele>455.8</ele>
        <time>2021-10-07T08:19:43Z</time>
      </trkpt>
      <trkpt lat="46.75412" lon="5.62955">
        <ele>456.8</ele>
        <time>2021-10-07T08:19:48Z</time>
      </trkpt>
      <trkpt lat="46.75411" lon="5.62949">
        <ele>457.5</ele>
        <time>2021-10-07T08:19:53Z</time>
      </trkpt>
      <trkpt lat="46.75408" lon="5.62943">
        <ele>457.9</ele>
        <time>2021-10-07T08:20:01Z</time>
      </trkpt>
      <trkpt lat="46.75405" lon="5.62937">
        <ele>459.1</ele>
        <time>2021-10-07T08:20:09Z</time>
      </trkpt>
      <trkpt lat="46.75402" lon="5.62932">
        <ele>460.1</ele>
        <time>2021-10-07T08:20:15Z</time>
      </trkpt>
      <trkpt lat="46.754" lon="5.62926">
        <ele>460.5</ele>
        <time>2021-10-07T08:20:21Z</time>
      </trkpt>
      <trkpt lat="46.75398" lon="5.6292">
        <ele>460.3</ele>
        <time>2021-10-07T08:20:26Z</time>
      </trkpt>
      <trkpt lat="46.75394" lon="5.62916">
        <ele>460</ele>
        <time>2021-10-07T08:20:36Z</time>
      </trkpt>
      <trkpt lat="46.75391" lon="5.6291">
        <ele>460.3</ele>
        <time>2021-10-07T08:20:42Z</time>
      </trkpt>
      <trkpt lat="46.75388" lon="5.62904">
        <ele>460.6</ele>
        <time>2021-10-07T08:20:48Z</time>
      </trkpt>
      <trkpt lat="46.75385" lon="5.62899">
        <ele>461.3</ele>
        <time>2021-10-07T08:20:54Z</time>
      </trkpt>
      <trkpt lat="46.75383" lon="5.62893">
        <ele>462.3</ele>
        <time>2021-10-07T08:21:00Z</time>
      </trkpt>
      <trkpt lat="46.7538" lon="5.62887">
        <ele>463.2</ele>
        <time>2021-10-07T08:21:06Z</time>
      </trkpt>
      <trkpt lat="46.75377" lon="5.62881">
        <ele>463.8</ele>
        <time>2021-10-07T08:21:12Z</time>
      </trkpt>
      <trkpt lat="46.75375" lon="5.62875">
        <ele>464</ele>
        <time>2021-10-07T08:21:17Z</time>
      </trkpt>
      <trkpt lat="46.75375" lon="5.62868">
        <ele>464.3</ele>
        <time>2021-10-07T08:21:22Z</time>
      </trkpt>
      <trkpt lat="46.75376" lon="5.62861">
        <ele>464.1</ele>
        <time>2021-10-07T08:21:27Z</time>
      </trkpt>
      <trkpt lat="46.75379" lon="5.62855">
        <ele>464.1</ele>
        <time>2021-10-07T08:21:32Z</time>
      </trkpt>
      <trkpt lat="46.75381" lon="5.62849">
        <ele>464.2</ele>
        <time>2021-10-07T08:21:37Z</time>
      </trkpt>
      <trkpt lat="46.75383" lon="5.62842">
        <ele>464.3</ele>
        <time>2021-10-07T08:21:42Z</time>
      </trkpt>
      <trkpt lat="46.75385" lon="5.62835">
        <ele>464.8</ele>
        <time>2021-10-07T08:21:49Z</time>
      </trkpt>
      <trkpt lat="46.75384" lon="5.62827">
        <ele>464.9</ele>
        <time>2021-10-07T08:21:55Z</time>
      </trkpt>
      <trkpt lat="46.75383" lon="5.6282">
        <ele>464.8</ele>
        <time>2021-10-07T08:22:01Z</time>
      </trkpt>
      <trkpt lat="46.75383" lon="5.62814">
        <ele>464.6</ele>
        <time>2021-10-07T08:22:08Z</time>
      </trkpt>
      <trkpt lat="46.75382" lon="5.62807">
        <ele>464.6</ele>
        <time>2021-10-07T08:22:14Z</time>
      </trkpt>
      <trkpt lat="46.7538" lon="5.628">
        <ele>464.5</ele>
        <time>2021-10-07T08:22:20Z</time>
      </trkpt>
      <trkpt lat="46.75377" lon="5.62794">
        <ele>464.6</ele>
        <time>2021-10-07T08:22:24Z</time>
      </trkpt>
      <trkpt lat="46.75375" lon="5.62787">
        <ele>464.7</ele>
        <time>2021-10-07T08:22:28Z</time>
      </trkpt>
      <trkpt lat="46.75374" lon="5.6278">
        <ele>465.1</ele>
        <time>2021-10-07T08:22:34Z</time>
      </trkpt>
      <trkpt lat="46.75372" lon="5.62774">
        <ele>466.2</ele>
        <time>2021-10-07T08:22:42Z</time>
      </trkpt>
      <trkpt lat="46.75368" lon="5.62769">
        <ele>466.8</ele>
        <time>2021-10-07T08:22:47Z</time>
      </trkpt>
      <trkpt lat="46.75366" lon="5.62762">
        <ele>466.5</ele>
        <time>2021-10-07T08:22:52Z</time>
      </trkpt>
      <trkpt lat="46.75366" lon="5.62755">
        <ele>465.6</ele>
        <time>2021-10-07T08:22:57Z</time>
      </trkpt>
      <trkpt lat="46.75367" lon="5.62747">
        <ele>464.6</ele>
        <time>2021-10-07T08:23:01Z</time>
      </trkpt>
      <trkpt lat="46.75367" lon="5.62739">
        <ele>463.8</ele>
        <time>2021-10-07T08:23:05Z</time>
      </trkpt>
      <trkpt lat="46.75367" lon="5.62732">
        <ele>463.2</ele>
        <time>2021-10-07T08:23:10Z</time>
      </trkpt>
      <trkpt lat="46.75368" lon="5.62726">
        <ele>463.1</ele>
        <time>2021-10-07T08:23:14Z</time>
      </trkpt>
      <trkpt lat="46.75369" lon="5.62719">
        <ele>463</ele>
        <time>2021-10-07T08:23:18Z</time>
      </trkpt>
      <trkpt lat="46.7537" lon="5.62712">
        <ele>462.4</ele>
        <time>2021-10-07T08:23:24Z</time>
      </trkpt>
      <trkpt lat="46.75373" lon="5.62706">
        <ele>461.1</ele>
        <time>2021-10-07T08:23:31Z</time>
      </trkpt>
      <trkpt lat="46.75373" lon="5.62698">
        <ele>459.5</ele>
        <time>2021-10-07T08:23:38Z</time>
      </trkpt>
      <trkpt lat="46.75376" lon="5.62693">
        <ele>457.8</ele>
        <time>2021-10-07T08:23:44Z</time>
      </trkpt>
      <trkpt lat="46.75381" lon="5.62691">
        <ele>456.6</ele>
        <time>2021-10-07T08:23:47Z</time>
      </trkpt>
      <trkpt lat="46.75388" lon="5.62687">
        <ele>455.3</ele>
        <time>2021-10-07T08:23:50Z</time>
      </trkpt>
      <trkpt lat="46.75392" lon="5.62684">
        <ele>454.4</ele>
        <time>2021-10-07T08:23:53Z</time>
      </trkpt>
      <trkpt lat="46.75396" lon="5.62678">
        <ele>453.7</ele>
        <time>2021-10-07T08:23:58Z</time>
      </trkpt>
      <trkpt lat="46.75401" lon="5.62677">
        <ele>453.6</ele>
        <time>2021-10-07T08:24:04Z</time>
      </trkpt>
      <trkpt lat="46.75405" lon="5.62675">
        <ele>454.2</ele>
        <time>2021-10-07T08:24:10Z</time>
      </trkpt>
      <trkpt lat="46.75409" lon="5.6267">
        <ele>454.6</ele>
        <time>2021-10-07T08:24:15Z</time>
      </trkpt>
      <trkpt lat="46.75414" lon="5.62667">
        <ele>454.8</ele>
        <time>2021-10-07T08:24:20Z</time>
      </trkpt>
      <trkpt lat="46.75419" lon="5.62665">
        <ele>454.7</ele>
        <time>2021-10-07T08:24:25Z</time>
      </trkpt>
      <trkpt lat="46.75423" lon="5.62663">
        <ele>454.5</ele>
        <time>2021-10-07T08:24:29Z</time>
      </trkpt>
      <trkpt lat="46.75428" lon="5.62662">
        <ele>454.3</ele>
        <time>2021-10-07T08:24:33Z</time>
      </trkpt>
      <trkpt lat="46.75432" lon="5.62658">
        <ele>454.7</ele>
        <time>2021-10-07T08:24:40Z</time>
      </trkpt>
      <trkpt lat="46.75435" lon="5.62653">
        <ele>455.4</ele>
        <time>2021-10-07T08:24:47Z</time>
      </trkpt>
      <trkpt lat="46.75439" lon="5.62648">
        <ele>455.7</ele>
        <time>2021-10-07T08:24:52Z</time>
      </trkpt>
      <trkpt lat="46.75443" lon="5.62645">
        <ele>455.8</ele>
        <time>2021-10-07T08:24:58Z</time>
      </trkpt>
      <trkpt lat="46.75446" lon="5.62639">
        <ele>456.1</ele>
        <time>2021-10-07T08:25:04Z</time>
      </trkpt>
      <trkpt lat="46.7545" lon="5.62634">
        <ele>456.3</ele>
        <time>2021-10-07T08:25:11Z</time>
      </trkpt>
      <trkpt lat="46.75454" lon="5.62629">
        <ele>456.1</ele>
        <time>2021-10-07T08:25:17Z</time>
      </trkpt>
      <trkpt lat="46.75456" lon="5.62623">
        <ele>455.4</ele>
        <time>2021-10-07T08:25:23Z</time>
      </trkpt>
      <trkpt lat="46.75457" lon="5.62615">
        <ele>453.6</ele>
        <time>2021-10-07T08:25:28Z</time>
      </trkpt>
      <trkpt lat="46.75459" lon="5.62609">
        <ele>451.5</ele>
        <time>2021-10-07T08:25:32Z</time>
      </trkpt>
      <trkpt lat="46.75463" lon="5.62604">
        <ele>448.4</ele>
        <time>2021-10-07T08:25:38Z</time>
      </trkpt>
      <trkpt lat="46.75465" lon="5.62598">
        <ele>445.3</ele>
        <time>2021-10-07T08:25:45Z</time>
      </trkpt>
      <trkpt lat="46.75466" lon="5.6259">
        <ele>444.6</ele>
        <time>2021-10-07T08:25:49Z</time>
      </trkpt>
      <trkpt lat="46.75465" lon="5.62581">
        <ele>444.1</ele>
        <time>2021-10-07T08:25:54Z</time>
      </trkpt>
      <trkpt lat="46.75463" lon="5.62575">
        <ele>444.4</ele>
        <time>2021-10-07T08:25:59Z</time>
      </trkpt>
      <trkpt lat="46.75459" lon="5.62572">
        <ele>445</ele>
        <time>2021-10-07T08:26:03Z</time>
      </trkpt>
      <trkpt lat="46.75455" lon="5.62567">
        <ele>445.8</ele>
        <time>2021-10-07T08:26:09Z</time>
      </trkpt>
      <trkpt lat="46.75454" lon="5.6256">
        <ele>446.3</ele>
        <time>2021-10-07T08:26:15Z</time>
      </trkpt>
      <trkpt lat="46.75452" lon="5.62553">
        <ele>446.1</ele>
        <time>2021-10-07T08:26:23Z</time>
      </trkpt>
      <trkpt lat="46.75452" lon="5.62546">
        <ele>445.4</ele>
        <time>2021-10-07T08:26:30Z</time>
      </trkpt>
      <trkpt lat="46.75449" lon="5.62539">
        <ele>445.5</ele>
        <time>2021-10-07T08:26:33Z</time>
      </trkpt>
      <trkpt lat="46.75447" lon="5.62531">
        <ele>445.8</ele>
        <time>2021-10-07T08:26:36Z</time>
      </trkpt>
      <trkpt lat="46.75446" lon="5.62524">
        <ele>446.1</ele>
        <time>2021-10-07T08:26:40Z</time>
      </trkpt>
      <trkpt lat="46.75443" lon="5.62518">
        <ele>446.5</ele>
        <time>2021-10-07T08:26:45Z</time>
      </trkpt>
      <trkpt lat="46.7544" lon="5.62512">
        <ele>447.1</ele>
        <time>2021-10-07T08:26:50Z</time>
      </trkpt>
      <trkpt lat="46.75438" lon="5.62506">
        <ele>447.3</ele>
        <time>2021-10-07T08:26:54Z</time>
      </trkpt>
      <trkpt lat="46.75434" lon="5.62501">
        <ele>447.4</ele>
        <time>2021-10-07T08:27:00Z</time>
      </trkpt>
      <trkpt lat="46.75432" lon="5.62495">
        <ele>448</ele>
        <time>2021-10-07T08:27:04Z</time>
      </trkpt>
      <trkpt lat="46.75429" lon="5.62487">
        <ele>448.8</ele>
        <time>2021-10-07T08:27:08Z</time>
      </trkpt>
      <trkpt lat="46.75426" lon="5.62482">
        <ele>449.9</ele>
        <time>2021-10-07T08:27:12Z</time>
      </trkpt>
      <trkpt lat="46.75423" lon="5.62475">
        <ele>450.3</ele>
        <time>2021-10-07T08:27:18Z</time>
      </trkpt>
      <trkpt lat="46.7542" lon="5.6247">
        <ele>449.9</ele>
        <time>2021-10-07T08:27:23Z</time>
      </trkpt>
      <trkpt lat="46.75417" lon="5.62465">
        <ele>449.3</ele>
        <time>2021-10-07T08:27:28Z</time>
      </trkpt>
      <trkpt lat="46.75415" lon="5.6246">
        <ele>448.6</ele>
        <time>2021-10-07T08:27:33Z</time>
      </trkpt>
      <trkpt lat="46.75411" lon="5.62454">
        <ele>447.8</ele>
        <time>2021-10-07T08:27:38Z</time>
      </trkpt>
      <trkpt lat="46.75412" lon="5.62448">
        <ele>447.2</ele>
        <time>2021-10-07T08:27:43Z</time>
      </trkpt>
      <trkpt lat="46.75417" lon="5.62444">
        <ele>447.1</ele>
        <time>2021-10-07T08:27:49Z</time>
      </trkpt>
      <trkpt lat="46.75422" lon="5.62445">
        <ele>446.8</ele>
        <time>2021-10-07T08:27:56Z</time>
      </trkpt>
      <trkpt lat="46.75427" lon="5.62445">
        <ele>446.4</ele>
        <time>2021-10-07T08:28:04Z</time>
      </trkpt>
      <trkpt lat="46.75433" lon="5.62444">
        <ele>446.6</ele>
        <time>2021-10-07T08:28:08Z</time>
      </trkpt>
      <trkpt lat="46.75439" lon="5.62442">
        <ele>446.9</ele>
        <time>2021-10-07T08:28:11Z</time>
      </trkpt>
      <trkpt lat="46.75443" lon="5.62438">
        <ele>447.1</ele>
        <time>2021-10-07T08:28:15Z</time>
      </trkpt>
      <trkpt lat="46.75445" lon="5.62432">
        <ele>447.3</ele>
        <time>2021-10-07T08:28:19Z</time>
      </trkpt>
      <trkpt lat="46.75446" lon="5.62425">
        <ele>447.6</ele>
        <time>2021-10-07T08:28:24Z</time>
      </trkpt>
      <trkpt lat="46.75449" lon="5.6242">
        <ele>446.9</ele>
        <time>2021-10-07T08:28:53Z</time>
      </trkpt>
      <trkpt lat="46.75452" lon="5.62415">
        <ele>447.5</ele>
        <time>2021-10-07T08:29:00Z</time>
      </trkpt>
      <trkpt lat="46.75453" lon="5.62408">
        <ele>447.7</ele>
        <time>2021-10-07T08:29:05Z</time>
      </trkpt>
      <trkpt lat="46.75454" lon="5.62402">
        <ele>447.5</ele>
        <time>2021-10-07T08:29:10Z</time>
      </trkpt>
      <trkpt lat="46.75458" lon="5.62396">
        <ele>447.5</ele>
        <time>2021-10-07T08:29:17Z</time>
      </trkpt>
      <trkpt lat="46.75462" lon="5.62392">
        <ele>447.4</ele>
        <time>2021-10-07T08:29:24Z</time>
      </trkpt>
      <trkpt lat="46.75465" lon="5.62387">
        <ele>447.6</ele>
        <time>2021-10-07T08:29:29Z</time>
      </trkpt>
      <trkpt lat="46.75468" lon="5.62381">
        <ele>447.7</ele>
        <time>2021-10-07T08:29:34Z</time>
      </trkpt>
      <trkpt lat="46.75473" lon="5.6238">
        <ele>447.1</ele>
        <time>2021-10-07T08:29:41Z</time>
      </trkpt>
      <trkpt lat="46.75478" lon="5.62382">
        <ele>446.1</ele>
        <time>2021-10-07T08:29:50Z</time>
      </trkpt>
      <trkpt lat="46.75482" lon="5.6238">
        <ele>445.8</ele>
        <time>2021-10-07T08:29:54Z</time>
      </trkpt>
      <trkpt lat="46.75487" lon="5.62378">
        <ele>445.1</ele>
        <time>2021-10-07T08:29:59Z</time>
      </trkpt>
      <trkpt lat="46.75492" lon="5.62378">
        <ele>444.8</ele>
        <time>2021-10-07T08:30:05Z</time>
      </trkpt>
      <trkpt lat="46.75495" lon="5.62383">
        <ele>445.8</ele>
        <time>2021-10-07T08:30:46Z</time>
      </trkpt>
      <trkpt lat="46.755" lon="5.62387">
        <ele>444.3</ele>
        <time>2021-10-07T08:30:55Z</time>
      </trkpt>
      <trkpt lat="46.75504" lon="5.6239">
        <ele>443.5</ele>
        <time>2021-10-07T08:30:59Z</time>
      </trkpt>
      <trkpt lat="46.75509" lon="5.62393">
        <ele>442.7</ele>
        <time>2021-10-07T08:31:03Z</time>
      </trkpt>
      <trkpt lat="46.75513" lon="5.62397">
        <ele>441.7</ele>
        <time>2021-10-07T08:31:07Z</time>
      </trkpt>
      <trkpt lat="46.75517" lon="5.624">
        <ele>441</ele>
        <time>2021-10-07T08:31:12Z</time>
      </trkpt>
      <trkpt lat="46.75522" lon="5.62397">
        <ele>441.8</ele>
        <time>2021-10-07T08:31:18Z</time>
      </trkpt>
      <trkpt lat="46.75527" lon="5.62396">
        <ele>443.4</ele>
        <time>2021-10-07T08:31:24Z</time>
      </trkpt>
      <trkpt lat="46.75533" lon="5.62397">
        <ele>445.2</ele>
        <time>2021-10-07T08:31:31Z</time>
      </trkpt>
      <trkpt lat="46.75538" lon="5.624">
        <ele>446.1</ele>
        <time>2021-10-07T08:31:35Z</time>
      </trkpt>
      <trkpt lat="46.75543" lon="5.62402">
        <ele>446.7</ele>
        <time>2021-10-07T08:31:38Z</time>
      </trkpt>
      <trkpt lat="46.75548" lon="5.62403">
        <ele>446.9</ele>
        <time>2021-10-07T08:31:41Z</time>
      </trkpt>
      <trkpt lat="46.75553" lon="5.62405">
        <ele>447.1</ele>
        <time>2021-10-07T08:31:45Z</time>
      </trkpt>
      <trkpt lat="46.75556" lon="5.62411">
        <ele>447.4</ele>
        <time>2021-10-07T08:31:50Z</time>
      </trkpt>
      <trkpt lat="46.7556" lon="5.62414">
        <ele>446.9</ele>
        <time>2021-10-07T08:31:56Z</time>
      </trkpt>
      <trkpt lat="46.75562" lon="5.6242">
        <ele>446</ele>
        <time>2021-10-07T08:32:00Z</time>
      </trkpt>
      <trkpt lat="46.75565" lon="5.62425">
        <ele>444.6</ele>
        <time>2021-10-07T08:32:05Z</time>
      </trkpt>
      <trkpt lat="46.7557" lon="5.62426">
        <ele>443.5</ele>
        <time>2021-10-07T08:32:09Z</time>
      </trkpt>
      <trkpt lat="46.75575" lon="5.62429">
        <ele>442.7</ele>
        <time>2021-10-07T08:32:15Z</time>
      </trkpt>
      <trkpt lat="46.75578" lon="5.62435">
        <ele>442.5</ele>
        <time>2021-10-07T08:32:20Z</time>
      </trkpt>
      <trkpt lat="46.75581" lon="5.6244">
        <ele>442.3</ele>
        <time>2021-10-07T08:32:26Z</time>
      </trkpt>
      <trkpt lat="46.75585" lon="5.62443">
        <ele>442</ele>
        <time>2021-10-07T08:32:31Z</time>
      </trkpt>
      <trkpt lat="46.7559" lon="5.62447">
        <ele>442.1</ele>
        <time>2021-10-07T08:32:36Z</time>
      </trkpt>
      <trkpt lat="46.75593" lon="5.62454">
        <ele>442.3</ele>
        <time>2021-10-07T08:32:41Z</time>
      </trkpt>
      <trkpt lat="46.75596" lon="5.6246">
        <ele>443.1</ele>
        <time>2021-10-07T08:32:47Z</time>
      </trkpt>
      <trkpt lat="46.75597" lon="5.62468">
        <ele>444.7</ele>
        <time>2021-10-07T08:32:51Z</time>
      </trkpt>
      <trkpt lat="46.75599" lon="5.62475">
        <ele>446.9</ele>
        <time>2021-10-07T08:32:55Z</time>
      </trkpt>
      <trkpt lat="46.75602" lon="5.6248">
        <ele>449</ele>
        <time>2021-10-07T08:32:59Z</time>
      </trkpt>
      <trkpt lat="46.75608" lon="5.6248">
        <ele>451.3</ele>
        <time>2021-10-07T08:33:05Z</time>
      </trkpt>
      <trkpt lat="46.75613" lon="5.6248">
        <ele>451.8</ele>
        <time>2021-10-07T08:33:10Z</time>
      </trkpt>
      <trkpt lat="46.75618" lon="5.6248">
        <ele>450.8</ele>
        <time>2021-10-07T08:33:15Z</time>
      </trkpt>
      <trkpt lat="46.75623" lon="5.62482">
        <ele>449.1</ele>
        <time>2021-10-07T08:33:19Z</time>
      </trkpt>
      <trkpt lat="46.75629" lon="5.6248">
        <ele>446.7</ele>
        <time>2021-10-07T08:33:23Z</time>
      </trkpt>
      <trkpt lat="46.75634" lon="5.62481">
        <ele>444.9</ele>
        <time>2021-10-07T08:33:27Z</time>
      </trkpt>
      <trkpt lat="46.75638" lon="5.62483">
        <ele>443.3</ele>
        <time>2021-10-07T08:33:31Z</time>
      </trkpt>
      <trkpt lat="46.75643" lon="5.62482">
        <ele>441.8</ele>
        <time>2021-10-07T08:33:45Z</time>
      </trkpt>
      <trkpt lat="46.75645" lon="5.62487">
        <ele>445.1</ele>
        <time>2021-10-07T08:36:31Z</time>
      </trkpt>
      <trkpt lat="46.75648" lon="5.62493">
        <ele>447.4</ele>
        <time>2021-10-07T08:36:39Z</time>
      </trkpt>
      <trkpt lat="46.7565" lon="5.62498">
        <ele>447.6</ele>
        <time>2021-10-07T08:36:45Z</time>
      </trkpt>
      <trkpt lat="46.75654" lon="5.62504">
        <ele>447.2</ele>
        <time>2021-10-07T08:36:51Z</time>
      </trkpt>
      <trkpt lat="46.75657" lon="5.62509">
        <ele>447.3</ele>
        <time>2021-10-07T08:36:57Z</time>
      </trkpt>
      <trkpt lat="46.7566" lon="5.62515">
        <ele>447.8</ele>
        <time>2021-10-07T08:37:02Z</time>
      </trkpt>
      <trkpt lat="46.75661" lon="5.62523">
        <ele>448.3</ele>
        <time>2021-10-07T08:38:03Z</time>
      </trkpt>
      <trkpt lat="46.75662" lon="5.62529">
        <ele>448.4</ele>
        <time>2021-10-07T08:38:08Z</time>
      </trkpt>
      <trkpt lat="46.75661" lon="5.62536">
        <ele>448.3</ele>
        <time>2021-10-07T08:38:14Z</time>
      </trkpt>
      <trkpt lat="46.7566" lon="5.62542">
        <ele>448.2</ele>
        <time>2021-10-07T08:38:19Z</time>
      </trkpt>
      <trkpt lat="46.75659" lon="5.6255">
        <ele>448.1</ele>
        <time>2021-10-07T08:38:25Z</time>
      </trkpt>
      <trkpt lat="46.75658" lon="5.62557">
        <ele>447.9</ele>
        <time>2021-10-07T08:38:32Z</time>
      </trkpt>
      <trkpt lat="46.75657" lon="5.62563">
        <ele>447.9</ele>
        <time>2021-10-07T08:38:38Z</time>
      </trkpt>
      <trkpt lat="46.75657" lon="5.6257">
        <ele>447.8</ele>
        <time>2021-10-07T08:38:43Z</time>
      </trkpt>
      <trkpt lat="46.75659" lon="5.62576">
        <ele>447</ele>
        <time>2021-10-07T08:38:50Z</time>
      </trkpt>
      <trkpt lat="46.7566" lon="5.62583">
        <ele>446.5</ele>
        <time>2021-10-07T08:38:55Z</time>
      </trkpt>
      <trkpt lat="46.75658" lon="5.62589">
        <ele>445.2</ele>
        <time>2021-10-07T08:39:02Z</time>
      </trkpt>
      <trkpt lat="46.75656" lon="5.62596">
        <ele>443.5</ele>
        <time>2021-10-07T08:39:08Z</time>
      </trkpt>
      <trkpt lat="46.75652" lon="5.62601">
        <ele>442.4</ele>
        <time>2021-10-07T08:39:13Z</time>
      </trkpt>
      <trkpt lat="46.75649" lon="5.62607">
        <ele>442</ele>
        <time>2021-10-07T08:39:18Z</time>
      </trkpt>
      <trkpt lat="46.75645" lon="5.62613">
        <ele>442.1</ele>
        <time>2021-10-07T08:39:23Z</time>
      </trkpt>
      <trkpt lat="46.75641" lon="5.62619">
        <ele>442.6</ele>
        <time>2021-10-07T08:39:28Z</time>
      </trkpt>
      <trkpt lat="46.75638" lon="5.62624">
        <ele>443.6</ele>
        <time>2021-10-07T08:39:34Z</time>
      </trkpt>
      <trkpt lat="46.75636" lon="5.6263">
        <ele>444.1</ele>
        <time>2021-10-07T08:39:40Z</time>
      </trkpt>
      <trkpt lat="46.75634" lon="5.62637">
        <ele>443.8</ele>
        <time>2021-10-07T08:39:45Z</time>
      </trkpt>
      <trkpt lat="46.75637" lon="5.62643">
        <ele>444.2</ele>
        <time>2021-10-07T08:39:50Z</time>
      </trkpt>
      <trkpt lat="46.75641" lon="5.62648">
        <ele>444.4</ele>
        <time>2021-10-07T08:39:56Z</time>
      </trkpt>
      <trkpt lat="46.75642" lon="5.62655">
        <ele>444.4</ele>
        <time>2021-10-07T08:40:02Z</time>
      </trkpt>
      <trkpt lat="46.75643" lon="5.62661">
        <ele>443.3</ele>
        <time>2021-10-07T08:40:10Z</time>
      </trkpt>
      <trkpt lat="46.75641" lon="5.62667">
        <ele>443.9</ele>
        <time>2021-10-07T08:40:14Z</time>
      </trkpt>
      <trkpt lat="46.75638" lon="5.62673">
        <ele>444.7</ele>
        <time>2021-10-07T08:40:18Z</time>
      </trkpt>
      <trkpt lat="46.75635" lon="5.62679">
        <ele>444.6</ele>
        <time>2021-10-07T08:40:26Z</time>
      </trkpt>
      <trkpt lat="46.75631" lon="5.62681">
        <ele>443.2</ele>
        <time>2021-10-07T08:40:33Z</time>
      </trkpt>
      <trkpt lat="46.75626" lon="5.62682">
        <ele>442</ele>
        <time>2021-10-07T08:40:40Z</time>
      </trkpt>
      <trkpt lat="46.75621" lon="5.62682">
        <ele>441.3</ele>
        <time>2021-10-07T08:40:51Z</time>
      </trkpt>
      <trkpt lat="46.75617" lon="5.62687">
        <ele>440.8</ele>
        <time>2021-10-07T08:40:56Z</time>
      </trkpt>
      <trkpt lat="46.75612" lon="5.6269">
        <ele>440.3</ele>
        <time>2021-10-07T08:41:01Z</time>
      </trkpt>
      <trkpt lat="46.75606" lon="5.62691">
        <ele>439.3</ele>
        <time>2021-10-07T08:41:07Z</time>
      </trkpt>
      <trkpt lat="46.75601" lon="5.62691">
        <ele>438.2</ele>
        <time>2021-10-07T08:41:10Z</time>
      </trkpt>
      <trkpt lat="46.75596" lon="5.62695">
        <ele>437.3</ele>
        <time>2021-10-07T08:41:13Z</time>
      </trkpt>
      <trkpt lat="46.75591" lon="5.62698">
        <ele>436.3</ele>
        <time>2021-10-07T08:41:19Z</time>
      </trkpt>
      <trkpt lat="46.75586" lon="5.62703">
        <ele>435.4</ele>
        <time>2021-10-07T08:41:27Z</time>
      </trkpt>
      <trkpt lat="46.75583" lon="5.62709">
        <ele>435.2</ele>
        <time>2021-10-07T08:41:30Z</time>
      </trkpt>
      <trkpt lat="46.7558" lon="5.62715">
        <ele>434.6</ele>
        <time>2021-10-07T08:41:34Z</time>
      </trkpt>
      <trkpt lat="46.75579" lon="5.62722">
        <ele>433.1</ele>
        <time>2021-10-07T08:41:40Z</time>
      </trkpt>
      <trkpt lat="46.75577" lon="5.6273">
        <ele>432.6</ele>
        <time>2021-10-07T08:41:47Z</time>
      </trkpt>
      <trkpt lat="46.75578" lon="5.62737">
        <ele>433</ele>
        <time>2021-10-07T08:41:51Z</time>
      </trkpt>
      <trkpt lat="46.75575" lon="5.62743">
        <ele>432.4</ele>
        <time>2021-10-07T08:41:58Z</time>
      </trkpt>
      <trkpt lat="46.75576" lon="5.6275">
        <ele>430.8</ele>
        <time>2021-10-07T08:42:05Z</time>
      </trkpt>
      <trkpt lat="46.75579" lon="5.62756">
        <ele>430.1</ele>
        <time>2021-10-07T08:42:10Z</time>
      </trkpt>
      <trkpt lat="46.75582" lon="5.6276">
        <ele>430.3</ele>
        <time>2021-10-07T08:42:14Z</time>
      </trkpt>
      <trkpt lat="46.75585" lon="5.62766">
        <ele>430.3</ele>
        <time>2021-10-07T08:42:18Z</time>
      </trkpt>
      <trkpt lat="46.75588" lon="5.62772">
        <ele>429.6</ele>
        <time>2021-10-07T08:42:24Z</time>
      </trkpt>
      <trkpt lat="46.75589" lon="5.62779">
        <ele>429</ele>
        <time>2021-10-07T08:42:30Z</time>
      </trkpt>
      <trkpt lat="46.75588" lon="5.62786">
        <ele>428.5</ele>
        <time>2021-10-07T08:42:36Z</time>
      </trkpt>
      <trkpt lat="46.7559" lon="5.62793">
        <ele>427.3</ele>
        <time>2021-10-07T08:42:43Z</time>
      </trkpt>
      <trkpt lat="46.75592" lon="5.628">
        <ele>427</ele>
        <time>2021-10-07T08:42:48Z</time>
      </trkpt>
      <trkpt lat="46.75592" lon="5.62806">
        <ele>426.8</ele>
        <time>2021-10-07T08:42:57Z</time>
      </trkpt>
      <trkpt lat="46.75594" lon="5.62814">
        <ele>426.5</ele>
        <time>2021-10-07T08:43:04Z</time>
      </trkpt>
      <trkpt lat="46.75595" lon="5.6282">
        <ele>425.8</ele>
        <time>2021-10-07T08:43:10Z</time>
      </trkpt>
      <trkpt lat="46.75597" lon="5.62827">
        <ele>425.5</ele>
        <time>2021-10-07T08:43:17Z</time>
      </trkpt>
      <trkpt lat="46.75599" lon="5.62833">
        <ele>425</ele>
        <time>2021-10-07T08:43:24Z</time>
      </trkpt>
      <trkpt lat="46.75601" lon="5.6284">
        <ele>424.1</ele>
        <time>2021-10-07T08:43:30Z</time>
      </trkpt>
      <trkpt lat="46.75602" lon="5.62846">
        <ele>423.4</ele>
        <time>2021-10-07T08:43:35Z</time>
      </trkpt>
      <trkpt lat="46.75604" lon="5.62852">
        <ele>422.3</ele>
        <time>2021-10-07T08:43:42Z</time>
      </trkpt>
      <trkpt lat="46.75605" lon="5.6286">
        <ele>421</ele>
        <time>2021-10-07T08:43:48Z</time>
      </trkpt>
      <trkpt lat="46.75604" lon="5.62867">
        <ele>420.3</ele>
        <time>2021-10-07T08:43:52Z</time>
      </trkpt>
      <trkpt lat="46.75605" lon="5.62875">
        <ele>419.3</ele>
        <time>2021-10-07T08:43:58Z</time>
      </trkpt>
      <trkpt lat="46.75608" lon="5.6288">
        <ele>418.5</ele>
        <time>2021-10-07T08:44:02Z</time>
      </trkpt>
      <trkpt lat="46.75611" lon="5.62885">
        <ele>417.9</ele>
        <time>2021-10-07T08:44:08Z</time>
      </trkpt>
      <trkpt lat="46.75614" lon="5.62891">
        <ele>417.5</ele>
        <time>2021-10-07T08:44:15Z</time>
      </trkpt>
      <trkpt lat="46.75615" lon="5.62898">
        <ele>416.7</ele>
        <time>2021-10-07T08:44:21Z</time>
      </trkpt>
      <trkpt lat="46.75616" lon="5.62905">
        <ele>415.6</ele>
        <time>2021-10-07T08:44:27Z</time>
      </trkpt>
      <trkpt lat="46.75616" lon="5.62912">
        <ele>415.6</ele>
        <time>2021-10-07T08:44:33Z</time>
      </trkpt>
      <trkpt lat="46.75618" lon="5.62919">
        <ele>415.9</ele>
        <time>2021-10-07T08:44:38Z</time>
      </trkpt>
      <trkpt lat="46.7562" lon="5.62926">
        <ele>416</ele>
        <time>2021-10-07T08:44:43Z</time>
      </trkpt>
      <trkpt lat="46.75624" lon="5.6293">
        <ele>416.1</ele>
        <time>2021-10-07T08:44:48Z</time>
      </trkpt>
      <trkpt lat="46.75629" lon="5.62933">
        <ele>416.1</ele>
        <time>2021-10-07T08:44:52Z</time>
      </trkpt>
      <trkpt lat="46.75633" lon="5.62936">
        <ele>416.2</ele>
        <time>2021-10-07T08:44:56Z</time>
      </trkpt>
      <trkpt lat="46.75637" lon="5.62941">
        <ele>416.7</ele>
        <time>2021-10-07T08:45:01Z</time>
      </trkpt>
      <trkpt lat="46.75638" lon="5.62949">
        <ele>416.4</ele>
        <time>2021-10-07T08:45:07Z</time>
      </trkpt>
      <trkpt lat="46.75641" lon="5.62955">
        <ele>415.9</ele>
        <time>2021-10-07T08:45:12Z</time>
      </trkpt>
      <trkpt lat="46.75643" lon="5.62961">
        <ele>415.1</ele>
        <time>2021-10-07T08:45:18Z</time>
      </trkpt>
      <trkpt lat="46.75646" lon="5.62968">
        <ele>413.8</ele>
        <time>2021-10-07T08:45:25Z</time>
      </trkpt>
      <trkpt lat="46.75649" lon="5.62973">
        <ele>412.5</ele>
        <time>2021-10-07T08:45:31Z</time>
      </trkpt>
      <trkpt lat="46.75652" lon="5.6298">
        <ele>412</ele>
        <time>2021-10-07T08:45:36Z</time>
      </trkpt>
      <trkpt lat="46.75655" lon="5.62985">
        <ele>412.2</ele>
        <time>2021-10-07T08:45:40Z</time>
      </trkpt>
      <trkpt lat="46.75655" lon="5.62993">
        <ele>413.2</ele>
        <time>2021-10-07T08:45:47Z</time>
      </trkpt>
      <trkpt lat="46.75658" lon="5.62999">
        <ele>413.4</ele>
        <time>2021-10-07T08:45:53Z</time>
      </trkpt>
      <trkpt lat="46.75659" lon="5.63005">
        <ele>413.3</ele>
        <time>2021-10-07T08:45:59Z</time>
      </trkpt>
      <trkpt lat="46.75661" lon="5.63012">
        <ele>413.6</ele>
        <time>2021-10-07T08:46:04Z</time>
      </trkpt>
      <trkpt lat="46.75662" lon="5.63018">
        <ele>414.1</ele>
        <time>2021-10-07T08:46:10Z</time>
      </trkpt>
      <trkpt lat="46.75664" lon="5.63025">
        <ele>415.1</ele>
        <time>2021-10-07T08:46:16Z</time>
      </trkpt>
      <trkpt lat="46.75667" lon="5.63031">
        <ele>416</ele>
        <time>2021-10-07T08:46:20Z</time>
      </trkpt>
      <trkpt lat="46.75669" lon="5.63038">
        <ele>416.8</ele>
        <time>2021-10-07T08:46:24Z</time>
      </trkpt>
      <trkpt lat="46.75671" lon="5.63045">
        <ele>417.3</ele>
        <time>2021-10-07T08:46:28Z</time>
      </trkpt>
      <trkpt lat="46.75674" lon="5.63051">
        <ele>417.8</ele>
        <time>2021-10-07T08:46:32Z</time>
      </trkpt>
      <trkpt lat="46.75675" lon="5.63057">
        <ele>418.5</ele>
        <time>2021-10-07T08:46:37Z</time>
      </trkpt>
      <trkpt lat="46.75674" lon="5.63064">
        <ele>419</ele>
        <time>2021-10-07T08:46:42Z</time>
      </trkpt>
      <trkpt lat="46.75675" lon="5.63071">
        <ele>420.7</ele>
        <time>2021-10-07T08:46:49Z</time>
      </trkpt>
      <trkpt lat="46.75675" lon="5.63078">
        <ele>422.1</ele>
        <time>2021-10-07T08:46:56Z</time>
      </trkpt>
      <trkpt lat="46.75679" lon="5.63083">
        <ele>422.6</ele>
        <time>2021-10-07T08:47:00Z</time>
      </trkpt>
      <trkpt lat="46.75682" lon="5.63087">
        <ele>422.9</ele>
        <time>2021-10-07T08:47:04Z</time>
      </trkpt>
      <trkpt lat="46.75686" lon="5.63092">
        <ele>423.3</ele>
        <time>2021-10-07T08:47:10Z</time>
      </trkpt>
      <trkpt lat="46.7569" lon="5.63098">
        <ele>423.7</ele>
        <time>2021-10-07T08:47:14Z</time>
      </trkpt>
      <trkpt lat="46.7569" lon="5.63105">
        <ele>423.3</ele>
        <time>2021-10-07T08:47:18Z</time>
      </trkpt>
      <trkpt lat="46.7569" lon="5.63112">
        <ele>421.8</ele>
        <time>2021-10-07T08:47:25Z</time>
      </trkpt>
      <trkpt lat="46.75694" lon="5.63116">
        <ele>421.1</ele>
        <time>2021-10-07T08:47:31Z</time>
      </trkpt>
      <trkpt lat="46.75698" lon="5.6312">
        <ele>421.3</ele>
        <time>2021-10-07T08:47:36Z</time>
      </trkpt>
      <trkpt lat="46.75701" lon="5.63125">
        <ele>421.7</ele>
        <time>2021-10-07T08:47:41Z</time>
      </trkpt>
      <trkpt lat="46.75699" lon="5.63131">
        <ele>421.8</ele>
        <time>2021-10-07T08:47:45Z</time>
      </trkpt>
      <trkpt lat="46.75698" lon="5.63137">
        <ele>421.8</ele>
        <time>2021-10-07T08:47:50Z</time>
      </trkpt>
      <trkpt lat="46.75702" lon="5.63142">
        <ele>422.1</ele>
        <time>2021-10-07T08:47:54Z</time>
      </trkpt>
      <trkpt lat="46.75706" lon="5.63146">
        <ele>422.6</ele>
        <time>2021-10-07T08:47:59Z</time>
      </trkpt>
      <trkpt lat="46.7571" lon="5.6315">
        <ele>422.9</ele>
        <time>2021-10-07T08:48:03Z</time>
      </trkpt>
      <trkpt lat="46.75711" lon="5.63157">
        <ele>422.9</ele>
        <time>2021-10-07T08:48:08Z</time>
      </trkpt>
      <trkpt lat="46.75706" lon="5.63161">
        <ele>422.1</ele>
        <time>2021-10-07T08:48:12Z</time>
      </trkpt>
      <trkpt lat="46.75707" lon="5.63167">
        <ele>421.3</ele>
        <time>2021-10-07T08:48:20Z</time>
      </trkpt>
      <trkpt lat="46.75709" lon="5.63175">
        <ele>421.2</ele>
        <time>2021-10-07T08:48:25Z</time>
      </trkpt>
      <trkpt lat="46.75709" lon="5.63182">
        <ele>420.5</ele>
        <time>2021-10-07T08:48:30Z</time>
      </trkpt>
      <trkpt lat="46.75711" lon="5.63187">
        <ele>420.1</ele>
        <time>2021-10-07T08:48:35Z</time>
      </trkpt>
      <trkpt lat="46.75714" lon="5.63194">
        <ele>420.2</ele>
        <time>2021-10-07T08:48:42Z</time>
      </trkpt>
      <trkpt lat="46.75715" lon="5.632">
        <ele>420.3</ele>
        <time>2021-10-07T08:48:46Z</time>
      </trkpt>
      <trkpt lat="46.75716" lon="5.63208">
        <ele>420.1</ele>
        <time>2021-10-07T08:48:51Z</time>
      </trkpt>
      <trkpt lat="46.7572" lon="5.63213">
        <ele>419.6</ele>
        <time>2021-10-07T08:48:58Z</time>
      </trkpt>
      <trkpt lat="46.75724" lon="5.63216">
        <ele>419.5</ele>
        <time>2021-10-07T08:49:03Z</time>
      </trkpt>
      <trkpt lat="46.75729" lon="5.6322">
        <ele>419.7</ele>
        <time>2021-10-07T08:49:08Z</time>
      </trkpt>
      <trkpt lat="46.75732" lon="5.63225">
        <ele>420.9</ele>
        <time>2021-10-07T08:49:20Z</time>
      </trkpt>
      <trkpt lat="46.75736" lon="5.63231">
        <ele>421.9</ele>
        <time>2021-10-07T08:49:25Z</time>
      </trkpt>
      <trkpt lat="46.75739" lon="5.63236">
        <ele>423.1</ele>
        <time>2021-10-07T08:49:31Z</time>
      </trkpt>
      <trkpt lat="46.75743" lon="5.63242">
        <ele>424.1</ele>
        <time>2021-10-07T08:49:37Z</time>
      </trkpt>
      <trkpt lat="46.75747" lon="5.63246">
        <ele>424.8</ele>
        <time>2021-10-07T08:49:41Z</time>
      </trkpt>
      <trkpt lat="46.75751" lon="5.6325">
        <ele>425.6</ele>
        <time>2021-10-07T08:49:45Z</time>
      </trkpt>
      <trkpt lat="46.75756" lon="5.63252">
        <ele>426.8</ele>
        <time>2021-10-07T08:49:49Z</time>
      </trkpt>
      <trkpt lat="46.75761" lon="5.63255">
        <ele>427.8</ele>
        <time>2021-10-07T08:49:53Z</time>
      </trkpt>
      <trkpt lat="46.75765" lon="5.6326">
        <ele>428.6</ele>
        <time>2021-10-07T08:49:57Z</time>
      </trkpt>
      <trkpt lat="46.75769" lon="5.63265">
        <ele>429.5</ele>
        <time>2021-10-07T08:50:02Z</time>
      </trkpt>
      <trkpt lat="46.75773" lon="5.63269">
        <ele>429.8</ele>
        <time>2021-10-07T08:50:07Z</time>
      </trkpt>
      <trkpt lat="46.75777" lon="5.63273">
        <ele>431.4</ele>
        <time>2021-10-07T08:50:18Z</time>
      </trkpt>
      <trkpt lat="46.75781" lon="5.63277">
        <ele>431.5</ele>
        <time>2021-10-07T08:50:28Z</time>
      </trkpt>
      <trkpt lat="46.75786" lon="5.6328">
        <ele>431.4</ele>
        <time>2021-10-07T08:50:33Z</time>
      </trkpt>
      <trkpt lat="46.7579" lon="5.63284">
        <ele>431.4</ele>
        <time>2021-10-07T08:50:37Z</time>
      </trkpt>
      <trkpt lat="46.75793" lon="5.6329">
        <ele>430.7</ele>
        <time>2021-10-07T08:50:50Z</time>
      </trkpt>
      <trkpt lat="46.75797" lon="5.63294">
        <ele>430.2</ele>
        <time>2021-10-07T08:50:56Z</time>
      </trkpt>
      <trkpt lat="46.75802" lon="5.63298">
        <ele>429.8</ele>
        <time>2021-10-07T08:51:01Z</time>
      </trkpt>
      <trkpt lat="46.75807" lon="5.63298">
        <ele>429.9</ele>
        <time>2021-10-07T08:51:08Z</time>
      </trkpt>
      <trkpt lat="46.75812" lon="5.63302">
        <ele>430.8</ele>
        <time>2021-10-07T08:51:16Z</time>
      </trkpt>
      <trkpt lat="46.75816" lon="5.63307">
        <ele>431.3</ele>
        <time>2021-10-07T08:51:21Z</time>
      </trkpt>
      <trkpt lat="46.75821" lon="5.63308">
        <ele>431.8</ele>
        <time>2021-10-07T08:51:26Z</time>
      </trkpt>
      <trkpt lat="46.75825" lon="5.63311">
        <ele>432.3</ele>
        <time>2021-10-07T08:51:30Z</time>
      </trkpt>
      <trkpt lat="46.75826" lon="5.63318">
        <ele>432.4</ele>
        <time>2021-10-07T08:51:37Z</time>
      </trkpt>
      <trkpt lat="46.75828" lon="5.63325">
        <ele>431.7</ele>
        <time>2021-10-07T08:51:43Z</time>
      </trkpt>
      <trkpt lat="46.75831" lon="5.63331">
        <ele>430.8</ele>
        <time>2021-10-07T08:51:51Z</time>
      </trkpt>
      <trkpt lat="46.75835" lon="5.63332">
        <ele>431.5</ele>
        <time>2021-10-07T08:51:57Z</time>
      </trkpt>
      <trkpt lat="46.75839" lon="5.63334">
        <ele>432.1</ele>
        <time>2021-10-07T08:52:02Z</time>
      </trkpt>
      <trkpt lat="46.75843" lon="5.63338">
        <ele>432.4</ele>
        <time>2021-10-07T08:52:08Z</time>
      </trkpt>
      <trkpt lat="46.75846" lon="5.63344">
        <ele>432.6</ele>
        <time>2021-10-07T08:52:14Z</time>
      </trkpt>
      <trkpt lat="46.75847" lon="5.63352">
        <ele>433.3</ele>
        <time>2021-10-07T08:52:20Z</time>
      </trkpt>
      <trkpt lat="46.75851" lon="5.63355">
        <ele>434.4</ele>
        <time>2021-10-07T08:52:25Z</time>
      </trkpt>
      <trkpt lat="46.75855" lon="5.63359">
        <ele>435.1</ele>
        <time>2021-10-07T08:52:30Z</time>
      </trkpt>
      <trkpt lat="46.75859" lon="5.63364">
        <ele>435.1</ele>
        <time>2021-10-07T08:52:38Z</time>
      </trkpt>
      <trkpt lat="46.75863" lon="5.63368">
        <ele>435.3</ele>
        <time>2021-10-07T08:52:45Z</time>
      </trkpt>
      <trkpt lat="46.75866" lon="5.63373">
        <ele>435.6</ele>
        <time>2021-10-07T08:52:51Z</time>
      </trkpt>
      <trkpt lat="46.75864" lon="5.6338">
        <ele>436.7</ele>
        <time>2021-10-07T08:52:59Z</time>
      </trkpt>
      <trkpt lat="46.75866" lon="5.63387">
        <ele>437</ele>
        <time>2021-10-07T08:53:05Z</time>
      </trkpt>
      <trkpt lat="46.7587" lon="5.63391">
        <ele>436.9</ele>
        <time>2021-10-07T08:53:11Z</time>
      </trkpt>
      <trkpt lat="46.75874" lon="5.63395">
        <ele>436.7</ele>
        <time>2021-10-07T08:53:15Z</time>
      </trkpt>
      <trkpt lat="46.75878" lon="5.63398">
        <ele>436.4</ele>
        <time>2021-10-07T08:53:19Z</time>
      </trkpt>
      <trkpt lat="46.75877" lon="5.63405">
        <ele>436.3</ele>
        <time>2021-10-07T08:53:30Z</time>
      </trkpt>
      <trkpt lat="46.75879" lon="5.63412">
        <ele>436.3</ele>
        <time>2021-10-07T08:53:38Z</time>
      </trkpt>
      <trkpt lat="46.75883" lon="5.63416">
        <ele>436.6</ele>
        <time>2021-10-07T08:53:43Z</time>
      </trkpt>
      <trkpt lat="46.75882" lon="5.63423">
        <ele>437</ele>
        <time>2021-10-07T08:53:52Z</time>
      </trkpt>
      <trkpt lat="46.75887" lon="5.63416">
        <ele>437.8</ele>
        <time>2021-10-07T08:54:05Z</time>
      </trkpt>
      <trkpt lat="46.75892" lon="5.6341">
        <ele>438.6</ele>
        <time>2021-10-07T08:54:08Z</time>
      </trkpt>
      <trkpt lat="46.75892" lon="5.63417">
        <ele>441.1</ele>
        <time>2021-10-07T08:54:31Z</time>
      </trkpt>
      <trkpt lat="46.75896" lon="5.63422">
        <ele>441.9</ele>
        <time>2021-10-07T08:54:36Z</time>
      </trkpt>
      <trkpt lat="46.759" lon="5.63425">
        <ele>442.5</ele>
        <time>2021-10-07T08:54:40Z</time>
      </trkpt>
      <trkpt lat="46.75902" lon="5.63431">
        <ele>442.6</ele>
        <time>2021-10-07T08:54:46Z</time>
      </trkpt>
      <trkpt lat="46.75905" lon="5.63437">
        <ele>443</ele>
        <time>2021-10-07T08:54:54Z</time>
      </trkpt>
      <trkpt lat="46.7591" lon="5.63438">
        <ele>443.4</ele>
        <time>2021-10-07T08:54:58Z</time>
      </trkpt>
      <trkpt lat="46.75913" lon="5.63442">
        <ele>443.7</ele>
        <time>2021-10-07T08:55:03Z</time>
      </trkpt>
      <trkpt lat="46.75916" lon="5.63447">
        <ele>444.3</ele>
        <time>2021-10-07T08:55:08Z</time>
      </trkpt>
      <trkpt lat="46.7592" lon="5.63452">
        <ele>445.1</ele>
        <time>2021-10-07T08:55:13Z</time>
      </trkpt>
      <trkpt lat="46.75921" lon="5.63459">
        <ele>445.3</ele>
        <time>2021-10-07T08:55:18Z</time>
      </trkpt>
      <trkpt lat="46.75925" lon="5.63464">
        <ele>445</ele>
        <time>2021-10-07T08:55:25Z</time>
      </trkpt>
      <trkpt lat="46.7593" lon="5.63467">
        <ele>445</ele>
        <time>2021-10-07T08:55:30Z</time>
      </trkpt>
      <trkpt lat="46.75934" lon="5.63469">
        <ele>445</ele>
        <time>2021-10-07T08:55:34Z</time>
      </trkpt>
      <trkpt lat="46.75937" lon="5.63474">
        <ele>444.8</ele>
        <time>2021-10-07T08:55:39Z</time>
      </trkpt>
      <trkpt lat="46.75941" lon="5.6348">
        <ele>444.9</ele>
        <time>2021-10-07T08:55:45Z</time>
      </trkpt>
      <trkpt lat="46.75943" lon="5.63486">
        <ele>445</ele>
        <time>2021-10-07T08:55:52Z</time>
      </trkpt>
      <trkpt lat="46.75946" lon="5.63491">
        <ele>444.9</ele>
        <time>2021-10-07T08:55:57Z</time>
      </trkpt>
      <trkpt lat="46.75952" lon="5.63493">
        <ele>444.9</ele>
        <time>2021-10-07T08:56:01Z</time>
      </trkpt>
      <trkpt lat="46.75956" lon="5.63495">
        <ele>445</ele>
        <time>2021-10-07T08:56:04Z</time>
      </trkpt>
      <trkpt lat="46.75961" lon="5.63499">
        <ele>445.2</ele>
        <time>2021-10-07T08:56:08Z</time>
      </trkpt>
      <trkpt lat="46.75965" lon="5.63504">
        <ele>445.7</ele>
        <time>2021-10-07T08:56:15Z</time>
      </trkpt>
      <trkpt lat="46.75968" lon="5.63509">
        <ele>446.1</ele>
        <time>2021-10-07T08:56:20Z</time>
      </trkpt>
      <trkpt lat="46.75969" lon="5.63515">
        <ele>446.7</ele>
        <time>2021-10-07T08:56:26Z</time>
      </trkpt>
      <trkpt lat="46.75974" lon="5.6352">
        <ele>447.8</ele>
        <time>2021-10-07T08:56:31Z</time>
      </trkpt>
      <trkpt lat="46.7598" lon="5.63521">
        <ele>448.3</ele>
        <time>2021-10-07T08:56:34Z</time>
      </trkpt>
      <trkpt lat="46.75986" lon="5.63524">
        <ele>448.6</ele>
        <time>2021-10-07T08:56:37Z</time>
      </trkpt>
      <trkpt lat="46.7599" lon="5.63527">
        <ele>449</ele>
        <time>2021-10-07T08:56:40Z</time>
      </trkpt>
      <trkpt lat="46.75995" lon="5.63531">
        <ele>449.4</ele>
        <time>2021-10-07T08:56:44Z</time>
      </trkpt>
      <trkpt lat="46.75999" lon="5.63535">
        <ele>449.8</ele>
        <time>2021-10-07T08:56:48Z</time>
      </trkpt>
      <trkpt lat="46.76003" lon="5.63539">
        <ele>450.7</ele>
        <time>2021-10-07T08:56:53Z</time>
      </trkpt>
      <trkpt lat="46.76007" lon="5.63543">
        <ele>451.7</ele>
        <time>2021-10-07T08:56:57Z</time>
      </trkpt>
      <trkpt lat="46.76008" lon="5.6355">
        <ele>452.6</ele>
        <time>2021-10-07T08:57:06Z</time>
      </trkpt>
      <trkpt lat="46.76012" lon="5.63552">
        <ele>452.5</ele>
        <time>2021-10-07T08:57:10Z</time>
      </trkpt>
      <trkpt lat="46.76016" lon="5.63555">
        <ele>452.6</ele>
        <time>2021-10-07T08:57:24Z</time>
      </trkpt>
      <trkpt lat="46.76019" lon="5.6356">
        <ele>451.9</ele>
        <time>2021-10-07T08:57:28Z</time>
      </trkpt>
      <trkpt lat="46.76024" lon="5.63564">
        <ele>451</ele>
        <time>2021-10-07T08:57:31Z</time>
      </trkpt>
      <trkpt lat="46.76027" lon="5.63569">
        <ele>450.4</ele>
        <time>2021-10-07T08:57:35Z</time>
      </trkpt>
      <trkpt lat="46.7603" lon="5.63574">
        <ele>450.9</ele>
        <time>2021-10-07T08:57:41Z</time>
      </trkpt>
      <trkpt lat="46.76033" lon="5.63579">
        <ele>451.5</ele>
        <time>2021-10-07T08:57:46Z</time>
      </trkpt>
      <trkpt lat="46.76038" lon="5.63582">
        <ele>452.3</ele>
        <time>2021-10-07T08:57:52Z</time>
      </trkpt>
      <trkpt lat="46.76041" lon="5.63588">
        <ele>452.6</ele>
        <time>2021-10-07T08:57:57Z</time>
      </trkpt>
      <trkpt lat="46.76043" lon="5.63594">
        <ele>452.8</ele>
        <time>2021-10-07T08:58:02Z</time>
      </trkpt>
      <trkpt lat="46.76047" lon="5.63598">
        <ele>451.9</ele>
        <time>2021-10-07T08:58:11Z</time>
      </trkpt>
      <trkpt lat="46.76052" lon="5.63599">
        <ele>451.1</ele>
        <time>2021-10-07T08:58:16Z</time>
      </trkpt>
      <trkpt lat="46.76056" lon="5.63603">
        <ele>450.5</ele>
        <time>2021-10-07T08:58:20Z</time>
      </trkpt>
      <trkpt lat="46.76058" lon="5.63609">
        <ele>450.4</ele>
        <time>2021-10-07T08:58:28Z</time>
      </trkpt>
      <trkpt lat="46.76062" lon="5.63614">
        <ele>451</ele>
        <time>2021-10-07T08:58:34Z</time>
      </trkpt>
      <trkpt lat="46.76067" lon="5.63616">
        <ele>452.1</ele>
        <time>2021-10-07T08:58:40Z</time>
      </trkpt>
      <trkpt lat="46.7607" lon="5.63619">
        <ele>452.7</ele>
        <time>2021-10-07T08:58:45Z</time>
      </trkpt>
      <trkpt lat="46.76074" lon="5.63623">
        <ele>453</ele>
        <time>2021-10-07T08:58:49Z</time>
      </trkpt>
      <trkpt lat="46.76079" lon="5.63625">
        <ele>453.3</ele>
        <time>2021-10-07T08:58:55Z</time>
      </trkpt>
      <trkpt lat="46.76083" lon="5.63629">
        <ele>454.5</ele>
        <time>2021-10-07T08:59:07Z</time>
      </trkpt>
      <trkpt lat="46.76087" lon="5.63633">
        <ele>455</ele>
        <time>2021-10-07T08:59:12Z</time>
      </trkpt>
      <trkpt lat="46.76092" lon="5.63636">
        <ele>455.7</ele>
        <time>2021-10-07T08:59:17Z</time>
      </trkpt>
      <trkpt lat="46.76095" lon="5.63641">
        <ele>457.1</ele>
        <time>2021-10-07T08:59:24Z</time>
      </trkpt>
      <trkpt lat="46.761" lon="5.63643">
        <ele>457.8</ele>
        <time>2021-10-07T08:59:28Z</time>
      </trkpt>
      <trkpt lat="46.76104" lon="5.63647">
        <ele>458.5</ele>
        <time>2021-10-07T08:59:33Z</time>
      </trkpt>
      <trkpt lat="46.76106" lon="5.63654">
        <ele>459.1</ele>
        <time>2021-10-07T08:59:38Z</time>
      </trkpt>
      <trkpt lat="46.76107" lon="5.6366">
        <ele>458.8</ele>
        <time>2021-10-07T08:59:42Z</time>
      </trkpt>
      <trkpt lat="46.7611" lon="5.63666">
        <ele>457.5</ele>
        <time>2021-10-07T08:59:51Z</time>
      </trkpt>
      <trkpt lat="46.76114" lon="5.63669">
        <ele>457.6</ele>
        <time>2021-10-07T08:59:58Z</time>
      </trkpt>
      <trkpt lat="46.76118" lon="5.63673">
        <ele>458.4</ele>
        <time>2021-10-07T09:00:03Z</time>
      </trkpt>
      <trkpt lat="46.76121" lon="5.63678">
        <ele>458.8</ele>
        <time>2021-10-07T09:00:09Z</time>
      </trkpt>
      <trkpt lat="46.76126" lon="5.63682">
        <ele>458.9</ele>
        <time>2021-10-07T09:00:15Z</time>
      </trkpt>
      <trkpt lat="46.76129" lon="5.63686">
        <ele>458.8</ele>
        <time>2021-10-07T09:00:19Z</time>
      </trkpt>
      <trkpt lat="46.76133" lon="5.6369">
        <ele>458.8</ele>
        <time>2021-10-07T09:00:24Z</time>
      </trkpt>
      <trkpt lat="46.76137" lon="5.63694">
        <ele>459.2</ele>
        <time>2021-10-07T09:00:31Z</time>
      </trkpt>
      <trkpt lat="46.76139" lon="5.63701">
        <ele>459.9</ele>
        <time>2021-10-07T09:00:38Z</time>
      </trkpt>
      <trkpt lat="46.76141" lon="5.63708">
        <ele>459.6</ele>
        <time>2021-10-07T09:00:43Z</time>
      </trkpt>
      <trkpt lat="46.76143" lon="5.63713">
        <ele>459</ele>
        <time>2021-10-07T09:00:48Z</time>
      </trkpt>
      <trkpt lat="46.76145" lon="5.6372">
        <ele>458.2</ele>
        <time>2021-10-07T09:00:53Z</time>
      </trkpt>
      <trkpt lat="46.76148" lon="5.63726">
        <ele>457.6</ele>
        <time>2021-10-07T09:00:59Z</time>
      </trkpt>
      <trkpt lat="46.7615" lon="5.63732">
        <ele>457.2</ele>
        <time>2021-10-07T09:01:04Z</time>
      </trkpt>
      <trkpt lat="46.76152" lon="5.63739">
        <ele>457.1</ele>
        <time>2021-10-07T09:01:10Z</time>
      </trkpt>
      <trkpt lat="46.76155" lon="5.63745">
        <ele>457.5</ele>
        <time>2021-10-07T09:01:18Z</time>
      </trkpt>
      <trkpt lat="46.76157" lon="5.63751">
        <ele>457.5</ele>
        <time>2021-10-07T09:01:24Z</time>
      </trkpt>
      <trkpt lat="46.7616" lon="5.63757">
        <ele>456.6</ele>
        <time>2021-10-07T09:01:30Z</time>
      </trkpt>
      <trkpt lat="46.76162" lon="5.63763">
        <ele>456</ele>
        <time>2021-10-07T09:01:37Z</time>
      </trkpt>
      <trkpt lat="46.76164" lon="5.6377">
        <ele>455.9</ele>
        <time>2021-10-07T09:01:44Z</time>
      </trkpt>
      <trkpt lat="46.76169" lon="5.63772">
        <ele>456.5</ele>
        <time>2021-10-07T09:01:48Z</time>
      </trkpt>
      <trkpt lat="46.76173" lon="5.63777">
        <ele>457.5</ele>
        <time>2021-10-07T09:01:55Z</time>
      </trkpt>
      <trkpt lat="46.76177" lon="5.6378">
        <ele>458.4</ele>
        <time>2021-10-07T09:02:02Z</time>
      </trkpt>
      <trkpt lat="46.76181" lon="5.63784">
        <ele>459.5</ele>
        <time>2021-10-07T09:02:06Z</time>
      </trkpt>
      <trkpt lat="46.76186" lon="5.63788">
        <ele>460.8</ele>
        <time>2021-10-07T09:02:10Z</time>
      </trkpt>
      <trkpt lat="46.7619" lon="5.63791">
        <ele>462.5</ele>
        <time>2021-10-07T09:02:16Z</time>
      </trkpt>
      <trkpt lat="46.76195" lon="5.63795">
        <ele>464.2</ele>
        <time>2021-10-07T09:02:22Z</time>
      </trkpt>
      <trkpt lat="46.76197" lon="5.63801">
        <ele>465.4</ele>
        <time>2021-10-07T09:02:28Z</time>
      </trkpt>
      <trkpt lat="46.76201" lon="5.63806">
        <ele>466.3</ele>
        <time>2021-10-07T09:02:33Z</time>
      </trkpt>
      <trkpt lat="46.76204" lon="5.63811">
        <ele>466.7</ele>
        <time>2021-10-07T09:02:38Z</time>
      </trkpt>
      <trkpt lat="46.76207" lon="5.63817">
        <ele>466.7</ele>
        <time>2021-10-07T09:02:44Z</time>
      </trkpt>
      <trkpt lat="46.76209" lon="5.63823">
        <ele>466.6</ele>
        <time>2021-10-07T09:02:49Z</time>
      </trkpt>
      <trkpt lat="46.76212" lon="5.63828">
        <ele>466.6</ele>
        <time>2021-10-07T09:02:56Z</time>
      </trkpt>
      <trkpt lat="46.76214" lon="5.63835">
        <ele>467.5</ele>
        <time>2021-10-07T09:03:02Z</time>
      </trkpt>
      <trkpt lat="46.76215" lon="5.63842">
        <ele>467.8</ele>
        <time>2021-10-07T09:03:09Z</time>
      </trkpt>
      <trkpt lat="46.76214" lon="5.63849">
        <ele>466.7</ele>
        <time>2021-10-07T09:03:15Z</time>
      </trkpt>
      <trkpt lat="46.76213" lon="5.63856">
        <ele>465.9</ele>
        <time>2021-10-07T09:03:20Z</time>
      </trkpt>
      <trkpt lat="46.76213" lon="5.63863">
        <ele>465.6</ele>
        <time>2021-10-07T09:03:25Z</time>
      </trkpt>
      <trkpt lat="46.76213" lon="5.6387">
        <ele>465.8</ele>
        <time>2021-10-07T09:03:31Z</time>
      </trkpt>
      <trkpt lat="46.76214" lon="5.63877">
        <ele>464.9</ele>
        <time>2021-10-07T09:03:38Z</time>
      </trkpt>
      <trkpt lat="46.76215" lon="5.63883">
        <ele>465.6</ele>
        <time>2021-10-07T09:03:44Z</time>
      </trkpt>
      <trkpt lat="46.76217" lon="5.63889">
        <ele>467.3</ele>
        <time>2021-10-07T09:03:54Z</time>
      </trkpt>
      <trkpt lat="46.76217" lon="5.63896">
        <ele>467.7</ele>
        <time>2021-10-07T09:04:04Z</time>
      </trkpt>
      <trkpt lat="46.76218" lon="5.63902">
        <ele>467.9</ele>
        <time>2021-10-07T09:04:11Z</time>
      </trkpt>
      <trkpt lat="46.76218" lon="5.63909">
        <ele>468.5</ele>
        <time>2021-10-07T09:04:15Z</time>
      </trkpt>
      <trkpt lat="46.76218" lon="5.63916">
        <ele>469.5</ele>
        <time>2021-10-07T09:04:19Z</time>
      </trkpt>
      <trkpt lat="46.76218" lon="5.63923">
        <ele>471.4</ele>
        <time>2021-10-07T09:04:24Z</time>
      </trkpt>
      <trkpt lat="46.76219" lon="5.6393">
        <ele>472.6</ele>
        <time>2021-10-07T09:04:29Z</time>
      </trkpt>
      <trkpt lat="46.76219" lon="5.63937">
        <ele>472.3</ele>
        <time>2021-10-07T09:04:35Z</time>
      </trkpt>
      <trkpt lat="46.76222" lon="5.63943">
        <ele>472.1</ele>
        <time>2021-10-07T09:04:42Z</time>
      </trkpt>
      <trkpt lat="46.76226" lon="5.63949">
        <ele>472.5</ele>
        <time>2021-10-07T09:04:48Z</time>
      </trkpt>
      <trkpt lat="46.76228" lon="5.63955">
        <ele>472.8</ele>
        <time>2021-10-07T09:04:55Z</time>
      </trkpt>
      <trkpt lat="46.7623" lon="5.63961">
        <ele>472.2</ele>
        <time>2021-10-07T09:05:02Z</time>
      </trkpt>
      <trkpt lat="46.76232" lon="5.63968">
        <ele>471.4</ele>
        <time>2021-10-07T09:05:07Z</time>
      </trkpt>
      <trkpt lat="46.76235" lon="5.63974">
        <ele>470.5</ele>
        <time>2021-10-07T09:05:12Z</time>
      </trkpt>
      <trkpt lat="46.76236" lon="5.63981">
        <ele>469.6</ele>
        <time>2021-10-07T09:05:16Z</time>
      </trkpt>
      <trkpt lat="46.76239" lon="5.63987">
        <ele>469.1</ele>
        <time>2021-10-07T09:05:21Z</time>
      </trkpt>
      <trkpt lat="46.76243" lon="5.63991">
        <ele>469.9</ele>
        <time>2021-10-07T09:05:27Z</time>
      </trkpt>
      <trkpt lat="46.76247" lon="5.63995">
        <ele>470.7</ele>
        <time>2021-10-07T09:05:32Z</time>
      </trkpt>
      <trkpt lat="46.76251" lon="5.63999">
        <ele>472.5</ele>
        <time>2021-10-07T09:05:37Z</time>
      </trkpt>
      <trkpt lat="46.7625" lon="5.64007">
        <ele>474.3</ele>
        <time>2021-10-07T09:05:43Z</time>
      </trkpt>
      <trkpt lat="46.76253" lon="5.64013">
        <ele>474.9</ele>
        <time>2021-10-07T09:05:49Z</time>
      </trkpt>
      <trkpt lat="46.76257" lon="5.64017">
        <ele>474.7</ele>
        <time>2021-10-07T09:05:55Z</time>
      </trkpt>
      <trkpt lat="46.7626" lon="5.64022">
        <ele>474.2</ele>
        <time>2021-10-07T09:05:59Z</time>
      </trkpt>
      <trkpt lat="46.76264" lon="5.64025">
        <ele>474</ele>
        <time>2021-10-07T09:06:02Z</time>
      </trkpt>
      <trkpt lat="46.76269" lon="5.6403">
        <ele>473.9</ele>
        <time>2021-10-07T09:06:06Z</time>
      </trkpt>
      <trkpt lat="46.76274" lon="5.64032">
        <ele>474.6</ele>
        <time>2021-10-07T09:06:11Z</time>
      </trkpt>
      <trkpt lat="46.76278" lon="5.64036">
        <ele>475.9</ele>
        <time>2021-10-07T09:06:16Z</time>
      </trkpt>
      <trkpt lat="46.76282" lon="5.64041">
        <ele>477.3</ele>
        <time>2021-10-07T09:06:20Z</time>
      </trkpt>
      <trkpt lat="46.76285" lon="5.64046">
        <ele>478.3</ele>
        <time>2021-10-07T09:06:25Z</time>
      </trkpt>
      <trkpt lat="46.76289" lon="5.64051">
        <ele>479.1</ele>
        <time>2021-10-07T09:06:31Z</time>
      </trkpt>
      <trkpt lat="46.76292" lon="5.64058">
        <ele>479.5</ele>
        <time>2021-10-07T09:06:36Z</time>
      </trkpt>
      <trkpt lat="46.76295" lon="5.64064">
        <ele>480</ele>
        <time>2021-10-07T09:06:58Z</time>
      </trkpt>
      <trkpt lat="46.763" lon="5.64066">
        <ele>480.3</ele>
        <time>2021-10-07T09:07:04Z</time>
      </trkpt>
      <trkpt lat="46.76304" lon="5.64069">
        <ele>480.9</ele>
        <time>2021-10-07T09:07:10Z</time>
      </trkpt>
      <trkpt lat="46.76308" lon="5.64064">
        <ele>481.4</ele>
        <time>2021-10-07T09:07:17Z</time>
      </trkpt>
      <trkpt lat="46.76312" lon="5.64061">
        <ele>481</ele>
        <time>2021-10-07T09:07:23Z</time>
      </trkpt>
      <trkpt lat="46.76316" lon="5.64057">
        <ele>480.7</ele>
        <time>2021-10-07T09:07:30Z</time>
      </trkpt>
      <trkpt lat="46.7632" lon="5.64052">
        <ele>481.6</ele>
        <time>2021-10-07T09:07:37Z</time>
      </trkpt>
      <trkpt lat="46.76325" lon="5.6405">
        <ele>482.3</ele>
        <time>2021-10-07T09:07:43Z</time>
      </trkpt>
      <trkpt lat="46.76329" lon="5.64047">
        <ele>482.4</ele>
        <time>2021-10-07T09:07:49Z</time>
      </trkpt>
      <trkpt lat="46.76334" lon="5.64045">
        <ele>482</ele>
        <time>2021-10-07T09:07:55Z</time>
      </trkpt>
      <trkpt lat="46.76338" lon="5.64043">
        <ele>481.9</ele>
        <time>2021-10-07T09:08:02Z</time>
      </trkpt>
      <trkpt lat="46.76343" lon="5.6404">
        <ele>482.3</ele>
        <time>2021-10-07T09:08:07Z</time>
      </trkpt>
      <trkpt lat="46.76347" lon="5.64037">
        <ele>482.2</ele>
        <time>2021-10-07T09:08:11Z</time>
      </trkpt>
      <trkpt lat="46.76351" lon="5.64035">
        <ele>481.8</ele>
        <time>2021-10-07T09:08:15Z</time>
      </trkpt>
      <trkpt lat="46.76355" lon="5.64032">
        <ele>481.6</ele>
        <time>2021-10-07T09:08:20Z</time>
      </trkpt>
      <trkpt lat="46.76359" lon="5.64029">
        <ele>482.7</ele>
        <time>2021-10-07T09:08:25Z</time>
      </trkpt>
      <trkpt lat="46.76363" lon="5.64025">
        <ele>483.8</ele>
        <time>2021-10-07T09:08:30Z</time>
      </trkpt>
      <trkpt lat="46.76368" lon="5.64021">
        <ele>483.6</ele>
        <time>2021-10-07T09:08:37Z</time>
      </trkpt>
      <trkpt lat="46.76372" lon="5.64018">
        <ele>482.2</ele>
        <time>2021-10-07T09:08:44Z</time>
      </trkpt>
      <trkpt lat="46.76377" lon="5.64014">
        <ele>481.4</ele>
        <time>2021-10-07T09:08:49Z</time>
      </trkpt>
      <trkpt lat="46.76382" lon="5.64012">
        <ele>480.8</ele>
        <time>2021-10-07T09:08:54Z</time>
      </trkpt>
      <trkpt lat="46.76387" lon="5.6401">
        <ele>481</ele>
        <time>2021-10-07T09:08:59Z</time>
      </trkpt>
      <trkpt lat="46.76391" lon="5.64009">
        <ele>481.2</ele>
        <time>2021-10-07T09:09:04Z</time>
      </trkpt>
      <trkpt lat="46.76396" lon="5.64008">
        <ele>481.2</ele>
        <time>2021-10-07T09:09:10Z</time>
      </trkpt>
      <trkpt lat="46.76402" lon="5.64007">
        <ele>481.3</ele>
        <time>2021-10-07T09:09:15Z</time>
      </trkpt>
      <trkpt lat="46.76407" lon="5.64005">
        <ele>481</ele>
        <time>2021-10-07T09:09:20Z</time>
      </trkpt>
      <trkpt lat="46.76412" lon="5.64003">
        <ele>481.1</ele>
        <time>2021-10-07T09:09:25Z</time>
      </trkpt>
      <trkpt lat="46.76417" lon="5.64002">
        <ele>481.7</ele>
        <time>2021-10-07T09:09:30Z</time>
      </trkpt>
      <trkpt lat="46.76422" lon="5.64002">
        <ele>481.7</ele>
        <time>2021-10-07T09:09:34Z</time>
      </trkpt>
      <trkpt lat="46.76427" lon="5.64001">
        <ele>481.3</ele>
        <time>2021-10-07T09:09:38Z</time>
      </trkpt>
      <trkpt lat="46.76432" lon="5.64">
        <ele>480.2</ele>
        <time>2021-10-07T09:09:43Z</time>
      </trkpt>
      <trkpt lat="46.76437" lon="5.63998">
        <ele>479.6</ele>
        <time>2021-10-07T09:09:48Z</time>
      </trkpt>
      <trkpt lat="46.76442" lon="5.63998">
        <ele>479.3</ele>
        <time>2021-10-07T09:09:53Z</time>
      </trkpt>
      <trkpt lat="46.76448" lon="5.63998">
        <ele>479.2</ele>
        <time>2021-10-07T09:09:58Z</time>
      </trkpt>
      <trkpt lat="46.76452" lon="5.63996">
        <ele>479.9</ele>
        <time>2021-10-07T09:10:03Z</time>
      </trkpt>
      <trkpt lat="46.76458" lon="5.63995">
        <ele>480.6</ele>
        <time>2021-10-07T09:10:09Z</time>
      </trkpt>
      <trkpt lat="46.76463" lon="5.63994">
        <ele>481.2</ele>
        <time>2021-10-07T09:10:14Z</time>
      </trkpt>
      <trkpt lat="46.76467" lon="5.63995">
        <ele>481.9</ele>
        <time>2021-10-07T09:10:19Z</time>
      </trkpt>
      <trkpt lat="46.76472" lon="5.63997">
        <ele>482.8</ele>
        <time>2021-10-07T09:10:24Z</time>
      </trkpt>
      <trkpt lat="46.76477" lon="5.63994">
        <ele>483.2</ele>
        <time>2021-10-07T09:10:29Z</time>
      </trkpt>
      <trkpt lat="46.76479" lon="5.63988">
        <ele>483.5</ele>
        <time>2021-10-07T09:10:37Z</time>
      </trkpt>
      <trkpt lat="46.76482" lon="5.63994">
        <ele>484.2</ele>
        <time>2021-10-07T09:10:45Z</time>
      </trkpt>
      <trkpt lat="46.76485" lon="5.63999">
        <ele>484.5</ele>
        <time>2021-10-07T09:10:50Z</time>
      </trkpt>
      <trkpt lat="46.7649" lon="5.64">
        <ele>484.7</ele>
        <time>2021-10-07T09:10:55Z</time>
      </trkpt>
      <trkpt lat="46.76495" lon="5.64001">
        <ele>485.2</ele>
        <time>2021-10-07T09:10:59Z</time>
      </trkpt>
      <trkpt lat="46.765" lon="5.64002">
        <ele>485.4</ele>
        <time>2021-10-07T09:11:03Z</time>
      </trkpt>
      <trkpt lat="46.76504" lon="5.64003">
        <ele>485.3</ele>
        <time>2021-10-07T09:11:07Z</time>
      </trkpt>
      <trkpt lat="46.76509" lon="5.64005">
        <ele>485.5</ele>
        <time>2021-10-07T09:11:12Z</time>
      </trkpt>
      <trkpt lat="46.76514" lon="5.64007">
        <ele>485.8</ele>
        <time>2021-10-07T09:11:17Z</time>
      </trkpt>
      <trkpt lat="46.76519" lon="5.64007">
        <ele>485.9</ele>
        <time>2021-10-07T09:11:23Z</time>
      </trkpt>
      <trkpt lat="46.76524" lon="5.64009">
        <ele>485.8</ele>
        <time>2021-10-07T09:11:29Z</time>
      </trkpt>
      <trkpt lat="46.76528" lon="5.6401">
        <ele>486</ele>
        <time>2021-10-07T09:11:34Z</time>
      </trkpt>
      <trkpt lat="46.76533" lon="5.64012">
        <ele>486.9</ele>
        <time>2021-10-07T09:11:39Z</time>
      </trkpt>
      <trkpt lat="46.76538" lon="5.64013">
        <ele>487.4</ele>
        <time>2021-10-07T09:11:43Z</time>
      </trkpt>
      <trkpt lat="46.76542" lon="5.64015">
        <ele>487.6</ele>
        <time>2021-10-07T09:11:48Z</time>
      </trkpt>
      <trkpt lat="46.76548" lon="5.64017">
        <ele>488</ele>
        <time>2021-10-07T09:11:53Z</time>
      </trkpt>
      <trkpt lat="46.76552" lon="5.64019">
        <ele>488.1</ele>
        <time>2021-10-07T09:11:58Z</time>
      </trkpt>
      <trkpt lat="46.76557" lon="5.64021">
        <ele>488.9</ele>
        <time>2021-10-07T09:12:04Z</time>
      </trkpt>
      <trkpt lat="46.76562" lon="5.64022">
        <ele>489.7</ele>
        <time>2021-10-07T09:12:09Z</time>
      </trkpt>
      <trkpt lat="46.76567" lon="5.64022">
        <ele>490.5</ele>
        <time>2021-10-07T09:12:13Z</time>
      </trkpt>
      <trkpt lat="46.76572" lon="5.64024">
        <ele>491</ele>
        <time>2021-10-07T09:12:19Z</time>
      </trkpt>
      <trkpt lat="46.76577" lon="5.64026">
        <ele>491</ele>
        <time>2021-10-07T09:12:25Z</time>
      </trkpt>
      <trkpt lat="46.76582" lon="5.64028">
        <ele>490.9</ele>
        <time>2021-10-07T09:12:30Z</time>
      </trkpt>
      <trkpt lat="46.76587" lon="5.6403">
        <ele>491.3</ele>
        <time>2021-10-07T09:12:35Z</time>
      </trkpt>
      <trkpt lat="46.76591" lon="5.64033">
        <ele>491.5</ele>
        <time>2021-10-07T09:12:41Z</time>
      </trkpt>
      <trkpt lat="46.76596" lon="5.64033">
        <ele>491.6</ele>
        <time>2021-10-07T09:12:46Z</time>
      </trkpt>
      <trkpt lat="46.766" lon="5.64034">
        <ele>491.9</ele>
        <time>2021-10-07T09:12:51Z</time>
      </trkpt>
      <trkpt lat="46.76605" lon="5.64035">
        <ele>492.4</ele>
        <time>2021-10-07T09:12:56Z</time>
      </trkpt>
      <trkpt lat="46.7661" lon="5.64036">
        <ele>493.1</ele>
        <time>2021-10-07T09:13:00Z</time>
      </trkpt>
      <trkpt lat="46.76615" lon="5.64036">
        <ele>494.1</ele>
        <time>2021-10-07T09:13:05Z</time>
      </trkpt>
      <trkpt lat="46.76621" lon="5.64037">
        <ele>494.4</ele>
        <time>2021-10-07T09:13:11Z</time>
      </trkpt>
      <trkpt lat="46.76626" lon="5.64037">
        <ele>494</ele>
        <time>2021-10-07T09:13:17Z</time>
      </trkpt>
      <trkpt lat="46.76631" lon="5.64039">
        <ele>493.2</ele>
        <time>2021-10-07T09:13:23Z</time>
      </trkpt>
      <trkpt lat="46.76636" lon="5.64041">
        <ele>493</ele>
        <time>2021-10-07T09:13:29Z</time>
      </trkpt>
      <trkpt lat="46.76641" lon="5.64042">
        <ele>492.9</ele>
        <time>2021-10-07T09:13:34Z</time>
      </trkpt>
      <trkpt lat="46.76646" lon="5.64042">
        <ele>492.9</ele>
        <time>2021-10-07T09:13:39Z</time>
      </trkpt>
      <trkpt lat="46.76651" lon="5.64043">
        <ele>493.1</ele>
        <time>2021-10-07T09:13:44Z</time>
      </trkpt>
      <trkpt lat="46.76656" lon="5.64044">
        <ele>493</ele>
        <time>2021-10-07T09:13:49Z</time>
      </trkpt>
      <trkpt lat="46.76661" lon="5.64046">
        <ele>493</ele>
        <time>2021-10-07T09:13:55Z</time>
      </trkpt>
      <trkpt lat="46.76666" lon="5.64047">
        <ele>493.1</ele>
        <time>2021-10-07T09:14:02Z</time>
      </trkpt>
      <trkpt lat="46.76671" lon="5.64049">
        <ele>493.2</ele>
        <time>2021-10-07T09:14:08Z</time>
      </trkpt>
      <trkpt lat="46.76676" lon="5.64051">
        <ele>492.9</ele>
        <time>2021-10-07T09:14:12Z</time>
      </trkpt>
      <trkpt lat="46.7668" lon="5.64054">
        <ele>492.3</ele>
        <time>2021-10-07T09:14:17Z</time>
      </trkpt>
      <trkpt lat="46.76685" lon="5.64056">
        <ele>492.1</ele>
        <time>2021-10-07T09:14:22Z</time>
      </trkpt>
      <trkpt lat="46.7669" lon="5.64058">
        <ele>492</ele>
        <time>2021-10-07T09:14:26Z</time>
      </trkpt>
      <trkpt lat="46.76694" lon="5.6406">
        <ele>491.9</ele>
        <time>2021-10-07T09:14:30Z</time>
      </trkpt>
      <trkpt lat="46.76699" lon="5.64064">
        <ele>491.8</ele>
        <time>2021-10-07T09:14:35Z</time>
      </trkpt>
      <trkpt lat="46.76704" lon="5.64066">
        <ele>491.7</ele>
        <time>2021-10-07T09:14:39Z</time>
      </trkpt>
      <trkpt lat="46.76708" lon="5.64069">
        <ele>491.5</ele>
        <time>2021-10-07T09:14:44Z</time>
      </trkpt>
      <trkpt lat="46.76713" lon="5.64072">
        <ele>490.9</ele>
        <time>2021-10-07T09:14:50Z</time>
      </trkpt>
      <trkpt lat="46.76718" lon="5.64073">
        <ele>490.5</ele>
        <time>2021-10-07T09:14:54Z</time>
      </trkpt>
      <trkpt lat="46.76723" lon="5.64074">
        <ele>490.6</ele>
        <time>2021-10-07T09:14:58Z</time>
      </trkpt>
      <trkpt lat="46.76728" lon="5.64076">
        <ele>490.6</ele>
        <time>2021-10-07T09:15:02Z</time>
      </trkpt>
      <trkpt lat="46.76733" lon="5.64079">
        <ele>490.4</ele>
        <time>2021-10-07T09:15:07Z</time>
      </trkpt>
      <trkpt lat="46.76737" lon="5.6408">
        <ele>490</ele>
        <time>2021-10-07T09:15:12Z</time>
      </trkpt>
      <trkpt lat="46.76742" lon="5.64084">
        <ele>490.1</ele>
        <time>2021-10-07T09:15:17Z</time>
      </trkpt>
      <trkpt lat="46.76746" lon="5.64087">
        <ele>490</ele>
        <time>2021-10-07T09:15:22Z</time>
      </trkpt>
      <trkpt lat="46.76751" lon="5.64089">
        <ele>489.6</ele>
        <time>2021-10-07T09:15:27Z</time>
      </trkpt>
      <trkpt lat="46.76755" lon="5.6409">
        <ele>488.5</ele>
        <time>2021-10-07T09:15:33Z</time>
      </trkpt>
      <trkpt lat="46.76761" lon="5.64092">
        <ele>487.7</ele>
        <time>2021-10-07T09:15:38Z</time>
      </trkpt>
      <trkpt lat="46.76765" lon="5.64093">
        <ele>487.7</ele>
        <time>2021-10-07T09:15:42Z</time>
      </trkpt>
      <trkpt lat="46.7677" lon="5.64093">
        <ele>488</ele>
        <time>2021-10-07T09:15:47Z</time>
      </trkpt>
      <trkpt lat="46.76774" lon="5.64094">
        <ele>488</ele>
        <time>2021-10-07T09:15:51Z</time>
      </trkpt>
      <trkpt lat="46.76779" lon="5.64095">
        <ele>487.9</ele>
        <time>2021-10-07T09:15:55Z</time>
      </trkpt>
      <trkpt lat="46.76784" lon="5.64095">
        <ele>487.8</ele>
        <time>2021-10-07T09:16:00Z</time>
      </trkpt>
      <trkpt lat="46.76789" lon="5.64095">
        <ele>487.5</ele>
        <time>2021-10-07T09:16:05Z</time>
      </trkpt>
      <trkpt lat="46.76793" lon="5.64097">
        <ele>487.7</ele>
        <time>2021-10-07T09:16:10Z</time>
      </trkpt>
      <trkpt lat="46.76798" lon="5.641">
        <ele>487.8</ele>
        <time>2021-10-07T09:16:16Z</time>
      </trkpt>
      <trkpt lat="46.76803" lon="5.64101">
        <ele>487.5</ele>
        <time>2021-10-07T09:16:21Z</time>
      </trkpt>
      <trkpt lat="46.76808" lon="5.64102">
        <ele>486.7</ele>
        <time>2021-10-07T09:16:27Z</time>
      </trkpt>
      <trkpt lat="46.76813" lon="5.64101">
        <ele>486.2</ele>
        <time>2021-10-07T09:16:32Z</time>
      </trkpt>
      <trkpt lat="46.76817" lon="5.64097">
        <ele>486</ele>
        <time>2021-10-07T09:16:36Z</time>
      </trkpt>
      <trkpt lat="46.76821" lon="5.64093">
        <ele>485.6</ele>
        <time>2021-10-07T09:16:41Z</time>
      </trkpt>
      <trkpt lat="46.76822" lon="5.64101">
        <ele>484.4</ele>
        <time>2021-10-07T09:17:09Z</time>
      </trkpt>
      <trkpt lat="46.76817" lon="5.64101">
        <ele>484.1</ele>
        <time>2021-10-07T09:17:25Z</time>
      </trkpt>
      <trkpt lat="46.76822" lon="5.64104">
        <ele>484.3</ele>
        <time>2021-10-07T09:17:36Z</time>
      </trkpt>
      <trkpt lat="46.76827" lon="5.64101">
        <ele>484.1</ele>
        <time>2021-10-07T09:17:40Z</time>
      </trkpt>
      <trkpt lat="46.76832" lon="5.64101">
        <ele>483.8</ele>
        <time>2021-10-07T09:17:45Z</time>
      </trkpt>
      <trkpt lat="46.76838" lon="5.64101">
        <ele>484.1</ele>
        <time>2021-10-07T09:17:49Z</time>
      </trkpt>
      <trkpt lat="46.76843" lon="5.641">
        <ele>484.2</ele>
        <time>2021-10-07T09:17:53Z</time>
      </trkpt>
      <trkpt lat="46.76848" lon="5.64099">
        <ele>484.4</ele>
        <time>2021-10-07T09:17:57Z</time>
      </trkpt>
      <trkpt lat="46.76854" lon="5.64097">
        <ele>484.6</ele>
        <time>2021-10-07T09:18:01Z</time>
      </trkpt>
      <trkpt lat="46.76859" lon="5.64097">
        <ele>484.8</ele>
        <time>2021-10-07T09:18:04Z</time>
      </trkpt>
      <trkpt lat="46.76864" lon="5.64097">
        <ele>485.3</ele>
        <time>2021-10-07T09:18:08Z</time>
      </trkpt>
      <trkpt lat="46.76869" lon="5.64096">
        <ele>485.7</ele>
        <time>2021-10-07T09:18:12Z</time>
      </trkpt>
      <trkpt lat="46.76874" lon="5.64095">
        <ele>486</ele>
        <time>2021-10-07T09:18:17Z</time>
      </trkpt>
      <trkpt lat="46.76879" lon="5.64093">
        <ele>485.8</ele>
        <time>2021-10-07T09:18:22Z</time>
      </trkpt>
      <trkpt lat="46.76885" lon="5.64091">
        <ele>485.5</ele>
        <time>2021-10-07T09:18:26Z</time>
      </trkpt>
      <trkpt lat="46.76889" lon="5.64091">
        <ele>485</ele>
        <time>2021-10-07T09:18:30Z</time>
      </trkpt>
      <trkpt lat="46.76895" lon="5.64091">
        <ele>484.8</ele>
        <time>2021-10-07T09:18:34Z</time>
      </trkpt>
      <trkpt lat="46.76899" lon="5.64091">
        <ele>485.3</ele>
        <time>2021-10-07T09:18:39Z</time>
      </trkpt>
      <trkpt lat="46.76903" lon="5.64086">
        <ele>486.2</ele>
        <time>2021-10-07T09:18:46Z</time>
      </trkpt>
      <trkpt lat="46.76907" lon="5.6408">
        <ele>487</ele>
        <time>2021-10-07T09:18:52Z</time>
      </trkpt>
      <trkpt lat="46.76911" lon="5.64075">
        <ele>487.6</ele>
        <time>2021-10-07T09:18:57Z</time>
      </trkpt>
      <trkpt lat="46.7691" lon="5.64069">
        <ele>487.8</ele>
        <time>2021-10-07T09:19:02Z</time>
      </trkpt>
      <trkpt lat="46.76909" lon="5.64062">
        <ele>487.6</ele>
        <time>2021-10-07T09:19:06Z</time>
      </trkpt>
      <trkpt lat="46.76911" lon="5.64055">
        <ele>488</ele>
        <time>2021-10-07T09:19:12Z</time>
      </trkpt>
      <trkpt lat="46.76913" lon="5.64047">
        <ele>488</ele>
        <time>2021-10-07T09:19:18Z</time>
      </trkpt>
      <trkpt lat="46.76915" lon="5.64041">
        <ele>488.1</ele>
        <time>2021-10-07T09:19:22Z</time>
      </trkpt>
      <trkpt lat="46.76918" lon="5.64035">
        <ele>488.5</ele>
        <time>2021-10-07T09:19:26Z</time>
      </trkpt>
      <trkpt lat="46.76921" lon="5.64028">
        <ele>488.9</ele>
        <time>2021-10-07T09:19:32Z</time>
      </trkpt>
      <trkpt lat="46.76923" lon="5.64022">
        <ele>489.2</ele>
        <time>2021-10-07T09:19:36Z</time>
      </trkpt>
      <trkpt lat="46.76925" lon="5.64015">
        <ele>489.8</ele>
        <time>2021-10-07T09:19:43Z</time>
      </trkpt>
      <trkpt lat="46.76926" lon="5.64008">
        <ele>490.2</ele>
        <time>2021-10-07T09:19:51Z</time>
      </trkpt>
      <trkpt lat="46.76929" lon="5.64001">
        <ele>489.5</ele>
        <time>2021-10-07T09:19:56Z</time>
      </trkpt>
      <trkpt lat="46.7693" lon="5.63994">
        <ele>488.4</ele>
        <time>2021-10-07T09:20:01Z</time>
      </trkpt>
      <trkpt lat="46.76932" lon="5.63987">
        <ele>488</ele>
        <time>2021-10-07T09:20:08Z</time>
      </trkpt>
      <trkpt lat="46.76934" lon="5.63981">
        <ele>488.6</ele>
        <time>2021-10-07T09:20:12Z</time>
      </trkpt>
      <trkpt lat="46.76939" lon="5.63977">
        <ele>490.2</ele>
        <time>2021-10-07T09:20:17Z</time>
      </trkpt>
      <trkpt lat="46.76942" lon="5.63972">
        <ele>491.4</ele>
        <time>2021-10-07T09:20:23Z</time>
      </trkpt>
      <trkpt lat="46.76945" lon="5.63965">
        <ele>491.5</ele>
        <time>2021-10-07T09:20:28Z</time>
      </trkpt>
      <trkpt lat="46.76947" lon="5.6396">
        <ele>491.6</ele>
        <time>2021-10-07T09:20:32Z</time>
      </trkpt>
      <trkpt lat="46.76949" lon="5.63953">
        <ele>491.9</ele>
        <time>2021-10-07T09:20:37Z</time>
      </trkpt>
      <trkpt lat="46.76948" lon="5.63945">
        <ele>491.8</ele>
        <time>2021-10-07T09:20:42Z</time>
      </trkpt>
      <trkpt lat="46.76948" lon="5.63938">
        <ele>491.8</ele>
        <time>2021-10-07T09:20:48Z</time>
      </trkpt>
      <trkpt lat="46.7695" lon="5.63932">
        <ele>491.5</ele>
        <time>2021-10-07T09:20:54Z</time>
      </trkpt>
      <trkpt lat="46.76953" lon="5.63926">
        <ele>490.7</ele>
        <time>2021-10-07T09:21:03Z</time>
      </trkpt>
      <trkpt lat="46.76955" lon="5.63918">
        <ele>490.4</ele>
        <time>2021-10-07T09:21:09Z</time>
      </trkpt>
      <trkpt lat="46.76956" lon="5.63911">
        <ele>490.1</ele>
        <time>2021-10-07T09:21:13Z</time>
      </trkpt>
      <trkpt lat="46.76959" lon="5.63905">
        <ele>489</ele>
        <time>2021-10-07T09:21:19Z</time>
      </trkpt>
      <trkpt lat="46.76961" lon="5.63899">
        <ele>487.8</ele>
        <time>2021-10-07T09:21:24Z</time>
      </trkpt>
      <trkpt lat="46.76965" lon="5.63894">
        <ele>485.8</ele>
        <time>2021-10-07T09:21:31Z</time>
      </trkpt>
      <trkpt lat="46.76969" lon="5.6389">
        <ele>484.6</ele>
        <time>2021-10-07T09:21:36Z</time>
      </trkpt>
      <trkpt lat="46.76973" lon="5.63886">
        <ele>484.1</ele>
        <time>2021-10-07T09:21:42Z</time>
      </trkpt>
      <trkpt lat="46.76976" lon="5.63881">
        <ele>483.6</ele>
        <time>2021-10-07T09:21:48Z</time>
      </trkpt>
      <trkpt lat="46.7698" lon="5.63876">
        <ele>483.4</ele>
        <time>2021-10-07T09:21:54Z</time>
      </trkpt>
      <trkpt lat="46.76983" lon="5.6387">
        <ele>483</ele>
        <time>2021-10-07T09:22:00Z</time>
      </trkpt>
      <trkpt lat="46.76984" lon="5.63863">
        <ele>481.5</ele>
        <time>2021-10-07T09:22:06Z</time>
      </trkpt>
      <trkpt lat="46.76988" lon="5.63857">
        <ele>480.7</ele>
        <time>2021-10-07T09:22:10Z</time>
      </trkpt>
      <trkpt lat="46.76991" lon="5.63852">
        <ele>480.1</ele>
        <time>2021-10-07T09:22:14Z</time>
      </trkpt>
      <trkpt lat="46.76994" lon="5.63847">
        <ele>479.6</ele>
        <time>2021-10-07T09:22:19Z</time>
      </trkpt>
      <trkpt lat="46.76997" lon="5.63841">
        <ele>479.1</ele>
        <time>2021-10-07T09:22:23Z</time>
      </trkpt>
      <trkpt lat="46.76999" lon="5.63832">
        <ele>478.3</ele>
        <time>2021-10-07T09:22:27Z</time>
      </trkpt>
      <trkpt lat="46.77" lon="5.63825">
        <ele>477.1</ele>
        <time>2021-10-07T09:22:32Z</time>
      </trkpt>
      <trkpt lat="46.77003" lon="5.63819">
        <ele>476.4</ele>
        <time>2021-10-07T09:22:36Z</time>
      </trkpt>
      <trkpt lat="46.77004" lon="5.63812">
        <ele>476.6</ele>
        <time>2021-10-07T09:22:42Z</time>
      </trkpt>
      <trkpt lat="46.76999" lon="5.63813">
        <ele>477</ele>
        <time>2021-10-07T09:22:50Z</time>
      </trkpt>
      <trkpt lat="46.76995" lon="5.63818">
        <ele>476.3</ele>
        <time>2021-10-07T09:22:56Z</time>
      </trkpt>
      <trkpt lat="46.76991" lon="5.63821">
        <ele>475.4</ele>
        <time>2021-10-07T09:23:01Z</time>
      </trkpt>
      <trkpt lat="46.76986" lon="5.63821">
        <ele>473.6</ele>
        <time>2021-10-07T09:23:09Z</time>
      </trkpt>
      <trkpt lat="46.76985" lon="5.63815">
        <ele>473.5</ele>
        <time>2021-10-07T09:23:18Z</time>
      </trkpt>
      <trkpt lat="46.76985" lon="5.63808">
        <ele>473.2</ele>
        <time>2021-10-07T09:23:28Z</time>
      </trkpt>
      <trkpt lat="46.76985" lon="5.638">
        <ele>473.1</ele>
        <time>2021-10-07T09:23:31Z</time>
      </trkpt>
      <trkpt lat="46.76984" lon="5.63792">
        <ele>473.2</ele>
        <time>2021-10-07T09:23:34Z</time>
      </trkpt>
      <trkpt lat="46.76982" lon="5.63786">
        <ele>473.7</ele>
        <time>2021-10-07T09:23:39Z</time>
      </trkpt>
      <trkpt lat="46.76977" lon="5.63783">
        <ele>475.4</ele>
        <time>2021-10-07T09:23:47Z</time>
      </trkpt>
      <trkpt lat="46.76973" lon="5.63779">
        <ele>476.4</ele>
        <time>2021-10-07T09:23:53Z</time>
      </trkpt>
      <trkpt lat="46.76969" lon="5.63778">
        <ele>476.2</ele>
        <time>2021-10-07T09:23:57Z</time>
      </trkpt>
      <trkpt lat="46.76966" lon="5.63773">
        <ele>475.9</ele>
        <time>2021-10-07T09:24:03Z</time>
      </trkpt>
      <trkpt lat="46.76963" lon="5.63767">
        <ele>474</ele>
        <time>2021-10-07T09:24:14Z</time>
      </trkpt>
      <trkpt lat="46.76959" lon="5.63762">
        <ele>473.8</ele>
        <time>2021-10-07T09:24:17Z</time>
      </trkpt>
      <trkpt lat="46.76954" lon="5.6376">
        <ele>473.3</ele>
        <time>2021-10-07T09:24:21Z</time>
      </trkpt>
      <trkpt lat="46.7695" lon="5.63757">
        <ele>472.7</ele>
        <time>2021-10-07T09:24:27Z</time>
      </trkpt>
      <trkpt lat="46.76947" lon="5.63751">
        <ele>471.6</ele>
        <time>2021-10-07T09:24:33Z</time>
      </trkpt>
      <trkpt lat="46.76943" lon="5.63746">
        <ele>470.8</ele>
        <time>2021-10-07T09:24:40Z</time>
      </trkpt>
      <trkpt lat="46.76941" lon="5.63739">
        <ele>470.8</ele>
        <time>2021-10-07T09:24:48Z</time>
      </trkpt>
      <trkpt lat="46.76938" lon="5.63733">
        <ele>470.4</ele>
        <time>2021-10-07T09:24:54Z</time>
      </trkpt>
      <trkpt lat="46.76935" lon="5.63728">
        <ele>469.4</ele>
        <time>2021-10-07T09:25:04Z</time>
      </trkpt>
      <trkpt lat="46.76931" lon="5.63724">
        <ele>469.4</ele>
        <time>2021-10-07T09:25:11Z</time>
      </trkpt>
      <trkpt lat="46.76927" lon="5.63719">
        <ele>469</ele>
        <time>2021-10-07T09:25:20Z</time>
      </trkpt>
      <trkpt lat="46.76924" lon="5.63713">
        <ele>468.5</ele>
        <time>2021-10-07T09:25:25Z</time>
      </trkpt>
      <trkpt lat="46.76921" lon="5.63706">
        <ele>468.8</ele>
        <time>2021-10-07T09:25:29Z</time>
      </trkpt>
      <trkpt lat="46.76917" lon="5.63703">
        <ele>469.3</ele>
        <time>2021-10-07T09:25:34Z</time>
      </trkpt>
      <trkpt lat="46.76913" lon="5.63699">
        <ele>469.9</ele>
        <time>2021-10-07T09:25:39Z</time>
      </trkpt>
      <trkpt lat="46.76908" lon="5.63695">
        <ele>469.2</ele>
        <time>2021-10-07T09:25:45Z</time>
      </trkpt>
      <trkpt lat="46.76905" lon="5.63689">
        <ele>468.2</ele>
        <time>2021-10-07T09:25:50Z</time>
      </trkpt>
      <trkpt lat="46.76903" lon="5.63683">
        <ele>468.1</ele>
        <time>2021-10-07T09:25:54Z</time>
      </trkpt>
      <trkpt lat="46.769" lon="5.63678">
        <ele>468.8</ele>
        <time>2021-10-07T09:26:00Z</time>
      </trkpt>
      <trkpt lat="46.76898" lon="5.6367">
        <ele>469.6</ele>
        <time>2021-10-07T09:26:04Z</time>
      </trkpt>
      <trkpt lat="46.76895" lon="5.63664">
        <ele>470.5</ele>
        <time>2021-10-07T09:26:09Z</time>
      </trkpt>
      <trkpt lat="46.76892" lon="5.63659">
        <ele>471.3</ele>
        <time>2021-10-07T09:26:15Z</time>
      </trkpt>
      <trkpt lat="46.76888" lon="5.63655">
        <ele>472</ele>
        <time>2021-10-07T09:26:22Z</time>
      </trkpt>
      <trkpt lat="46.76884" lon="5.6365">
        <ele>472.2</ele>
        <time>2021-10-07T09:26:27Z</time>
      </trkpt>
      <trkpt lat="46.7688" lon="5.63645">
        <ele>472.2</ele>
        <time>2021-10-07T09:26:35Z</time>
      </trkpt>
      <trkpt lat="46.76876" lon="5.6364">
        <ele>472</ele>
        <time>2021-10-07T09:26:41Z</time>
      </trkpt>
      <trkpt lat="46.76872" lon="5.63635">
        <ele>472.2</ele>
        <time>2021-10-07T09:26:47Z</time>
      </trkpt>
      <trkpt lat="46.76869" lon="5.63631">
        <ele>472.3</ele>
        <time>2021-10-07T09:26:51Z</time>
      </trkpt>
      <trkpt lat="46.76866" lon="5.63626">
        <ele>472.5</ele>
        <time>2021-10-07T09:26:56Z</time>
      </trkpt>
      <trkpt lat="46.76865" lon="5.63619">
        <ele>472.6</ele>
        <time>2021-10-07T09:27:01Z</time>
      </trkpt>
      <trkpt lat="46.76863" lon="5.63613">
        <ele>472.6</ele>
        <time>2021-10-07T09:27:10Z</time>
      </trkpt>
      <trkpt lat="46.76863" lon="5.63606">
        <ele>472.5</ele>
        <time>2021-10-07T09:27:17Z</time>
      </trkpt>
      <trkpt lat="46.76864" lon="5.63599">
        <ele>471</ele>
        <time>2021-10-07T09:27:22Z</time>
      </trkpt>
      <trkpt lat="46.76867" lon="5.63593">
        <ele>468.6</ele>
        <time>2021-10-07T09:27:31Z</time>
      </trkpt>
      <trkpt lat="46.7687" lon="5.63588">
        <ele>468</ele>
        <time>2021-10-07T09:27:34Z</time>
      </trkpt>
      <trkpt lat="46.76873" lon="5.63584">
        <ele>468</ele>
        <time>2021-10-07T09:27:38Z</time>
      </trkpt>
      <trkpt lat="46.76877" lon="5.63579">
        <ele>468.7</ele>
        <time>2021-10-07T09:27:43Z</time>
      </trkpt>
      <trkpt lat="46.76879" lon="5.63572">
        <ele>469.7</ele>
        <time>2021-10-07T09:27:48Z</time>
      </trkpt>
      <trkpt lat="46.76882" lon="5.63566">
        <ele>470.6</ele>
        <time>2021-10-07T09:27:53Z</time>
      </trkpt>
      <trkpt lat="46.76886" lon="5.63562">
        <ele>470.7</ele>
        <time>2021-10-07T09:27:59Z</time>
      </trkpt>
      <trkpt lat="46.76891" lon="5.63558">
        <ele>470.7</ele>
        <time>2021-10-07T09:28:04Z</time>
      </trkpt>
      <trkpt lat="46.76895" lon="5.63553">
        <ele>471.6</ele>
        <time>2021-10-07T09:28:12Z</time>
      </trkpt>
      <trkpt lat="46.769" lon="5.63551">
        <ele>472.7</ele>
        <time>2021-10-07T09:28:17Z</time>
      </trkpt>
      <trkpt lat="46.76902" lon="5.63545">
        <ele>474.4</ele>
        <time>2021-10-07T09:28:23Z</time>
      </trkpt>
      <trkpt lat="46.76905" lon="5.63539">
        <ele>475.9</ele>
        <time>2021-10-07T09:28:29Z</time>
      </trkpt>
      <trkpt lat="46.76907" lon="5.63531">
        <ele>476.8</ele>
        <time>2021-10-07T09:28:39Z</time>
      </trkpt>
      <trkpt lat="46.76909" lon="5.63523">
        <ele>476.7</ele>
        <time>2021-10-07T09:28:43Z</time>
      </trkpt>
      <trkpt lat="46.76909" lon="5.63516">
        <ele>476.3</ele>
        <time>2021-10-07T09:28:49Z</time>
      </trkpt>
      <trkpt lat="46.76911" lon="5.6351">
        <ele>476.1</ele>
        <time>2021-10-07T09:28:56Z</time>
      </trkpt>
      <trkpt lat="46.76913" lon="5.63504">
        <ele>475.8</ele>
        <time>2021-10-07T09:29:00Z</time>
      </trkpt>
      <trkpt lat="46.76915" lon="5.63496">
        <ele>475.4</ele>
        <time>2021-10-07T09:29:05Z</time>
      </trkpt>
      <trkpt lat="46.76913" lon="5.6349">
        <ele>474.8</ele>
        <time>2021-10-07T09:29:10Z</time>
      </trkpt>
      <trkpt lat="46.76914" lon="5.63482">
        <ele>473.6</ele>
        <time>2021-10-07T09:29:21Z</time>
      </trkpt>
      <trkpt lat="46.76914" lon="5.63476">
        <ele>472.7</ele>
        <time>2021-10-07T09:29:26Z</time>
      </trkpt>
      <trkpt lat="46.76915" lon="5.63469">
        <ele>471.8</ele>
        <time>2021-10-07T09:29:30Z</time>
      </trkpt>
      <trkpt lat="46.76915" lon="5.63461">
        <ele>470.9</ele>
        <time>2021-10-07T09:29:35Z</time>
      </trkpt>
      <trkpt lat="46.76912" lon="5.63454">
        <ele>470</ele>
        <time>2021-10-07T09:29:42Z</time>
      </trkpt>
      <trkpt lat="46.76911" lon="5.63448">
        <ele>469.6</ele>
        <time>2021-10-07T09:29:49Z</time>
      </trkpt>
      <trkpt lat="46.76909" lon="5.63442">
        <ele>469.1</ele>
        <time>2021-10-07T09:29:54Z</time>
      </trkpt>
      <trkpt lat="46.76906" lon="5.63435">
        <ele>468.7</ele>
        <time>2021-10-07T09:30:01Z</time>
      </trkpt>
      <trkpt lat="46.76904" lon="5.63429">
        <ele>468.3</ele>
        <time>2021-10-07T09:30:07Z</time>
      </trkpt>
      <trkpt lat="46.76901" lon="5.63423">
        <ele>467.8</ele>
        <time>2021-10-07T09:30:16Z</time>
      </trkpt>
      <trkpt lat="46.769" lon="5.63415">
        <ele>467.5</ele>
        <time>2021-10-07T09:30:19Z</time>
      </trkpt>
      <trkpt lat="46.76899" lon="5.63408">
        <ele>467.1</ele>
        <time>2021-10-07T09:30:22Z</time>
      </trkpt>
      <trkpt lat="46.76898" lon="5.63401">
        <ele>467.2</ele>
        <time>2021-10-07T09:30:25Z</time>
      </trkpt>
      <trkpt lat="46.76896" lon="5.63394">
        <ele>467.6</ele>
        <time>2021-10-07T09:30:30Z</time>
      </trkpt>
      <trkpt lat="46.76899" lon="5.63389">
        <ele>468</ele>
        <time>2021-10-07T09:30:38Z</time>
      </trkpt>
      <trkpt lat="46.76899" lon="5.63382">
        <ele>468.2</ele>
        <time>2021-10-07T09:30:43Z</time>
      </trkpt>
      <trkpt lat="46.76898" lon="5.63375">
        <ele>468.3</ele>
        <time>2021-10-07T09:30:47Z</time>
      </trkpt>
      <trkpt lat="46.76897" lon="5.63367">
        <ele>468.4</ele>
        <time>2021-10-07T09:30:51Z</time>
      </trkpt>
      <trkpt lat="46.76895" lon="5.6336">
        <ele>468.3</ele>
        <time>2021-10-07T09:30:55Z</time>
      </trkpt>
      <trkpt lat="46.76894" lon="5.63353">
        <ele>467.8</ele>
        <time>2021-10-07T09:31:00Z</time>
      </trkpt>
      <trkpt lat="46.76891" lon="5.63346">
        <ele>467.5</ele>
        <time>2021-10-07T09:31:06Z</time>
      </trkpt>
      <trkpt lat="46.76889" lon="5.6334">
        <ele>467.4</ele>
        <time>2021-10-07T09:31:10Z</time>
      </trkpt>
      <trkpt lat="46.76886" lon="5.63334">
        <ele>467.6</ele>
        <time>2021-10-07T09:31:14Z</time>
      </trkpt>
      <trkpt lat="46.76884" lon="5.63328">
        <ele>468.2</ele>
        <time>2021-10-07T09:31:19Z</time>
      </trkpt>
      <trkpt lat="46.76881" lon="5.63322">
        <ele>468.6</ele>
        <time>2021-10-07T09:31:23Z</time>
      </trkpt>
      <trkpt lat="46.76881" lon="5.63315">
        <ele>468.6</ele>
        <time>2021-10-07T09:31:29Z</time>
      </trkpt>
      <trkpt lat="46.7688" lon="5.63308">
        <ele>468.7</ele>
        <time>2021-10-07T09:31:35Z</time>
      </trkpt>
      <trkpt lat="46.76878" lon="5.633">
        <ele>469.3</ele>
        <time>2021-10-07T09:31:41Z</time>
      </trkpt>
      <trkpt lat="46.76878" lon="5.63293">
        <ele>469.9</ele>
        <time>2021-10-07T09:31:45Z</time>
      </trkpt>
      <trkpt lat="46.76877" lon="5.63286">
        <ele>470.7</ele>
        <time>2021-10-07T09:31:48Z</time>
      </trkpt>
      <trkpt lat="46.76875" lon="5.6328">
        <ele>471.3</ele>
        <time>2021-10-07T09:31:51Z</time>
      </trkpt>
      <trkpt lat="46.76872" lon="5.63274">
        <ele>471.9</ele>
        <time>2021-10-07T09:31:55Z</time>
      </trkpt>
      <trkpt lat="46.7687" lon="5.63267">
        <ele>472.3</ele>
        <time>2021-10-07T09:32:02Z</time>
      </trkpt>
      <trkpt lat="46.7687" lon="5.6326">
        <ele>471.1</ele>
        <time>2021-10-07T09:32:10Z</time>
      </trkpt>
      <trkpt lat="46.76868" lon="5.63253">
        <ele>469.2</ele>
        <time>2021-10-07T09:32:17Z</time>
      </trkpt>
      <trkpt lat="46.76867" lon="5.63247">
        <ele>468.2</ele>
        <time>2021-10-07T09:32:21Z</time>
      </trkpt>
      <trkpt lat="46.76864" lon="5.63241">
        <ele>467.4</ele>
        <time>2021-10-07T09:32:25Z</time>
      </trkpt>
      <trkpt lat="46.76861" lon="5.63236">
        <ele>466.9</ele>
        <time>2021-10-07T09:32:29Z</time>
      </trkpt>
      <trkpt lat="46.76859" lon="5.63229">
        <ele>466.2</ele>
        <time>2021-10-07T09:32:36Z</time>
      </trkpt>
      <trkpt lat="46.76854" lon="5.63227">
        <ele>465.5</ele>
        <time>2021-10-07T09:32:46Z</time>
      </trkpt>
      <trkpt lat="46.76851" lon="5.63222">
        <ele>465.7</ele>
        <time>2021-10-07T09:32:49Z</time>
      </trkpt>
      <trkpt lat="46.76847" lon="5.63218">
        <ele>466.3</ele>
        <time>2021-10-07T09:32:52Z</time>
      </trkpt>
      <trkpt lat="46.76843" lon="5.63214">
        <ele>467.7</ele>
        <time>2021-10-07T09:32:56Z</time>
      </trkpt>
      <trkpt lat="46.7684" lon="5.63208">
        <ele>469.2</ele>
        <time>2021-10-07T09:33:00Z</time>
      </trkpt>
      <trkpt lat="46.76839" lon="5.63201">
        <ele>470.7</ele>
        <time>2021-10-07T09:33:05Z</time>
      </trkpt>
      <trkpt lat="46.76837" lon="5.63194">
        <ele>471.7</ele>
        <time>2021-10-07T09:33:10Z</time>
      </trkpt>
      <trkpt lat="46.76834" lon="5.63188">
        <ele>472.5</ele>
        <time>2021-10-07T09:33:16Z</time>
      </trkpt>
      <trkpt lat="46.76831" lon="5.63182">
        <ele>472.8</ele>
        <time>2021-10-07T09:33:21Z</time>
      </trkpt>
      <trkpt lat="46.76829" lon="5.63176">
        <ele>473.2</ele>
        <time>2021-10-07T09:33:27Z</time>
      </trkpt>
      <trkpt lat="46.76825" lon="5.63171">
        <ele>473.3</ele>
        <time>2021-10-07T09:33:32Z</time>
      </trkpt>
      <trkpt lat="46.76821" lon="5.63166">
        <ele>473.5</ele>
        <time>2021-10-07T09:33:38Z</time>
      </trkpt>
      <trkpt lat="46.76818" lon="5.6316">
        <ele>473.7</ele>
        <time>2021-10-07T09:33:45Z</time>
      </trkpt>
      <trkpt lat="46.76814" lon="5.63155">
        <ele>474.2</ele>
        <time>2021-10-07T09:33:50Z</time>
      </trkpt>
      <trkpt lat="46.7681" lon="5.6315">
        <ele>474.3</ele>
        <time>2021-10-07T09:33:54Z</time>
      </trkpt>
      <trkpt lat="46.76808" lon="5.63144">
        <ele>474.2</ele>
        <time>2021-10-07T09:34:01Z</time>
      </trkpt>
      <trkpt lat="46.76805" lon="5.63139">
        <ele>474.4</ele>
        <time>2021-10-07T09:34:06Z</time>
      </trkpt>
      <trkpt lat="46.76802" lon="5.63134">
        <ele>474.8</ele>
        <time>2021-10-07T09:34:10Z</time>
      </trkpt>
      <trkpt lat="46.76799" lon="5.63129">
        <ele>475.1</ele>
        <time>2021-10-07T09:34:14Z</time>
      </trkpt>
      <trkpt lat="46.76796" lon="5.63123">
        <ele>475.7</ele>
        <time>2021-10-07T09:34:19Z</time>
      </trkpt>
      <trkpt lat="46.76796" lon="5.63116">
        <ele>475.9</ele>
        <time>2021-10-07T09:34:25Z</time>
      </trkpt>
      <trkpt lat="46.76792" lon="5.63111">
        <ele>475.6</ele>
        <time>2021-10-07T09:34:30Z</time>
      </trkpt>
      <trkpt lat="46.76788" lon="5.63107">
        <ele>475.2</ele>
        <time>2021-10-07T09:34:36Z</time>
      </trkpt>
      <trkpt lat="46.76783" lon="5.63101">
        <ele>475</ele>
        <time>2021-10-07T09:34:43Z</time>
      </trkpt>
      <trkpt lat="46.76779" lon="5.63096">
        <ele>474.9</ele>
        <time>2021-10-07T09:34:47Z</time>
      </trkpt>
      <trkpt lat="46.76774" lon="5.63095">
        <ele>474.7</ele>
        <time>2021-10-07T09:34:51Z</time>
      </trkpt>
      <trkpt lat="46.7677" lon="5.63091">
        <ele>473.5</ele>
        <time>2021-10-07T09:34:59Z</time>
      </trkpt>
      <trkpt lat="46.76766" lon="5.63087">
        <ele>473</ele>
        <time>2021-10-07T09:35:04Z</time>
      </trkpt>
      <trkpt lat="46.76761" lon="5.63083">
        <ele>472.1</ele>
        <time>2021-10-07T09:35:11Z</time>
      </trkpt>
      <trkpt lat="46.76757" lon="5.63079">
        <ele>471.5</ele>
        <time>2021-10-07T09:35:16Z</time>
      </trkpt>
      <trkpt lat="46.76754" lon="5.63073">
        <ele>470.4</ele>
        <time>2021-10-07T09:35:22Z</time>
      </trkpt>
      <trkpt lat="46.76749" lon="5.63072">
        <ele>470</ele>
        <time>2021-10-07T09:35:28Z</time>
      </trkpt>
      <trkpt lat="46.76744" lon="5.63069">
        <ele>469.9</ele>
        <time>2021-10-07T09:35:33Z</time>
      </trkpt>
      <trkpt lat="46.7674" lon="5.63066">
        <ele>469.9</ele>
        <time>2021-10-07T09:35:38Z</time>
      </trkpt>
      <trkpt lat="46.76735" lon="5.63063">
        <ele>470.1</ele>
        <time>2021-10-07T09:35:43Z</time>
      </trkpt>
      <trkpt lat="46.76728" lon="5.63059">
        <ele>471.1</ele>
        <time>2021-10-07T09:35:55Z</time>
      </trkpt>
      <trkpt lat="46.76723" lon="5.63056">
        <ele>471.2</ele>
        <time>2021-10-07T09:35:59Z</time>
      </trkpt>
      <trkpt lat="46.7672" lon="5.63051">
        <ele>471</ele>
        <time>2021-10-07T09:36:04Z</time>
      </trkpt>
      <trkpt lat="46.76715" lon="5.63048">
        <ele>470.7</ele>
        <time>2021-10-07T09:36:09Z</time>
      </trkpt>
      <trkpt lat="46.76713" lon="5.63042">
        <ele>470.4</ele>
        <time>2021-10-07T09:36:14Z</time>
      </trkpt>
      <trkpt lat="46.76712" lon="5.63035">
        <ele>470.4</ele>
        <time>2021-10-07T09:36:18Z</time>
      </trkpt>
      <trkpt lat="46.76713" lon="5.63028">
        <ele>470.1</ele>
        <time>2021-10-07T09:36:23Z</time>
      </trkpt>
      <trkpt lat="46.76713" lon="5.6302">
        <ele>469.3</ele>
        <time>2021-10-07T09:36:28Z</time>
      </trkpt>
      <trkpt lat="46.76712" lon="5.63013">
        <ele>468</ele>
        <time>2021-10-07T09:36:33Z</time>
      </trkpt>
      <trkpt lat="46.76711" lon="5.63006">
        <ele>467.4</ele>
        <time>2021-10-07T09:36:37Z</time>
      </trkpt>
      <trkpt lat="46.76709" lon="5.63">
        <ele>467</ele>
        <time>2021-10-07T09:36:43Z</time>
      </trkpt>
      <trkpt lat="46.76708" lon="5.62992">
        <ele>466.3</ele>
        <time>2021-10-07T09:36:48Z</time>
      </trkpt>
      <trkpt lat="46.76706" lon="5.62984">
        <ele>465.8</ele>
        <time>2021-10-07T09:36:52Z</time>
      </trkpt>
      <trkpt lat="46.76705" lon="5.62978">
        <ele>464.8</ele>
        <time>2021-10-07T09:36:58Z</time>
      </trkpt>
      <trkpt lat="46.76702" lon="5.62972">
        <ele>464.4</ele>
        <time>2021-10-07T09:37:02Z</time>
      </trkpt>
      <trkpt lat="46.76703" lon="5.62965">
        <ele>465.3</ele>
        <time>2021-10-07T09:37:08Z</time>
      </trkpt>
      <trkpt lat="46.76704" lon="5.62959">
        <ele>467.2</ele>
        <time>2021-10-07T09:37:13Z</time>
      </trkpt>
      <trkpt lat="46.76706" lon="5.62952">
        <ele>469.1</ele>
        <time>2021-10-07T09:37:18Z</time>
      </trkpt>
      <trkpt lat="46.76708" lon="5.62945">
        <ele>470.8</ele>
        <time>2021-10-07T09:37:23Z</time>
      </trkpt>
      <trkpt lat="46.76709" lon="5.62938">
        <ele>472.6</ele>
        <time>2021-10-07T09:37:27Z</time>
      </trkpt>
      <trkpt lat="46.76712" lon="5.62932">
        <ele>474.1</ele>
        <time>2021-10-07T09:37:31Z</time>
      </trkpt>
      <trkpt lat="46.76712" lon="5.62924">
        <ele>475.7</ele>
        <time>2021-10-07T09:37:36Z</time>
      </trkpt>
      <trkpt lat="46.76713" lon="5.62917">
        <ele>476.9</ele>
        <time>2021-10-07T09:37:42Z</time>
      </trkpt>
      <trkpt lat="46.76716" lon="5.62911">
        <ele>477.6</ele>
        <time>2021-10-07T09:37:47Z</time>
      </trkpt>
      <trkpt lat="46.76719" lon="5.62906">
        <ele>478.2</ele>
        <time>2021-10-07T09:37:51Z</time>
      </trkpt>
      <trkpt lat="46.76724" lon="5.62901">
        <ele>480.4</ele>
        <time>2021-10-07T09:37:57Z</time>
      </trkpt>
      <trkpt lat="46.76727" lon="5.62897">
        <ele>483.4</ele>
        <time>2021-10-07T09:38:04Z</time>
      </trkpt>
      <trkpt lat="46.76724" lon="5.62893">
        <ele>486.9</ele>
        <time>2021-10-07T09:38:14Z</time>
      </trkpt>
      <trkpt lat="46.76719" lon="5.62891">
        <ele>488.2</ele>
        <time>2021-10-07T09:38:21Z</time>
      </trkpt>
      <trkpt lat="46.76716" lon="5.62886">
        <ele>489</ele>
        <time>2021-10-07T09:38:28Z</time>
      </trkpt>
      <trkpt lat="46.76712" lon="5.62881">
        <ele>489.3</ele>
        <time>2021-10-07T09:38:33Z</time>
      </trkpt>
      <trkpt lat="46.7671" lon="5.62875">
        <ele>488.4</ele>
        <time>2021-10-07T09:38:39Z</time>
      </trkpt>
      <trkpt lat="46.76706" lon="5.62869">
        <ele>486.8</ele>
        <time>2021-10-07T09:38:44Z</time>
      </trkpt>
      <trkpt lat="46.76705" lon="5.62863">
        <ele>486.3</ele>
        <time>2021-10-07T09:38:49Z</time>
      </trkpt>
      <trkpt lat="46.76706" lon="5.62855">
        <ele>485.9</ele>
        <time>2021-10-07T09:38:54Z</time>
      </trkpt>
      <trkpt lat="46.76707" lon="5.62848">
        <ele>485.8</ele>
        <time>2021-10-07T09:39:02Z</time>
      </trkpt>
      <trkpt lat="46.76707" lon="5.62841">
        <ele>486.1</ele>
        <time>2021-10-07T09:39:08Z</time>
      </trkpt>
      <trkpt lat="46.76705" lon="5.62834">
        <ele>486.7</ele>
        <time>2021-10-07T09:39:14Z</time>
      </trkpt>
      <trkpt lat="46.76703" lon="5.62826">
        <ele>487</ele>
        <time>2021-10-07T09:39:19Z</time>
      </trkpt>
      <trkpt lat="46.767" lon="5.62819">
        <ele>487</ele>
        <time>2021-10-07T09:39:23Z</time>
      </trkpt>
      <trkpt lat="46.76697" lon="5.62814">
        <ele>486.8</ele>
        <time>2021-10-07T09:39:28Z</time>
      </trkpt>
      <trkpt lat="46.76694" lon="5.62809">
        <ele>486.2</ele>
        <time>2021-10-07T09:39:33Z</time>
      </trkpt>
      <trkpt lat="46.76694" lon="5.62802">
        <ele>485</ele>
        <time>2021-10-07T09:39:40Z</time>
      </trkpt>
      <trkpt lat="46.76694" lon="5.62794">
        <ele>483.4</ele>
        <time>2021-10-07T09:39:46Z</time>
      </trkpt>
      <trkpt lat="46.76697" lon="5.62786">
        <ele>481.7</ele>
        <time>2021-10-07T09:39:51Z</time>
      </trkpt>
      <trkpt lat="46.76699" lon="5.62779">
        <ele>480.4</ele>
        <time>2021-10-07T09:39:55Z</time>
      </trkpt>
      <trkpt lat="46.76702" lon="5.62772">
        <ele>479</ele>
        <time>2021-10-07T09:40:00Z</time>
      </trkpt>
      <trkpt lat="46.76704" lon="5.62766">
        <ele>477.6</ele>
        <time>2021-10-07T09:40:05Z</time>
      </trkpt>
      <trkpt lat="46.76706" lon="5.62758">
        <ele>476.2</ele>
        <time>2021-10-07T09:40:11Z</time>
      </trkpt>
      <trkpt lat="46.76707" lon="5.62751">
        <ele>475.7</ele>
        <time>2021-10-07T09:40:15Z</time>
      </trkpt>
      <trkpt lat="46.7671" lon="5.62745">
        <ele>475.3</ele>
        <time>2021-10-07T09:40:20Z</time>
      </trkpt>
      <trkpt lat="46.76713" lon="5.62739">
        <ele>474.7</ele>
        <time>2021-10-07T09:40:25Z</time>
      </trkpt>
      <trkpt lat="46.76716" lon="5.62734">
        <ele>474.1</ele>
        <time>2021-10-07T09:40:31Z</time>
      </trkpt>
      <trkpt lat="46.76721" lon="5.6273">
        <ele>474.6</ele>
        <time>2021-10-07T09:40:40Z</time>
      </trkpt>
      <trkpt lat="46.76725" lon="5.62726">
        <ele>475.2</ele>
        <time>2021-10-07T09:40:45Z</time>
      </trkpt>
      <trkpt lat="46.76729" lon="5.62723">
        <ele>476.7</ele>
        <time>2021-10-07T09:40:51Z</time>
      </trkpt>
      <trkpt lat="46.76733" lon="5.62718">
        <ele>478.1</ele>
        <time>2021-10-07T09:40:57Z</time>
      </trkpt>
      <trkpt lat="46.76736" lon="5.62713">
        <ele>478.6</ele>
        <time>2021-10-07T09:41:01Z</time>
      </trkpt>
      <trkpt lat="46.7674" lon="5.62708">
        <ele>479</ele>
        <time>2021-10-07T09:41:05Z</time>
      </trkpt>
      <trkpt lat="46.76744" lon="5.62702">
        <ele>479.6</ele>
        <time>2021-10-07T09:41:10Z</time>
      </trkpt>
      <trkpt lat="46.76747" lon="5.62697">
        <ele>480</ele>
        <time>2021-10-07T09:41:16Z</time>
      </trkpt>
      <trkpt lat="46.76749" lon="5.6269">
        <ele>480.8</ele>
        <time>2021-10-07T09:41:22Z</time>
      </trkpt>
      <trkpt lat="46.76751" lon="5.62683">
        <ele>481.8</ele>
        <time>2021-10-07T09:41:28Z</time>
      </trkpt>
      <trkpt lat="46.76753" lon="5.62677">
        <ele>482.3</ele>
        <time>2021-10-07T09:41:32Z</time>
      </trkpt>
      <trkpt lat="46.76756" lon="5.62672">
        <ele>482.8</ele>
        <time>2021-10-07T09:41:36Z</time>
      </trkpt>
      <trkpt lat="46.7676" lon="5.62667">
        <ele>483.4</ele>
        <time>2021-10-07T09:41:41Z</time>
      </trkpt>
      <trkpt lat="46.76761" lon="5.62659">
        <ele>484.3</ele>
        <time>2021-10-07T09:41:46Z</time>
      </trkpt>
      <trkpt lat="46.76762" lon="5.62652">
        <ele>484.9</ele>
        <time>2021-10-07T09:41:51Z</time>
      </trkpt>
      <trkpt lat="46.76765" lon="5.62646">
        <ele>485</ele>
        <time>2021-10-07T09:41:57Z</time>
      </trkpt>
      <trkpt lat="46.76766" lon="5.6264">
        <ele>484.7</ele>
        <time>2021-10-07T09:42:02Z</time>
      </trkpt>
      <trkpt lat="46.76766" lon="5.62633">
        <ele>484.5</ele>
        <time>2021-10-07T09:42:07Z</time>
      </trkpt>
      <trkpt lat="46.76768" lon="5.62627">
        <ele>484.6</ele>
        <time>2021-10-07T09:42:12Z</time>
      </trkpt>
      <trkpt lat="46.7677" lon="5.6262">
        <ele>484.7</ele>
        <time>2021-10-07T09:42:18Z</time>
      </trkpt>
      <trkpt lat="46.76771" lon="5.62613">
        <ele>484.7</ele>
        <time>2021-10-07T09:42:23Z</time>
      </trkpt>
      <trkpt lat="46.76773" lon="5.62607">
        <ele>484.4</ele>
        <time>2021-10-07T09:42:28Z</time>
      </trkpt>
      <trkpt lat="46.76776" lon="5.62602">
        <ele>484</ele>
        <time>2021-10-07T09:42:34Z</time>
      </trkpt>
      <trkpt lat="46.76781" lon="5.626">
        <ele>483.6</ele>
        <time>2021-10-07T09:42:41Z</time>
      </trkpt>
      <trkpt lat="46.76786" lon="5.626">
        <ele>483.6</ele>
        <time>2021-10-07T09:42:47Z</time>
      </trkpt>
      <trkpt lat="46.76791" lon="5.62598">
        <ele>484</ele>
        <time>2021-10-07T09:42:52Z</time>
      </trkpt>
      <trkpt lat="46.76795" lon="5.62595">
        <ele>485</ele>
        <time>2021-10-07T09:42:57Z</time>
      </trkpt>
      <trkpt lat="46.76793" lon="5.62589">
        <ele>485.7</ele>
        <time>2021-10-07T09:43:30Z</time>
      </trkpt>
      <trkpt lat="46.76796" lon="5.62594">
        <ele>485.7</ele>
        <time>2021-10-07T09:49:22Z</time>
      </trkpt>
      <trkpt lat="46.76801" lon="5.62598">
        <ele>488.8</ele>
        <time>2021-10-07T09:50:34Z</time>
      </trkpt>
      <trkpt lat="46.76805" lon="5.62601">
        <ele>489.5</ele>
        <time>2021-10-07T09:50:38Z</time>
      </trkpt>
      <trkpt lat="46.76809" lon="5.62605">
        <ele>489.6</ele>
        <time>2021-10-07T09:50:45Z</time>
      </trkpt>
      <trkpt lat="46.76813" lon="5.62609">
        <ele>488.8</ele>
        <time>2021-10-07T09:50:53Z</time>
      </trkpt>
      <trkpt lat="46.76817" lon="5.62613">
        <ele>488.1</ele>
        <time>2021-10-07T09:50:59Z</time>
      </trkpt>
      <trkpt lat="46.76822" lon="5.62616">
        <ele>487.3</ele>
        <time>2021-10-07T09:51:04Z</time>
      </trkpt>
      <trkpt lat="46.76828" lon="5.62618">
        <ele>486.8</ele>
        <time>2021-10-07T09:51:08Z</time>
      </trkpt>
      <trkpt lat="46.76833" lon="5.6262">
        <ele>485.7</ele>
        <time>2021-10-07T09:51:14Z</time>
      </trkpt>
      <trkpt lat="46.76837" lon="5.62622">
        <ele>485</ele>
        <time>2021-10-07T09:51:19Z</time>
      </trkpt>
      <trkpt lat="46.76842" lon="5.62625">
        <ele>484.4</ele>
        <time>2021-10-07T09:51:23Z</time>
      </trkpt>
      <trkpt lat="46.76847" lon="5.62625">
        <ele>483.5</ele>
        <time>2021-10-07T09:51:28Z</time>
      </trkpt>
      <trkpt lat="46.76851" lon="5.62625">
        <ele>482</ele>
        <time>2021-10-07T09:51:33Z</time>
      </trkpt>
      <trkpt lat="46.76855" lon="5.62627">
        <ele>481.1</ele>
        <time>2021-10-07T09:51:37Z</time>
      </trkpt>
      <trkpt lat="46.7686" lon="5.62629">
        <ele>480.4</ele>
        <time>2021-10-07T09:51:41Z</time>
      </trkpt>
      <trkpt lat="46.76864" lon="5.6263">
        <ele>479.8</ele>
        <time>2021-10-07T09:51:45Z</time>
      </trkpt>
      <trkpt lat="46.76869" lon="5.62631">
        <ele>479.3</ele>
        <time>2021-10-07T09:51:49Z</time>
      </trkpt>
      <trkpt lat="46.76874" lon="5.62633">
        <ele>479.1</ele>
        <time>2021-10-07T09:51:54Z</time>
      </trkpt>
      <trkpt lat="46.76878" lon="5.62633">
        <ele>479</ele>
        <time>2021-10-07T09:51:59Z</time>
      </trkpt>
      <trkpt lat="46.76884" lon="5.62635">
        <ele>479</ele>
        <time>2021-10-07T09:52:04Z</time>
      </trkpt>
      <trkpt lat="46.76888" lon="5.62637">
        <ele>479.1</ele>
        <time>2021-10-07T09:52:08Z</time>
      </trkpt>
      <trkpt lat="46.76893" lon="5.62639">
        <ele>478.9</ele>
        <time>2021-10-07T09:52:12Z</time>
      </trkpt>
      <trkpt lat="46.76898" lon="5.62641">
        <ele>478.7</ele>
        <time>2021-10-07T09:52:17Z</time>
      </trkpt>
      <trkpt lat="46.76903" lon="5.62643">
        <ele>478.8</ele>
        <time>2021-10-07T09:52:22Z</time>
      </trkpt>
      <trkpt lat="46.76908" lon="5.62646">
        <ele>479.1</ele>
        <time>2021-10-07T09:52:27Z</time>
      </trkpt>
      <trkpt lat="46.76913" lon="5.62647">
        <ele>479.1</ele>
        <time>2021-10-07T09:52:32Z</time>
      </trkpt>
      <trkpt lat="46.76918" lon="5.6265">
        <ele>479</ele>
        <time>2021-10-07T09:52:38Z</time>
      </trkpt>
      <trkpt lat="46.76923" lon="5.62652">
        <ele>478.9</ele>
        <time>2021-10-07T09:52:43Z</time>
      </trkpt>
      <trkpt lat="46.76927" lon="5.62654">
        <ele>478.5</ele>
        <time>2021-10-07T09:52:47Z</time>
      </trkpt>
      <trkpt lat="46.76932" lon="5.62656">
        <ele>478.1</ele>
        <time>2021-10-07T09:52:53Z</time>
      </trkpt>
      <trkpt lat="46.76937" lon="5.62658">
        <ele>477.7</ele>
        <time>2021-10-07T09:52:59Z</time>
      </trkpt>
      <trkpt lat="46.76942" lon="5.62662">
        <ele>477.2</ele>
        <time>2021-10-07T09:53:06Z</time>
      </trkpt>
      <trkpt lat="46.76946" lon="5.62664">
        <ele>476.9</ele>
        <time>2021-10-07T09:53:10Z</time>
      </trkpt>
      <trkpt lat="46.76951" lon="5.62668">
        <ele>477</ele>
        <time>2021-10-07T09:53:14Z</time>
      </trkpt>
      <trkpt lat="46.76956" lon="5.62671">
        <ele>477.1</ele>
        <time>2021-10-07T09:53:18Z</time>
      </trkpt>
      <trkpt lat="46.76959" lon="5.62675">
        <ele>477</ele>
        <time>2021-10-07T09:53:22Z</time>
      </trkpt>
      <trkpt lat="46.76963" lon="5.6268">
        <ele>476.9</ele>
        <time>2021-10-07T09:53:27Z</time>
      </trkpt>
      <trkpt lat="46.76968" lon="5.62684">
        <ele>477</ele>
        <time>2021-10-07T09:53:32Z</time>
      </trkpt>
      <trkpt lat="46.76973" lon="5.62688">
        <ele>477.3</ele>
        <time>2021-10-07T09:53:37Z</time>
      </trkpt>
      <trkpt lat="46.76977" lon="5.62692">
        <ele>477.9</ele>
        <time>2021-10-07T09:53:42Z</time>
      </trkpt>
      <trkpt lat="46.76981" lon="5.62696">
        <ele>478.7</ele>
        <time>2021-10-07T09:53:46Z</time>
      </trkpt>
      <trkpt lat="46.76985" lon="5.62699">
        <ele>479.8</ele>
        <time>2021-10-07T09:53:51Z</time>
      </trkpt>
      <trkpt lat="46.7699" lon="5.62699">
        <ele>481.2</ele>
        <time>2021-10-07T09:53:57Z</time>
      </trkpt>
      <trkpt lat="46.76995" lon="5.62702">
        <ele>482.1</ele>
        <time>2021-10-07T09:54:02Z</time>
      </trkpt>
      <trkpt lat="46.77001" lon="5.62703">
        <ele>482.8</ele>
        <time>2021-10-07T09:54:07Z</time>
      </trkpt>
      <trkpt lat="46.77006" lon="5.62703">
        <ele>483.6</ele>
        <time>2021-10-07T09:54:12Z</time>
      </trkpt>
      <trkpt lat="46.77011" lon="5.62704">
        <ele>483.8</ele>
        <time>2021-10-07T09:54:18Z</time>
      </trkpt>
      <trkpt lat="46.77016" lon="5.62705">
        <ele>483.2</ele>
        <time>2021-10-07T09:54:25Z</time>
      </trkpt>
      <trkpt lat="46.77021" lon="5.62706">
        <ele>481.6</ele>
        <time>2021-10-07T09:54:33Z</time>
      </trkpt>
      <trkpt lat="46.77025" lon="5.62708">
        <ele>481.8</ele>
        <time>2021-10-07T09:54:37Z</time>
      </trkpt>
      <trkpt lat="46.7703" lon="5.62711">
        <ele>482.9</ele>
        <time>2021-10-07T09:54:42Z</time>
      </trkpt>
      <trkpt lat="46.77035" lon="5.62713">
        <ele>484.3</ele>
        <time>2021-10-07T09:54:47Z</time>
      </trkpt>
      <trkpt lat="46.77041" lon="5.62715">
        <ele>486</ele>
        <time>2021-10-07T09:54:52Z</time>
      </trkpt>
      <trkpt lat="46.77045" lon="5.62717">
        <ele>487.6</ele>
        <time>2021-10-07T09:54:57Z</time>
      </trkpt>
      <trkpt lat="46.7705" lon="5.62719">
        <ele>488.3</ele>
        <time>2021-10-07T09:55:01Z</time>
      </trkpt>
      <trkpt lat="46.77055" lon="5.62721">
        <ele>488.5</ele>
        <time>2021-10-07T09:55:05Z</time>
      </trkpt>
      <trkpt lat="46.7706" lon="5.62723">
        <ele>488.2</ele>
        <time>2021-10-07T09:55:10Z</time>
      </trkpt>
      <trkpt lat="46.77064" lon="5.62726">
        <ele>488.1</ele>
        <time>2021-10-07T09:55:15Z</time>
      </trkpt>
      <trkpt lat="46.7707" lon="5.62728">
        <ele>488.3</ele>
        <time>2021-10-07T09:55:20Z</time>
      </trkpt>
      <trkpt lat="46.77074" lon="5.62729">
        <ele>488.6</ele>
        <time>2021-10-07T09:55:25Z</time>
      </trkpt>
      <trkpt lat="46.77079" lon="5.62731">
        <ele>488.7</ele>
        <time>2021-10-07T09:55:30Z</time>
      </trkpt>
      <trkpt lat="46.77084" lon="5.62733">
        <ele>488.6</ele>
        <time>2021-10-07T09:55:35Z</time>
      </trkpt>
      <trkpt lat="46.77089" lon="5.62734">
        <ele>488.8</ele>
        <time>2021-10-07T09:55:39Z</time>
      </trkpt>
      <trkpt lat="46.77094" lon="5.62737">
        <ele>489</ele>
        <time>2021-10-07T09:55:44Z</time>
      </trkpt>
      <trkpt lat="46.77098" lon="5.62739">
        <ele>488.6</ele>
        <time>2021-10-07T09:55:48Z</time>
      </trkpt>
      <trkpt lat="46.77103" lon="5.62741">
        <ele>486.9</ele>
        <time>2021-10-07T09:55:54Z</time>
      </trkpt>
      <trkpt lat="46.77108" lon="5.62741">
        <ele>485.5</ele>
        <time>2021-10-07T09:55:59Z</time>
      </trkpt>
      <trkpt lat="46.77113" lon="5.62741">
        <ele>484.3</ele>
        <time>2021-10-07T09:56:04Z</time>
      </trkpt>
      <trkpt lat="46.77118" lon="5.62742">
        <ele>483.7</ele>
        <time>2021-10-07T09:56:08Z</time>
      </trkpt>
      <trkpt lat="46.77123" lon="5.62744">
        <ele>483.4</ele>
        <time>2021-10-07T09:56:12Z</time>
      </trkpt>
      <trkpt lat="46.77127" lon="5.62748">
        <ele>483.1</ele>
        <time>2021-10-07T09:56:17Z</time>
      </trkpt>
      <trkpt lat="46.77132" lon="5.62751">
        <ele>483.1</ele>
        <time>2021-10-07T09:56:22Z</time>
      </trkpt>
      <trkpt lat="46.77136" lon="5.62753">
        <ele>483.2</ele>
        <time>2021-10-07T09:56:27Z</time>
      </trkpt>
      <trkpt lat="46.77141" lon="5.62756">
        <ele>483.1</ele>
        <time>2021-10-07T09:56:31Z</time>
      </trkpt>
      <trkpt lat="46.77145" lon="5.62759">
        <ele>483.2</ele>
        <time>2021-10-07T09:56:36Z</time>
      </trkpt>
      <trkpt lat="46.77149" lon="5.62762">
        <ele>483.8</ele>
        <time>2021-10-07T09:56:40Z</time>
      </trkpt>
      <trkpt lat="46.77154" lon="5.62766">
        <ele>484.4</ele>
        <time>2021-10-07T09:56:44Z</time>
      </trkpt>
      <trkpt lat="46.77158" lon="5.62767">
        <ele>484.7</ele>
        <time>2021-10-07T09:56:48Z</time>
      </trkpt>
      <trkpt lat="46.77163" lon="5.62769">
        <ele>485</ele>
        <time>2021-10-07T09:56:52Z</time>
      </trkpt>
      <trkpt lat="46.77168" lon="5.62773">
        <ele>484.6</ele>
        <time>2021-10-07T09:56:59Z</time>
      </trkpt>
      <trkpt lat="46.77173" lon="5.62776">
        <ele>482.9</ele>
        <time>2021-10-07T09:57:06Z</time>
      </trkpt>
      <trkpt lat="46.77178" lon="5.62776">
        <ele>482.2</ele>
        <time>2021-10-07T09:57:11Z</time>
      </trkpt>
      <trkpt lat="46.77182" lon="5.6278">
        <ele>481.7</ele>
        <time>2021-10-07T09:57:16Z</time>
      </trkpt>
      <trkpt lat="46.77187" lon="5.62782">
        <ele>481.4</ele>
        <time>2021-10-07T09:57:21Z</time>
      </trkpt>
      <trkpt lat="46.77193" lon="5.62785">
        <ele>481.3</ele>
        <time>2021-10-07T09:57:26Z</time>
      </trkpt>
      <trkpt lat="46.77197" lon="5.62788">
        <ele>481.3</ele>
        <time>2021-10-07T09:57:30Z</time>
      </trkpt>
      <trkpt lat="46.77202" lon="5.6279">
        <ele>481.4</ele>
        <time>2021-10-07T09:57:35Z</time>
      </trkpt>
      <trkpt lat="46.77206" lon="5.62793">
        <ele>481.7</ele>
        <time>2021-10-07T09:57:39Z</time>
      </trkpt>
      <trkpt lat="46.77211" lon="5.62796">
        <ele>482.5</ele>
        <time>2021-10-07T09:57:44Z</time>
      </trkpt>
      <trkpt lat="46.77216" lon="5.62798">
        <ele>483.3</ele>
        <time>2021-10-07T09:57:48Z</time>
      </trkpt>
      <trkpt lat="46.7722" lon="5.62801">
        <ele>484.3</ele>
        <time>2021-10-07T09:57:53Z</time>
      </trkpt>
      <trkpt lat="46.77224" lon="5.62804">
        <ele>485</ele>
        <time>2021-10-07T09:57:57Z</time>
      </trkpt>
      <trkpt lat="46.77228" lon="5.62808">
        <ele>485.5</ele>
        <time>2021-10-07T09:58:01Z</time>
      </trkpt>
      <trkpt lat="46.77233" lon="5.62812">
        <ele>485.7</ele>
        <time>2021-10-07T09:58:05Z</time>
      </trkpt>
      <trkpt lat="46.77236" lon="5.62817">
        <ele>485.7</ele>
        <time>2021-10-07T09:58:10Z</time>
      </trkpt>
      <trkpt lat="46.77242" lon="5.62818">
        <ele>486.5</ele>
        <time>2021-10-07T09:58:16Z</time>
      </trkpt>
      <trkpt lat="46.77246" lon="5.62815">
        <ele>487.4</ele>
        <time>2021-10-07T09:58:22Z</time>
      </trkpt>
      <trkpt lat="46.7725" lon="5.6281">
        <ele>488.8</ele>
        <time>2021-10-07T09:58:29Z</time>
      </trkpt>
      <trkpt lat="46.77255" lon="5.62813">
        <ele>490.1</ele>
        <time>2021-10-07T09:58:38Z</time>
      </trkpt>
      <trkpt lat="46.77261" lon="5.62814">
        <ele>489.5</ele>
        <time>2021-10-07T09:59:11Z</time>
      </trkpt>
      <trkpt lat="46.77266" lon="5.62813">
        <ele>489.1</ele>
        <time>2021-10-07T09:59:16Z</time>
      </trkpt>
      <trkpt lat="46.77271" lon="5.62813">
        <ele>489</ele>
        <time>2021-10-07T09:59:28Z</time>
      </trkpt>
      <trkpt lat="46.77276" lon="5.62813">
        <ele>489</ele>
        <time>2021-10-07T09:59:34Z</time>
      </trkpt>
      <trkpt lat="46.7728" lon="5.62815">
        <ele>489.5</ele>
        <time>2021-10-07T09:59:41Z</time>
      </trkpt>
      <trkpt lat="46.77285" lon="5.62817">
        <ele>490.1</ele>
        <time>2021-10-07T09:59:48Z</time>
      </trkpt>
      <trkpt lat="46.7729" lon="5.62816">
        <ele>490.7</ele>
        <time>2021-10-07T09:59:53Z</time>
      </trkpt>
      <trkpt lat="46.77295" lon="5.62815">
        <ele>491.3</ele>
        <time>2021-10-07T09:59:58Z</time>
      </trkpt>
      <trkpt lat="46.773" lon="5.62818">
        <ele>491.5</ele>
        <time>2021-10-07T10:00:02Z</time>
      </trkpt>
      <trkpt lat="46.77305" lon="5.62822">
        <ele>491.2</ele>
        <time>2021-10-07T10:00:06Z</time>
      </trkpt>
      <trkpt lat="46.7731" lon="5.62824">
        <ele>490.2</ele>
        <time>2021-10-07T10:00:11Z</time>
      </trkpt>
      <trkpt lat="46.77314" lon="5.62826">
        <ele>488.9</ele>
        <time>2021-10-07T10:00:16Z</time>
      </trkpt>
      <trkpt lat="46.77319" lon="5.62829">
        <ele>486.7</ele>
        <time>2021-10-07T10:00:23Z</time>
      </trkpt>
      <trkpt lat="46.77324" lon="5.62829">
        <ele>485</ele>
        <time>2021-10-07T10:00:29Z</time>
      </trkpt>
      <trkpt lat="46.77328" lon="5.62828">
        <ele>483.7</ele>
        <time>2021-10-07T10:00:34Z</time>
      </trkpt>
      <trkpt lat="46.77333" lon="5.62828">
        <ele>483</ele>
        <time>2021-10-07T10:00:38Z</time>
      </trkpt>
      <trkpt lat="46.77338" lon="5.62829">
        <ele>482.3</ele>
        <time>2021-10-07T10:00:43Z</time>
      </trkpt>
      <trkpt lat="46.77343" lon="5.62831">
        <ele>482</ele>
        <time>2021-10-07T10:00:49Z</time>
      </trkpt>
      <trkpt lat="46.77348" lon="5.62834">
        <ele>482.1</ele>
        <time>2021-10-07T10:00:54Z</time>
      </trkpt>
      <trkpt lat="46.77353" lon="5.62834">
        <ele>482.2</ele>
        <time>2021-10-07T10:00:59Z</time>
      </trkpt>
      <trkpt lat="46.77358" lon="5.62834">
        <ele>482.1</ele>
        <time>2021-10-07T10:01:04Z</time>
      </trkpt>
      <trkpt lat="46.77363" lon="5.62835">
        <ele>482.2</ele>
        <time>2021-10-07T10:01:09Z</time>
      </trkpt>
      <trkpt lat="46.77368" lon="5.62835">
        <ele>483.2</ele>
        <time>2021-10-07T10:01:14Z</time>
      </trkpt>
      <trkpt lat="46.77372" lon="5.62836">
        <ele>484.1</ele>
        <time>2021-10-07T10:01:18Z</time>
      </trkpt>
      <trkpt lat="46.77377" lon="5.62839">
        <ele>486.2</ele>
        <time>2021-10-07T10:01:27Z</time>
      </trkpt>
      <trkpt lat="46.77381" lon="5.62842">
        <ele>486.3</ele>
        <time>2021-10-07T10:01:31Z</time>
      </trkpt>
      <trkpt lat="46.77386" lon="5.62843">
        <ele>485.5</ele>
        <time>2021-10-07T10:01:37Z</time>
      </trkpt>
      <trkpt lat="46.77391" lon="5.62845">
        <ele>484.8</ele>
        <time>2021-10-07T10:01:42Z</time>
      </trkpt>
      <trkpt lat="46.77396" lon="5.62845">
        <ele>484.2</ele>
        <time>2021-10-07T10:01:47Z</time>
      </trkpt>
      <trkpt lat="46.77401" lon="5.62845">
        <ele>483.9</ele>
        <time>2021-10-07T10:01:52Z</time>
      </trkpt>
      <trkpt lat="46.77406" lon="5.62845">
        <ele>483.9</ele>
        <time>2021-10-07T10:01:57Z</time>
      </trkpt>
      <trkpt lat="46.77411" lon="5.62845">
        <ele>484.4</ele>
        <time>2021-10-07T10:02:03Z</time>
      </trkpt>
      <trkpt lat="46.77415" lon="5.62846">
        <ele>484.5</ele>
        <time>2021-10-07T10:02:08Z</time>
      </trkpt>
      <trkpt lat="46.77419" lon="5.6285">
        <ele>483.7</ele>
        <time>2021-10-07T10:02:14Z</time>
      </trkpt>
      <trkpt lat="46.77424" lon="5.62852">
        <ele>482</ele>
        <time>2021-10-07T10:02:20Z</time>
      </trkpt>
      <trkpt lat="46.77429" lon="5.62853">
        <ele>480.1</ele>
        <time>2021-10-07T10:02:27Z</time>
      </trkpt>
      <trkpt lat="46.77434" lon="5.62855">
        <ele>478.9</ele>
        <time>2021-10-07T10:02:32Z</time>
      </trkpt>
      <trkpt lat="46.77438" lon="5.62858">
        <ele>478.3</ele>
        <time>2021-10-07T10:02:38Z</time>
      </trkpt>
      <trkpt lat="46.77442" lon="5.62861">
        <ele>478</ele>
        <time>2021-10-07T10:02:42Z</time>
      </trkpt>
      <trkpt lat="46.77448" lon="5.62865">
        <ele>477.7</ele>
        <time>2021-10-07T10:02:46Z</time>
      </trkpt>
      <trkpt lat="46.77452" lon="5.62868">
        <ele>477.6</ele>
        <time>2021-10-07T10:02:50Z</time>
      </trkpt>
      <trkpt lat="46.77456" lon="5.62872">
        <ele>477.6</ele>
        <time>2021-10-07T10:02:55Z</time>
      </trkpt>
      <trkpt lat="46.7746" lon="5.62877">
        <ele>477.6</ele>
        <time>2021-10-07T10:03:00Z</time>
      </trkpt>
      <trkpt lat="46.77463" lon="5.62881">
        <ele>476.8</ele>
        <time>2021-10-07T10:03:07Z</time>
      </trkpt>
      <trkpt lat="46.77467" lon="5.62886">
        <ele>475.8</ele>
        <time>2021-10-07T10:03:12Z</time>
      </trkpt>
      <trkpt lat="46.77472" lon="5.62891">
        <ele>475.4</ele>
        <time>2021-10-07T10:03:17Z</time>
      </trkpt>
      <trkpt lat="46.77475" lon="5.62894">
        <ele>474.9</ele>
        <time>2021-10-07T10:03:21Z</time>
      </trkpt>
      <trkpt lat="46.77479" lon="5.62899">
        <ele>474.1</ele>
        <time>2021-10-07T10:03:26Z</time>
      </trkpt>
      <trkpt lat="46.77483" lon="5.62905">
        <ele>473.8</ele>
        <time>2021-10-07T10:03:30Z</time>
      </trkpt>
      <trkpt lat="46.77487" lon="5.62909">
        <ele>473.6</ele>
        <time>2021-10-07T10:03:34Z</time>
      </trkpt>
      <trkpt lat="46.7749" lon="5.62914">
        <ele>473.1</ele>
        <time>2021-10-07T10:03:38Z</time>
      </trkpt>
      <trkpt lat="46.77494" lon="5.6292">
        <ele>471.7</ele>
        <time>2021-10-07T10:03:43Z</time>
      </trkpt>
      <trkpt lat="46.77498" lon="5.62924">
        <ele>471.2</ele>
        <time>2021-10-07T10:03:47Z</time>
      </trkpt>
      <trkpt lat="46.77502" lon="5.62929">
        <ele>470.7</ele>
        <time>2021-10-07T10:03:51Z</time>
      </trkpt>
      <trkpt lat="46.77506" lon="5.62934">
        <ele>470.4</ele>
        <time>2021-10-07T10:03:55Z</time>
      </trkpt>
      <trkpt lat="46.77509" lon="5.62939">
        <ele>470.2</ele>
        <time>2021-10-07T10:04:00Z</time>
      </trkpt>
      <trkpt lat="46.77513" lon="5.62943">
        <ele>470.7</ele>
        <time>2021-10-07T10:04:04Z</time>
      </trkpt>
      <trkpt lat="46.77518" lon="5.62946">
        <ele>471.8</ele>
        <time>2021-10-07T10:04:08Z</time>
      </trkpt>
      <trkpt lat="46.77522" lon="5.62951">
        <ele>473</ele>
        <time>2021-10-07T10:04:13Z</time>
      </trkpt>
      <trkpt lat="46.77525" lon="5.62955">
        <ele>474.1</ele>
        <time>2021-10-07T10:04:18Z</time>
      </trkpt>
      <trkpt lat="46.77531" lon="5.62956">
        <ele>475</ele>
        <time>2021-10-07T10:04:23Z</time>
      </trkpt>
      <trkpt lat="46.77535" lon="5.62957">
        <ele>475.9</ele>
        <time>2021-10-07T10:04:28Z</time>
      </trkpt>
      <trkpt lat="46.7754" lon="5.62956">
        <ele>476.9</ele>
        <time>2021-10-07T10:04:32Z</time>
      </trkpt>
      <trkpt lat="46.77545" lon="5.62955">
        <ele>477.4</ele>
        <time>2021-10-07T10:04:36Z</time>
      </trkpt>
      <trkpt lat="46.7755" lon="5.62955">
        <ele>477.8</ele>
        <time>2021-10-07T10:04:40Z</time>
      </trkpt>
      <trkpt lat="46.77555" lon="5.62957">
        <ele>477.7</ele>
        <time>2021-10-07T10:04:44Z</time>
      </trkpt>
      <trkpt lat="46.7756" lon="5.62959">
        <ele>477.3</ele>
        <time>2021-10-07T10:04:49Z</time>
      </trkpt>
      <trkpt lat="46.77564" lon="5.62963">
        <ele>477</ele>
        <time>2021-10-07T10:04:56Z</time>
      </trkpt>
      <trkpt lat="46.77569" lon="5.62962">
        <ele>476.6</ele>
        <time>2021-10-07T10:05:01Z</time>
      </trkpt>
      <trkpt lat="46.77573" lon="5.62956">
        <ele>476.6</ele>
        <time>2021-10-07T10:05:06Z</time>
      </trkpt>
      <trkpt lat="46.77574" lon="5.62949">
        <ele>477.4</ele>
        <time>2021-10-07T10:05:11Z</time>
      </trkpt>
      <trkpt lat="46.77575" lon="5.62941">
        <ele>478.3</ele>
        <time>2021-10-07T10:05:16Z</time>
      </trkpt>
      <trkpt lat="46.77575" lon="5.62934">
        <ele>478.8</ele>
        <time>2021-10-07T10:05:20Z</time>
      </trkpt>
      <trkpt lat="46.77576" lon="5.62927">
        <ele>479.4</ele>
        <time>2021-10-07T10:05:24Z</time>
      </trkpt>
      <trkpt lat="46.77579" lon="5.62921">
        <ele>480.1</ele>
        <time>2021-10-07T10:05:28Z</time>
      </trkpt>
      <trkpt lat="46.77583" lon="5.62917">
        <ele>480.4</ele>
        <time>2021-10-07T10:05:32Z</time>
      </trkpt>
      <trkpt lat="46.77586" lon="5.62912">
        <ele>480</ele>
        <time>2021-10-07T10:05:36Z</time>
      </trkpt>
      <trkpt lat="46.7759" lon="5.62906">
        <ele>478.9</ele>
        <time>2021-10-07T10:05:41Z</time>
      </trkpt>
      <trkpt lat="46.77594" lon="5.62902">
        <ele>478</ele>
        <time>2021-10-07T10:05:46Z</time>
      </trkpt>
      <trkpt lat="46.77599" lon="5.629">
        <ele>477.4</ele>
        <time>2021-10-07T10:05:50Z</time>
      </trkpt>
      <trkpt lat="46.77602" lon="5.62895">
        <ele>476.4</ele>
        <time>2021-10-07T10:05:55Z</time>
      </trkpt>
      <trkpt lat="46.77607" lon="5.62891">
        <ele>475</ele>
        <time>2021-10-07T10:06:01Z</time>
      </trkpt>
      <trkpt lat="46.77611" lon="5.62886">
        <ele>474.2</ele>
        <time>2021-10-07T10:06:06Z</time>
      </trkpt>
      <trkpt lat="46.77613" lon="5.62879">
        <ele>472.4</ele>
        <time>2021-10-07T10:06:12Z</time>
      </trkpt>
      <trkpt lat="46.77615" lon="5.62873">
        <ele>471.7</ele>
        <time>2021-10-07T10:06:17Z</time>
      </trkpt>
      <trkpt lat="46.77619" lon="5.62869">
        <ele>472.1</ele>
        <time>2021-10-07T10:06:21Z</time>
      </trkpt>
      <trkpt lat="46.77623" lon="5.62865">
        <ele>472.8</ele>
        <time>2021-10-07T10:06:24Z</time>
      </trkpt>
      <trkpt lat="46.77627" lon="5.6286">
        <ele>473.7</ele>
        <time>2021-10-07T10:06:28Z</time>
      </trkpt>
      <trkpt lat="46.7763" lon="5.62855">
        <ele>474.3</ele>
        <time>2021-10-07T10:06:32Z</time>
      </trkpt>
      <trkpt lat="46.77634" lon="5.62851">
        <ele>474.9</ele>
        <time>2021-10-07T10:06:36Z</time>
      </trkpt>
      <trkpt lat="46.77639" lon="5.62846">
        <ele>475</ele>
        <time>2021-10-07T10:06:41Z</time>
      </trkpt>
      <trkpt lat="46.77643" lon="5.62841">
        <ele>474.7</ele>
        <time>2021-10-07T10:06:47Z</time>
      </trkpt>
      <trkpt lat="46.77647" lon="5.62836">
        <ele>473.8</ele>
        <time>2021-10-07T10:06:52Z</time>
      </trkpt>
      <trkpt lat="46.7765" lon="5.62831">
        <ele>473.2</ele>
        <time>2021-10-07T10:06:56Z</time>
      </trkpt>
      <trkpt lat="46.77653" lon="5.62825">
        <ele>473.3</ele>
        <time>2021-10-07T10:07:01Z</time>
      </trkpt>
      <trkpt lat="46.77656" lon="5.62819">
        <ele>474</ele>
        <time>2021-10-07T10:07:06Z</time>
      </trkpt>
      <trkpt lat="46.77658" lon="5.62814">
        <ele>474.4</ele>
        <time>2021-10-07T10:07:11Z</time>
      </trkpt>
      <trkpt lat="46.77661" lon="5.62808">
        <ele>474.7</ele>
        <time>2021-10-07T10:07:16Z</time>
      </trkpt>
      <trkpt lat="46.77665" lon="5.62802">
        <ele>474.6</ele>
        <time>2021-10-07T10:07:21Z</time>
      </trkpt>
      <trkpt lat="46.77667" lon="5.62796">
        <ele>474.3</ele>
        <time>2021-10-07T10:07:26Z</time>
      </trkpt>
      <trkpt lat="46.77671" lon="5.62791">
        <ele>474.2</ele>
        <time>2021-10-07T10:07:31Z</time>
      </trkpt>
      <trkpt lat="46.77674" lon="5.62785">
        <ele>473.8</ele>
        <time>2021-10-07T10:07:36Z</time>
      </trkpt>
      <trkpt lat="46.77677" lon="5.62781">
        <ele>472.9</ele>
        <time>2021-10-07T10:07:41Z</time>
      </trkpt>
      <trkpt lat="46.7768" lon="5.62774">
        <ele>472.3</ele>
        <time>2021-10-07T10:07:45Z</time>
      </trkpt>
      <trkpt lat="46.77682" lon="5.62768">
        <ele>472.1</ele>
        <time>2021-10-07T10:07:49Z</time>
      </trkpt>
      <trkpt lat="46.77683" lon="5.6276">
        <ele>472</ele>
        <time>2021-10-07T10:07:54Z</time>
      </trkpt>
      <trkpt lat="46.77686" lon="5.62754">
        <ele>471.8</ele>
        <time>2021-10-07T10:07:59Z</time>
      </trkpt>
      <trkpt lat="46.77689" lon="5.62748">
        <ele>471.2</ele>
        <time>2021-10-07T10:08:04Z</time>
      </trkpt>
      <trkpt lat="46.77692" lon="5.62742">
        <ele>470.5</ele>
        <time>2021-10-07T10:08:09Z</time>
      </trkpt>
      <trkpt lat="46.77695" lon="5.62736">
        <ele>469.1</ele>
        <time>2021-10-07T10:08:14Z</time>
      </trkpt>
      <trkpt lat="46.77697" lon="5.62729">
        <ele>467.4</ele>
        <time>2021-10-07T10:08:20Z</time>
      </trkpt>
      <trkpt lat="46.77699" lon="5.62723">
        <ele>466.1</ele>
        <time>2021-10-07T10:08:25Z</time>
      </trkpt>
      <trkpt lat="46.77702" lon="5.62717">
        <ele>465.4</ele>
        <time>2021-10-07T10:08:29Z</time>
      </trkpt>
      <trkpt lat="46.77706" lon="5.62711">
        <ele>464.7</ele>
        <time>2021-10-07T10:08:33Z</time>
      </trkpt>
      <trkpt lat="46.77709" lon="5.62705">
        <ele>464.3</ele>
        <time>2021-10-07T10:08:38Z</time>
      </trkpt>
      <trkpt lat="46.77712" lon="5.62699">
        <ele>463.9</ele>
        <time>2021-10-07T10:08:43Z</time>
      </trkpt>
      <trkpt lat="46.77715" lon="5.62692">
        <ele>464.2</ele>
        <time>2021-10-07T10:08:47Z</time>
      </trkpt>
      <trkpt lat="46.77718" lon="5.62686">
        <ele>465.1</ele>
        <time>2021-10-07T10:08:52Z</time>
      </trkpt>
      <trkpt lat="46.77722" lon="5.6268">
        <ele>465.2</ele>
        <time>2021-10-07T10:08:57Z</time>
      </trkpt>
      <trkpt lat="46.77724" lon="5.62673">
        <ele>464.6</ele>
        <time>2021-10-07T10:09:02Z</time>
      </trkpt>
      <trkpt lat="46.77726" lon="5.62667">
        <ele>464.6</ele>
        <time>2021-10-07T10:09:06Z</time>
      </trkpt>
      <trkpt lat="46.77729" lon="5.62661">
        <ele>465.1</ele>
        <time>2021-10-07T10:09:10Z</time>
      </trkpt>
      <trkpt lat="46.77732" lon="5.62656">
        <ele>465.5</ele>
        <time>2021-10-07T10:09:14Z</time>
      </trkpt>
      <trkpt lat="46.77736" lon="5.62651">
        <ele>465.4</ele>
        <time>2021-10-07T10:09:18Z</time>
      </trkpt>
      <trkpt lat="46.7774" lon="5.62646">
        <ele>465.9</ele>
        <time>2021-10-07T10:09:23Z</time>
      </trkpt>
      <trkpt lat="46.77744" lon="5.62642">
        <ele>466.5</ele>
        <time>2021-10-07T10:09:28Z</time>
      </trkpt>
      <trkpt lat="46.77747" lon="5.62635">
        <ele>467</ele>
        <time>2021-10-07T10:09:35Z</time>
      </trkpt>
      <trkpt lat="46.7775" lon="5.6263">
        <ele>467.7</ele>
        <time>2021-10-07T10:09:39Z</time>
      </trkpt>
      <trkpt lat="46.77754" lon="5.62625">
        <ele>468.1</ele>
        <time>2021-10-07T10:09:44Z</time>
      </trkpt>
      <trkpt lat="46.77758" lon="5.6262">
        <ele>467.4</ele>
        <time>2021-10-07T10:09:50Z</time>
      </trkpt>
      <trkpt lat="46.77762" lon="5.62616">
        <ele>466.8</ele>
        <time>2021-10-07T10:09:55Z</time>
      </trkpt>
      <trkpt lat="46.77767" lon="5.62611">
        <ele>466.2</ele>
        <time>2021-10-07T10:10:00Z</time>
      </trkpt>
      <trkpt lat="46.7777" lon="5.62606">
        <ele>465.9</ele>
        <time>2021-10-07T10:10:04Z</time>
      </trkpt>
      <trkpt lat="46.77774" lon="5.62602">
        <ele>465.6</ele>
        <time>2021-10-07T10:10:08Z</time>
      </trkpt>
      <trkpt lat="46.77778" lon="5.62598">
        <ele>465.6</ele>
        <time>2021-10-07T10:10:12Z</time>
      </trkpt>
      <trkpt lat="46.77782" lon="5.62594">
        <ele>465.5</ele>
        <time>2021-10-07T10:10:17Z</time>
      </trkpt>
      <trkpt lat="46.77786" lon="5.6259">
        <ele>466</ele>
        <time>2021-10-07T10:10:23Z</time>
      </trkpt>
      <trkpt lat="46.77791" lon="5.62586">
        <ele>466.5</ele>
        <time>2021-10-07T10:10:29Z</time>
      </trkpt>
      <trkpt lat="46.77794" lon="5.62583">
        <ele>466.5</ele>
        <time>2021-10-07T10:10:33Z</time>
      </trkpt>
      <trkpt lat="46.77799" lon="5.6258">
        <ele>466</ele>
        <time>2021-10-07T10:10:37Z</time>
      </trkpt>
      <trkpt lat="46.77804" lon="5.62578">
        <ele>465.4</ele>
        <time>2021-10-07T10:10:42Z</time>
      </trkpt>
      <trkpt lat="46.77809" lon="5.62577">
        <ele>464.7</ele>
        <time>2021-10-07T10:10:46Z</time>
      </trkpt>
      <trkpt lat="46.77814" lon="5.62577">
        <ele>464</ele>
        <time>2021-10-07T10:10:50Z</time>
      </trkpt>
      <trkpt lat="46.77819" lon="5.6258">
        <ele>463.9</ele>
        <time>2021-10-07T10:10:56Z</time>
      </trkpt>
      <trkpt lat="46.77823" lon="5.62582">
        <ele>464.3</ele>
        <time>2021-10-07T10:11:01Z</time>
      </trkpt>
      <trkpt lat="46.77829" lon="5.62584">
        <ele>464.4</ele>
        <time>2021-10-07T10:11:06Z</time>
      </trkpt>
      <trkpt lat="46.77835" lon="5.62584">
        <ele>463.8</ele>
        <time>2021-10-07T10:11:11Z</time>
      </trkpt>
      <trkpt lat="46.77839" lon="5.62584">
        <ele>463.2</ele>
        <time>2021-10-07T10:11:15Z</time>
      </trkpt>
      <trkpt lat="46.77844" lon="5.62582">
        <ele>462.9</ele>
        <time>2021-10-07T10:11:19Z</time>
      </trkpt>
      <trkpt lat="46.77849" lon="5.6258">
        <ele>462.6</ele>
        <time>2021-10-07T10:11:23Z</time>
      </trkpt>
      <trkpt lat="46.77854" lon="5.62579">
        <ele>462.4</ele>
        <time>2021-10-07T10:11:27Z</time>
      </trkpt>
      <trkpt lat="46.77859" lon="5.62577">
        <ele>462</ele>
        <time>2021-10-07T10:11:32Z</time>
      </trkpt>
      <trkpt lat="46.77863" lon="5.62577">
        <ele>461.9</ele>
        <time>2021-10-07T10:11:36Z</time>
      </trkpt>
      <trkpt lat="46.77868" lon="5.62577">
        <ele>462</ele>
        <time>2021-10-07T10:11:41Z</time>
      </trkpt>
      <trkpt lat="46.77873" lon="5.6258">
        <ele>462.3</ele>
        <time>2021-10-07T10:11:47Z</time>
      </trkpt>
      <trkpt lat="46.77879" lon="5.62583">
        <ele>462.5</ele>
        <time>2021-10-07T10:11:52Z</time>
      </trkpt>
      <trkpt lat="46.77884" lon="5.62585">
        <ele>463.2</ele>
        <time>2021-10-07T10:11:57Z</time>
      </trkpt>
      <trkpt lat="46.77889" lon="5.62587">
        <ele>464.1</ele>
        <time>2021-10-07T10:12:02Z</time>
      </trkpt>
      <trkpt lat="46.77894" lon="5.62589">
        <ele>464.6</ele>
        <time>2021-10-07T10:12:07Z</time>
      </trkpt>
      <trkpt lat="46.77898" lon="5.62591">
        <ele>465</ele>
        <time>2021-10-07T10:12:11Z</time>
      </trkpt>
      <trkpt lat="46.77903" lon="5.62592">
        <ele>465.5</ele>
        <time>2021-10-07T10:12:15Z</time>
      </trkpt>
      <trkpt lat="46.77908" lon="5.62593">
        <ele>466.1</ele>
        <time>2021-10-07T10:12:20Z</time>
      </trkpt>
      <trkpt lat="46.77913" lon="5.62592">
        <ele>465.9</ele>
        <time>2021-10-07T10:12:26Z</time>
      </trkpt>
      <trkpt lat="46.77918" lon="5.62591">
        <ele>466</ele>
        <time>2021-10-07T10:12:31Z</time>
      </trkpt>
      <trkpt lat="46.77922" lon="5.62588">
        <ele>466.1</ele>
        <time>2021-10-07T10:12:35Z</time>
      </trkpt>
      <trkpt lat="46.77926" lon="5.62586">
        <ele>466.1</ele>
        <time>2021-10-07T10:12:39Z</time>
      </trkpt>
      <trkpt lat="46.77931" lon="5.62583">
        <ele>466.1</ele>
        <time>2021-10-07T10:12:44Z</time>
      </trkpt>
      <trkpt lat="46.77936" lon="5.62579">
        <ele>466</ele>
        <time>2021-10-07T10:12:49Z</time>
      </trkpt>
      <trkpt lat="46.77939" lon="5.62575">
        <ele>466</ele>
        <time>2021-10-07T10:12:53Z</time>
      </trkpt>
      <trkpt lat="46.77943" lon="5.62572">
        <ele>465.3</ele>
        <time>2021-10-07T10:12:58Z</time>
      </trkpt>
      <trkpt lat="46.77948" lon="5.62567">
        <ele>464.8</ele>
        <time>2021-10-07T10:13:03Z</time>
      </trkpt>
      <trkpt lat="46.77952" lon="5.62564">
        <ele>464.8</ele>
        <time>2021-10-07T10:13:07Z</time>
      </trkpt>
      <trkpt lat="46.77956" lon="5.62561">
        <ele>464.9</ele>
        <time>2021-10-07T10:13:12Z</time>
      </trkpt>
      <trkpt lat="46.77961" lon="5.62558">
        <ele>464.7</ele>
        <time>2021-10-07T10:13:17Z</time>
      </trkpt>
      <trkpt lat="46.77966" lon="5.62556">
        <ele>463.9</ele>
        <time>2021-10-07T10:13:22Z</time>
      </trkpt>
      <trkpt lat="46.7797" lon="5.62554">
        <ele>463.1</ele>
        <time>2021-10-07T10:13:27Z</time>
      </trkpt>
      <trkpt lat="46.77976" lon="5.62552">
        <ele>462.8</ele>
        <time>2021-10-07T10:13:32Z</time>
      </trkpt>
      <trkpt lat="46.7798" lon="5.62551">
        <ele>462.7</ele>
        <time>2021-10-07T10:13:36Z</time>
      </trkpt>
      <trkpt lat="46.77985" lon="5.62552">
        <ele>462.8</ele>
        <time>2021-10-07T10:13:42Z</time>
      </trkpt>
      <trkpt lat="46.7799" lon="5.62555">
        <ele>463.3</ele>
        <time>2021-10-07T10:13:47Z</time>
      </trkpt>
      <trkpt lat="46.77995" lon="5.62555">
        <ele>464.2</ele>
        <time>2021-10-07T10:13:52Z</time>
      </trkpt>
      <trkpt lat="46.78001" lon="5.62553">
        <ele>465.1</ele>
        <time>2021-10-07T10:13:56Z</time>
      </trkpt>
      <trkpt lat="46.78006" lon="5.62552">
        <ele>465.6</ele>
        <time>2021-10-07T10:14:00Z</time>
      </trkpt>
      <trkpt lat="46.78011" lon="5.62553">
        <ele>465.6</ele>
        <time>2021-10-07T10:14:05Z</time>
      </trkpt>
      <trkpt lat="46.78016" lon="5.62554">
        <ele>465.4</ele>
        <time>2021-10-07T10:14:10Z</time>
      </trkpt>
      <trkpt lat="46.78021" lon="5.62554">
        <ele>464.8</ele>
        <time>2021-10-07T10:14:15Z</time>
      </trkpt>
      <trkpt lat="46.78026" lon="5.62555">
        <ele>463.5</ele>
        <time>2021-10-07T10:14:20Z</time>
      </trkpt>
      <trkpt lat="46.78031" lon="5.62556">
        <ele>463</ele>
        <time>2021-10-07T10:14:24Z</time>
      </trkpt>
      <trkpt lat="46.78035" lon="5.62556">
        <ele>462.7</ele>
        <time>2021-10-07T10:14:28Z</time>
      </trkpt>
      <trkpt lat="46.7804" lon="5.62556">
        <ele>462.1</ele>
        <time>2021-10-07T10:14:33Z</time>
      </trkpt>
      <trkpt lat="46.78045" lon="5.62555">
        <ele>461.7</ele>
        <time>2021-10-07T10:14:38Z</time>
      </trkpt>
      <trkpt lat="46.7805" lon="5.62555">
        <ele>461.4</ele>
        <time>2021-10-07T10:14:44Z</time>
      </trkpt>
      <trkpt lat="46.78056" lon="5.62556">
        <ele>461.4</ele>
        <time>2021-10-07T10:14:49Z</time>
      </trkpt>
      <trkpt lat="46.78061" lon="5.62557">
        <ele>461.5</ele>
        <time>2021-10-07T10:14:54Z</time>
      </trkpt>
      <trkpt lat="46.78065" lon="5.62557">
        <ele>461.2</ele>
        <time>2021-10-07T10:14:59Z</time>
      </trkpt>
      <trkpt lat="46.7807" lon="5.62556">
        <ele>461.3</ele>
        <time>2021-10-07T10:15:03Z</time>
      </trkpt>
      <trkpt lat="46.78075" lon="5.62556">
        <ele>461.8</ele>
        <time>2021-10-07T10:15:07Z</time>
      </trkpt>
      <trkpt lat="46.78079" lon="5.62555">
        <ele>462.3</ele>
        <time>2021-10-07T10:15:11Z</time>
      </trkpt>
      <trkpt lat="46.78085" lon="5.62553">
        <ele>462.5</ele>
        <time>2021-10-07T10:15:16Z</time>
      </trkpt>
      <trkpt lat="46.78089" lon="5.62552">
        <ele>462.6</ele>
        <time>2021-10-07T10:15:20Z</time>
      </trkpt>
      <trkpt lat="46.78094" lon="5.62551">
        <ele>462.6</ele>
        <time>2021-10-07T10:15:24Z</time>
      </trkpt>
      <trkpt lat="46.78099" lon="5.6255">
        <ele>462.5</ele>
        <time>2021-10-07T10:15:28Z</time>
      </trkpt>
      <trkpt lat="46.78104" lon="5.62549">
        <ele>462.3</ele>
        <time>2021-10-07T10:15:32Z</time>
      </trkpt>
      <trkpt lat="46.78108" lon="5.62547">
        <ele>461.7</ele>
        <time>2021-10-07T10:15:38Z</time>
      </trkpt>
      <trkpt lat="46.78113" lon="5.62546">
        <ele>461.8</ele>
        <time>2021-10-07T10:15:44Z</time>
      </trkpt>
      <trkpt lat="46.78119" lon="5.62543">
        <ele>462.4</ele>
        <time>2021-10-07T10:15:49Z</time>
      </trkpt>
      <trkpt lat="46.78123" lon="5.6254">
        <ele>462.3</ele>
        <time>2021-10-07T10:15:53Z</time>
      </trkpt>
      <trkpt lat="46.78128" lon="5.62536">
        <ele>462.3</ele>
        <time>2021-10-07T10:15:58Z</time>
      </trkpt>
      <trkpt lat="46.78133" lon="5.62532">
        <ele>461.8</ele>
        <time>2021-10-07T10:16:03Z</time>
      </trkpt>
      <trkpt lat="46.78137" lon="5.62528">
        <ele>461.1</ele>
        <time>2021-10-07T10:16:08Z</time>
      </trkpt>
      <trkpt lat="46.7814" lon="5.62522">
        <ele>461.1</ele>
        <time>2021-10-07T10:16:13Z</time>
      </trkpt>
      <trkpt lat="46.78145" lon="5.62518">
        <ele>461.5</ele>
        <time>2021-10-07T10:16:18Z</time>
      </trkpt>
      <trkpt lat="46.7815" lon="5.62514">
        <ele>462</ele>
        <time>2021-10-07T10:16:23Z</time>
      </trkpt>
      <trkpt lat="46.78153" lon="5.62509">
        <ele>462.4</ele>
        <time>2021-10-07T10:16:28Z</time>
      </trkpt>
      <trkpt lat="46.78157" lon="5.62504">
        <ele>462.2</ele>
        <time>2021-10-07T10:16:33Z</time>
      </trkpt>
      <trkpt lat="46.7816" lon="5.62498">
        <ele>462.4</ele>
        <time>2021-10-07T10:16:38Z</time>
      </trkpt>
      <trkpt lat="46.78165" lon="5.62495">
        <ele>462.7</ele>
        <time>2021-10-07T10:16:42Z</time>
      </trkpt>
      <trkpt lat="46.78169" lon="5.62491">
        <ele>462.7</ele>
        <time>2021-10-07T10:16:47Z</time>
      </trkpt>
      <trkpt lat="46.78174" lon="5.62489">
        <ele>462.7</ele>
        <time>2021-10-07T10:16:52Z</time>
      </trkpt>
      <trkpt lat="46.78179" lon="5.62487">
        <ele>462.9</ele>
        <time>2021-10-07T10:16:56Z</time>
      </trkpt>
      <trkpt lat="46.78184" lon="5.62484">
        <ele>462.9</ele>
        <time>2021-10-07T10:17:01Z</time>
      </trkpt>
      <trkpt lat="46.78189" lon="5.62484">
        <ele>462.6</ele>
        <time>2021-10-07T10:17:05Z</time>
      </trkpt>
      <trkpt lat="46.78194" lon="5.62483">
        <ele>462.1</ele>
        <time>2021-10-07T10:17:09Z</time>
      </trkpt>
      <trkpt lat="46.78199" lon="5.62481">
        <ele>462.1</ele>
        <time>2021-10-07T10:17:13Z</time>
      </trkpt>
      <trkpt lat="46.78204" lon="5.62482">
        <ele>462.2</ele>
        <time>2021-10-07T10:17:18Z</time>
      </trkpt>
      <trkpt lat="46.78209" lon="5.62482">
        <ele>462.8</ele>
        <time>2021-10-07T10:17:23Z</time>
      </trkpt>
      <trkpt lat="46.78213" lon="5.62484">
        <ele>463.4</ele>
        <time>2021-10-07T10:17:28Z</time>
      </trkpt>
      <trkpt lat="46.78218" lon="5.62484">
        <ele>463.7</ele>
        <time>2021-10-07T10:17:32Z</time>
      </trkpt>
      <trkpt lat="46.78223" lon="5.62486">
        <ele>464</ele>
        <time>2021-10-07T10:17:37Z</time>
      </trkpt>
      <trkpt lat="46.78228" lon="5.62486">
        <ele>463.6</ele>
        <time>2021-10-07T10:17:41Z</time>
      </trkpt>
      <trkpt lat="46.78232" lon="5.62487">
        <ele>462.9</ele>
        <time>2021-10-07T10:17:45Z</time>
      </trkpt>
      <trkpt lat="46.78237" lon="5.62489">
        <ele>462</ele>
        <time>2021-10-07T10:17:49Z</time>
      </trkpt>
      <trkpt lat="46.78241" lon="5.62492">
        <ele>461.1</ele>
        <time>2021-10-07T10:17:55Z</time>
      </trkpt>
      <trkpt lat="46.78246" lon="5.62496">
        <ele>460.8</ele>
        <time>2021-10-07T10:18:01Z</time>
      </trkpt>
      <trkpt lat="46.7825" lon="5.62498">
        <ele>460.6</ele>
        <time>2021-10-07T10:18:05Z</time>
      </trkpt>
      <trkpt lat="46.78255" lon="5.62498">
        <ele>460.4</ele>
        <time>2021-10-07T10:18:09Z</time>
      </trkpt>
      <trkpt lat="46.7826" lon="5.62497">
        <ele>460.4</ele>
        <time>2021-10-07T10:18:15Z</time>
      </trkpt>
      <trkpt lat="46.78264" lon="5.62495">
        <ele>460.6</ele>
        <time>2021-10-07T10:18:21Z</time>
      </trkpt>
      <trkpt lat="46.7827" lon="5.62495">
        <ele>460.8</ele>
        <time>2021-10-07T10:18:27Z</time>
      </trkpt>
      <trkpt lat="46.78275" lon="5.62495">
        <ele>460.8</ele>
        <time>2021-10-07T10:18:32Z</time>
      </trkpt>
      <trkpt lat="46.7828" lon="5.62495">
        <ele>460.1</ele>
        <time>2021-10-07T10:18:37Z</time>
      </trkpt>
      <trkpt lat="46.78285" lon="5.62498">
        <ele>459.6</ele>
        <time>2021-10-07T10:18:42Z</time>
      </trkpt>
      <trkpt lat="46.78289" lon="5.62501">
        <ele>459.3</ele>
        <time>2021-10-07T10:18:48Z</time>
      </trkpt>
      <trkpt lat="46.78292" lon="5.62506">
        <ele>459.3</ele>
        <time>2021-10-07T10:18:53Z</time>
      </trkpt>
      <trkpt lat="46.78297" lon="5.62511">
        <ele>459.3</ele>
        <time>2021-10-07T10:18:58Z</time>
      </trkpt>
      <trkpt lat="46.78301" lon="5.62514">
        <ele>459.4</ele>
        <time>2021-10-07T10:19:04Z</time>
      </trkpt>
      <trkpt lat="46.78306" lon="5.62515">
        <ele>459.5</ele>
        <time>2021-10-07T10:19:10Z</time>
      </trkpt>
      <trkpt lat="46.7831" lon="5.62517">
        <ele>460.2</ele>
        <time>2021-10-07T10:19:17Z</time>
      </trkpt>
      <trkpt lat="46.78315" lon="5.6252">
        <ele>461.1</ele>
        <time>2021-10-07T10:19:23Z</time>
      </trkpt>
      <trkpt lat="46.78318" lon="5.62526">
        <ele>463.1</ele>
        <time>2021-10-07T10:19:33Z</time>
      </trkpt>
      <trkpt lat="46.78322" lon="5.6253">
        <ele>464.4</ele>
        <time>2021-10-07T10:19:38Z</time>
      </trkpt>
      <trkpt lat="46.78327" lon="5.62534">
        <ele>465.6</ele>
        <time>2021-10-07T10:19:43Z</time>
      </trkpt>
      <trkpt lat="46.78331" lon="5.62537">
        <ele>466</ele>
        <time>2021-10-07T10:19:48Z</time>
      </trkpt>
      <trkpt lat="46.78334" lon="5.62544">
        <ele>465.4</ele>
        <time>2021-10-07T10:19:53Z</time>
      </trkpt>
      <trkpt lat="46.78337" lon="5.62549">
        <ele>464.6</ele>
        <time>2021-10-07T10:19:57Z</time>
      </trkpt>
      <trkpt lat="46.78341" lon="5.62553">
        <ele>464</ele>
        <time>2021-10-07T10:20:00Z</time>
      </trkpt>
      <trkpt lat="46.78345" lon="5.62556">
        <ele>463.7</ele>
        <time>2021-10-07T10:20:03Z</time>
      </trkpt>
      <trkpt lat="46.7835" lon="5.6256">
        <ele>463</ele>
        <time>2021-10-07T10:20:06Z</time>
      </trkpt>
      <trkpt lat="46.78354" lon="5.62562">
        <ele>461.5</ele>
        <time>2021-10-07T10:20:10Z</time>
      </trkpt>
      <trkpt lat="46.78358" lon="5.62567">
        <ele>460.7</ele>
        <time>2021-10-07T10:20:15Z</time>
      </trkpt>
      <trkpt lat="46.78361" lon="5.62573">
        <ele>461.4</ele>
        <time>2021-10-07T10:20:21Z</time>
      </trkpt>
      <trkpt lat="46.78366" lon="5.62577">
        <ele>461.9</ele>
        <time>2021-10-07T10:20:27Z</time>
      </trkpt>
      <trkpt lat="46.7837" lon="5.62581">
        <ele>461.8</ele>
        <time>2021-10-07T10:20:32Z</time>
      </trkpt>
      <trkpt lat="46.78374" lon="5.62584">
        <ele>462</ele>
        <time>2021-10-07T10:20:37Z</time>
      </trkpt>
      <trkpt lat="46.78378" lon="5.62589">
        <ele>462.4</ele>
        <time>2021-10-07T10:20:43Z</time>
      </trkpt>
      <trkpt lat="46.78382" lon="5.62595">
        <ele>462.8</ele>
        <time>2021-10-07T10:20:49Z</time>
      </trkpt>
      <trkpt lat="46.78386" lon="5.62599">
        <ele>463.1</ele>
        <time>2021-10-07T10:20:53Z</time>
      </trkpt>
      <trkpt lat="46.7839" lon="5.62604">
        <ele>463.6</ele>
        <time>2021-10-07T10:20:58Z</time>
      </trkpt>
      <trkpt lat="46.78395" lon="5.62608">
        <ele>464</ele>
        <time>2021-10-07T10:21:03Z</time>
      </trkpt>
      <trkpt lat="46.78399" lon="5.62612">
        <ele>463.7</ele>
        <time>2021-10-07T10:21:09Z</time>
      </trkpt>
      <trkpt lat="46.78403" lon="5.62616">
        <ele>463.3</ele>
        <time>2021-10-07T10:21:13Z</time>
      </trkpt>
      <trkpt lat="46.78407" lon="5.62621">
        <ele>462.8</ele>
        <time>2021-10-07T10:21:17Z</time>
      </trkpt>
      <trkpt lat="46.78411" lon="5.62626">
        <ele>462.5</ele>
        <time>2021-10-07T10:21:21Z</time>
      </trkpt>
      <trkpt lat="46.78415" lon="5.62629">
        <ele>462.3</ele>
        <time>2021-10-07T10:21:26Z</time>
      </trkpt>
      <trkpt lat="46.78419" lon="5.62633">
        <ele>461.9</ele>
        <time>2021-10-07T10:21:31Z</time>
      </trkpt>
      <trkpt lat="46.78425" lon="5.62636">
        <ele>462</ele>
        <time>2021-10-07T10:21:36Z</time>
      </trkpt>
      <trkpt lat="46.78429" lon="5.6264">
        <ele>462.5</ele>
        <time>2021-10-07T10:21:41Z</time>
      </trkpt>
      <trkpt lat="46.78433" lon="5.62644">
        <ele>463.4</ele>
        <time>2021-10-07T10:21:50Z</time>
      </trkpt>
      <trkpt lat="46.78438" lon="5.62646">
        <ele>464.4</ele>
        <time>2021-10-07T10:21:56Z</time>
      </trkpt>
      <trkpt lat="46.78443" lon="5.62648">
        <ele>465.4</ele>
        <time>2021-10-07T10:22:01Z</time>
      </trkpt>
      <trkpt lat="46.78447" lon="5.62651">
        <ele>466.3</ele>
        <time>2021-10-07T10:22:08Z</time>
      </trkpt>
      <trkpt lat="46.78451" lon="5.62655">
        <ele>467.3</ele>
        <time>2021-10-07T10:22:15Z</time>
      </trkpt>
      <trkpt lat="46.78456" lon="5.62656">
        <ele>467.7</ele>
        <time>2021-10-07T10:22:19Z</time>
      </trkpt>
      <trkpt lat="46.78461" lon="5.62658">
        <ele>468.4</ele>
        <time>2021-10-07T10:22:24Z</time>
      </trkpt>
      <trkpt lat="46.78466" lon="5.62662">
        <ele>469.5</ele>
        <time>2021-10-07T10:22:31Z</time>
      </trkpt>
      <trkpt lat="46.78471" lon="5.62663">
        <ele>471</ele>
        <time>2021-10-07T10:22:40Z</time>
      </trkpt>
      <trkpt lat="46.78476" lon="5.62662">
        <ele>471.7</ele>
        <time>2021-10-07T10:22:45Z</time>
      </trkpt>
      <trkpt lat="46.7848" lon="5.6266">
        <ele>471.9</ele>
        <time>2021-10-07T10:22:49Z</time>
      </trkpt>
      <trkpt lat="46.78486" lon="5.6266">
        <ele>472</ele>
        <time>2021-10-07T10:22:54Z</time>
      </trkpt>
      <trkpt lat="46.78491" lon="5.62661">
        <ele>472.1</ele>
        <time>2021-10-07T10:22:58Z</time>
      </trkpt>
      <trkpt lat="46.78496" lon="5.62662">
        <ele>472.7</ele>
        <time>2021-10-07T10:23:02Z</time>
      </trkpt>
      <trkpt lat="46.78501" lon="5.62665">
        <ele>473.3</ele>
        <time>2021-10-07T10:23:06Z</time>
      </trkpt>
      <trkpt lat="46.78505" lon="5.62666">
        <ele>474.1</ele>
        <time>2021-10-07T10:23:10Z</time>
      </trkpt>
      <trkpt lat="46.78511" lon="5.62665">
        <ele>475</ele>
        <time>2021-10-07T10:23:14Z</time>
      </trkpt>
      <trkpt lat="46.78516" lon="5.62667">
        <ele>475.5</ele>
        <time>2021-10-07T10:23:19Z</time>
      </trkpt>
      <trkpt lat="46.7852" lon="5.62667">
        <ele>475.3</ele>
        <time>2021-10-07T10:23:25Z</time>
      </trkpt>
      <trkpt lat="46.78525" lon="5.62665">
        <ele>475.6</ele>
        <time>2021-10-07T10:23:30Z</time>
      </trkpt>
      <trkpt lat="46.7853" lon="5.62668">
        <ele>475.5</ele>
        <time>2021-10-07T10:23:36Z</time>
      </trkpt>
      <trkpt lat="46.78534" lon="5.62666">
        <ele>475.2</ele>
        <time>2021-10-07T10:23:42Z</time>
      </trkpt>
      <trkpt lat="46.78539" lon="5.62666">
        <ele>475</ele>
        <time>2021-10-07T10:23:47Z</time>
      </trkpt>
      <trkpt lat="46.78544" lon="5.62667">
        <ele>474.5</ele>
        <time>2021-10-07T10:23:53Z</time>
      </trkpt>
      <trkpt lat="46.78549" lon="5.62669">
        <ele>474.2</ele>
        <time>2021-10-07T10:23:57Z</time>
      </trkpt>
      <trkpt lat="46.78554" lon="5.62668">
        <ele>474.2</ele>
        <time>2021-10-07T10:24:02Z</time>
      </trkpt>
      <trkpt lat="46.78559" lon="5.62668">
        <ele>474.5</ele>
        <time>2021-10-07T10:24:06Z</time>
      </trkpt>
      <trkpt lat="46.78564" lon="5.62668">
        <ele>474.8</ele>
        <time>2021-10-07T10:24:11Z</time>
      </trkpt>
      <trkpt lat="46.78569" lon="5.62668">
        <ele>475.4</ele>
        <time>2021-10-07T10:24:15Z</time>
      </trkpt>
      <trkpt lat="46.78574" lon="5.62666">
        <ele>475.9</ele>
        <time>2021-10-07T10:24:19Z</time>
      </trkpt>
      <trkpt lat="46.78579" lon="5.62664">
        <ele>475.7</ele>
        <time>2021-10-07T10:24:24Z</time>
      </trkpt>
      <trkpt lat="46.78584" lon="5.62663">
        <ele>475.2</ele>
        <time>2021-10-07T10:24:30Z</time>
      </trkpt>
      <trkpt lat="46.78589" lon="5.6266">
        <ele>474.6</ele>
        <time>2021-10-07T10:24:36Z</time>
      </trkpt>
      <trkpt lat="46.78592" lon="5.62656">
        <ele>474.6</ele>
        <time>2021-10-07T10:24:40Z</time>
      </trkpt>
      <trkpt lat="46.78596" lon="5.62652">
        <ele>474.9</ele>
        <time>2021-10-07T10:24:43Z</time>
      </trkpt>
      <trkpt lat="46.78601" lon="5.6265">
        <ele>475.5</ele>
        <time>2021-10-07T10:24:46Z</time>
      </trkpt>
      <trkpt lat="46.78606" lon="5.62649">
        <ele>476.4</ele>
        <time>2021-10-07T10:24:51Z</time>
      </trkpt>
      <trkpt lat="46.78611" lon="5.62647">
        <ele>476.9</ele>
        <time>2021-10-07T10:24:56Z</time>
      </trkpt>
      <trkpt lat="46.78615" lon="5.62645">
        <ele>477.3</ele>
        <time>2021-10-07T10:25:00Z</time>
      </trkpt>
      <trkpt lat="46.7862" lon="5.62641">
        <ele>477.7</ele>
        <time>2021-10-07T10:25:06Z</time>
      </trkpt>
      <trkpt lat="46.78624" lon="5.62638">
        <ele>478</ele>
        <time>2021-10-07T10:25:10Z</time>
      </trkpt>
      <trkpt lat="46.78627" lon="5.62633">
        <ele>478.3</ele>
        <time>2021-10-07T10:25:14Z</time>
      </trkpt>
      <trkpt lat="46.78631" lon="5.62628">
        <ele>479.5</ele>
        <time>2021-10-07T10:25:20Z</time>
      </trkpt>
      <trkpt lat="46.78636" lon="5.62626">
        <ele>480.9</ele>
        <time>2021-10-07T10:25:25Z</time>
      </trkpt>
      <trkpt lat="46.78641" lon="5.62623">
        <ele>482</ele>
        <time>2021-10-07T10:25:30Z</time>
      </trkpt>
      <trkpt lat="46.78645" lon="5.62618">
        <ele>482.6</ele>
        <time>2021-10-07T10:25:34Z</time>
      </trkpt>
      <trkpt lat="46.78648" lon="5.62613">
        <ele>483.3</ele>
        <time>2021-10-07T10:25:38Z</time>
      </trkpt>
      <trkpt lat="46.78652" lon="5.62608">
        <ele>484.1</ele>
        <time>2021-10-07T10:25:44Z</time>
      </trkpt>
      <trkpt lat="46.78657" lon="5.62606">
        <ele>484.2</ele>
        <time>2021-10-07T10:25:49Z</time>
      </trkpt>
      <trkpt lat="46.78662" lon="5.62603">
        <ele>484.5</ele>
        <time>2021-10-07T10:25:54Z</time>
      </trkpt>
      <trkpt lat="46.78666" lon="5.626">
        <ele>484.5</ele>
        <time>2021-10-07T10:25:59Z</time>
      </trkpt>
      <trkpt lat="46.78671" lon="5.62597">
        <ele>484</ele>
        <time>2021-10-07T10:26:03Z</time>
      </trkpt>
      <trkpt lat="46.78675" lon="5.62593">
        <ele>483.1</ele>
        <time>2021-10-07T10:26:07Z</time>
      </trkpt>
      <trkpt lat="46.78679" lon="5.62587">
        <ele>482.3</ele>
        <time>2021-10-07T10:26:12Z</time>
      </trkpt>
      <trkpt lat="46.78684" lon="5.62584">
        <ele>482</ele>
        <time>2021-10-07T10:26:16Z</time>
      </trkpt>
      <trkpt lat="46.78688" lon="5.62579">
        <ele>481.8</ele>
        <time>2021-10-07T10:26:20Z</time>
      </trkpt>
      <trkpt lat="46.78692" lon="5.62574">
        <ele>482</ele>
        <time>2021-10-07T10:26:24Z</time>
      </trkpt>
      <trkpt lat="46.78696" lon="5.62569">
        <ele>482.8</ele>
        <time>2021-10-07T10:26:30Z</time>
      </trkpt>
      <trkpt lat="46.787" lon="5.62567">
        <ele>483.2</ele>
        <time>2021-10-07T10:26:35Z</time>
      </trkpt>
      <trkpt lat="46.78706" lon="5.62565">
        <ele>483.1</ele>
        <time>2021-10-07T10:26:39Z</time>
      </trkpt>
      <trkpt lat="46.78709" lon="5.62561">
        <ele>483.2</ele>
        <time>2021-10-07T10:26:44Z</time>
      </trkpt>
      <trkpt lat="46.78714" lon="5.62556">
        <ele>483.2</ele>
        <time>2021-10-07T10:26:49Z</time>
      </trkpt>
      <trkpt lat="46.78717" lon="5.6255">
        <ele>482.8</ele>
        <time>2021-10-07T10:26:54Z</time>
      </trkpt>
      <trkpt lat="46.78721" lon="5.62547">
        <ele>481.6</ele>
        <time>2021-10-07T10:27:00Z</time>
      </trkpt>
      <trkpt lat="46.78724" lon="5.62541">
        <ele>480.6</ele>
        <time>2021-10-07T10:27:07Z</time>
      </trkpt>
      <trkpt lat="46.78728" lon="5.62536">
        <ele>481</ele>
        <time>2021-10-07T10:27:12Z</time>
      </trkpt>
      <trkpt lat="46.78732" lon="5.62531">
        <ele>481.1</ele>
        <time>2021-10-07T10:27:16Z</time>
      </trkpt>
      <trkpt lat="46.78734" lon="5.62524">
        <ele>481</ele>
        <time>2021-10-07T10:27:21Z</time>
      </trkpt>
      <trkpt lat="46.78737" lon="5.62518">
        <ele>480.8</ele>
        <time>2021-10-07T10:27:25Z</time>
      </trkpt>
      <trkpt lat="46.78739" lon="5.62513">
        <ele>480.7</ele>
        <time>2021-10-07T10:27:30Z</time>
      </trkpt>
      <trkpt lat="46.78745" lon="5.62504">
        <ele>480.1</ele>
        <time>2021-10-07T10:27:44Z</time>
      </trkpt>
      <trkpt lat="46.78751" lon="5.62499">
        <ele>480.2</ele>
        <time>2021-10-07T10:27:47Z</time>
      </trkpt>
      <trkpt lat="46.78755" lon="5.62496">
        <ele>480.3</ele>
        <time>2021-10-07T10:27:50Z</time>
      </trkpt>
      <trkpt lat="46.7876" lon="5.62494">
        <ele>480.2</ele>
        <time>2021-10-07T10:27:54Z</time>
      </trkpt>
      <trkpt lat="46.78764" lon="5.62489">
        <ele>479.7</ele>
        <time>2021-10-07T10:27:58Z</time>
      </trkpt>
      <trkpt lat="46.78768" lon="5.62485">
        <ele>478.6</ele>
        <time>2021-10-07T10:28:03Z</time>
      </trkpt>
      <trkpt lat="46.78773" lon="5.62483">
        <ele>478</ele>
        <time>2021-10-07T10:28:07Z</time>
      </trkpt>
      <trkpt lat="46.78778" lon="5.62483">
        <ele>476.9</ele>
        <time>2021-10-07T10:28:12Z</time>
      </trkpt>
      <trkpt lat="46.78783" lon="5.62484">
        <ele>475.5</ele>
        <time>2021-10-07T10:28:17Z</time>
      </trkpt>
      <trkpt lat="46.78788" lon="5.62482">
        <ele>474.5</ele>
        <time>2021-10-07T10:28:21Z</time>
      </trkpt>
      <trkpt lat="46.78793" lon="5.62481">
        <ele>473.3</ele>
        <time>2021-10-07T10:28:25Z</time>
      </trkpt>
      <trkpt lat="46.78798" lon="5.62479">
        <ele>471</ele>
        <time>2021-10-07T10:28:32Z</time>
      </trkpt>
      <trkpt lat="46.78802" lon="5.62476">
        <ele>469.8</ele>
        <time>2021-10-07T10:28:38Z</time>
      </trkpt>
      <trkpt lat="46.78807" lon="5.62473">
        <ele>469.5</ele>
        <time>2021-10-07T10:28:42Z</time>
      </trkpt>
      <trkpt lat="46.78811" lon="5.62471">
        <ele>469.7</ele>
        <time>2021-10-07T10:28:46Z</time>
      </trkpt>
      <trkpt lat="46.78816" lon="5.62468">
        <ele>470.2</ele>
        <time>2021-10-07T10:28:52Z</time>
      </trkpt>
      <trkpt lat="46.7882" lon="5.62465">
        <ele>470.4</ele>
        <time>2021-10-07T10:28:57Z</time>
      </trkpt>
      <trkpt lat="46.78825" lon="5.62461">
        <ele>470.6</ele>
        <time>2021-10-07T10:29:02Z</time>
      </trkpt>
      <trkpt lat="46.78829" lon="5.62458">
        <ele>470.7</ele>
        <time>2021-10-07T10:29:06Z</time>
      </trkpt>
      <trkpt lat="46.78833" lon="5.62454">
        <ele>470.6</ele>
        <time>2021-10-07T10:29:10Z</time>
      </trkpt>
      <trkpt lat="46.78837" lon="5.62449">
        <ele>470.8</ele>
        <time>2021-10-07T10:29:14Z</time>
      </trkpt>
      <trkpt lat="46.78841" lon="5.62444">
        <ele>470.8</ele>
        <time>2021-10-07T10:29:20Z</time>
      </trkpt>
      <trkpt lat="46.78844" lon="5.6244">
        <ele>471</ele>
        <time>2021-10-07T10:29:25Z</time>
      </trkpt>
      <trkpt lat="46.78848" lon="5.62435">
        <ele>471</ele>
        <time>2021-10-07T10:29:30Z</time>
      </trkpt>
      <trkpt lat="46.78852" lon="5.62432">
        <ele>471.1</ele>
        <time>2021-10-07T10:29:36Z</time>
      </trkpt>
      <trkpt lat="46.78856" lon="5.62427">
        <ele>470.4</ele>
        <time>2021-10-07T10:29:44Z</time>
      </trkpt>
      <trkpt lat="46.7886" lon="5.62422">
        <ele>469.7</ele>
        <time>2021-10-07T10:29:52Z</time>
      </trkpt>
      <trkpt lat="46.78865" lon="5.62419">
        <ele>469.8</ele>
        <time>2021-10-07T10:29:56Z</time>
      </trkpt>
      <trkpt lat="46.7887" lon="5.62417">
        <ele>470</ele>
        <time>2021-10-07T10:30:00Z</time>
      </trkpt>
      <trkpt lat="46.78875" lon="5.62416">
        <ele>469.8</ele>
        <time>2021-10-07T10:30:04Z</time>
      </trkpt>
      <trkpt lat="46.78879" lon="5.62411">
        <ele>469.5</ele>
        <time>2021-10-07T10:30:09Z</time>
      </trkpt>
      <trkpt lat="46.78883" lon="5.62406">
        <ele>469.3</ele>
        <time>2021-10-07T10:30:13Z</time>
      </trkpt>
      <trkpt lat="46.78884" lon="5.624">
        <ele>469.1</ele>
        <time>2021-10-07T10:30:18Z</time>
      </trkpt>
      <trkpt lat="46.78889" lon="5.62395">
        <ele>468.7</ele>
        <time>2021-10-07T10:30:24Z</time>
      </trkpt>
      <trkpt lat="46.78892" lon="5.62391">
        <ele>468.6</ele>
        <time>2021-10-07T10:30:28Z</time>
      </trkpt>
      <trkpt lat="46.78896" lon="5.62384">
        <ele>468.4</ele>
        <time>2021-10-07T10:30:33Z</time>
      </trkpt>
      <trkpt lat="46.78896" lon="5.62378">
        <ele>468.7</ele>
        <time>2021-10-07T10:30:38Z</time>
      </trkpt>
      <trkpt lat="46.78898" lon="5.62371">
        <ele>468.5</ele>
        <time>2021-10-07T10:30:44Z</time>
      </trkpt>
      <trkpt lat="46.789" lon="5.62365">
        <ele>468.1</ele>
        <time>2021-10-07T10:30:48Z</time>
      </trkpt>
      <trkpt lat="46.78902" lon="5.62357">
        <ele>467.8</ele>
        <time>2021-10-07T10:30:53Z</time>
      </trkpt>
      <trkpt lat="46.78905" lon="5.62352">
        <ele>467.8</ele>
        <time>2021-10-07T10:30:57Z</time>
      </trkpt>
      <trkpt lat="46.78905" lon="5.62345">
        <ele>468.7</ele>
        <time>2021-10-07T10:31:04Z</time>
      </trkpt>
      <trkpt lat="46.78902" lon="5.62339">
        <ele>468.5</ele>
        <time>2021-10-07T10:31:11Z</time>
      </trkpt>
      <trkpt lat="46.78897" lon="5.62337">
        <ele>464.4</ele>
        <time>2021-10-07T10:31:31Z</time>
      </trkpt>
      <trkpt lat="46.78895" lon="5.62331">
        <ele>463.4</ele>
        <time>2021-10-07T10:31:35Z</time>
      </trkpt>
      <trkpt lat="46.78892" lon="5.62325">
        <ele>462.3</ele>
        <time>2021-10-07T10:31:40Z</time>
      </trkpt>
      <trkpt lat="46.78888" lon="5.62322">
        <ele>460.4</ele>
        <time>2021-10-07T10:31:46Z</time>
      </trkpt>
      <trkpt lat="46.78885" lon="5.62317">
        <ele>458.4</ele>
        <time>2021-10-07T10:31:52Z</time>
      </trkpt>
      <trkpt lat="46.78883" lon="5.62311">
        <ele>456.3</ele>
        <time>2021-10-07T10:31:58Z</time>
      </trkpt>
      <trkpt lat="46.78879" lon="5.62306">
        <ele>454.4</ele>
        <time>2021-10-07T10:32:03Z</time>
      </trkpt>
      <trkpt lat="46.78874" lon="5.62303">
        <ele>453</ele>
        <time>2021-10-07T10:32:08Z</time>
      </trkpt>
      <trkpt lat="46.7887" lon="5.623">
        <ele>452.6</ele>
        <time>2021-10-07T10:32:13Z</time>
      </trkpt>
      <trkpt lat="46.78866" lon="5.62296">
        <ele>453.1</ele>
        <time>2021-10-07T10:32:18Z</time>
      </trkpt>
      <trkpt lat="46.78862" lon="5.62291">
        <ele>453.4</ele>
        <time>2021-10-07T10:32:24Z</time>
      </trkpt>
      <trkpt lat="46.78857" lon="5.6229">
        <ele>452.8</ele>
        <time>2021-10-07T10:32:29Z</time>
      </trkpt>
      <trkpt lat="46.78853" lon="5.62286">
        <ele>450.9</ele>
        <time>2021-10-07T10:32:36Z</time>
      </trkpt>
      <trkpt lat="46.78848" lon="5.62283">
        <ele>449.1</ele>
        <time>2021-10-07T10:32:43Z</time>
      </trkpt>
      <trkpt lat="46.78844" lon="5.6228">
        <ele>447.4</ele>
        <time>2021-10-07T10:32:48Z</time>
      </trkpt>
      <trkpt lat="46.7884" lon="5.62277">
        <ele>445.9</ele>
        <time>2021-10-07T10:32:54Z</time>
      </trkpt>
      <trkpt lat="46.78835" lon="5.62273">
        <ele>444.2</ele>
        <time>2021-10-07T10:33:03Z</time>
      </trkpt>
      <trkpt lat="46.78831" lon="5.6227">
        <ele>444</ele>
        <time>2021-10-07T10:33:07Z</time>
      </trkpt>
      <trkpt lat="46.78827" lon="5.62266">
        <ele>443.7</ele>
        <time>2021-10-07T10:33:12Z</time>
      </trkpt>
      <trkpt lat="46.78823" lon="5.6226">
        <ele>443.2</ele>
        <time>2021-10-07T10:33:17Z</time>
      </trkpt>
      <trkpt lat="46.78818" lon="5.62258">
        <ele>443.6</ele>
        <time>2021-10-07T10:33:23Z</time>
      </trkpt>
      <trkpt lat="46.78815" lon="5.62254">
        <ele>443.9</ele>
        <time>2021-10-07T10:33:28Z</time>
      </trkpt>
      <trkpt lat="46.7881" lon="5.62253">
        <ele>443</ele>
        <time>2021-10-07T10:33:34Z</time>
      </trkpt>
      <trkpt lat="46.78805" lon="5.62249">
        <ele>442</ele>
        <time>2021-10-07T10:33:40Z</time>
      </trkpt>
      <trkpt lat="46.78801" lon="5.62246">
        <ele>441.8</ele>
        <time>2021-10-07T10:33:45Z</time>
      </trkpt>
      <trkpt lat="46.78797" lon="5.62243">
        <ele>442</ele>
        <time>2021-10-07T10:33:51Z</time>
      </trkpt>
      <trkpt lat="46.78792" lon="5.62239">
        <ele>441.9</ele>
        <time>2021-10-07T10:33:56Z</time>
      </trkpt>
      <trkpt lat="46.78789" lon="5.62234">
        <ele>441.8</ele>
        <time>2021-10-07T10:34:00Z</time>
      </trkpt>
      <trkpt lat="46.78786" lon="5.6223">
        <ele>441.9</ele>
        <time>2021-10-07T10:34:06Z</time>
      </trkpt>
      <trkpt lat="46.78781" lon="5.62228">
        <ele>441.7</ele>
        <time>2021-10-07T10:34:14Z</time>
      </trkpt>
      <trkpt lat="46.78775" lon="5.62228">
        <ele>441</ele>
        <time>2021-10-07T10:34:21Z</time>
      </trkpt>
      <trkpt lat="46.78771" lon="5.62225">
        <ele>438.1</ele>
        <time>2021-10-07T10:34:32Z</time>
      </trkpt>
      <trkpt lat="46.78767" lon="5.62221">
        <ele>435.5</ele>
        <time>2021-10-07T10:34:39Z</time>
      </trkpt>
      <trkpt lat="46.78763" lon="5.62217">
        <ele>434.9</ele>
        <time>2021-10-07T10:34:45Z</time>
      </trkpt>
      <trkpt lat="46.78759" lon="5.62213">
        <ele>434.9</ele>
        <time>2021-10-07T10:34:52Z</time>
      </trkpt>
      <trkpt lat="46.78755" lon="5.62208">
        <ele>435.4</ele>
        <time>2021-10-07T10:34:58Z</time>
      </trkpt>
      <trkpt lat="46.78751" lon="5.62205">
        <ele>436.3</ele>
        <time>2021-10-07T10:35:04Z</time>
      </trkpt>
      <trkpt lat="46.78748" lon="5.62199">
        <ele>437.6</ele>
        <time>2021-10-07T10:35:09Z</time>
      </trkpt>
      <trkpt lat="46.78745" lon="5.62193">
        <ele>439.4</ele>
        <time>2021-10-07T10:35:15Z</time>
      </trkpt>
      <trkpt lat="46.78742" lon="5.62187">
        <ele>440.9</ele>
        <time>2021-10-07T10:35:22Z</time>
      </trkpt>
      <trkpt lat="46.78738" lon="5.62183">
        <ele>442.2</ele>
        <time>2021-10-07T10:35:29Z</time>
      </trkpt>
      <trkpt lat="46.78735" lon="5.62177">
        <ele>442.5</ele>
        <time>2021-10-07T10:35:35Z</time>
      </trkpt>
      <trkpt lat="46.78733" lon="5.62172">
        <ele>442</ele>
        <time>2021-10-07T10:35:41Z</time>
      </trkpt>
      <trkpt lat="46.78729" lon="5.62167">
        <ele>442</ele>
        <time>2021-10-07T10:35:45Z</time>
      </trkpt>
      <trkpt lat="46.78726" lon="5.62162">
        <ele>441.8</ele>
        <time>2021-10-07T10:35:50Z</time>
      </trkpt>
      <trkpt lat="46.78724" lon="5.62156">
        <ele>441.8</ele>
        <time>2021-10-07T10:36:00Z</time>
      </trkpt>
      <trkpt lat="46.7872" lon="5.62153">
        <ele>440.9</ele>
        <time>2021-10-07T10:36:07Z</time>
      </trkpt>
      <trkpt lat="46.78717" lon="5.62147">
        <ele>440.2</ele>
        <time>2021-10-07T10:36:13Z</time>
      </trkpt>
      <trkpt lat="46.78713" lon="5.62142">
        <ele>439.2</ele>
        <time>2021-10-07T10:36:20Z</time>
      </trkpt>
      <trkpt lat="46.78709" lon="5.62136">
        <ele>439</ele>
        <time>2021-10-07T10:36:25Z</time>
      </trkpt>
      <trkpt lat="46.78708" lon="5.62129">
        <ele>439</ele>
        <time>2021-10-07T10:36:30Z</time>
      </trkpt>
      <trkpt lat="46.78706" lon="5.62122">
        <ele>438.9</ele>
        <time>2021-10-07T10:36:36Z</time>
      </trkpt>
      <trkpt lat="46.78704" lon="5.62115">
        <ele>438.8</ele>
        <time>2021-10-07T10:36:42Z</time>
      </trkpt>
      <trkpt lat="46.78701" lon="5.6211">
        <ele>438.4</ele>
        <time>2021-10-07T10:36:48Z</time>
      </trkpt>
      <trkpt lat="46.78699" lon="5.62103">
        <ele>436.9</ele>
        <time>2021-10-07T10:36:54Z</time>
      </trkpt>
      <trkpt lat="46.78697" lon="5.62097">
        <ele>435</ele>
        <time>2021-10-07T10:36:59Z</time>
      </trkpt>
      <trkpt lat="46.78694" lon="5.62092">
        <ele>430.6</ele>
        <time>2021-10-07T10:37:08Z</time>
      </trkpt>
      <trkpt lat="46.7869" lon="5.62088">
        <ele>428.8</ele>
        <time>2021-10-07T10:37:13Z</time>
      </trkpt>
      <trkpt lat="46.78687" lon="5.62083">
        <ele>427.7</ele>
        <time>2021-10-07T10:37:16Z</time>
      </trkpt>
      <trkpt lat="46.78683" lon="5.62077">
        <ele>426.1</ele>
        <time>2021-10-07T10:37:20Z</time>
      </trkpt>
      <trkpt lat="46.78679" lon="5.62071">
        <ele>424.4</ele>
        <time>2021-10-07T10:37:26Z</time>
      </trkpt>
      <trkpt lat="46.78676" lon="5.62066">
        <ele>423.7</ele>
        <time>2021-10-07T10:37:30Z</time>
      </trkpt>
      <trkpt lat="46.78672" lon="5.6206">
        <ele>423.6</ele>
        <time>2021-10-07T10:37:34Z</time>
      </trkpt>
      <trkpt lat="46.78669" lon="5.62054">
        <ele>424</ele>
        <time>2021-10-07T10:37:38Z</time>
      </trkpt>
      <trkpt lat="46.78667" lon="5.62047">
        <ele>424.4</ele>
        <time>2021-10-07T10:37:44Z</time>
      </trkpt>
      <trkpt lat="46.78666" lon="5.6204">
        <ele>424.8</ele>
        <time>2021-10-07T10:37:50Z</time>
      </trkpt>
      <trkpt lat="46.78664" lon="5.62033">
        <ele>423.6</ele>
        <time>2021-10-07T10:37:58Z</time>
      </trkpt>
      <trkpt lat="46.78663" lon="5.62027">
        <ele>421.8</ele>
        <time>2021-10-07T10:38:04Z</time>
      </trkpt>
      <trkpt lat="46.78662" lon="5.6202">
        <ele>419.9</ele>
        <time>2021-10-07T10:38:10Z</time>
      </trkpt>
      <trkpt lat="46.7866" lon="5.62012">
        <ele>418.9</ele>
        <time>2021-10-07T10:38:14Z</time>
      </trkpt>
      <trkpt lat="46.78657" lon="5.62006">
        <ele>418.1</ele>
        <time>2021-10-07T10:38:18Z</time>
      </trkpt>
      <trkpt lat="46.78654" lon="5.62001">
        <ele>417.7</ele>
        <time>2021-10-07T10:38:22Z</time>
      </trkpt>
      <trkpt lat="46.7865" lon="5.61994">
        <ele>417.5</ele>
        <time>2021-10-07T10:38:25Z</time>
      </trkpt>
      <trkpt lat="46.78646" lon="5.61989">
        <ele>417.2</ele>
        <time>2021-10-07T10:38:28Z</time>
      </trkpt>
      <trkpt lat="46.78642" lon="5.61985">
        <ele>416.6</ele>
        <time>2021-10-07T10:38:32Z</time>
      </trkpt>
      <trkpt lat="46.78637" lon="5.61988">
        <ele>414.6</ele>
        <time>2021-10-07T10:38:38Z</time>
      </trkpt>
      <trkpt lat="46.78632" lon="5.61993">
        <ele>412.7</ele>
        <time>2021-10-07T10:38:43Z</time>
      </trkpt>
      <trkpt lat="46.78629" lon="5.61997">
        <ele>411.1</ele>
        <time>2021-10-07T10:38:48Z</time>
      </trkpt>
      <trkpt lat="46.78625" lon="5.62002">
        <ele>409.8</ele>
        <time>2021-10-07T10:38:54Z</time>
      </trkpt>
      <trkpt lat="46.78622" lon="5.62006">
        <ele>409.1</ele>
        <time>2021-10-07T10:39:01Z</time>
      </trkpt>
      <trkpt lat="46.78617" lon="5.62008">
        <ele>409.5</ele>
        <time>2021-10-07T10:39:06Z</time>
      </trkpt>
      <trkpt lat="46.78613" lon="5.6201">
        <ele>409.9</ele>
        <time>2021-10-07T10:39:13Z</time>
      </trkpt>
      <trkpt lat="46.78608" lon="5.62013">
        <ele>410.1</ele>
        <time>2021-10-07T10:39:18Z</time>
      </trkpt>
      <trkpt lat="46.78603" lon="5.62017">
        <ele>409.7</ele>
        <time>2021-10-07T10:39:23Z</time>
      </trkpt>
      <trkpt lat="46.78598" lon="5.6202">
        <ele>409.4</ele>
        <time>2021-10-07T10:39:27Z</time>
      </trkpt>
      <trkpt lat="46.78594" lon="5.62023">
        <ele>409.2</ele>
        <time>2021-10-07T10:39:32Z</time>
      </trkpt>
      <trkpt lat="46.7859" lon="5.62027">
        <ele>408.9</ele>
        <time>2021-10-07T10:39:37Z</time>
      </trkpt>
      <trkpt lat="46.78587" lon="5.62031">
        <ele>408.2</ele>
        <time>2021-10-07T10:39:42Z</time>
      </trkpt>
      <trkpt lat="46.78583" lon="5.62036">
        <ele>407.4</ele>
        <time>2021-10-07T10:39:47Z</time>
      </trkpt>
      <trkpt lat="46.78578" lon="5.6204">
        <ele>405.8</ele>
        <time>2021-10-07T10:39:54Z</time>
      </trkpt>
      <trkpt lat="46.78574" lon="5.62045">
        <ele>404.2</ele>
        <time>2021-10-07T10:40:00Z</time>
      </trkpt>
      <trkpt lat="46.78571" lon="5.62051">
        <ele>401.9</ele>
        <time>2021-10-07T10:40:06Z</time>
      </trkpt>
      <trkpt lat="46.78569" lon="5.62057">
        <ele>400.3</ele>
        <time>2021-10-07T10:40:11Z</time>
      </trkpt>
      <trkpt lat="46.78567" lon="5.62063">
        <ele>399.2</ele>
        <time>2021-10-07T10:40:17Z</time>
      </trkpt>
      <trkpt lat="46.78565" lon="5.62071">
        <ele>397.8</ele>
        <time>2021-10-07T10:40:23Z</time>
      </trkpt>
      <trkpt lat="46.78565" lon="5.62078">
        <ele>397.2</ele>
        <time>2021-10-07T10:40:27Z</time>
      </trkpt>
      <trkpt lat="46.78565" lon="5.62085">
        <ele>396.5</ele>
        <time>2021-10-07T10:40:31Z</time>
      </trkpt>
      <trkpt lat="46.7856" lon="5.62089">
        <ele>395.8</ele>
        <time>2021-10-07T10:40:37Z</time>
      </trkpt>
      <trkpt lat="46.7856" lon="5.62096">
        <ele>394.8</ele>
        <time>2021-10-07T10:40:44Z</time>
      </trkpt>
      <trkpt lat="46.78563" lon="5.62102">
        <ele>393.9</ele>
        <time>2021-10-07T10:40:48Z</time>
      </trkpt>
      <trkpt lat="46.78562" lon="5.62109">
        <ele>392.4</ele>
        <time>2021-10-07T10:40:54Z</time>
      </trkpt>
      <trkpt lat="46.78562" lon="5.62116">
        <ele>391.4</ele>
        <time>2021-10-07T10:40:59Z</time>
      </trkpt>
      <trkpt lat="46.78561" lon="5.62123">
        <ele>390.7</ele>
        <time>2021-10-07T10:41:03Z</time>
      </trkpt>
      <trkpt lat="46.78558" lon="5.6213">
        <ele>389</ele>
        <time>2021-10-07T10:41:08Z</time>
      </trkpt>
      <trkpt lat="46.78558" lon="5.62137">
        <ele>387</ele>
        <time>2021-10-07T10:41:13Z</time>
      </trkpt>
      <trkpt lat="46.78558" lon="5.62144">
        <ele>385.3</ele>
        <time>2021-10-07T10:41:18Z</time>
      </trkpt>
      <trkpt lat="46.78555" lon="5.6215">
        <ele>383.5</ele>
        <time>2021-10-07T10:41:24Z</time>
      </trkpt>
      <trkpt lat="46.78553" lon="5.62158">
        <ele>382</ele>
        <time>2021-10-07T10:41:30Z</time>
      </trkpt>
      <trkpt lat="46.78552" lon="5.62165">
        <ele>380.6</ele>
        <time>2021-10-07T10:41:35Z</time>
      </trkpt>
      <trkpt lat="46.7855" lon="5.62172">
        <ele>379.1</ele>
        <time>2021-10-07T10:41:41Z</time>
      </trkpt>
      <trkpt lat="46.78549" lon="5.62179">
        <ele>377.8</ele>
        <time>2021-10-07T10:41:47Z</time>
      </trkpt>
      <trkpt lat="46.78549" lon="5.62187">
        <ele>377.1</ele>
        <time>2021-10-07T10:41:52Z</time>
      </trkpt>
      <trkpt lat="46.78549" lon="5.62194">
        <ele>376.6</ele>
        <time>2021-10-07T10:41:58Z</time>
      </trkpt>
      <trkpt lat="46.78548" lon="5.622">
        <ele>376</ele>
        <time>2021-10-07T10:42:05Z</time>
      </trkpt>
      <trkpt lat="46.78548" lon="5.62207">
        <ele>375.3</ele>
        <time>2021-10-07T10:42:10Z</time>
      </trkpt>
      <trkpt lat="46.78545" lon="5.62214">
        <ele>374.4</ele>
        <time>2021-10-07T10:42:15Z</time>
      </trkpt>
      <trkpt lat="46.78541" lon="5.62217">
        <ele>373.2</ele>
        <time>2021-10-07T10:42:22Z</time>
      </trkpt>
      <trkpt lat="46.78537" lon="5.62223">
        <ele>372.9</ele>
        <time>2021-10-07T10:42:30Z</time>
      </trkpt>
      <trkpt lat="46.78534" lon="5.62229">
        <ele>372.8</ele>
        <time>2021-10-07T10:42:35Z</time>
      </trkpt>
      <trkpt lat="46.78531" lon="5.62236">
        <ele>372.6</ele>
        <time>2021-10-07T10:42:42Z</time>
      </trkpt>
      <trkpt lat="46.78529" lon="5.62244">
        <ele>372</ele>
        <time>2021-10-07T10:42:48Z</time>
      </trkpt>
      <trkpt lat="46.78527" lon="5.62249">
        <ele>371</ele>
        <time>2021-10-07T10:42:54Z</time>
      </trkpt>
      <trkpt lat="46.78523" lon="5.62256">
        <ele>371</ele>
        <time>2021-10-07T10:43:04Z</time>
      </trkpt>
      <trkpt lat="46.78518" lon="5.62261">
        <ele>371</ele>
        <time>2021-10-07T10:43:09Z</time>
      </trkpt>
      <trkpt lat="46.78514" lon="5.62268">
        <ele>371.4</ele>
        <time>2021-10-07T10:43:13Z</time>
      </trkpt>
      <trkpt lat="46.78511" lon="5.62273">
        <ele>372.4</ele>
        <time>2021-10-07T10:43:17Z</time>
      </trkpt>
      <trkpt lat="46.78507" lon="5.62278">
        <ele>374.3</ele>
        <time>2021-10-07T10:43:23Z</time>
      </trkpt>
      <trkpt lat="46.78505" lon="5.62285">
        <ele>377.2</ele>
        <time>2021-10-07T10:43:33Z</time>
      </trkpt>
      <trkpt lat="46.78502" lon="5.6229">
        <ele>378</ele>
        <time>2021-10-07T10:43:43Z</time>
      </trkpt>
      <trkpt lat="46.78497" lon="5.62285">
        <ele>378</ele>
        <time>2021-10-07T10:43:52Z</time>
      </trkpt>
      <trkpt lat="46.78493" lon="5.62282">
        <ele>378.1</ele>
        <time>2021-10-07T10:43:57Z</time>
      </trkpt>
      <trkpt lat="46.78497" lon="5.62286">
        <ele>378.5</ele>
        <time>2021-10-07T10:44:03Z</time>
      </trkpt>
      <trkpt lat="46.785" lon="5.62293">
        <ele>379.2</ele>
        <time>2021-10-07T10:44:10Z</time>
      </trkpt>
      <trkpt lat="46.78501" lon="5.62286">
        <ele>380.9</ele>
        <time>2021-10-07T10:44:16Z</time>
      </trkpt>
      <trkpt lat="46.78499" lon="5.62278">
        <ele>382.2</ele>
        <time>2021-10-07T10:44:19Z</time>
      </trkpt>
      <trkpt lat="46.78498" lon="5.62269">
        <ele>384.3</ele>
        <time>2021-10-07T10:44:22Z</time>
      </trkpt>
      <trkpt lat="46.78498" lon="5.62262">
        <ele>404.7</ele>
        <time>2021-10-07T10:45:04Z</time>
      </trkpt>
      <trkpt lat="46.78502" lon="5.62267">
        <ele>410.6</ele>
        <time>2021-10-07T10:45:16Z</time>
      </trkpt>
      <trkpt lat="46.78498" lon="5.62265">
        <ele>411.6</ele>
        <time>2021-10-07T10:45:29Z</time>
      </trkpt>
      <trkpt lat="46.78493" lon="5.62265">
        <ele>410.4</ele>
        <time>2021-10-07T10:45:46Z</time>
      </trkpt>
      <trkpt lat="46.78488" lon="5.6226">
        <ele>413.4</ele>
        <time>2021-10-07T10:46:03Z</time>
      </trkpt>
      <trkpt lat="46.78486" lon="5.62253">
        <ele>415.3</ele>
        <time>2021-10-07T10:46:07Z</time>
      </trkpt>
      <trkpt lat="46.78489" lon="5.62246">
        <ele>417.6</ele>
        <time>2021-10-07T10:46:11Z</time>
      </trkpt>
      <trkpt lat="46.7849" lon="5.62239">
        <ele>419.5</ele>
        <time>2021-10-07T10:46:17Z</time>
      </trkpt>
      <trkpt lat="46.78486" lon="5.62242">
        <ele>419.7</ele>
        <time>2021-10-07T10:46:24Z</time>
      </trkpt>
      <trkpt lat="46.78482" lon="5.62246">
        <ele>420</ele>
        <time>2021-10-07T10:46:28Z</time>
      </trkpt>
      <trkpt lat="46.78482" lon="5.62239">
        <ele>420.2</ele>
        <time>2021-10-07T10:46:41Z</time>
      </trkpt>
      <trkpt lat="46.78477" lon="5.62234">
        <ele>420.3</ele>
        <time>2021-10-07T10:46:46Z</time>
      </trkpt>
      <trkpt lat="46.78472" lon="5.62233">
        <ele>420.3</ele>
        <time>2021-10-07T10:46:50Z</time>
      </trkpt>
      <trkpt lat="46.78468" lon="5.62231">
        <ele>420.8</ele>
        <time>2021-10-07T10:46:55Z</time>
      </trkpt>
      <trkpt lat="46.78463" lon="5.62228">
        <ele>422</ele>
        <time>2021-10-07T10:47:02Z</time>
      </trkpt>
      <trkpt lat="46.78465" lon="5.6222">
        <ele>422.8</ele>
        <time>2021-10-07T10:47:13Z</time>
      </trkpt>
      <trkpt lat="46.78468" lon="5.62213">
        <ele>422.9</ele>
        <time>2021-10-07T10:47:18Z</time>
      </trkpt>
      <trkpt lat="46.78463" lon="5.62209">
        <ele>422.8</ele>
        <time>2021-10-07T10:47:23Z</time>
      </trkpt>
      <trkpt lat="46.78463" lon="5.62204">
        <ele>422.6</ele>
        <time>2021-10-07T10:47:34Z</time>
      </trkpt>
      <trkpt lat="46.78462" lon="5.62213">
        <ele>422.6</ele>
        <time>2021-10-07T10:47:40Z</time>
      </trkpt>
      <trkpt lat="46.78462" lon="5.62223">
        <ele>422.8</ele>
        <time>2021-10-07T10:47:43Z</time>
      </trkpt>
      <trkpt lat="46.78466" lon="5.62226">
        <ele>423.2</ele>
        <time>2021-10-07T10:47:47Z</time>
      </trkpt>
      <trkpt lat="46.78472" lon="5.62226">
        <ele>423.5</ele>
        <time>2021-10-07T10:47:50Z</time>
      </trkpt>
      <trkpt lat="46.78478" lon="5.62224">
        <ele>424.1</ele>
        <time>2021-10-07T10:47:54Z</time>
      </trkpt>
      <trkpt lat="46.78483" lon="5.62222">
        <ele>424.6</ele>
        <time>2021-10-07T10:47:57Z</time>
      </trkpt>
      <trkpt lat="46.78485" lon="5.62216">
        <ele>424.7</ele>
        <time>2021-10-07T10:48:01Z</time>
      </trkpt>
      <trkpt lat="46.78487" lon="5.6221">
        <ele>422.7</ele>
        <time>2021-10-07T10:48:08Z</time>
      </trkpt>
      <trkpt lat="46.78486" lon="5.62203">
        <ele>420.4</ele>
        <time>2021-10-07T10:48:14Z</time>
      </trkpt>
      <trkpt lat="46.78481" lon="5.62203">
        <ele>416.5</ele>
        <time>2021-10-07T10:48:20Z</time>
      </trkpt>
      <trkpt lat="46.78477" lon="5.62207">
        <ele>411.1</ele>
        <time>2021-10-07T10:48:29Z</time>
      </trkpt>
      <trkpt lat="46.78474" lon="5.62213">
        <ele>391.1</ele>
        <time>2021-10-07T10:52:16Z</time>
      </trkpt>
      <trkpt lat="46.78477" lon="5.62216">
        <ele>386</ele>
        <time>2021-10-07T11:24:38Z</time>
      </trkpt>
      <trkpt lat="46.78481" lon="5.62214">
        <ele>373.6</ele>
        <time>2021-10-07T11:26:16Z</time>
      </trkpt>
      <trkpt lat="46.78486" lon="5.62216">
        <ele>374.8</ele>
        <time>2021-10-07T11:26:50Z</time>
      </trkpt>
      <trkpt lat="46.78486" lon="5.62223">
        <ele>376.2</ele>
        <time>2021-10-07T11:26:56Z</time>
      </trkpt>
      <trkpt lat="46.78484" lon="5.62229">
        <ele>376.8</ele>
        <time>2021-10-07T11:27:03Z</time>
      </trkpt>
      <trkpt lat="46.78481" lon="5.62234">
        <ele>376.5</ele>
        <time>2021-10-07T11:27:08Z</time>
      </trkpt>
      <trkpt lat="46.7848" lon="5.62241">
        <ele>375.6</ele>
        <time>2021-10-07T11:27:16Z</time>
      </trkpt>
      <trkpt lat="46.78478" lon="5.62248">
        <ele>374.7</ele>
        <time>2021-10-07T11:27:22Z</time>
      </trkpt>
      <trkpt lat="46.78475" lon="5.62254">
        <ele>374</ele>
        <time>2021-10-07T11:27:33Z</time>
      </trkpt>
      <trkpt lat="46.7847" lon="5.62253">
        <ele>374.9</ele>
        <time>2021-10-07T11:27:40Z</time>
      </trkpt>
      <trkpt lat="46.78465" lon="5.62249">
        <ele>375.4</ele>
        <time>2021-10-07T11:27:44Z</time>
      </trkpt>
      <trkpt lat="46.78461" lon="5.62245">
        <ele>375.7</ele>
        <time>2021-10-07T11:27:49Z</time>
      </trkpt>
      <trkpt lat="46.78457" lon="5.6224">
        <ele>375.4</ele>
        <time>2021-10-07T11:27:54Z</time>
      </trkpt>
      <trkpt lat="46.78455" lon="5.62233">
        <ele>374.9</ele>
        <time>2021-10-07T11:28:00Z</time>
      </trkpt>
      <trkpt lat="46.78451" lon="5.62228">
        <ele>374.6</ele>
        <time>2021-10-07T11:28:05Z</time>
      </trkpt>
      <trkpt lat="46.78448" lon="5.62223">
        <ele>374.2</ele>
        <time>2021-10-07T11:28:10Z</time>
      </trkpt>
      <trkpt lat="46.78445" lon="5.62218">
        <ele>373.6</ele>
        <time>2021-10-07T11:28:15Z</time>
      </trkpt>
      <trkpt lat="46.78441" lon="5.62214">
        <ele>372.8</ele>
        <time>2021-10-07T11:28:21Z</time>
      </trkpt>
      <trkpt lat="46.78437" lon="5.62211">
        <ele>372</ele>
        <time>2021-10-07T11:28:27Z</time>
      </trkpt>
      <trkpt lat="46.78432" lon="5.62209">
        <ele>371</ele>
        <time>2021-10-07T11:28:35Z</time>
      </trkpt>
      <trkpt lat="46.78427" lon="5.62208">
        <ele>370.9</ele>
        <time>2021-10-07T11:28:41Z</time>
      </trkpt>
      <trkpt lat="46.78422" lon="5.62208">
        <ele>370.8</ele>
        <time>2021-10-07T11:28:46Z</time>
      </trkpt>
      <trkpt lat="46.78417" lon="5.62208">
        <ele>370.9</ele>
        <time>2021-10-07T11:28:52Z</time>
      </trkpt>
      <trkpt lat="46.78413" lon="5.62205">
        <ele>371.5</ele>
        <time>2021-10-07T11:29:01Z</time>
      </trkpt>
      <trkpt lat="46.78407" lon="5.62204">
        <ele>371.2</ele>
        <time>2021-10-07T11:29:06Z</time>
      </trkpt>
      <trkpt lat="46.78403" lon="5.62203">
        <ele>370.9</ele>
        <time>2021-10-07T11:29:11Z</time>
      </trkpt>
      <trkpt lat="46.78398" lon="5.62202">
        <ele>370.8</ele>
        <time>2021-10-07T11:29:16Z</time>
      </trkpt>
      <trkpt lat="46.78394" lon="5.62198">
        <ele>370.6</ele>
        <time>2021-10-07T11:29:21Z</time>
      </trkpt>
      <trkpt lat="46.7839" lon="5.62194">
        <ele>370.1</ele>
        <time>2021-10-07T11:29:26Z</time>
      </trkpt>
      <trkpt lat="46.78385" lon="5.62191">
        <ele>369.6</ele>
        <time>2021-10-07T11:29:31Z</time>
      </trkpt>
      <trkpt lat="46.78381" lon="5.62188">
        <ele>369.4</ele>
        <time>2021-10-07T11:29:36Z</time>
      </trkpt>
      <trkpt lat="46.78378" lon="5.62184">
        <ele>369.6</ele>
        <time>2021-10-07T11:29:42Z</time>
      </trkpt>
      <trkpt lat="46.78374" lon="5.62178">
        <ele>369.8</ele>
        <time>2021-10-07T11:29:47Z</time>
      </trkpt>
      <trkpt lat="46.7837" lon="5.62174">
        <ele>369.3</ele>
        <time>2021-10-07T11:29:51Z</time>
      </trkpt>
      <trkpt lat="46.78366" lon="5.6217">
        <ele>368.7</ele>
        <time>2021-10-07T11:29:57Z</time>
      </trkpt>
      <trkpt lat="46.78362" lon="5.62165">
        <ele>367.5</ele>
        <time>2021-10-07T11:30:05Z</time>
      </trkpt>
      <trkpt lat="46.78358" lon="5.6216">
        <ele>367.3</ele>
        <time>2021-10-07T11:30:11Z</time>
      </trkpt>
      <trkpt lat="46.78356" lon="5.62153">
        <ele>366.6</ele>
        <time>2021-10-07T11:30:16Z</time>
      </trkpt>
      <trkpt lat="46.78352" lon="5.62148">
        <ele>365.2</ele>
        <time>2021-10-07T11:30:22Z</time>
      </trkpt>
      <trkpt lat="46.78349" lon="5.62142">
        <ele>364.2</ele>
        <time>2021-10-07T11:30:28Z</time>
      </trkpt>
      <trkpt lat="46.78346" lon="5.62136">
        <ele>363.5</ele>
        <time>2021-10-07T11:30:33Z</time>
      </trkpt>
      <trkpt lat="46.78342" lon="5.62131">
        <ele>363.3</ele>
        <time>2021-10-07T11:30:38Z</time>
      </trkpt>
      <trkpt lat="46.7834" lon="5.62124">
        <ele>363</ele>
        <time>2021-10-07T11:30:43Z</time>
      </trkpt>
      <trkpt lat="46.78337" lon="5.62117">
        <ele>362.2</ele>
        <time>2021-10-07T11:30:48Z</time>
      </trkpt>
      <trkpt lat="46.78335" lon="5.62111">
        <ele>361.8</ele>
        <time>2021-10-07T11:30:53Z</time>
      </trkpt>
      <trkpt lat="46.78333" lon="5.62104">
        <ele>361.8</ele>
        <time>2021-10-07T11:30:58Z</time>
      </trkpt>
      <trkpt lat="46.78331" lon="5.62098">
        <ele>361.7</ele>
        <time>2021-10-07T11:31:03Z</time>
      </trkpt>
      <trkpt lat="46.78329" lon="5.62091">
        <ele>360.8</ele>
        <time>2021-10-07T11:31:09Z</time>
      </trkpt>
      <trkpt lat="46.7833" lon="5.62084">
        <ele>360.8</ele>
        <time>2021-10-07T11:31:14Z</time>
      </trkpt>
      <trkpt lat="46.7833" lon="5.62076">
        <ele>360.9</ele>
        <time>2021-10-07T11:31:20Z</time>
      </trkpt>
      <trkpt lat="46.7833" lon="5.62069">
        <ele>361.1</ele>
        <time>2021-10-07T11:31:25Z</time>
      </trkpt>
      <trkpt lat="46.78329" lon="5.62062">
        <ele>360.9</ele>
        <time>2021-10-07T11:31:30Z</time>
      </trkpt>
      <trkpt lat="46.78329" lon="5.62055">
        <ele>360.2</ele>
        <time>2021-10-07T11:31:36Z</time>
      </trkpt>
      <trkpt lat="46.78327" lon="5.62048">
        <ele>359.8</ele>
        <time>2021-10-07T11:31:40Z</time>
      </trkpt>
      <trkpt lat="46.78326" lon="5.62041">
        <ele>359.6</ele>
        <time>2021-10-07T11:31:44Z</time>
      </trkpt>
      <trkpt lat="46.78324" lon="5.62035">
        <ele>359.5</ele>
        <time>2021-10-07T11:31:49Z</time>
      </trkpt>
      <trkpt lat="46.78323" lon="5.62028">
        <ele>359</ele>
        <time>2021-10-07T11:31:56Z</time>
      </trkpt>
      <trkpt lat="46.78321" lon="5.62021">
        <ele>356.7</ele>
        <time>2021-10-07T11:32:05Z</time>
      </trkpt>
      <trkpt lat="46.78319" lon="5.62013">
        <ele>355.2</ele>
        <time>2021-10-07T11:32:10Z</time>
      </trkpt>
      <trkpt lat="46.78317" lon="5.62007">
        <ele>353.4</ele>
        <time>2021-10-07T11:32:15Z</time>
      </trkpt>
      <trkpt lat="46.78314" lon="5.62">
        <ele>351.3</ele>
        <time>2021-10-07T11:32:21Z</time>
      </trkpt>
      <trkpt lat="46.78312" lon="5.61995">
        <ele>350.3</ele>
        <time>2021-10-07T11:32:26Z</time>
      </trkpt>
      <trkpt lat="46.78311" lon="5.61988">
        <ele>349.5</ele>
        <time>2021-10-07T11:32:32Z</time>
      </trkpt>
      <trkpt lat="46.7831" lon="5.6198">
        <ele>348.8</ele>
        <time>2021-10-07T11:32:38Z</time>
      </trkpt>
      <trkpt lat="46.78309" lon="5.61973">
        <ele>348.3</ele>
        <time>2021-10-07T11:32:42Z</time>
      </trkpt>
      <trkpt lat="46.78308" lon="5.61966">
        <ele>347.5</ele>
        <time>2021-10-07T11:32:47Z</time>
      </trkpt>
      <trkpt lat="46.78307" lon="5.6196">
        <ele>346.3</ele>
        <time>2021-10-07T11:32:52Z</time>
      </trkpt>
      <trkpt lat="46.78306" lon="5.61953">
        <ele>344.7</ele>
        <time>2021-10-07T11:32:58Z</time>
      </trkpt>
      <trkpt lat="46.78305" lon="5.61945">
        <ele>344</ele>
        <time>2021-10-07T11:33:03Z</time>
      </trkpt>
      <trkpt lat="46.78303" lon="5.61938">
        <ele>343.9</ele>
        <time>2021-10-07T11:33:07Z</time>
      </trkpt>
      <trkpt lat="46.78301" lon="5.61931">
        <ele>343.8</ele>
        <time>2021-10-07T11:33:12Z</time>
      </trkpt>
      <trkpt lat="46.783" lon="5.61924">
        <ele>343.3</ele>
        <time>2021-10-07T11:33:17Z</time>
      </trkpt>
      <trkpt lat="46.783" lon="5.61917">
        <ele>342.9</ele>
        <time>2021-10-07T11:33:23Z</time>
      </trkpt>
      <trkpt lat="46.78299" lon="5.6191">
        <ele>342.7</ele>
        <time>2021-10-07T11:33:27Z</time>
      </trkpt>
      <trkpt lat="46.78299" lon="5.61902">
        <ele>342.4</ele>
        <time>2021-10-07T11:33:32Z</time>
      </trkpt>
      <trkpt lat="46.78298" lon="5.61894">
        <ele>342.1</ele>
        <time>2021-10-07T11:33:38Z</time>
      </trkpt>
      <trkpt lat="46.78297" lon="5.61888">
        <ele>341.1</ele>
        <time>2021-10-07T11:33:43Z</time>
      </trkpt>
      <trkpt lat="46.78295" lon="5.61882">
        <ele>340.4</ele>
        <time>2021-10-07T11:33:47Z</time>
      </trkpt>
      <trkpt lat="46.78292" lon="5.61876">
        <ele>340</ele>
        <time>2021-10-07T11:33:51Z</time>
      </trkpt>
      <trkpt lat="46.78288" lon="5.61872">
        <ele>340.1</ele>
        <time>2021-10-07T11:33:57Z</time>
      </trkpt>
      <trkpt lat="46.78284" lon="5.61868">
        <ele>340.2</ele>
        <time>2021-10-07T11:34:02Z</time>
      </trkpt>
      <trkpt lat="46.7828" lon="5.61862">
        <ele>339.8</ele>
        <time>2021-10-07T11:34:07Z</time>
      </trkpt>
      <trkpt lat="46.78279" lon="5.61856">
        <ele>339.4</ele>
        <time>2021-10-07T11:34:12Z</time>
      </trkpt>
      <trkpt lat="46.78279" lon="5.61848">
        <ele>337.9</ele>
        <time>2021-10-07T11:34:18Z</time>
      </trkpt>
      <trkpt lat="46.78276" lon="5.61843">
        <ele>336.7</ele>
        <time>2021-10-07T11:34:24Z</time>
      </trkpt>
      <trkpt lat="46.78275" lon="5.61836">
        <ele>336.4</ele>
        <time>2021-10-07T11:34:28Z</time>
      </trkpt>
      <trkpt lat="46.78274" lon="5.6183">
        <ele>336.4</ele>
        <time>2021-10-07T11:34:32Z</time>
      </trkpt>
      <trkpt lat="46.78274" lon="5.61822">
        <ele>336.7</ele>
        <time>2021-10-07T11:34:37Z</time>
      </trkpt>
      <trkpt lat="46.78273" lon="5.61815">
        <ele>336.9</ele>
        <time>2021-10-07T11:34:42Z</time>
      </trkpt>
      <trkpt lat="46.78271" lon="5.61809">
        <ele>336.5</ele>
        <time>2021-10-07T11:34:47Z</time>
      </trkpt>
      <trkpt lat="46.78269" lon="5.61802">
        <ele>336</ele>
        <time>2021-10-07T11:34:51Z</time>
      </trkpt>
      <trkpt lat="46.78268" lon="5.61795">
        <ele>335.4</ele>
        <time>2021-10-07T11:34:56Z</time>
      </trkpt>
      <trkpt lat="46.78268" lon="5.61787">
        <ele>334.6</ele>
        <time>2021-10-07T11:35:02Z</time>
      </trkpt>
      <trkpt lat="46.78268" lon="5.6178">
        <ele>334.2</ele>
        <time>2021-10-07T11:35:08Z</time>
      </trkpt>
      <trkpt lat="46.78269" lon="5.61774">
        <ele>332.8</ele>
        <time>2021-10-07T11:35:17Z</time>
      </trkpt>
      <trkpt lat="46.78273" lon="5.61768">
        <ele>331.9</ele>
        <time>2021-10-07T11:35:22Z</time>
      </trkpt>
      <trkpt lat="46.78276" lon="5.61761">
        <ele>331.6</ele>
        <time>2021-10-07T11:35:26Z</time>
      </trkpt>
      <trkpt lat="46.78276" lon="5.61755">
        <ele>331.7</ele>
        <time>2021-10-07T11:35:30Z</time>
      </trkpt>
      <trkpt lat="46.78278" lon="5.61748">
        <ele>332</ele>
        <time>2021-10-07T11:35:34Z</time>
      </trkpt>
      <trkpt lat="46.78281" lon="5.61741">
        <ele>332.3</ele>
        <time>2021-10-07T11:35:38Z</time>
      </trkpt>
      <trkpt lat="46.78283" lon="5.61735">
        <ele>332.2</ele>
        <time>2021-10-07T11:35:42Z</time>
      </trkpt>
      <trkpt lat="46.78286" lon="5.6173">
        <ele>332</ele>
        <time>2021-10-07T11:35:48Z</time>
      </trkpt>
      <trkpt lat="46.78289" lon="5.61725">
        <ele>333.2</ele>
        <time>2021-10-07T11:35:56Z</time>
      </trkpt>
      <trkpt lat="46.78292" lon="5.61719">
        <ele>334.1</ele>
        <time>2021-10-07T11:36:03Z</time>
      </trkpt>
      <trkpt lat="46.78291" lon="5.61712">
        <ele>333.6</ele>
        <time>2021-10-07T11:36:10Z</time>
      </trkpt>
      <trkpt lat="46.78287" lon="5.61707">
        <ele>333.2</ele>
        <time>2021-10-07T11:36:16Z</time>
      </trkpt>
      <trkpt lat="46.78283" lon="5.61703">
        <ele>333.2</ele>
        <time>2021-10-07T11:36:22Z</time>
      </trkpt>
      <trkpt lat="46.78278" lon="5.61701">
        <ele>333.3</ele>
        <time>2021-10-07T11:36:28Z</time>
      </trkpt>
      <trkpt lat="46.78273" lon="5.617">
        <ele>332.9</ele>
        <time>2021-10-07T11:36:34Z</time>
      </trkpt>
      <trkpt lat="46.78268" lon="5.617">
        <ele>332.2</ele>
        <time>2021-10-07T11:36:41Z</time>
      </trkpt>
      <trkpt lat="46.78264" lon="5.61697">
        <ele>331.5</ele>
        <time>2021-10-07T11:37:00Z</time>
      </trkpt>
      <trkpt lat="46.78261" lon="5.61693">
        <ele>331.8</ele>
        <time>2021-10-07T11:37:05Z</time>
      </trkpt>
      <trkpt lat="46.78257" lon="5.6169">
        <ele>332.2</ele>
        <time>2021-10-07T11:37:09Z</time>
      </trkpt>
      <trkpt lat="46.78252" lon="5.61687">
        <ele>332.7</ele>
        <time>2021-10-07T11:37:13Z</time>
      </trkpt>
      <trkpt lat="46.78247" lon="5.61685">
        <ele>333.4</ele>
        <time>2021-10-07T11:37:17Z</time>
      </trkpt>
      <trkpt lat="46.78242" lon="5.61684">
        <ele>333.6</ele>
        <time>2021-10-07T11:37:21Z</time>
      </trkpt>
      <trkpt lat="46.78237" lon="5.61683">
        <ele>333.5</ele>
        <time>2021-10-07T11:37:26Z</time>
      </trkpt>
      <trkpt lat="46.78232" lon="5.6168">
        <ele>333.3</ele>
        <time>2021-10-07T11:37:31Z</time>
      </trkpt>
      <trkpt lat="46.78228" lon="5.61676">
        <ele>333.7</ele>
        <time>2021-10-07T11:37:36Z</time>
      </trkpt>
      <trkpt lat="46.78223" lon="5.61673">
        <ele>333.7</ele>
        <time>2021-10-07T11:37:41Z</time>
      </trkpt>
      <trkpt lat="46.78218" lon="5.61672">
        <ele>332.8</ele>
        <time>2021-10-07T11:37:46Z</time>
      </trkpt>
      <trkpt lat="46.78214" lon="5.61669">
        <ele>332.6</ele>
        <time>2021-10-07T11:37:51Z</time>
      </trkpt>
      <trkpt lat="46.7821" lon="5.61664">
        <ele>332.5</ele>
        <time>2021-10-07T11:37:56Z</time>
      </trkpt>
      <trkpt lat="46.78205" lon="5.61659">
        <ele>332.4</ele>
        <time>2021-10-07T11:38:01Z</time>
      </trkpt>
      <trkpt lat="46.782" lon="5.61656">
        <ele>332.2</ele>
        <time>2021-10-07T11:38:05Z</time>
      </trkpt>
      <trkpt lat="46.78195" lon="5.61652">
        <ele>331.9</ele>
        <time>2021-10-07T11:38:09Z</time>
      </trkpt>
      <trkpt lat="46.78192" lon="5.61648">
        <ele>331.5</ele>
        <time>2021-10-07T11:38:13Z</time>
      </trkpt>
      <trkpt lat="46.78189" lon="5.61641">
        <ele>331.6</ele>
        <time>2021-10-07T11:38:18Z</time>
      </trkpt>
      <trkpt lat="46.78186" lon="5.61634">
        <ele>332.3</ele>
        <time>2021-10-07T11:38:22Z</time>
      </trkpt>
      <trkpt lat="46.78182" lon="5.61628">
        <ele>333.2</ele>
        <time>2021-10-07T11:38:26Z</time>
      </trkpt>
      <trkpt lat="46.78179" lon="5.61623">
        <ele>334.2</ele>
        <time>2021-10-07T11:38:31Z</time>
      </trkpt>
      <trkpt lat="46.78175" lon="5.61619">
        <ele>335</ele>
        <time>2021-10-07T11:38:36Z</time>
      </trkpt>
      <trkpt lat="46.78171" lon="5.61614">
        <ele>335.6</ele>
        <time>2021-10-07T11:38:40Z</time>
      </trkpt>
      <trkpt lat="46.78167" lon="5.61609">
        <ele>336.2</ele>
        <time>2021-10-07T11:38:44Z</time>
      </trkpt>
      <trkpt lat="46.78163" lon="5.61606">
        <ele>336.6</ele>
        <time>2021-10-07T11:38:49Z</time>
      </trkpt>
      <trkpt lat="46.78158" lon="5.61602">
        <ele>336.4</ele>
        <time>2021-10-07T11:38:54Z</time>
      </trkpt>
      <trkpt lat="46.78154" lon="5.61599">
        <ele>335.8</ele>
        <time>2021-10-07T11:38:59Z</time>
      </trkpt>
      <trkpt lat="46.78151" lon="5.61593">
        <ele>335.6</ele>
        <time>2021-10-07T11:39:05Z</time>
      </trkpt>
      <trkpt lat="46.78149" lon="5.61586">
        <ele>335.8</ele>
        <time>2021-10-07T11:39:11Z</time>
      </trkpt>
      <trkpt lat="46.78145" lon="5.6158">
        <ele>336.1</ele>
        <time>2021-10-07T11:39:16Z</time>
      </trkpt>
      <trkpt lat="46.78142" lon="5.61573">
        <ele>336.3</ele>
        <time>2021-10-07T11:39:21Z</time>
      </trkpt>
      <trkpt lat="46.78139" lon="5.61569">
        <ele>336.7</ele>
        <time>2021-10-07T11:39:25Z</time>
      </trkpt>
      <trkpt lat="46.78135" lon="5.61565">
        <ele>337.6</ele>
        <time>2021-10-07T11:39:30Z</time>
      </trkpt>
      <trkpt lat="46.78133" lon="5.61559">
        <ele>338.8</ele>
        <time>2021-10-07T11:39:35Z</time>
      </trkpt>
      <trkpt lat="46.78131" lon="5.61552">
        <ele>339.3</ele>
        <time>2021-10-07T11:39:40Z</time>
      </trkpt>
      <trkpt lat="46.78128" lon="5.61546">
        <ele>339.2</ele>
        <time>2021-10-07T11:39:46Z</time>
      </trkpt>
      <trkpt lat="46.78124" lon="5.61542">
        <ele>339.2</ele>
        <time>2021-10-07T11:39:52Z</time>
      </trkpt>
      <trkpt lat="46.7812" lon="5.6154">
        <ele>339.2</ele>
        <time>2021-10-07T11:39:57Z</time>
      </trkpt>
      <trkpt lat="46.78116" lon="5.61536">
        <ele>339.4</ele>
        <time>2021-10-07T11:40:02Z</time>
      </trkpt>
      <trkpt lat="46.78112" lon="5.61531">
        <ele>339.6</ele>
        <time>2021-10-07T11:40:06Z</time>
      </trkpt>
      <trkpt lat="46.78107" lon="5.61527">
        <ele>340.1</ele>
        <time>2021-10-07T11:40:11Z</time>
      </trkpt>
      <trkpt lat="46.78102" lon="5.61523">
        <ele>340.9</ele>
        <time>2021-10-07T11:40:16Z</time>
      </trkpt>
      <trkpt lat="46.78099" lon="5.61519">
        <ele>341.7</ele>
        <time>2021-10-07T11:40:21Z</time>
      </trkpt>
      <trkpt lat="46.78095" lon="5.61513">
        <ele>342</ele>
        <time>2021-10-07T11:40:26Z</time>
      </trkpt>
      <trkpt lat="46.78091" lon="5.61509">
        <ele>342.5</ele>
        <time>2021-10-07T11:40:31Z</time>
      </trkpt>
      <trkpt lat="46.78086" lon="5.61504">
        <ele>343.5</ele>
        <time>2021-10-07T11:40:37Z</time>
      </trkpt>
      <trkpt lat="46.78082" lon="5.61501">
        <ele>344.2</ele>
        <time>2021-10-07T11:40:42Z</time>
      </trkpt>
      <trkpt lat="46.78077" lon="5.61498">
        <ele>344</ele>
        <time>2021-10-07T11:40:47Z</time>
      </trkpt>
      <trkpt lat="46.78073" lon="5.61494">
        <ele>344.1</ele>
        <time>2021-10-07T11:40:52Z</time>
      </trkpt>
      <trkpt lat="46.78069" lon="5.61491">
        <ele>343.9</ele>
        <time>2021-10-07T11:40:57Z</time>
      </trkpt>
      <trkpt lat="46.78063" lon="5.6149">
        <ele>343.9</ele>
        <time>2021-10-07T11:41:02Z</time>
      </trkpt>
      <trkpt lat="46.78058" lon="5.6149">
        <ele>343.7</ele>
        <time>2021-10-07T11:41:07Z</time>
      </trkpt>
      <trkpt lat="46.78053" lon="5.61488">
        <ele>343.7</ele>
        <time>2021-10-07T11:41:13Z</time>
      </trkpt>
      <trkpt lat="46.78048" lon="5.61487">
        <ele>344.2</ele>
        <time>2021-10-07T11:41:19Z</time>
      </trkpt>
      <trkpt lat="46.78043" lon="5.61486">
        <ele>345.1</ele>
        <time>2021-10-07T11:41:24Z</time>
      </trkpt>
      <trkpt lat="46.78038" lon="5.61486">
        <ele>345.9</ele>
        <time>2021-10-07T11:41:28Z</time>
      </trkpt>
      <trkpt lat="46.78034" lon="5.61485">
        <ele>346.8</ele>
        <time>2021-10-07T11:41:32Z</time>
      </trkpt>
      <trkpt lat="46.78029" lon="5.61485">
        <ele>348.1</ele>
        <time>2021-10-07T11:41:37Z</time>
      </trkpt>
      <trkpt lat="46.78024" lon="5.61483">
        <ele>349.5</ele>
        <time>2021-10-07T11:41:43Z</time>
      </trkpt>
      <trkpt lat="46.78019" lon="5.61482">
        <ele>350.6</ele>
        <time>2021-10-07T11:41:49Z</time>
      </trkpt>
      <trkpt lat="46.78013" lon="5.61481">
        <ele>351.4</ele>
        <time>2021-10-07T11:41:54Z</time>
      </trkpt>
      <trkpt lat="46.78008" lon="5.6148">
        <ele>352</ele>
        <time>2021-10-07T11:41:59Z</time>
      </trkpt>
      <trkpt lat="46.78003" lon="5.61481">
        <ele>352.4</ele>
        <time>2021-10-07T11:42:03Z</time>
      </trkpt>
      <trkpt lat="46.77999" lon="5.61482">
        <ele>352.9</ele>
        <time>2021-10-07T11:42:08Z</time>
      </trkpt>
      <trkpt lat="46.77993" lon="5.61482">
        <ele>353.4</ele>
        <time>2021-10-07T11:42:13Z</time>
      </trkpt>
      <trkpt lat="46.77989" lon="5.61482">
        <ele>354.1</ele>
        <time>2021-10-07T11:42:18Z</time>
      </trkpt>
      <trkpt lat="46.77984" lon="5.61481">
        <ele>354.6</ele>
        <time>2021-10-07T11:42:23Z</time>
      </trkpt>
      <trkpt lat="46.77978" lon="5.6148">
        <ele>355</ele>
        <time>2021-10-07T11:42:29Z</time>
      </trkpt>
      <trkpt lat="46.77974" lon="5.61478">
        <ele>355.3</ele>
        <time>2021-10-07T11:42:35Z</time>
      </trkpt>
      <trkpt lat="46.77968" lon="5.61478">
        <ele>355.4</ele>
        <time>2021-10-07T11:42:40Z</time>
      </trkpt>
      <trkpt lat="46.77963" lon="5.61477">
        <ele>355.7</ele>
        <time>2021-10-07T11:42:45Z</time>
      </trkpt>
      <trkpt lat="46.77958" lon="5.61477">
        <ele>355.9</ele>
        <time>2021-10-07T11:42:49Z</time>
      </trkpt>
      <trkpt lat="46.77953" lon="5.61477">
        <ele>355.7</ele>
        <time>2021-10-07T11:42:53Z</time>
      </trkpt>
      <trkpt lat="46.77949" lon="5.61476">
        <ele>355.1</ele>
        <time>2021-10-07T11:42:58Z</time>
      </trkpt>
      <trkpt lat="46.77944" lon="5.61475">
        <ele>353.1</ele>
        <time>2021-10-07T11:43:04Z</time>
      </trkpt>
      <trkpt lat="46.77939" lon="5.61474">
        <ele>351.8</ele>
        <time>2021-10-07T11:43:08Z</time>
      </trkpt>
      <trkpt lat="46.77935" lon="5.61472">
        <ele>351</ele>
        <time>2021-10-07T11:43:13Z</time>
      </trkpt>
      <trkpt lat="46.7793" lon="5.6147">
        <ele>351</ele>
        <time>2021-10-07T11:43:19Z</time>
      </trkpt>
      <trkpt lat="46.77927" lon="5.61465">
        <ele>351.4</ele>
        <time>2021-10-07T11:43:26Z</time>
      </trkpt>
      <trkpt lat="46.77926" lon="5.61458">
        <ele>351.7</ele>
        <time>2021-10-07T11:43:33Z</time>
      </trkpt>
      <trkpt lat="46.77926" lon="5.61452">
        <ele>352.6</ele>
        <time>2021-10-07T11:43:40Z</time>
      </trkpt>
      <trkpt lat="46.77928" lon="5.61445">
        <ele>353.5</ele>
        <time>2021-10-07T11:43:45Z</time>
      </trkpt>
      <trkpt lat="46.77931" lon="5.61439">
        <ele>354.4</ele>
        <time>2021-10-07T11:43:49Z</time>
      </trkpt>
      <trkpt lat="46.77934" lon="5.61432">
        <ele>355.5</ele>
        <time>2021-10-07T11:43:54Z</time>
      </trkpt>
      <trkpt lat="46.77937" lon="5.61426">
        <ele>356.4</ele>
        <time>2021-10-07T11:43:59Z</time>
      </trkpt>
      <trkpt lat="46.77939" lon="5.6142">
        <ele>357</ele>
        <time>2021-10-07T11:44:04Z</time>
      </trkpt>
      <trkpt lat="46.77941" lon="5.61414">
        <ele>357.7</ele>
        <time>2021-10-07T11:44:09Z</time>
      </trkpt>
      <trkpt lat="46.77944" lon="5.61406">
        <ele>358.2</ele>
        <time>2021-10-07T11:44:14Z</time>
      </trkpt>
      <trkpt lat="46.77945" lon="5.614">
        <ele>358.3</ele>
        <time>2021-10-07T11:44:19Z</time>
      </trkpt>
      <trkpt lat="46.77946" lon="5.61393">
        <ele>358.8</ele>
        <time>2021-10-07T11:44:26Z</time>
      </trkpt>
      <trkpt lat="46.77946" lon="5.61386">
        <ele>359.3</ele>
        <time>2021-10-07T11:44:32Z</time>
      </trkpt>
      <trkpt lat="46.77946" lon="5.61378">
        <ele>360</ele>
        <time>2021-10-07T11:44:38Z</time>
      </trkpt>
      <trkpt lat="46.77947" lon="5.61371">
        <ele>360.7</ele>
        <time>2021-10-07T11:44:43Z</time>
      </trkpt>
      <trkpt lat="46.77948" lon="5.61364">
        <ele>361.9</ele>
        <time>2021-10-07T11:44:49Z</time>
      </trkpt>
      <trkpt lat="46.77948" lon="5.61357">
        <ele>363.2</ele>
        <time>2021-10-07T11:44:56Z</time>
      </trkpt>
      <trkpt lat="46.77946" lon="5.6135">
        <ele>364.8</ele>
        <time>2021-10-07T11:45:05Z</time>
      </trkpt>
      <trkpt lat="46.77943" lon="5.61344">
        <ele>365.5</ele>
        <time>2021-10-07T11:45:11Z</time>
      </trkpt>
      <trkpt lat="46.77942" lon="5.61337">
        <ele>366.5</ele>
        <time>2021-10-07T11:45:16Z</time>
      </trkpt>
      <trkpt lat="46.7794" lon="5.61331">
        <ele>367.3</ele>
        <time>2021-10-07T11:45:24Z</time>
      </trkpt>
      <trkpt lat="46.77936" lon="5.61327">
        <ele>368.1</ele>
        <time>2021-10-07T11:45:31Z</time>
      </trkpt>
      <trkpt lat="46.77931" lon="5.61322">
        <ele>369</ele>
        <time>2021-10-07T11:45:37Z</time>
      </trkpt>
      <trkpt lat="46.77927" lon="5.61318">
        <ele>370.2</ele>
        <time>2021-10-07T11:45:43Z</time>
      </trkpt>
      <trkpt lat="46.77923" lon="5.61313">
        <ele>371.3</ele>
        <time>2021-10-07T11:45:50Z</time>
      </trkpt>
      <trkpt lat="46.77919" lon="5.61312">
        <ele>372</ele>
        <time>2021-10-07T11:45:54Z</time>
      </trkpt>
      <trkpt lat="46.77914" lon="5.61311">
        <ele>372.6</ele>
        <time>2021-10-07T11:45:58Z</time>
      </trkpt>
      <trkpt lat="46.7791" lon="5.61307">
        <ele>373.3</ele>
        <time>2021-10-07T11:46:03Z</time>
      </trkpt>
      <trkpt lat="46.77906" lon="5.61302">
        <ele>373.5</ele>
        <time>2021-10-07T11:46:07Z</time>
      </trkpt>
      <trkpt lat="46.77903" lon="5.61296">
        <ele>373.2</ele>
        <time>2021-10-07T11:46:12Z</time>
      </trkpt>
      <trkpt lat="46.779" lon="5.61291">
        <ele>372.6</ele>
        <time>2021-10-07T11:46:18Z</time>
      </trkpt>
      <trkpt lat="46.77897" lon="5.61285">
        <ele>372.2</ele>
        <time>2021-10-07T11:46:25Z</time>
      </trkpt>
      <trkpt lat="46.77897" lon="5.61278">
        <ele>372.3</ele>
        <time>2021-10-07T11:46:32Z</time>
      </trkpt>
      <trkpt lat="46.77896" lon="5.61271">
        <ele>372.5</ele>
        <time>2021-10-07T11:46:37Z</time>
      </trkpt>
      <trkpt lat="46.77896" lon="5.61263">
        <ele>373</ele>
        <time>2021-10-07T11:46:43Z</time>
      </trkpt>
      <trkpt lat="46.77893" lon="5.61256">
        <ele>373.7</ele>
        <time>2021-10-07T11:46:48Z</time>
      </trkpt>
      <trkpt lat="46.77892" lon="5.6125">
        <ele>374.2</ele>
        <time>2021-10-07T11:46:52Z</time>
      </trkpt>
      <trkpt lat="46.77891" lon="5.61243">
        <ele>374.6</ele>
        <time>2021-10-07T11:46:56Z</time>
      </trkpt>
      <trkpt lat="46.77891" lon="5.61236">
        <ele>375.1</ele>
        <time>2021-10-07T11:47:00Z</time>
      </trkpt>
      <trkpt lat="46.77891" lon="5.61229">
        <ele>375.8</ele>
        <time>2021-10-07T11:47:05Z</time>
      </trkpt>
      <trkpt lat="46.77889" lon="5.61222">
        <ele>376.3</ele>
        <time>2021-10-07T11:47:10Z</time>
      </trkpt>
      <trkpt lat="46.77885" lon="5.61218">
        <ele>376.8</ele>
        <time>2021-10-07T11:47:18Z</time>
      </trkpt>
      <trkpt lat="46.77883" lon="5.61212">
        <ele>377.7</ele>
        <time>2021-10-07T11:47:29Z</time>
      </trkpt>
      <trkpt lat="46.77884" lon="5.61205">
        <ele>377.5</ele>
        <time>2021-10-07T11:47:34Z</time>
      </trkpt>
      <trkpt lat="46.77883" lon="5.61198">
        <ele>377.3</ele>
        <time>2021-10-07T11:47:38Z</time>
      </trkpt>
      <trkpt lat="46.77883" lon="5.6119">
        <ele>377.2</ele>
        <time>2021-10-07T11:47:42Z</time>
      </trkpt>
      <trkpt lat="46.77884" lon="5.61183">
        <ele>376.9</ele>
        <time>2021-10-07T11:47:45Z</time>
      </trkpt>
      <trkpt lat="46.77885" lon="5.61177">
        <ele>376</ele>
        <time>2021-10-07T11:47:49Z</time>
      </trkpt>
      <trkpt lat="46.77884" lon="5.61169">
        <ele>375.1</ele>
        <time>2021-10-07T11:47:56Z</time>
      </trkpt>
      <trkpt lat="46.77883" lon="5.61163">
        <ele>374.3</ele>
        <time>2021-10-07T11:48:02Z</time>
      </trkpt>
      <trkpt lat="46.77884" lon="5.61156">
        <ele>373.5</ele>
        <time>2021-10-07T11:48:07Z</time>
      </trkpt>
      <trkpt lat="46.77884" lon="5.61149">
        <ele>373</ele>
        <time>2021-10-07T11:48:12Z</time>
      </trkpt>
      <trkpt lat="46.77881" lon="5.61142">
        <ele>373.5</ele>
        <time>2021-10-07T11:48:16Z</time>
      </trkpt>
      <trkpt lat="46.77879" lon="5.61137">
        <ele>374.3</ele>
        <time>2021-10-07T11:48:20Z</time>
      </trkpt>
      <trkpt lat="46.77876" lon="5.61131">
        <ele>375.2</ele>
        <time>2021-10-07T11:48:25Z</time>
      </trkpt>
      <trkpt lat="46.77872" lon="5.61126">
        <ele>375.4</ele>
        <time>2021-10-07T11:48:31Z</time>
      </trkpt>
      <trkpt lat="46.77868" lon="5.61123">
        <ele>375.5</ele>
        <time>2021-10-07T11:48:37Z</time>
      </trkpt>
      <trkpt lat="46.77864" lon="5.61118">
        <ele>375</ele>
        <time>2021-10-07T11:48:42Z</time>
      </trkpt>
      <trkpt lat="46.7786" lon="5.61113">
        <ele>375</ele>
        <time>2021-10-07T11:48:46Z</time>
      </trkpt>
      <trkpt lat="46.77856" lon="5.61111">
        <ele>375.1</ele>
        <time>2021-10-07T11:48:50Z</time>
      </trkpt>
      <trkpt lat="46.77851" lon="5.61108">
        <ele>374.6</ele>
        <time>2021-10-07T11:48:55Z</time>
      </trkpt>
      <trkpt lat="46.77846" lon="5.61107">
        <ele>374.3</ele>
        <time>2021-10-07T11:49:01Z</time>
      </trkpt>
      <trkpt lat="46.77841" lon="5.61107">
        <ele>374.6</ele>
        <time>2021-10-07T11:49:07Z</time>
      </trkpt>
      <trkpt lat="46.77836" lon="5.61107">
        <ele>375.4</ele>
        <time>2021-10-07T11:49:13Z</time>
      </trkpt>
      <trkpt lat="46.77831" lon="5.61106">
        <ele>375.6</ele>
        <time>2021-10-07T11:49:17Z</time>
      </trkpt>
      <trkpt lat="46.77827" lon="5.61104">
        <ele>375.7</ele>
        <time>2021-10-07T11:49:21Z</time>
      </trkpt>
      <trkpt lat="46.77823" lon="5.61099">
        <ele>375.8</ele>
        <time>2021-10-07T11:49:25Z</time>
      </trkpt>
      <trkpt lat="46.77819" lon="5.61095">
        <ele>376.1</ele>
        <time>2021-10-07T11:49:29Z</time>
      </trkpt>
      <trkpt lat="46.77814" lon="5.61092">
        <ele>376.7</ele>
        <time>2021-10-07T11:49:34Z</time>
      </trkpt>
      <trkpt lat="46.77809" lon="5.61089">
        <ele>376.9</ele>
        <time>2021-10-07T11:49:38Z</time>
      </trkpt>
      <trkpt lat="46.77806" lon="5.61085">
        <ele>376.2</ele>
        <time>2021-10-07T11:49:45Z</time>
      </trkpt>
      <trkpt lat="46.77802" lon="5.6108">
        <ele>375.5</ele>
        <time>2021-10-07T11:49:51Z</time>
      </trkpt>
      <trkpt lat="46.77797" lon="5.61075">
        <ele>375.6</ele>
        <time>2021-10-07T11:49:56Z</time>
      </trkpt>
      <trkpt lat="46.77793" lon="5.6107">
        <ele>376.3</ele>
        <time>2021-10-07T11:50:01Z</time>
      </trkpt>
      <trkpt lat="46.77788" lon="5.61067">
        <ele>376.6</ele>
        <time>2021-10-07T11:50:06Z</time>
      </trkpt>
      <trkpt lat="46.77783" lon="5.61064">
        <ele>376.8</ele>
        <time>2021-10-07T11:50:11Z</time>
      </trkpt>
      <trkpt lat="46.77778" lon="5.61061">
        <ele>377</ele>
        <time>2021-10-07T11:50:16Z</time>
      </trkpt>
      <trkpt lat="46.77773" lon="5.61059">
        <ele>377.4</ele>
        <time>2021-10-07T11:50:21Z</time>
      </trkpt>
      <trkpt lat="46.77769" lon="5.61056">
        <ele>377.6</ele>
        <time>2021-10-07T11:50:26Z</time>
      </trkpt>
      <trkpt lat="46.77765" lon="5.61051">
        <ele>377.7</ele>
        <time>2021-10-07T11:50:31Z</time>
      </trkpt>
      <trkpt lat="46.77762" lon="5.61046">
        <ele>377.4</ele>
        <time>2021-10-07T11:50:37Z</time>
      </trkpt>
      <trkpt lat="46.77758" lon="5.61041">
        <ele>377.3</ele>
        <time>2021-10-07T11:50:42Z</time>
      </trkpt>
      <trkpt lat="46.77753" lon="5.61038">
        <ele>377.2</ele>
        <time>2021-10-07T11:50:47Z</time>
      </trkpt>
      <trkpt lat="46.77749" lon="5.61035">
        <ele>377.3</ele>
        <time>2021-10-07T11:50:53Z</time>
      </trkpt>
      <trkpt lat="46.77744" lon="5.61033">
        <ele>377.1</ele>
        <time>2021-10-07T11:50:59Z</time>
      </trkpt>
      <trkpt lat="46.7774" lon="5.6103">
        <ele>377</ele>
        <time>2021-10-07T11:51:04Z</time>
      </trkpt>
      <trkpt lat="46.77736" lon="5.61027">
        <ele>376.9</ele>
        <time>2021-10-07T11:51:10Z</time>
      </trkpt>
      <trkpt lat="46.77731" lon="5.61023">
        <ele>376.7</ele>
        <time>2021-10-07T11:51:16Z</time>
      </trkpt>
      <trkpt lat="46.77727" lon="5.61019">
        <ele>376.3</ele>
        <time>2021-10-07T11:51:21Z</time>
      </trkpt>
      <trkpt lat="46.77723" lon="5.61016">
        <ele>375.9</ele>
        <time>2021-10-07T11:51:26Z</time>
      </trkpt>
      <trkpt lat="46.77718" lon="5.61011">
        <ele>375.3</ele>
        <time>2021-10-07T11:51:31Z</time>
      </trkpt>
      <trkpt lat="46.77714" lon="5.61006">
        <ele>374.9</ele>
        <time>2021-10-07T11:51:35Z</time>
      </trkpt>
      <trkpt lat="46.77711" lon="5.61">
        <ele>374.5</ele>
        <time>2021-10-07T11:51:40Z</time>
      </trkpt>
      <trkpt lat="46.77707" lon="5.60998">
        <ele>374.6</ele>
        <time>2021-10-07T11:51:44Z</time>
      </trkpt>
      <trkpt lat="46.77702" lon="5.60995">
        <ele>374.9</ele>
        <time>2021-10-07T11:51:48Z</time>
      </trkpt>
      <trkpt lat="46.77698" lon="5.60991">
        <ele>374.9</ele>
        <time>2021-10-07T11:51:52Z</time>
      </trkpt>
      <trkpt lat="46.77693" lon="5.60989">
        <ele>375.5</ele>
        <time>2021-10-07T11:51:57Z</time>
      </trkpt>
      <trkpt lat="46.77689" lon="5.60986">
        <ele>376.1</ele>
        <time>2021-10-07T11:52:02Z</time>
      </trkpt>
      <trkpt lat="46.77685" lon="5.60983">
        <ele>377.1</ele>
        <time>2021-10-07T11:52:07Z</time>
      </trkpt>
      <trkpt lat="46.7768" lon="5.6098">
        <ele>378.6</ele>
        <time>2021-10-07T11:52:13Z</time>
      </trkpt>
      <trkpt lat="46.77676" lon="5.60977">
        <ele>380.3</ele>
        <time>2021-10-07T11:52:18Z</time>
      </trkpt>
      <trkpt lat="46.77672" lon="5.60972">
        <ele>382.3</ele>
        <time>2021-10-07T11:52:23Z</time>
      </trkpt>
      <trkpt lat="46.77668" lon="5.60968">
        <ele>384.1</ele>
        <time>2021-10-07T11:52:28Z</time>
      </trkpt>
      <trkpt lat="46.77663" lon="5.60966">
        <ele>385.6</ele>
        <time>2021-10-07T11:52:33Z</time>
      </trkpt>
      <trkpt lat="46.77659" lon="5.60964">
        <ele>386.1</ele>
        <time>2021-10-07T11:52:37Z</time>
      </trkpt>
      <trkpt lat="46.77654" lon="5.60961">
        <ele>385.9</ele>
        <time>2021-10-07T11:52:42Z</time>
      </trkpt>
      <trkpt lat="46.7765" lon="5.60957">
        <ele>385.3</ele>
        <time>2021-10-07T11:52:47Z</time>
      </trkpt>
      <trkpt lat="46.77645" lon="5.60956">
        <ele>385.1</ele>
        <time>2021-10-07T11:52:52Z</time>
      </trkpt>
      <trkpt lat="46.77642" lon="5.60951">
        <ele>385.2</ele>
        <time>2021-10-07T11:52:58Z</time>
      </trkpt>
      <trkpt lat="46.77639" lon="5.60946">
        <ele>384.9</ele>
        <time>2021-10-07T11:53:04Z</time>
      </trkpt>
      <trkpt lat="46.77634" lon="5.60943">
        <ele>384.6</ele>
        <time>2021-10-07T11:53:10Z</time>
      </trkpt>
      <trkpt lat="46.77629" lon="5.6094">
        <ele>384.3</ele>
        <time>2021-10-07T11:53:16Z</time>
      </trkpt>
      <trkpt lat="46.77624" lon="5.60936">
        <ele>384.1</ele>
        <time>2021-10-07T11:53:21Z</time>
      </trkpt>
      <trkpt lat="46.77621" lon="5.60932">
        <ele>384</ele>
        <time>2021-10-07T11:53:25Z</time>
      </trkpt>
      <trkpt lat="46.77616" lon="5.60929">
        <ele>383.4</ele>
        <time>2021-10-07T11:53:30Z</time>
      </trkpt>
      <trkpt lat="46.77612" lon="5.60925">
        <ele>382.6</ele>
        <time>2021-10-07T11:53:35Z</time>
      </trkpt>
      <trkpt lat="46.77607" lon="5.60921">
        <ele>381.6</ele>
        <time>2021-10-07T11:53:40Z</time>
      </trkpt>
      <trkpt lat="46.77603" lon="5.60917">
        <ele>380.5</ele>
        <time>2021-10-07T11:53:45Z</time>
      </trkpt>
      <trkpt lat="46.77599" lon="5.60913">
        <ele>379.5</ele>
        <time>2021-10-07T11:53:50Z</time>
      </trkpt>
      <trkpt lat="46.77595" lon="5.60909">
        <ele>378.3</ele>
        <time>2021-10-07T11:53:55Z</time>
      </trkpt>
      <trkpt lat="46.77591" lon="5.60904">
        <ele>377.2</ele>
        <time>2021-10-07T11:54:01Z</time>
      </trkpt>
      <trkpt lat="46.77587" lon="5.60899">
        <ele>376.6</ele>
        <time>2021-10-07T11:54:06Z</time>
      </trkpt>
      <trkpt lat="46.77582" lon="5.60896">
        <ele>376.2</ele>
        <time>2021-10-07T11:54:10Z</time>
      </trkpt>
      <trkpt lat="46.77578" lon="5.60892">
        <ele>375.5</ele>
        <time>2021-10-07T11:54:15Z</time>
      </trkpt>
      <trkpt lat="46.77574" lon="5.60889">
        <ele>374.6</ele>
        <time>2021-10-07T11:54:20Z</time>
      </trkpt>
      <trkpt lat="46.7757" lon="5.60885">
        <ele>373.7</ele>
        <time>2021-10-07T11:54:25Z</time>
      </trkpt>
      <trkpt lat="46.77568" lon="5.60879">
        <ele>372.4</ele>
        <time>2021-10-07T11:54:32Z</time>
      </trkpt>
      <trkpt lat="46.77564" lon="5.60875">
        <ele>371.4</ele>
        <time>2021-10-07T11:54:37Z</time>
      </trkpt>
      <trkpt lat="46.7756" lon="5.60873">
        <ele>371.1</ele>
        <time>2021-10-07T11:54:41Z</time>
      </trkpt>
      <trkpt lat="46.77555" lon="5.60871">
        <ele>370.8</ele>
        <time>2021-10-07T11:54:46Z</time>
      </trkpt>
      <trkpt lat="46.7755" lon="5.60868">
        <ele>370.4</ele>
        <time>2021-10-07T11:54:50Z</time>
      </trkpt>
      <trkpt lat="46.77545" lon="5.60864">
        <ele>370.1</ele>
        <time>2021-10-07T11:54:54Z</time>
      </trkpt>
      <trkpt lat="46.77541" lon="5.60861">
        <ele>370.2</ele>
        <time>2021-10-07T11:54:59Z</time>
      </trkpt>
      <trkpt lat="46.77537" lon="5.60859">
        <ele>370</ele>
        <time>2021-10-07T11:55:07Z</time>
      </trkpt>
      <trkpt lat="46.77533" lon="5.60855">
        <ele>369.4</ele>
        <time>2021-10-07T11:55:14Z</time>
      </trkpt>
      <trkpt lat="46.77528" lon="5.60853">
        <ele>369.1</ele>
        <time>2021-10-07T11:55:18Z</time>
      </trkpt>
      <trkpt lat="46.77524" lon="5.6085">
        <ele>368.7</ele>
        <time>2021-10-07T11:55:23Z</time>
      </trkpt>
      <trkpt lat="46.7752" lon="5.60847">
        <ele>368.4</ele>
        <time>2021-10-07T11:55:28Z</time>
      </trkpt>
      <trkpt lat="46.77516" lon="5.60843">
        <ele>368</ele>
        <time>2021-10-07T11:55:34Z</time>
      </trkpt>
      <trkpt lat="46.77513" lon="5.60838">
        <ele>367</ele>
        <time>2021-10-07T11:55:40Z</time>
      </trkpt>
      <trkpt lat="46.7751" lon="5.60834">
        <ele>365.9</ele>
        <time>2021-10-07T11:55:45Z</time>
      </trkpt>
      <trkpt lat="46.77505" lon="5.60831">
        <ele>365</ele>
        <time>2021-10-07T11:55:50Z</time>
      </trkpt>
      <trkpt lat="46.77501" lon="5.60827">
        <ele>364.1</ele>
        <time>2021-10-07T11:55:55Z</time>
      </trkpt>
      <trkpt lat="46.77498" lon="5.60822">
        <ele>363.2</ele>
        <time>2021-10-07T11:56:01Z</time>
      </trkpt>
      <trkpt lat="46.77494" lon="5.60817">
        <ele>362</ele>
        <time>2021-10-07T11:56:07Z</time>
      </trkpt>
      <trkpt lat="46.7749" lon="5.60812">
        <ele>360.6</ele>
        <time>2021-10-07T11:56:13Z</time>
      </trkpt>
      <trkpt lat="46.77486" lon="5.60809">
        <ele>359.8</ele>
        <time>2021-10-07T11:56:17Z</time>
      </trkpt>
      <trkpt lat="46.77481" lon="5.60806">
        <ele>359.1</ele>
        <time>2021-10-07T11:56:22Z</time>
      </trkpt>
      <trkpt lat="46.77476" lon="5.60805">
        <ele>358.7</ele>
        <time>2021-10-07T11:56:26Z</time>
      </trkpt>
      <trkpt lat="46.77472" lon="5.60802">
        <ele>358.7</ele>
        <time>2021-10-07T11:56:30Z</time>
      </trkpt>
      <trkpt lat="46.77467" lon="5.60798">
        <ele>359.1</ele>
        <time>2021-10-07T11:56:35Z</time>
      </trkpt>
      <trkpt lat="46.77463" lon="5.60796">
        <ele>359.4</ele>
        <time>2021-10-07T11:56:42Z</time>
      </trkpt>
      <trkpt lat="46.77459" lon="5.60792">
        <ele>359.6</ele>
        <time>2021-10-07T11:56:47Z</time>
      </trkpt>
      <trkpt lat="46.77455" lon="5.60789">
        <ele>359.7</ele>
        <time>2021-10-07T11:56:52Z</time>
      </trkpt>
      <trkpt lat="46.7745" lon="5.60787">
        <ele>359.9</ele>
        <time>2021-10-07T11:56:57Z</time>
      </trkpt>
      <trkpt lat="46.77445" lon="5.60785">
        <ele>360.2</ele>
        <time>2021-10-07T11:57:03Z</time>
      </trkpt>
      <trkpt lat="46.7744" lon="5.60783">
        <ele>360.5</ele>
        <time>2021-10-07T11:57:08Z</time>
      </trkpt>
      <trkpt lat="46.77435" lon="5.60781">
        <ele>360.5</ele>
        <time>2021-10-07T11:57:14Z</time>
      </trkpt>
      <trkpt lat="46.7743" lon="5.60781">
        <ele>360.7</ele>
        <time>2021-10-07T11:57:21Z</time>
      </trkpt>
      <trkpt lat="46.77426" lon="5.60785">
        <ele>361.3</ele>
        <time>2021-10-07T11:57:28Z</time>
      </trkpt>
      <trkpt lat="46.77421" lon="5.60787">
        <ele>361.6</ele>
        <time>2021-10-07T11:57:32Z</time>
      </trkpt>
      <trkpt lat="46.77417" lon="5.60789">
        <ele>361.6</ele>
        <time>2021-10-07T11:57:37Z</time>
      </trkpt>
      <trkpt lat="46.77412" lon="5.6079">
        <ele>361.5</ele>
        <time>2021-10-07T11:57:42Z</time>
      </trkpt>
      <trkpt lat="46.77407" lon="5.60791">
        <ele>360.9</ele>
        <time>2021-10-07T11:57:48Z</time>
      </trkpt>
      <trkpt lat="46.77402" lon="5.60792">
        <ele>360.4</ele>
        <time>2021-10-07T11:57:54Z</time>
      </trkpt>
      <trkpt lat="46.77397" lon="5.60791">
        <ele>360</ele>
        <time>2021-10-07T11:57:59Z</time>
      </trkpt>
      <trkpt lat="46.77393" lon="5.60788">
        <ele>359.3</ele>
        <time>2021-10-07T11:58:05Z</time>
      </trkpt>
      <trkpt lat="46.77388" lon="5.60783">
        <ele>358.4</ele>
        <time>2021-10-07T11:58:12Z</time>
      </trkpt>
      <trkpt lat="46.77385" lon="5.60777">
        <ele>357.6</ele>
        <time>2021-10-07T11:58:17Z</time>
      </trkpt>
      <trkpt lat="46.77381" lon="5.60773">
        <ele>357</ele>
        <time>2021-10-07T11:58:23Z</time>
      </trkpt>
      <trkpt lat="46.77377" lon="5.60768">
        <ele>356.5</ele>
        <time>2021-10-07T11:58:30Z</time>
      </trkpt>
      <trkpt lat="46.77374" lon="5.60764">
        <ele>356.5</ele>
        <time>2021-10-07T11:58:35Z</time>
      </trkpt>
      <trkpt lat="46.7737" lon="5.60759">
        <ele>356.4</ele>
        <time>2021-10-07T11:58:40Z</time>
      </trkpt>
      <trkpt lat="46.77367" lon="5.60754">
        <ele>356.2</ele>
        <time>2021-10-07T11:58:45Z</time>
      </trkpt>
      <trkpt lat="46.77363" lon="5.60751">
        <ele>355.8</ele>
        <time>2021-10-07T11:58:50Z</time>
      </trkpt>
      <trkpt lat="46.77359" lon="5.60748">
        <ele>355.9</ele>
        <time>2021-10-07T11:58:55Z</time>
      </trkpt>
      <trkpt lat="46.77354" lon="5.60745">
        <ele>355.8</ele>
        <time>2021-10-07T11:59:00Z</time>
      </trkpt>
      <trkpt lat="46.7735" lon="5.60742">
        <ele>355.7</ele>
        <time>2021-10-07T11:59:05Z</time>
      </trkpt>
      <trkpt lat="46.77346" lon="5.60738">
        <ele>355.6</ele>
        <time>2021-10-07T11:59:10Z</time>
      </trkpt>
      <trkpt lat="46.77343" lon="5.60732">
        <ele>355.3</ele>
        <time>2021-10-07T11:59:17Z</time>
      </trkpt>
      <trkpt lat="46.77339" lon="5.60729">
        <ele>354.8</ele>
        <time>2021-10-07T11:59:24Z</time>
      </trkpt>
      <trkpt lat="46.77335" lon="5.60726">
        <ele>354.2</ele>
        <time>2021-10-07T11:59:31Z</time>
      </trkpt>
      <trkpt lat="46.77329" lon="5.60727">
        <ele>353.8</ele>
        <time>2021-10-07T11:59:37Z</time>
      </trkpt>
      <trkpt lat="46.77324" lon="5.60727">
        <ele>353.3</ele>
        <time>2021-10-07T11:59:42Z</time>
      </trkpt>
      <trkpt lat="46.7732" lon="5.60724">
        <ele>352.3</ele>
        <time>2021-10-07T11:59:49Z</time>
      </trkpt>
      <trkpt lat="46.77317" lon="5.60718">
        <ele>351.6</ele>
        <time>2021-10-07T11:59:55Z</time>
      </trkpt>
      <trkpt lat="46.77313" lon="5.60711">
        <ele>351.1</ele>
        <time>2021-10-07T12:00:02Z</time>
      </trkpt>
      <trkpt lat="46.7731" lon="5.60706">
        <ele>351.1</ele>
        <time>2021-10-07T12:00:08Z</time>
      </trkpt>
      <trkpt lat="46.77306" lon="5.607">
        <ele>350.7</ele>
        <time>2021-10-07T12:00:13Z</time>
      </trkpt>
      <trkpt lat="46.77303" lon="5.60694">
        <ele>350</ele>
        <time>2021-10-07T12:00:17Z</time>
      </trkpt>
      <trkpt lat="46.773" lon="5.6069">
        <ele>349.3</ele>
        <time>2021-10-07T12:00:21Z</time>
      </trkpt>
      <trkpt lat="46.77295" lon="5.60687">
        <ele>348.3</ele>
        <time>2021-10-07T12:00:26Z</time>
      </trkpt>
      <trkpt lat="46.77292" lon="5.60682">
        <ele>348</ele>
        <time>2021-10-07T12:00:31Z</time>
      </trkpt>
      <trkpt lat="46.77288" lon="5.60678">
        <ele>347.9</ele>
        <time>2021-10-07T12:00:37Z</time>
      </trkpt>
      <trkpt lat="46.77285" lon="5.60673">
        <ele>346.9</ele>
        <time>2021-10-07T12:00:51Z</time>
      </trkpt>
      <trkpt lat="46.77281" lon="5.60668">
        <ele>345.5</ele>
        <time>2021-10-07T12:00:56Z</time>
      </trkpt>
      <trkpt lat="46.77278" lon="5.60662">
        <ele>344.3</ele>
        <time>2021-10-07T12:01:02Z</time>
      </trkpt>
      <trkpt lat="46.77274" lon="5.60659">
        <ele>342.6</ele>
        <time>2021-10-07T12:01:10Z</time>
      </trkpt>
      <trkpt lat="46.77269" lon="5.60656">
        <ele>341.3</ele>
        <time>2021-10-07T12:01:14Z</time>
      </trkpt>
      <trkpt lat="46.77265" lon="5.60652">
        <ele>339.7</ele>
        <time>2021-10-07T12:01:19Z</time>
      </trkpt>
      <trkpt lat="46.77261" lon="5.60648">
        <ele>338</ele>
        <time>2021-10-07T12:01:25Z</time>
      </trkpt>
      <trkpt lat="46.77258" lon="5.60643">
        <ele>335.9</ele>
        <time>2021-10-07T12:01:34Z</time>
      </trkpt>
      <trkpt lat="46.77254" lon="5.60637">
        <ele>334.1</ele>
        <time>2021-10-07T12:01:49Z</time>
      </trkpt>
      <trkpt lat="46.77253" lon="5.60631">
        <ele>333.5</ele>
        <time>2021-10-07T12:01:53Z</time>
      </trkpt>
      <trkpt lat="46.77251" lon="5.60624">
        <ele>333</ele>
        <time>2021-10-07T12:02:01Z</time>
      </trkpt>
      <trkpt lat="46.7725" lon="5.60618">
        <ele>332</ele>
        <time>2021-10-07T12:02:08Z</time>
      </trkpt>
      <trkpt lat="46.77249" lon="5.60611">
        <ele>331.3</ele>
        <time>2021-10-07T12:02:14Z</time>
      </trkpt>
      <trkpt lat="46.77247" lon="5.60605">
        <ele>330.6</ele>
        <time>2021-10-07T12:02:19Z</time>
      </trkpt>
      <trkpt lat="46.77247" lon="5.60598">
        <ele>329.9</ele>
        <time>2021-10-07T12:02:28Z</time>
      </trkpt>
      <trkpt lat="46.77248" lon="5.6059">
        <ele>329.5</ele>
        <time>2021-10-07T12:02:34Z</time>
      </trkpt>
      <trkpt lat="46.7725" lon="5.60582">
        <ele>328.6</ele>
        <time>2021-10-07T12:02:43Z</time>
      </trkpt>
      <trkpt lat="46.77251" lon="5.60575">
        <ele>327.6</ele>
        <time>2021-10-07T12:02:49Z</time>
      </trkpt>
      <trkpt lat="46.77253" lon="5.60569">
        <ele>326.6</ele>
        <time>2021-10-07T12:02:55Z</time>
      </trkpt>
      <trkpt lat="46.77253" lon="5.60561">
        <ele>325.5</ele>
        <time>2021-10-07T12:03:01Z</time>
      </trkpt>
      <trkpt lat="46.77253" lon="5.60555">
        <ele>324.4</ele>
        <time>2021-10-07T12:03:07Z</time>
      </trkpt>
      <trkpt lat="46.77255" lon="5.60547">
        <ele>323.1</ele>
        <time>2021-10-07T12:03:13Z</time>
      </trkpt>
      <trkpt lat="46.77256" lon="5.60541">
        <ele>321.6</ele>
        <time>2021-10-07T12:03:20Z</time>
      </trkpt>
      <trkpt lat="46.77257" lon="5.60534">
        <ele>319.7</ele>
        <time>2021-10-07T12:03:28Z</time>
      </trkpt>
      <trkpt lat="46.77259" lon="5.60528">
        <ele>317.8</ele>
        <time>2021-10-07T12:03:35Z</time>
      </trkpt>
      <trkpt lat="46.77259" lon="5.60521">
        <ele>315.2</ele>
        <time>2021-10-07T12:03:46Z</time>
      </trkpt>
      <trkpt lat="46.77258" lon="5.60514">
        <ele>314.3</ele>
        <time>2021-10-07T12:03:52Z</time>
      </trkpt>
      <trkpt lat="46.77259" lon="5.60508">
        <ele>313.8</ele>
        <time>2021-10-07T12:03:56Z</time>
      </trkpt>
      <trkpt lat="46.77258" lon="5.605">
        <ele>313.1</ele>
        <time>2021-10-07T12:04:03Z</time>
      </trkpt>
      <trkpt lat="46.77258" lon="5.60492">
        <ele>312.3</ele>
        <time>2021-10-07T12:04:09Z</time>
      </trkpt>
      <trkpt lat="46.77259" lon="5.60485">
        <ele>310.6</ele>
        <time>2021-10-07T12:04:15Z</time>
      </trkpt>
      <trkpt lat="46.77263" lon="5.6048">
        <ele>308.8</ele>
        <time>2021-10-07T12:04:20Z</time>
      </trkpt>
      <trkpt lat="46.77263" lon="5.60473">
        <ele>306.7</ele>
        <time>2021-10-07T12:04:26Z</time>
      </trkpt>
      <trkpt lat="46.77262" lon="5.60465">
        <ele>304.9</ele>
        <time>2021-10-07T12:04:31Z</time>
      </trkpt>
      <trkpt lat="46.77262" lon="5.60457">
        <ele>302</ele>
        <time>2021-10-07T12:04:37Z</time>
      </trkpt>
      <trkpt lat="46.77261" lon="5.60451">
        <ele>299.1</ele>
        <time>2021-10-07T12:04:43Z</time>
      </trkpt>
      <trkpt lat="46.77259" lon="5.60443">
        <ele>297.1</ele>
        <time>2021-10-07T12:04:48Z</time>
      </trkpt>
      <trkpt lat="46.77261" lon="5.60436">
        <ele>294.3</ele>
        <time>2021-10-07T12:04:55Z</time>
      </trkpt>
      <trkpt lat="46.77262" lon="5.6043">
        <ele>292.1</ele>
        <time>2021-10-07T12:05:01Z</time>
      </trkpt>
      <trkpt lat="46.77263" lon="5.60422">
        <ele>290.3</ele>
        <time>2021-10-07T12:05:07Z</time>
      </trkpt>
      <trkpt lat="46.77264" lon="5.60416">
        <ele>288.7</ele>
        <time>2021-10-07T12:05:13Z</time>
      </trkpt>
      <trkpt lat="46.77265" lon="5.60409">
        <ele>288.1</ele>
        <time>2021-10-07T12:05:19Z</time>
      </trkpt>
      <trkpt lat="46.77266" lon="5.60403">
        <ele>288.1</ele>
        <time>2021-10-07T12:05:25Z</time>
      </trkpt>
      <trkpt lat="46.77267" lon="5.60396">
        <ele>287.5</ele>
        <time>2021-10-07T12:05:34Z</time>
      </trkpt>
      <trkpt lat="46.77268" lon="5.60389">
        <ele>289.6</ele>
        <time>2021-10-07T12:06:07Z</time>
      </trkpt>
      <trkpt lat="46.77268" lon="5.60382">
        <ele>290.7</ele>
        <time>2021-10-07T12:06:13Z</time>
      </trkpt>
      <trkpt lat="46.77268" lon="5.60375">
        <ele>291.6</ele>
        <time>2021-10-07T12:06:19Z</time>
      </trkpt>
      <trkpt lat="46.77269" lon="5.60368">
        <ele>291.8</ele>
        <time>2021-10-07T12:06:24Z</time>
      </trkpt>
      <trkpt lat="46.77269" lon="5.60361">
        <ele>292</ele>
        <time>2021-10-07T12:06:32Z</time>
      </trkpt>
      <trkpt lat="46.77267" lon="5.60354">
        <ele>292</ele>
        <time>2021-10-07T12:06:40Z</time>
      </trkpt>
      <trkpt lat="46.77264" lon="5.60348">
        <ele>292.1</ele>
        <time>2021-10-07T12:06:46Z</time>
      </trkpt>
      <trkpt lat="46.7726" lon="5.60342">
        <ele>292.2</ele>
        <time>2021-10-07T12:06:51Z</time>
      </trkpt>
      <trkpt lat="46.77257" lon="5.60338">
        <ele>292.4</ele>
        <time>2021-10-07T12:06:57Z</time>
      </trkpt>
      <trkpt lat="46.77252" lon="5.60334">
        <ele>292.4</ele>
        <time>2021-10-07T12:07:02Z</time>
      </trkpt>
      <trkpt lat="46.77248" lon="5.6033">
        <ele>292</ele>
        <time>2021-10-07T12:07:08Z</time>
      </trkpt>
      <trkpt lat="46.77244" lon="5.60325">
        <ele>291.5</ele>
        <time>2021-10-07T12:07:16Z</time>
      </trkpt>
      <trkpt lat="46.7724" lon="5.60322">
        <ele>291.5</ele>
        <time>2021-10-07T12:07:22Z</time>
      </trkpt>
      <trkpt lat="46.77235" lon="5.60323">
        <ele>291.2</ele>
        <time>2021-10-07T12:07:30Z</time>
      </trkpt>
      <trkpt lat="46.7723" lon="5.60321">
        <ele>290.7</ele>
        <time>2021-10-07T12:07:36Z</time>
      </trkpt>
      <trkpt lat="46.77225" lon="5.60319">
        <ele>289.8</ele>
        <time>2021-10-07T12:07:42Z</time>
      </trkpt>
      <trkpt lat="46.77221" lon="5.60316">
        <ele>289</ele>
        <time>2021-10-07T12:07:47Z</time>
      </trkpt>
      <trkpt lat="46.77217" lon="5.60312">
        <ele>288.5</ele>
        <time>2021-10-07T12:07:53Z</time>
      </trkpt>
      <trkpt lat="46.77212" lon="5.60309">
        <ele>288.1</ele>
        <time>2021-10-07T12:07:59Z</time>
      </trkpt>
      <trkpt lat="46.77208" lon="5.60306">
        <ele>287.9</ele>
        <time>2021-10-07T12:08:04Z</time>
      </trkpt>
      <trkpt lat="46.77204" lon="5.60302">
        <ele>287.5</ele>
        <time>2021-10-07T12:08:10Z</time>
      </trkpt>
      <trkpt lat="46.77199" lon="5.60298">
        <ele>286.9</ele>
        <time>2021-10-07T12:08:16Z</time>
      </trkpt>
      <trkpt lat="46.77194" lon="5.60297">
        <ele>285.9</ele>
        <time>2021-10-07T12:08:22Z</time>
      </trkpt>
      <trkpt lat="46.77189" lon="5.60298">
        <ele>285.1</ele>
        <time>2021-10-07T12:08:27Z</time>
      </trkpt>
      <trkpt lat="46.77185" lon="5.603">
        <ele>284.5</ele>
        <time>2021-10-07T12:08:32Z</time>
      </trkpt>
      <trkpt lat="46.7718" lon="5.60304">
        <ele>283.9</ele>
        <time>2021-10-07T12:08:38Z</time>
      </trkpt>
      <trkpt lat="46.77175" lon="5.60306">
        <ele>283.3</ele>
        <time>2021-10-07T12:08:44Z</time>
      </trkpt>
      <trkpt lat="46.77172" lon="5.6031">
        <ele>282.7</ele>
        <time>2021-10-07T12:08:49Z</time>
      </trkpt>
      <trkpt lat="46.77168" lon="5.60315">
        <ele>281.9</ele>
        <time>2021-10-07T12:08:55Z</time>
      </trkpt>
      <trkpt lat="46.77163" lon="5.60313">
        <ele>280.9</ele>
        <time>2021-10-07T12:09:01Z</time>
      </trkpt>
      <trkpt lat="46.77158" lon="5.60313">
        <ele>280.1</ele>
        <time>2021-10-07T12:09:07Z</time>
      </trkpt>
      <trkpt lat="46.77154" lon="5.60317">
        <ele>279.2</ele>
        <time>2021-10-07T12:09:13Z</time>
      </trkpt>
      <trkpt lat="46.77151" lon="5.60322">
        <ele>278.1</ele>
        <time>2021-10-07T12:09:22Z</time>
      </trkpt>
      <trkpt lat="46.77147" lon="5.60322">
        <ele>277.6</ele>
        <time>2021-10-07T12:09:28Z</time>
      </trkpt>
      <trkpt lat="46.77141" lon="5.60322">
        <ele>277.5</ele>
        <time>2021-10-07T12:09:33Z</time>
      </trkpt>
      <trkpt lat="46.77136" lon="5.60322">
        <ele>277.4</ele>
        <time>2021-10-07T12:09:38Z</time>
      </trkpt>
      <trkpt lat="46.77131" lon="5.60321">
        <ele>276.9</ele>
        <time>2021-10-07T12:09:44Z</time>
      </trkpt>
      <trkpt lat="46.77126" lon="5.60319">
        <ele>276.1</ele>
        <time>2021-10-07T12:09:51Z</time>
      </trkpt>
      <trkpt lat="46.77122" lon="5.60316">
        <ele>274.5</ele>
        <time>2021-10-07T12:09:59Z</time>
      </trkpt>
      <trkpt lat="46.77117" lon="5.60315">
        <ele>273.2</ele>
        <time>2021-10-07T12:10:04Z</time>
      </trkpt>
      <trkpt lat="46.77112" lon="5.60316">
        <ele>272.4</ele>
        <time>2021-10-07T12:10:09Z</time>
      </trkpt>
      <trkpt lat="46.77107" lon="5.60318">
        <ele>271.7</ele>
        <time>2021-10-07T12:10:14Z</time>
      </trkpt>
      <trkpt lat="46.77102" lon="5.60318">
        <ele>270.9</ele>
        <time>2021-10-07T12:10:20Z</time>
      </trkpt>
      <trkpt lat="46.77097" lon="5.60317">
        <ele>270.2</ele>
        <time>2021-10-07T12:10:26Z</time>
      </trkpt>
      <trkpt lat="46.77092" lon="5.60317">
        <ele>269.7</ele>
        <time>2021-10-07T12:10:32Z</time>
      </trkpt>
      <trkpt lat="46.77087" lon="5.60317">
        <ele>269.2</ele>
        <time>2021-10-07T12:10:37Z</time>
      </trkpt>
      <trkpt lat="46.77081" lon="5.60319">
        <ele>268.4</ele>
        <time>2021-10-07T12:10:42Z</time>
      </trkpt>
      <trkpt lat="46.77076" lon="5.6032">
        <ele>267.7</ele>
        <time>2021-10-07T12:10:48Z</time>
      </trkpt>
      <trkpt lat="46.77071" lon="5.60321">
        <ele>267.2</ele>
        <time>2021-10-07T12:10:54Z</time>
      </trkpt>
      <trkpt lat="46.77066" lon="5.60322">
        <ele>266.3</ele>
        <time>2021-10-07T12:11:00Z</time>
      </trkpt>
      <trkpt lat="46.77062" lon="5.60322">
        <ele>265.6</ele>
        <time>2021-10-07T12:11:04Z</time>
      </trkpt>
      <trkpt lat="46.77057" lon="5.60321">
        <ele>264.9</ele>
        <time>2021-10-07T12:11:10Z</time>
      </trkpt>
      <trkpt lat="46.77052" lon="5.60322">
        <ele>264.3</ele>
        <time>2021-10-07T12:11:16Z</time>
      </trkpt>
      <trkpt lat="46.77047" lon="5.60322">
        <ele>263.8</ele>
        <time>2021-10-07T12:11:24Z</time>
      </trkpt>
      <trkpt lat="46.77042" lon="5.60321">
        <ele>263.8</ele>
        <time>2021-10-07T12:11:29Z</time>
      </trkpt>
      <trkpt lat="46.77037" lon="5.6032">
        <ele>263.9</ele>
        <time>2021-10-07T12:11:34Z</time>
      </trkpt>
      <trkpt lat="46.77032" lon="5.60321">
        <ele>264</ele>
        <time>2021-10-07T12:11:40Z</time>
      </trkpt>
      <trkpt lat="46.77027" lon="5.60321">
        <ele>263.9</ele>
        <time>2021-10-07T12:11:46Z</time>
      </trkpt>
      <trkpt lat="46.77022" lon="5.6032">
        <ele>263.7</ele>
        <time>2021-10-07T12:11:51Z</time>
      </trkpt>
      <trkpt lat="46.77017" lon="5.60321">
        <ele>263.3</ele>
        <time>2021-10-07T12:11:56Z</time>
      </trkpt>
      <trkpt lat="46.77012" lon="5.60321">
        <ele>263.1</ele>
        <time>2021-10-07T12:12:00Z</time>
      </trkpt>
      <trkpt lat="46.77007" lon="5.60322">
        <ele>262.9</ele>
        <time>2021-10-07T12:12:04Z</time>
      </trkpt>
      <trkpt lat="46.77002" lon="5.60323">
        <ele>262.4</ele>
        <time>2021-10-07T12:12:09Z</time>
      </trkpt>
      <trkpt lat="46.76997" lon="5.60323">
        <ele>261.5</ele>
        <time>2021-10-07T12:12:15Z</time>
      </trkpt>
      <trkpt lat="46.76993" lon="5.60322">
        <ele>260.7</ele>
        <time>2021-10-07T12:12:20Z</time>
      </trkpt>
      <trkpt lat="46.76988" lon="5.60321">
        <ele>259.5</ele>
        <time>2021-10-07T12:12:27Z</time>
      </trkpt>
      <trkpt lat="46.76983" lon="5.6032">
        <ele>258.3</ele>
        <time>2021-10-07T12:12:33Z</time>
      </trkpt>
      <trkpt lat="46.76978" lon="5.6032">
        <ele>257.3</ele>
        <time>2021-10-07T12:12:38Z</time>
      </trkpt>
      <trkpt lat="46.76973" lon="5.60319">
        <ele>256.4</ele>
        <time>2021-10-07T12:12:43Z</time>
      </trkpt>
      <trkpt lat="46.76968" lon="5.60316">
        <ele>255.6</ele>
        <time>2021-10-07T12:12:49Z</time>
      </trkpt>
      <trkpt lat="46.76963" lon="5.60314">
        <ele>255</ele>
        <time>2021-10-07T12:12:54Z</time>
      </trkpt>
      <trkpt lat="46.76957" lon="5.60312">
        <ele>254.4</ele>
        <time>2021-10-07T12:12:59Z</time>
      </trkpt>
      <trkpt lat="46.76953" lon="5.60309">
        <ele>253.5</ele>
        <time>2021-10-07T12:13:04Z</time>
      </trkpt>
      <trkpt lat="46.76948" lon="5.60306">
        <ele>252.5</ele>
        <time>2021-10-07T12:13:10Z</time>
      </trkpt>
      <trkpt lat="46.76945" lon="5.60302">
        <ele>251.5</ele>
        <time>2021-10-07T12:13:15Z</time>
      </trkpt>
      <trkpt lat="46.76941" lon="5.60298">
        <ele>250.5</ele>
        <time>2021-10-07T12:13:20Z</time>
      </trkpt>
      <trkpt lat="46.76937" lon="5.60294">
        <ele>249.3</ele>
        <time>2021-10-07T12:13:25Z</time>
      </trkpt>
      <trkpt lat="46.76933" lon="5.6029">
        <ele>247.8</ele>
        <time>2021-10-07T12:13:31Z</time>
      </trkpt>
      <trkpt lat="46.76929" lon="5.60286">
        <ele>246.1</ele>
        <time>2021-10-07T12:13:38Z</time>
      </trkpt>
      <trkpt lat="46.76924" lon="5.60284">
        <ele>244.7</ele>
        <time>2021-10-07T12:13:45Z</time>
      </trkpt>
      <trkpt lat="46.7692" lon="5.60282">
        <ele>243.7</ele>
        <time>2021-10-07T12:13:50Z</time>
      </trkpt>
      <trkpt lat="46.76915" lon="5.60279">
        <ele>242.4</ele>
        <time>2021-10-07T12:13:57Z</time>
      </trkpt>
      <trkpt lat="46.76909" lon="5.60278">
        <ele>241.4</ele>
        <time>2021-10-07T12:14:02Z</time>
      </trkpt>
      <trkpt lat="46.76904" lon="5.60277">
        <ele>240.7</ele>
        <time>2021-10-07T12:14:06Z</time>
      </trkpt>
      <trkpt lat="46.76899" lon="5.60276">
        <ele>240.1</ele>
        <time>2021-10-07T12:14:11Z</time>
      </trkpt>
      <trkpt lat="46.76893" lon="5.60273">
        <ele>239.5</ele>
        <time>2021-10-07T12:14:16Z</time>
      </trkpt>
      <trkpt lat="46.76889" lon="5.60271">
        <ele>238.9</ele>
        <time>2021-10-07T12:14:20Z</time>
      </trkpt>
      <trkpt lat="46.76884" lon="5.60267">
        <ele>238.4</ele>
        <time>2021-10-07T12:14:24Z</time>
      </trkpt>
      <trkpt lat="46.7688" lon="5.60263">
        <ele>237.7</ele>
        <time>2021-10-07T12:14:29Z</time>
      </trkpt>
      <trkpt lat="46.76876" lon="5.60259">
        <ele>237.6</ele>
        <time>2021-10-07T12:14:33Z</time>
      </trkpt>
      <trkpt lat="46.76871" lon="5.60254">
        <ele>237.6</ele>
        <time>2021-10-07T12:14:38Z</time>
      </trkpt>
      <trkpt lat="46.76867" lon="5.60251">
        <ele>237.9</ele>
        <time>2021-10-07T12:14:42Z</time>
      </trkpt>
      <trkpt lat="46.76862" lon="5.60248">
        <ele>238.1</ele>
        <time>2021-10-07T12:14:47Z</time>
      </trkpt>
      <trkpt lat="46.76859" lon="5.60244">
        <ele>238.4</ele>
        <time>2021-10-07T12:14:51Z</time>
      </trkpt>
      <trkpt lat="46.76855" lon="5.60241">
        <ele>238.8</ele>
        <time>2021-10-07T12:14:55Z</time>
      </trkpt>
      <trkpt lat="46.76851" lon="5.60236">
        <ele>239.1</ele>
        <time>2021-10-07T12:15:00Z</time>
      </trkpt>
      <trkpt lat="46.76847" lon="5.60231">
        <ele>239.4</ele>
        <time>2021-10-07T12:15:06Z</time>
      </trkpt>
      <trkpt lat="46.76843" lon="5.60227">
        <ele>239.5</ele>
        <time>2021-10-07T12:15:11Z</time>
      </trkpt>
      <trkpt lat="46.76839" lon="5.60223">
        <ele>239.5</ele>
        <time>2021-10-07T12:15:16Z</time>
      </trkpt>
      <trkpt lat="46.76834" lon="5.60219">
        <ele>239.5</ele>
        <time>2021-10-07T12:15:21Z</time>
      </trkpt>
      <trkpt lat="46.7683" lon="5.60215">
        <ele>239.6</ele>
        <time>2021-10-07T12:15:26Z</time>
      </trkpt>
      <trkpt lat="46.76827" lon="5.6021">
        <ele>239.4</ele>
        <time>2021-10-07T12:15:33Z</time>
      </trkpt>
      <trkpt lat="46.76823" lon="5.60204">
        <ele>238.8</ele>
        <time>2021-10-07T12:15:39Z</time>
      </trkpt>
      <trkpt lat="46.76819" lon="5.60199">
        <ele>238.2</ele>
        <time>2021-10-07T12:15:44Z</time>
      </trkpt>
      <trkpt lat="46.76816" lon="5.60195">
        <ele>237.5</ele>
        <time>2021-10-07T12:15:48Z</time>
      </trkpt>
      <trkpt lat="46.76812" lon="5.60189">
        <ele>236.8</ele>
        <time>2021-10-07T12:15:52Z</time>
      </trkpt>
      <trkpt lat="46.7681" lon="5.60184">
        <ele>236.1</ele>
        <time>2021-10-07T12:15:56Z</time>
      </trkpt>
      <trkpt lat="46.76807" lon="5.60178">
        <ele>235.7</ele>
        <time>2021-10-07T12:16:00Z</time>
      </trkpt>
      <trkpt lat="46.76803" lon="5.60172">
        <ele>235.3</ele>
        <time>2021-10-07T12:16:05Z</time>
      </trkpt>
      <trkpt lat="46.768" lon="5.60167">
        <ele>235</ele>
        <time>2021-10-07T12:16:10Z</time>
      </trkpt>
      <trkpt lat="46.76796" lon="5.60161">
        <ele>234.8</ele>
        <time>2021-10-07T12:16:16Z</time>
      </trkpt>
      <trkpt lat="46.76793" lon="5.60157">
        <ele>234.9</ele>
        <time>2021-10-07T12:16:21Z</time>
      </trkpt>
      <trkpt lat="46.7679" lon="5.60151">
        <ele>235.1</ele>
        <time>2021-10-07T12:16:25Z</time>
      </trkpt>
      <trkpt lat="46.76787" lon="5.60145">
        <ele>235</ele>
        <time>2021-10-07T12:16:30Z</time>
      </trkpt>
      <trkpt lat="46.76783" lon="5.6014">
        <ele>234.8</ele>
        <time>2021-10-07T12:16:35Z</time>
      </trkpt>
      <trkpt lat="46.7678" lon="5.60135">
        <ele>234.8</ele>
        <time>2021-10-07T12:16:40Z</time>
      </trkpt>
      <trkpt lat="46.76777" lon="5.60129">
        <ele>234.8</ele>
        <time>2021-10-07T12:16:45Z</time>
      </trkpt>
      <trkpt lat="46.76774" lon="5.60122">
        <ele>235</ele>
        <time>2021-10-07T12:16:50Z</time>
      </trkpt>
      <trkpt lat="46.76771" lon="5.60117">
        <ele>235.5</ele>
        <time>2021-10-07T12:16:55Z</time>
      </trkpt>
      <trkpt lat="46.76767" lon="5.60113">
        <ele>235.9</ele>
        <time>2021-10-07T12:16:59Z</time>
      </trkpt>
      <trkpt lat="46.76763" lon="5.60109">
        <ele>236</ele>
        <time>2021-10-07T12:17:04Z</time>
      </trkpt>
      <trkpt lat="46.76758" lon="5.60105">
        <ele>236.1</ele>
        <time>2021-10-07T12:17:09Z</time>
      </trkpt>
      <trkpt lat="46.76754" lon="5.60101">
        <ele>236.1</ele>
        <time>2021-10-07T12:17:15Z</time>
      </trkpt>
      <trkpt lat="46.7675" lon="5.60098">
        <ele>236.1</ele>
        <time>2021-10-07T12:17:19Z</time>
      </trkpt>
      <trkpt lat="46.76745" lon="5.60095">
        <ele>236</ele>
        <time>2021-10-07T12:17:24Z</time>
      </trkpt>
      <trkpt lat="46.7674" lon="5.60092">
        <ele>236.2</ele>
        <time>2021-10-07T12:17:29Z</time>
      </trkpt>
      <trkpt lat="46.76736" lon="5.60088">
        <ele>236.5</ele>
        <time>2021-10-07T12:17:35Z</time>
      </trkpt>
      <trkpt lat="46.76731" lon="5.60085">
        <ele>236.6</ele>
        <time>2021-10-07T12:17:42Z</time>
      </trkpt>
      <trkpt lat="46.76726" lon="5.60083">
        <ele>236.9</ele>
        <time>2021-10-07T12:17:47Z</time>
      </trkpt>
      <trkpt lat="46.76721" lon="5.60082">
        <ele>237.3</ele>
        <time>2021-10-07T12:17:52Z</time>
      </trkpt>
      <trkpt lat="46.76715" lon="5.60082">
        <ele>237.6</ele>
        <time>2021-10-07T12:17:57Z</time>
      </trkpt>
      <trkpt lat="46.76711" lon="5.60083">
        <ele>237.8</ele>
        <time>2021-10-07T12:18:02Z</time>
      </trkpt>
      <trkpt lat="46.76706" lon="5.60087">
        <ele>238</ele>
        <time>2021-10-07T12:18:07Z</time>
      </trkpt>
      <trkpt lat="46.76703" lon="5.60093">
        <ele>237.9</ele>
        <time>2021-10-07T12:18:12Z</time>
      </trkpt>
      <trkpt lat="46.76702" lon="5.60101">
        <ele>237.9</ele>
        <time>2021-10-07T12:18:17Z</time>
      </trkpt>
      <trkpt lat="46.767" lon="5.60107">
        <ele>237.8</ele>
        <time>2021-10-07T12:18:22Z</time>
      </trkpt>
      <trkpt lat="46.76698" lon="5.60113">
        <ele>237.5</ele>
        <time>2021-10-07T12:18:27Z</time>
      </trkpt>
      <trkpt lat="46.76696" lon="5.60121">
        <ele>237.2</ele>
        <time>2021-10-07T12:18:32Z</time>
      </trkpt>
      <trkpt lat="46.76693" lon="5.60128">
        <ele>236.7</ele>
        <time>2021-10-07T12:18:37Z</time>
      </trkpt>
      <trkpt lat="46.76692" lon="5.60136">
        <ele>236.3</ele>
        <time>2021-10-07T12:18:42Z</time>
      </trkpt>
      <trkpt lat="46.7669" lon="5.60142">
        <ele>235.7</ele>
        <time>2021-10-07T12:18:47Z</time>
      </trkpt>
      <trkpt lat="46.76688" lon="5.60148">
        <ele>235.2</ele>
        <time>2021-10-07T12:18:51Z</time>
      </trkpt>
      <trkpt lat="46.76685" lon="5.60155">
        <ele>234.5</ele>
        <time>2021-10-07T12:18:56Z</time>
      </trkpt>
      <trkpt lat="46.76683" lon="5.60161">
        <ele>233.8</ele>
        <time>2021-10-07T12:19:01Z</time>
      </trkpt>
      <trkpt lat="46.76681" lon="5.60168">
        <ele>233</ele>
        <time>2021-10-07T12:19:06Z</time>
      </trkpt>
      <trkpt lat="46.76678" lon="5.60174">
        <ele>232.7</ele>
        <time>2021-10-07T12:19:11Z</time>
      </trkpt>
      <trkpt lat="46.76676" lon="5.60181">
        <ele>232.3</ele>
        <time>2021-10-07T12:19:16Z</time>
      </trkpt>
      <trkpt lat="46.76674" lon="5.60187">
        <ele>231.9</ele>
        <time>2021-10-07T12:19:20Z</time>
      </trkpt>
      <trkpt lat="46.76673" lon="5.60193">
        <ele>231.6</ele>
        <time>2021-10-07T12:19:24Z</time>
      </trkpt>
      <trkpt lat="46.76671" lon="5.602">
        <ele>231.6</ele>
        <time>2021-10-07T12:19:29Z</time>
      </trkpt>
      <trkpt lat="46.76669" lon="5.60208">
        <ele>231.7</ele>
        <time>2021-10-07T12:19:34Z</time>
      </trkpt>
      <trkpt lat="46.76667" lon="5.60214">
        <ele>232.1</ele>
        <time>2021-10-07T12:19:39Z</time>
      </trkpt>
      <trkpt lat="46.76665" lon="5.60221">
        <ele>232.3</ele>
        <time>2021-10-07T12:19:44Z</time>
      </trkpt>
      <trkpt lat="46.76662" lon="5.60227">
        <ele>232.2</ele>
        <time>2021-10-07T12:19:49Z</time>
      </trkpt>
      <trkpt lat="46.7666" lon="5.60234">
        <ele>232.1</ele>
        <time>2021-10-07T12:19:54Z</time>
      </trkpt>
      <trkpt lat="46.76659" lon="5.60241">
        <ele>232.1</ele>
        <time>2021-10-07T12:19:58Z</time>
      </trkpt>
      <trkpt lat="46.76657" lon="5.60248">
        <ele>232.5</ele>
        <time>2021-10-07T12:20:03Z</time>
      </trkpt>
      <trkpt lat="46.76655" lon="5.60255">
        <ele>232.9</ele>
        <time>2021-10-07T12:20:08Z</time>
      </trkpt>
      <trkpt lat="46.76652" lon="5.60262">
        <ele>233.2</ele>
        <time>2021-10-07T12:20:13Z</time>
      </trkpt>
      <trkpt lat="46.76651" lon="5.60269">
        <ele>234</ele>
        <time>2021-10-07T12:20:18Z</time>
      </trkpt>
      <trkpt lat="46.76648" lon="5.60275">
        <ele>234.9</ele>
        <time>2021-10-07T12:20:22Z</time>
      </trkpt>
      <trkpt lat="46.76646" lon="5.60281">
        <ele>235.7</ele>
        <time>2021-10-07T12:20:26Z</time>
      </trkpt>
      <trkpt lat="46.76644" lon="5.60287">
        <ele>236.1</ele>
        <time>2021-10-07T12:20:31Z</time>
      </trkpt>
      <trkpt lat="46.76642" lon="5.60293">
        <ele>236.3</ele>
        <time>2021-10-07T12:20:36Z</time>
      </trkpt>
      <trkpt lat="46.76639" lon="5.60299">
        <ele>236.4</ele>
        <time>2021-10-07T12:20:41Z</time>
      </trkpt>
      <trkpt lat="46.76637" lon="5.60306">
        <ele>236.2</ele>
        <time>2021-10-07T12:20:46Z</time>
      </trkpt>
      <trkpt lat="46.76635" lon="5.60313">
        <ele>236.1</ele>
        <time>2021-10-07T12:20:51Z</time>
      </trkpt>
      <trkpt lat="46.76632" lon="5.6032">
        <ele>236.1</ele>
        <time>2021-10-07T12:20:56Z</time>
      </trkpt>
      <trkpt lat="46.76629" lon="5.60327">
        <ele>236</ele>
        <time>2021-10-07T12:21:01Z</time>
      </trkpt>
      <trkpt lat="46.76627" lon="5.60334">
        <ele>236.1</ele>
        <time>2021-10-07T12:21:06Z</time>
      </trkpt>
      <trkpt lat="46.76626" lon="5.60342">
        <ele>236.5</ele>
        <time>2021-10-07T12:21:11Z</time>
      </trkpt>
      <trkpt lat="46.76624" lon="5.60348">
        <ele>237</ele>
        <time>2021-10-07T12:21:15Z</time>
      </trkpt>
      <trkpt lat="46.76621" lon="5.60354">
        <ele>237.4</ele>
        <time>2021-10-07T12:21:20Z</time>
      </trkpt>
      <trkpt lat="46.76619" lon="5.6036">
        <ele>237.9</ele>
        <time>2021-10-07T12:21:24Z</time>
      </trkpt>
      <trkpt lat="46.76617" lon="5.60367">
        <ele>238.3</ele>
        <time>2021-10-07T12:21:28Z</time>
      </trkpt>
      <trkpt lat="46.76616" lon="5.60374">
        <ele>238.8</ele>
        <time>2021-10-07T12:21:33Z</time>
      </trkpt>
      <trkpt lat="46.76614" lon="5.6038">
        <ele>239</ele>
        <time>2021-10-07T12:21:38Z</time>
      </trkpt>
      <trkpt lat="46.76612" lon="5.60387">
        <ele>239.1</ele>
        <time>2021-10-07T12:21:42Z</time>
      </trkpt>
      <trkpt lat="46.76609" lon="5.60392">
        <ele>239.2</ele>
        <time>2021-10-07T12:21:46Z</time>
      </trkpt>
      <trkpt lat="46.76607" lon="5.60398">
        <ele>239</ele>
        <time>2021-10-07T12:21:51Z</time>
      </trkpt>
      <trkpt lat="46.76604" lon="5.60404">
        <ele>238.7</ele>
        <time>2021-10-07T12:21:56Z</time>
      </trkpt>
      <trkpt lat="46.76602" lon="5.60411">
        <ele>238.3</ele>
        <time>2021-10-07T12:22:01Z</time>
      </trkpt>
      <trkpt lat="46.76601" lon="5.60418">
        <ele>238</ele>
        <time>2021-10-07T12:22:06Z</time>
      </trkpt>
      <trkpt lat="46.766" lon="5.60424">
        <ele>237.8</ele>
        <time>2021-10-07T12:22:10Z</time>
      </trkpt>
      <trkpt lat="46.76597" lon="5.60431">
        <ele>238</ele>
        <time>2021-10-07T12:22:15Z</time>
      </trkpt>
      <trkpt lat="46.76594" lon="5.60437">
        <ele>238.5</ele>
        <time>2021-10-07T12:22:20Z</time>
      </trkpt>
      <trkpt lat="46.76592" lon="5.60443">
        <ele>239.1</ele>
        <time>2021-10-07T12:22:25Z</time>
      </trkpt>
      <trkpt lat="46.7659" lon="5.6045">
        <ele>239.5</ele>
        <time>2021-10-07T12:22:30Z</time>
      </trkpt>
      <trkpt lat="46.76587" lon="5.60457">
        <ele>239.7</ele>
        <time>2021-10-07T12:22:35Z</time>
      </trkpt>
      <trkpt lat="46.76585" lon="5.60464">
        <ele>239.8</ele>
        <time>2021-10-07T12:22:40Z</time>
      </trkpt>
      <trkpt lat="46.76582" lon="5.6047">
        <ele>239.7</ele>
        <time>2021-10-07T12:22:45Z</time>
      </trkpt>
      <trkpt lat="46.76579" lon="5.60477">
        <ele>239.4</ele>
        <time>2021-10-07T12:22:50Z</time>
      </trkpt>
      <trkpt lat="46.76577" lon="5.60482">
        <ele>239.2</ele>
        <time>2021-10-07T12:22:55Z</time>
      </trkpt>
      <trkpt lat="46.76573" lon="5.60488">
        <ele>238.9</ele>
        <time>2021-10-07T12:23:00Z</time>
      </trkpt>
      <trkpt lat="46.76571" lon="5.60495">
        <ele>238.4</ele>
        <time>2021-10-07T12:23:05Z</time>
      </trkpt>
      <trkpt lat="46.76569" lon="5.60502">
        <ele>238</ele>
        <time>2021-10-07T12:23:12Z</time>
      </trkpt>
      <trkpt lat="46.76567" lon="5.60508">
        <ele>237.6</ele>
        <time>2021-10-07T12:23:15Z</time>
      </trkpt>
      <trkpt lat="46.76565" lon="5.60514">
        <ele>237.1</ele>
        <time>2021-10-07T12:23:20Z</time>
      </trkpt>
      <trkpt lat="46.76562" lon="5.60521">
        <ele>237</ele>
        <time>2021-10-07T12:23:25Z</time>
      </trkpt>
      <trkpt lat="46.76559" lon="5.60527">
        <ele>236.7</ele>
        <time>2021-10-07T12:23:31Z</time>
      </trkpt>
      <trkpt lat="46.76557" lon="5.60534">
        <ele>236.4</ele>
        <time>2021-10-07T12:23:37Z</time>
      </trkpt>
      <trkpt lat="46.76554" lon="5.60542">
        <ele>236.3</ele>
        <time>2021-10-07T12:23:40Z</time>
      </trkpt>
      <trkpt lat="46.76552" lon="5.60549">
        <ele>236.3</ele>
        <time>2021-10-07T12:23:43Z</time>
      </trkpt>
      <trkpt lat="46.76551" lon="5.60556">
        <ele>236.3</ele>
        <time>2021-10-07T12:23:50Z</time>
      </trkpt>
      <trkpt lat="46.76548" lon="5.60563">
        <ele>236.5</ele>
        <time>2021-10-07T12:23:55Z</time>
      </trkpt>
      <trkpt lat="46.76545" lon="5.60568">
        <ele>236.8</ele>
        <time>2021-10-07T12:23:59Z</time>
      </trkpt>
      <trkpt lat="46.76542" lon="5.60573">
        <ele>236.9</ele>
        <time>2021-10-07T12:24:03Z</time>
      </trkpt>
      <trkpt lat="46.76538" lon="5.60578">
        <ele>236.9</ele>
        <time>2021-10-07T12:24:07Z</time>
      </trkpt>
      <trkpt lat="46.76534" lon="5.60583">
        <ele>236.9</ele>
        <time>2021-10-07T12:24:11Z</time>
      </trkpt>
      <trkpt lat="46.76531" lon="5.60588">
        <ele>236.8</ele>
        <time>2021-10-07T12:24:16Z</time>
      </trkpt>
      <trkpt lat="46.76528" lon="5.60593">
        <ele>236.8</ele>
        <time>2021-10-07T12:24:21Z</time>
      </trkpt>
      <trkpt lat="46.76524" lon="5.60599">
        <ele>236.7</ele>
        <time>2021-10-07T12:24:26Z</time>
      </trkpt>
      <trkpt lat="46.76522" lon="5.60604">
        <ele>236.5</ele>
        <time>2021-10-07T12:24:31Z</time>
      </trkpt>
      <trkpt lat="46.76519" lon="5.6061">
        <ele>236.2</ele>
        <time>2021-10-07T12:24:37Z</time>
      </trkpt>
      <trkpt lat="46.76515" lon="5.60615">
        <ele>236</ele>
        <time>2021-10-07T12:24:42Z</time>
      </trkpt>
      <trkpt lat="46.76511" lon="5.6062">
        <ele>235.4</ele>
        <time>2021-10-07T12:24:47Z</time>
      </trkpt>
      <trkpt lat="46.76508" lon="5.60625">
        <ele>234.8</ele>
        <time>2021-10-07T12:24:51Z</time>
      </trkpt>
      <trkpt lat="46.76506" lon="5.60632">
        <ele>234.2</ele>
        <time>2021-10-07T12:24:56Z</time>
      </trkpt>
      <trkpt lat="46.76502" lon="5.60638">
        <ele>233.9</ele>
        <time>2021-10-07T12:25:01Z</time>
      </trkpt>
      <trkpt lat="46.76499" lon="5.60644">
        <ele>233.7</ele>
        <time>2021-10-07T12:25:06Z</time>
      </trkpt>
      <trkpt lat="46.76496" lon="5.60649">
        <ele>233.4</ele>
        <time>2021-10-07T12:25:11Z</time>
      </trkpt>
      <trkpt lat="46.76492" lon="5.60654">
        <ele>233.2</ele>
        <time>2021-10-07T12:25:16Z</time>
      </trkpt>
      <trkpt lat="46.76489" lon="5.60659">
        <ele>233.1</ele>
        <time>2021-10-07T12:25:21Z</time>
      </trkpt>
      <trkpt lat="46.76485" lon="5.60664">
        <ele>232.9</ele>
        <time>2021-10-07T12:25:26Z</time>
      </trkpt>
      <trkpt lat="46.7648" lon="5.60668">
        <ele>232.9</ele>
        <time>2021-10-07T12:25:30Z</time>
      </trkpt>
      <trkpt lat="46.76475" lon="5.60673">
        <ele>232.8</ele>
        <time>2021-10-07T12:25:35Z</time>
      </trkpt>
      <trkpt lat="46.76472" lon="5.60677">
        <ele>232.5</ele>
        <time>2021-10-07T12:25:40Z</time>
      </trkpt>
      <trkpt lat="46.76469" lon="5.60683">
        <ele>232.4</ele>
        <time>2021-10-07T12:25:46Z</time>
      </trkpt>
      <trkpt lat="46.76465" lon="5.60688">
        <ele>232.2</ele>
        <time>2021-10-07T12:25:51Z</time>
      </trkpt>
      <trkpt lat="46.76462" lon="5.60693">
        <ele>232</ele>
        <time>2021-10-07T12:25:55Z</time>
      </trkpt>
      <trkpt lat="46.76459" lon="5.60699">
        <ele>231.6</ele>
        <time>2021-10-07T12:26:00Z</time>
      </trkpt>
      <trkpt lat="46.76456" lon="5.60705">
        <ele>230.7</ele>
        <time>2021-10-07T12:26:06Z</time>
      </trkpt>
      <trkpt lat="46.76452" lon="5.6071">
        <ele>229.9</ele>
        <time>2021-10-07T12:26:11Z</time>
      </trkpt>
      <trkpt lat="46.76448" lon="5.60716">
        <ele>229.4</ele>
        <time>2021-10-07T12:26:16Z</time>
      </trkpt>
      <trkpt lat="46.76445" lon="5.60722">
        <ele>228.7</ele>
        <time>2021-10-07T12:26:21Z</time>
      </trkpt>
      <trkpt lat="46.76441" lon="5.60726">
        <ele>228.3</ele>
        <time>2021-10-07T12:26:26Z</time>
      </trkpt>
      <trkpt lat="46.76437" lon="5.6073">
        <ele>227.9</ele>
        <time>2021-10-07T12:26:31Z</time>
      </trkpt>
      <trkpt lat="46.76433" lon="5.60735">
        <ele>227.7</ele>
        <time>2021-10-07T12:26:36Z</time>
      </trkpt>
      <trkpt lat="46.76428" lon="5.60739">
        <ele>227.5</ele>
        <time>2021-10-07T12:26:42Z</time>
      </trkpt>
      <trkpt lat="46.76423" lon="5.60743">
        <ele>227.7</ele>
        <time>2021-10-07T12:26:46Z</time>
      </trkpt>
      <trkpt lat="46.76419" lon="5.60747">
        <ele>227.9</ele>
        <time>2021-10-07T12:26:49Z</time>
      </trkpt>
      <trkpt lat="46.76414" lon="5.60749">
        <ele>227.8</ele>
        <time>2021-10-07T12:26:54Z</time>
      </trkpt>
      <trkpt lat="46.76409" lon="5.60753">
        <ele>227.4</ele>
        <time>2021-10-07T12:26:59Z</time>
      </trkpt>
      <trkpt lat="46.76405" lon="5.60757">
        <ele>227.1</ele>
        <time>2021-10-07T12:27:03Z</time>
      </trkpt>
      <trkpt lat="46.76401" lon="5.60761">
        <ele>226.6</ele>
        <time>2021-10-07T12:27:07Z</time>
      </trkpt>
      <trkpt lat="46.76397" lon="5.60766">
        <ele>226.2</ele>
        <time>2021-10-07T12:27:12Z</time>
      </trkpt>
      <trkpt lat="46.76394" lon="5.6077">
        <ele>225.9</ele>
        <time>2021-10-07T12:27:17Z</time>
      </trkpt>
      <trkpt lat="46.76391" lon="5.60776">
        <ele>225.5</ele>
        <time>2021-10-07T12:27:23Z</time>
      </trkpt>
      <trkpt lat="46.76387" lon="5.6078">
        <ele>225.4</ele>
        <time>2021-10-07T12:27:28Z</time>
      </trkpt>
      <trkpt lat="46.76383" lon="5.60785">
        <ele>224.9</ele>
        <time>2021-10-07T12:27:33Z</time>
      </trkpt>
      <trkpt lat="46.76379" lon="5.60789">
        <ele>224.3</ele>
        <time>2021-10-07T12:27:39Z</time>
      </trkpt>
      <trkpt lat="46.76375" lon="5.60792">
        <ele>224</ele>
        <time>2021-10-07T12:27:43Z</time>
      </trkpt>
      <trkpt lat="46.7637" lon="5.60795">
        <ele>223.4</ele>
        <time>2021-10-07T12:27:48Z</time>
      </trkpt>
      <trkpt lat="46.76366" lon="5.60799">
        <ele>223</ele>
        <time>2021-10-07T12:27:52Z</time>
      </trkpt>
      <trkpt lat="46.76362" lon="5.60802">
        <ele>222.9</ele>
        <time>2021-10-07T12:27:55Z</time>
      </trkpt>
      <trkpt lat="46.76358" lon="5.60805">
        <ele>222.9</ele>
        <time>2021-10-07T12:27:58Z</time>
      </trkpt>
      <trkpt lat="46.76353" lon="5.60808">
        <ele>223.1</ele>
        <time>2021-10-07T12:28:02Z</time>
      </trkpt>
      <trkpt lat="46.76349" lon="5.60812">
        <ele>223.2</ele>
        <time>2021-10-07T12:28:07Z</time>
      </trkpt>
      <trkpt lat="46.76345" lon="5.60817">
        <ele>223.4</ele>
        <time>2021-10-07T12:28:12Z</time>
      </trkpt>
      <trkpt lat="46.76342" lon="5.60823">
        <ele>223.7</ele>
        <time>2021-10-07T12:28:16Z</time>
      </trkpt>
      <trkpt lat="46.76338" lon="5.60829">
        <ele>223.9</ele>
        <time>2021-10-07T12:28:21Z</time>
      </trkpt>
      <trkpt lat="46.76335" lon="5.60835">
        <ele>224.1</ele>
        <time>2021-10-07T12:28:26Z</time>
      </trkpt>
      <trkpt lat="46.76333" lon="5.60841">
        <ele>224</ele>
        <time>2021-10-07T12:28:31Z</time>
      </trkpt>
      <trkpt lat="46.76329" lon="5.60846">
        <ele>223.7</ele>
        <time>2021-10-07T12:28:36Z</time>
      </trkpt>
      <trkpt lat="46.76326" lon="5.60852">
        <ele>223.3</ele>
        <time>2021-10-07T12:28:41Z</time>
      </trkpt>
      <trkpt lat="46.76323" lon="5.60857">
        <ele>223</ele>
        <time>2021-10-07T12:28:45Z</time>
      </trkpt>
      <trkpt lat="46.76319" lon="5.60864">
        <ele>222.7</ele>
        <time>2021-10-07T12:28:49Z</time>
      </trkpt>
      <trkpt lat="46.76315" lon="5.6087">
        <ele>222.7</ele>
        <time>2021-10-07T12:28:53Z</time>
      </trkpt>
      <trkpt lat="46.76313" lon="5.60876">
        <ele>222.8</ele>
        <time>2021-10-07T12:28:56Z</time>
      </trkpt>
      <trkpt lat="46.76309" lon="5.60881">
        <ele>223</ele>
        <time>2021-10-07T12:29:00Z</time>
      </trkpt>
      <trkpt lat="46.76306" lon="5.60886">
        <ele>223.2</ele>
        <time>2021-10-07T12:29:05Z</time>
      </trkpt>
      <trkpt lat="46.76304" lon="5.60892">
        <ele>223.1</ele>
        <time>2021-10-07T12:29:10Z</time>
      </trkpt>
      <trkpt lat="46.763" lon="5.60896">
        <ele>222.8</ele>
        <time>2021-10-07T12:29:15Z</time>
      </trkpt>
      <trkpt lat="46.76296" lon="5.60902">
        <ele>222.4</ele>
        <time>2021-10-07T12:29:20Z</time>
      </trkpt>
      <trkpt lat="46.76294" lon="5.60908">
        <ele>222.2</ele>
        <time>2021-10-07T12:29:25Z</time>
      </trkpt>
      <trkpt lat="46.76292" lon="5.60914">
        <ele>222.3</ele>
        <time>2021-10-07T12:29:30Z</time>
      </trkpt>
      <trkpt lat="46.76288" lon="5.6092">
        <ele>222.3</ele>
        <time>2021-10-07T12:29:37Z</time>
      </trkpt>
      <trkpt lat="46.76285" lon="5.60925">
        <ele>221.9</ele>
        <time>2021-10-07T12:29:42Z</time>
      </trkpt>
      <trkpt lat="46.76281" lon="5.6093">
        <ele>221.3</ele>
        <time>2021-10-07T12:29:48Z</time>
      </trkpt>
      <trkpt lat="46.76277" lon="5.60935">
        <ele>221.2</ele>
        <time>2021-10-07T12:29:52Z</time>
      </trkpt>
      <trkpt lat="46.76274" lon="5.60941">
        <ele>221.5</ele>
        <time>2021-10-07T12:29:56Z</time>
      </trkpt>
      <trkpt lat="46.7627" lon="5.60947">
        <ele>222</ele>
        <time>2021-10-07T12:30:01Z</time>
      </trkpt>
      <trkpt lat="46.76267" lon="5.60953">
        <ele>222.3</ele>
        <time>2021-10-07T12:30:05Z</time>
      </trkpt>
      <trkpt lat="46.76264" lon="5.60959">
        <ele>222.1</ele>
        <time>2021-10-07T12:30:11Z</time>
      </trkpt>
      <trkpt lat="46.76261" lon="5.60965">
        <ele>222.1</ele>
        <time>2021-10-07T12:30:15Z</time>
      </trkpt>
      <trkpt lat="46.76257" lon="5.60972">
        <ele>222</ele>
        <time>2021-10-07T12:30:19Z</time>
      </trkpt>
      <trkpt lat="46.76254" lon="5.60977">
        <ele>221.7</ele>
        <time>2021-10-07T12:30:23Z</time>
      </trkpt>
      <trkpt lat="46.76252" lon="5.60983">
        <ele>221.5</ele>
        <time>2021-10-07T12:30:27Z</time>
      </trkpt>
      <trkpt lat="46.76247" lon="5.60988">
        <ele>221.8</ele>
        <time>2021-10-07T12:30:31Z</time>
      </trkpt>
      <trkpt lat="46.76242" lon="5.60992">
        <ele>222.6</ele>
        <time>2021-10-07T12:30:34Z</time>
      </trkpt>
      <trkpt lat="46.76238" lon="5.60995">
        <ele>223.6</ele>
        <time>2021-10-07T12:30:37Z</time>
      </trkpt>
      <trkpt lat="46.76234" lon="5.61001">
        <ele>224.9</ele>
        <time>2021-10-07T12:30:41Z</time>
      </trkpt>
      <trkpt lat="46.7623" lon="5.61005">
        <ele>226.4</ele>
        <time>2021-10-07T12:30:45Z</time>
      </trkpt>
      <trkpt lat="46.76227" lon="5.61011">
        <ele>229</ele>
        <time>2021-10-07T12:30:54Z</time>
      </trkpt>
      <trkpt lat="46.76223" lon="5.61013">
        <ele>230.5</ele>
        <time>2021-10-07T12:30:59Z</time>
      </trkpt>
      <trkpt lat="46.76218" lon="5.61016">
        <ele>231.6</ele>
        <time>2021-10-07T12:31:04Z</time>
      </trkpt>
      <trkpt lat="46.76212" lon="5.61018">
        <ele>232</ele>
        <time>2021-10-07T12:31:09Z</time>
      </trkpt>
      <trkpt lat="46.76207" lon="5.61019">
        <ele>232.2</ele>
        <time>2021-10-07T12:31:14Z</time>
      </trkpt>
      <trkpt lat="46.76202" lon="5.61021">
        <ele>232.5</ele>
        <time>2021-10-07T12:31:20Z</time>
      </trkpt>
      <trkpt lat="46.76197" lon="5.61022">
        <ele>233</ele>
        <time>2021-10-07T12:31:26Z</time>
      </trkpt>
      <trkpt lat="46.76193" lon="5.61024">
        <ele>233</ele>
        <time>2021-10-07T12:31:31Z</time>
      </trkpt>
      <trkpt lat="46.76189" lon="5.61027">
        <ele>233</ele>
        <time>2021-10-07T12:31:35Z</time>
      </trkpt>
      <trkpt lat="46.76184" lon="5.61029">
        <ele>233.1</ele>
        <time>2021-10-07T12:31:38Z</time>
      </trkpt>
      <trkpt lat="46.7618" lon="5.61032">
        <ele>233.5</ele>
        <time>2021-10-07T12:31:42Z</time>
      </trkpt>
      <trkpt lat="46.7618" lon="5.61042">
        <ele>235.4</ele>
        <time>2021-10-07T12:32:02Z</time>
      </trkpt>
      <trkpt lat="46.76177" lon="5.61048">
        <ele>236.8</ele>
        <time>2021-10-07T12:32:06Z</time>
      </trkpt>
      <trkpt lat="46.76173" lon="5.61052">
        <ele>237.8</ele>
        <time>2021-10-07T12:32:10Z</time>
      </trkpt>
      <trkpt lat="46.76169" lon="5.61055">
        <ele>238.9</ele>
        <time>2021-10-07T12:32:16Z</time>
      </trkpt>
      <trkpt lat="46.76165" lon="5.6106">
        <ele>240</ele>
        <time>2021-10-07T12:32:23Z</time>
      </trkpt>
      <trkpt lat="46.76161" lon="5.61063">
        <ele>240.8</ele>
        <time>2021-10-07T12:32:28Z</time>
      </trkpt>
      <trkpt lat="46.76157" lon="5.61068">
        <ele>241.5</ele>
        <time>2021-10-07T12:32:35Z</time>
      </trkpt>
      <trkpt lat="46.76153" lon="5.61072">
        <ele>241</ele>
        <time>2021-10-07T12:32:41Z</time>
      </trkpt>
      <trkpt lat="46.76149" lon="5.61076">
        <ele>239.7</ele>
        <time>2021-10-07T12:32:46Z</time>
      </trkpt>
      <trkpt lat="46.76145" lon="5.6108">
        <ele>238.4</ele>
        <time>2021-10-07T12:32:51Z</time>
      </trkpt>
      <trkpt lat="46.76141" lon="5.61085">
        <ele>237.5</ele>
        <time>2021-10-07T12:32:56Z</time>
      </trkpt>
      <trkpt lat="46.76137" lon="5.61089">
        <ele>237.2</ele>
        <time>2021-10-07T12:33:02Z</time>
      </trkpt>
      <trkpt lat="46.76134" lon="5.61094">
        <ele>237</ele>
        <time>2021-10-07T12:33:08Z</time>
      </trkpt>
      <trkpt lat="46.7613" lon="5.61098">
        <ele>237.8</ele>
        <time>2021-10-07T12:33:15Z</time>
      </trkpt>
      <trkpt lat="46.76127" lon="5.61104">
        <ele>238.9</ele>
        <time>2021-10-07T12:33:21Z</time>
      </trkpt>
      <trkpt lat="46.76124" lon="5.6111">
        <ele>239.9</ele>
        <time>2021-10-07T12:33:27Z</time>
      </trkpt>
      <trkpt lat="46.76119" lon="5.61114">
        <ele>240.6</ele>
        <time>2021-10-07T12:33:32Z</time>
      </trkpt>
      <trkpt lat="46.76116" lon="5.61119">
        <ele>241.2</ele>
        <time>2021-10-07T12:33:37Z</time>
      </trkpt>
      <trkpt lat="46.76112" lon="5.61124">
        <ele>241.3</ele>
        <time>2021-10-07T12:33:42Z</time>
      </trkpt>
      <trkpt lat="46.7611" lon="5.6113">
        <ele>240.9</ele>
        <time>2021-10-07T12:33:46Z</time>
      </trkpt>
      <trkpt lat="46.76106" lon="5.61135">
        <ele>240.3</ele>
        <time>2021-10-07T12:33:51Z</time>
      </trkpt>
      <trkpt lat="46.76102" lon="5.61138">
        <ele>239.9</ele>
        <time>2021-10-07T12:33:55Z</time>
      </trkpt>
      <trkpt lat="46.76098" lon="5.61141">
        <ele>239.7</ele>
        <time>2021-10-07T12:33:59Z</time>
      </trkpt>
      <trkpt lat="46.76095" lon="5.61147">
        <ele>239.7</ele>
        <time>2021-10-07T12:34:06Z</time>
      </trkpt>
      <trkpt lat="46.76093" lon="5.61153">
        <ele>240</ele>
        <time>2021-10-07T12:34:12Z</time>
      </trkpt>
      <trkpt lat="46.76092" lon="5.6116">
        <ele>240</ele>
        <time>2021-10-07T12:34:17Z</time>
      </trkpt>
      <trkpt lat="46.76087" lon="5.61166">
        <ele>239.5</ele>
        <time>2021-10-07T12:34:22Z</time>
      </trkpt>
      <trkpt lat="46.76083" lon="5.61169">
        <ele>239.2</ele>
        <time>2021-10-07T12:34:25Z</time>
      </trkpt>
      <trkpt lat="46.76079" lon="5.61173">
        <ele>238.9</ele>
        <time>2021-10-07T12:34:29Z</time>
      </trkpt>
      <trkpt lat="46.76075" lon="5.61179">
        <ele>238.6</ele>
        <time>2021-10-07T12:34:34Z</time>
      </trkpt>
      <trkpt lat="46.76073" lon="5.61186">
        <ele>238.4</ele>
        <time>2021-10-07T12:34:39Z</time>
      </trkpt>
      <trkpt lat="46.7607" lon="5.61193">
        <ele>238.4</ele>
        <time>2021-10-07T12:34:45Z</time>
      </trkpt>
      <trkpt lat="46.76068" lon="5.612">
        <ele>238.3</ele>
        <time>2021-10-07T12:34:50Z</time>
      </trkpt>
      <trkpt lat="46.76066" lon="5.61207">
        <ele>238.7</ele>
        <time>2021-10-07T12:34:54Z</time>
      </trkpt>
      <trkpt lat="46.76065" lon="5.61214">
        <ele>239.1</ele>
        <time>2021-10-07T12:34:58Z</time>
      </trkpt>
      <trkpt lat="46.76062" lon="5.6122">
        <ele>239.7</ele>
        <time>2021-10-07T12:35:02Z</time>
      </trkpt>
      <trkpt lat="46.76059" lon="5.61226">
        <ele>240.6</ele>
        <time>2021-10-07T12:35:07Z</time>
      </trkpt>
      <trkpt lat="46.76055" lon="5.6123">
        <ele>241.1</ele>
        <time>2021-10-07T12:35:11Z</time>
      </trkpt>
      <trkpt lat="46.76051" lon="5.61234">
        <ele>241.6</ele>
        <time>2021-10-07T12:35:15Z</time>
      </trkpt>
      <trkpt lat="46.76048" lon="5.61239">
        <ele>242.5</ele>
        <time>2021-10-07T12:35:20Z</time>
      </trkpt>
      <trkpt lat="46.76043" lon="5.61243">
        <ele>243.2</ele>
        <time>2021-10-07T12:35:25Z</time>
      </trkpt>
      <trkpt lat="46.76039" lon="5.61246">
        <ele>243.9</ele>
        <time>2021-10-07T12:35:30Z</time>
      </trkpt>
      <trkpt lat="46.76034" lon="5.6125">
        <ele>244.7</ele>
        <time>2021-10-07T12:35:35Z</time>
      </trkpt>
      <trkpt lat="46.7603" lon="5.61254">
        <ele>245.2</ele>
        <time>2021-10-07T12:35:40Z</time>
      </trkpt>
      <trkpt lat="46.76027" lon="5.61259">
        <ele>245.6</ele>
        <time>2021-10-07T12:35:45Z</time>
      </trkpt>
      <trkpt lat="46.76023" lon="5.61263">
        <ele>246.1</ele>
        <time>2021-10-07T12:35:50Z</time>
      </trkpt>
      <trkpt lat="46.76019" lon="5.61266">
        <ele>246.4</ele>
        <time>2021-10-07T12:35:56Z</time>
      </trkpt>
      <trkpt lat="46.76015" lon="5.6127">
        <ele>246.4</ele>
        <time>2021-10-07T12:36:04Z</time>
      </trkpt>
      <trkpt lat="46.76011" lon="5.61274">
        <ele>246.9</ele>
        <time>2021-10-07T12:36:10Z</time>
      </trkpt>
      <trkpt lat="46.76009" lon="5.6128">
        <ele>247.6</ele>
        <time>2021-10-07T12:36:15Z</time>
      </trkpt>
      <trkpt lat="46.76005" lon="5.61286">
        <ele>248.4</ele>
        <time>2021-10-07T12:36:21Z</time>
      </trkpt>
      <trkpt lat="46.76002" lon="5.61292">
        <ele>248.5</ele>
        <time>2021-10-07T12:36:26Z</time>
      </trkpt>
      <trkpt lat="46.76" lon="5.61298">
        <ele>249.2</ele>
        <time>2021-10-07T12:36:32Z</time>
      </trkpt>
      <trkpt lat="46.75998" lon="5.61305">
        <ele>249.8</ele>
        <time>2021-10-07T12:36:37Z</time>
      </trkpt>
      <trkpt lat="46.75997" lon="5.61312">
        <ele>250.1</ele>
        <time>2021-10-07T12:36:41Z</time>
      </trkpt>
      <trkpt lat="46.75995" lon="5.61318">
        <ele>250.4</ele>
        <time>2021-10-07T12:36:46Z</time>
      </trkpt>
      <trkpt lat="46.75993" lon="5.61325">
        <ele>251.2</ele>
        <time>2021-10-07T12:36:52Z</time>
      </trkpt>
      <trkpt lat="46.75991" lon="5.61332">
        <ele>252.3</ele>
        <time>2021-10-07T12:36:58Z</time>
      </trkpt>
      <trkpt lat="46.7599" lon="5.6134">
        <ele>252.9</ele>
        <time>2021-10-07T12:37:03Z</time>
      </trkpt>
      <trkpt lat="46.75988" lon="5.61348">
        <ele>252.9</ele>
        <time>2021-10-07T12:37:08Z</time>
      </trkpt>
      <trkpt lat="46.75988" lon="5.61355">
        <ele>253.2</ele>
        <time>2021-10-07T12:37:12Z</time>
      </trkpt>
      <trkpt lat="46.75988" lon="5.61361">
        <ele>253.7</ele>
        <time>2021-10-07T12:37:17Z</time>
      </trkpt>
      <trkpt lat="46.75987" lon="5.6137">
        <ele>254.3</ele>
        <time>2021-10-07T12:37:22Z</time>
      </trkpt>
      <trkpt lat="46.75985" lon="5.61376">
        <ele>255.1</ele>
        <time>2021-10-07T12:37:26Z</time>
      </trkpt>
      <trkpt lat="46.75984" lon="5.61383">
        <ele>255.6</ele>
        <time>2021-10-07T12:37:30Z</time>
      </trkpt>
      <trkpt lat="46.75984" lon="5.6139">
        <ele>255.9</ele>
        <time>2021-10-07T12:37:35Z</time>
      </trkpt>
      <trkpt lat="46.75983" lon="5.61397">
        <ele>255.8</ele>
        <time>2021-10-07T12:37:40Z</time>
      </trkpt>
      <trkpt lat="46.75981" lon="5.61405">
        <ele>255.6</ele>
        <time>2021-10-07T12:37:45Z</time>
      </trkpt>
      <trkpt lat="46.75981" lon="5.61412">
        <ele>255.6</ele>
        <time>2021-10-07T12:37:50Z</time>
      </trkpt>
      <trkpt lat="46.7598" lon="5.6142">
        <ele>255.9</ele>
        <time>2021-10-07T12:37:55Z</time>
      </trkpt>
      <trkpt lat="46.75981" lon="5.61426">
        <ele>256.2</ele>
        <time>2021-10-07T12:37:59Z</time>
      </trkpt>
      <trkpt lat="46.75982" lon="5.61433">
        <ele>256</ele>
        <time>2021-10-07T12:38:04Z</time>
      </trkpt>
      <trkpt lat="46.75984" lon="5.61441">
        <ele>255.8</ele>
        <time>2021-10-07T12:38:09Z</time>
      </trkpt>
      <trkpt lat="46.75985" lon="5.61449">
        <ele>256.2</ele>
        <time>2021-10-07T12:38:14Z</time>
      </trkpt>
      <trkpt lat="46.75987" lon="5.61457">
        <ele>256.7</ele>
        <time>2021-10-07T12:38:19Z</time>
      </trkpt>
      <trkpt lat="46.75986" lon="5.61464">
        <ele>256.8</ele>
        <time>2021-10-07T12:38:25Z</time>
      </trkpt>
      <trkpt lat="46.75982" lon="5.61469">
        <ele>257.2</ele>
        <time>2021-10-07T12:38:30Z</time>
      </trkpt>
      <trkpt lat="46.75977" lon="5.61471">
        <ele>257.6</ele>
        <time>2021-10-07T12:38:36Z</time>
      </trkpt>
      <trkpt lat="46.75973" lon="5.61473">
        <ele>257.2</ele>
        <time>2021-10-07T12:38:41Z</time>
      </trkpt>
      <trkpt lat="46.75967" lon="5.61474">
        <ele>256.1</ele>
        <time>2021-10-07T12:38:46Z</time>
      </trkpt>
      <trkpt lat="46.75962" lon="5.61475">
        <ele>255.2</ele>
        <time>2021-10-07T12:38:50Z</time>
      </trkpt>
      <trkpt lat="46.75957" lon="5.61476">
        <ele>254.5</ele>
        <time>2021-10-07T12:38:54Z</time>
      </trkpt>
      <trkpt lat="46.75952" lon="5.61478">
        <ele>253.7</ele>
        <time>2021-10-07T12:38:59Z</time>
      </trkpt>
      <trkpt lat="46.75947" lon="5.6148">
        <ele>253.6</ele>
        <time>2021-10-07T12:39:04Z</time>
      </trkpt>
      <trkpt lat="46.75942" lon="5.6148">
        <ele>253.9</ele>
        <time>2021-10-07T12:39:08Z</time>
      </trkpt>
      <trkpt lat="46.75937" lon="5.61481">
        <ele>254.4</ele>
        <time>2021-10-07T12:39:12Z</time>
      </trkpt>
      <trkpt lat="46.75932" lon="5.61483">
        <ele>255.1</ele>
        <time>2021-10-07T12:39:17Z</time>
      </trkpt>
      <trkpt lat="46.75927" lon="5.61484">
        <ele>255.9</ele>
        <time>2021-10-07T12:39:22Z</time>
      </trkpt>
      <trkpt lat="46.75922" lon="5.61482">
        <ele>256.6</ele>
        <time>2021-10-07T12:39:28Z</time>
      </trkpt>
      <trkpt lat="46.75917" lon="5.61486">
        <ele>256.7</ele>
        <time>2021-10-07T12:39:33Z</time>
      </trkpt>
      <trkpt lat="46.75913" lon="5.61491">
        <ele>257</ele>
        <time>2021-10-07T12:39:37Z</time>
      </trkpt>
      <trkpt lat="46.75909" lon="5.61496">
        <ele>257.3</ele>
        <time>2021-10-07T12:39:41Z</time>
      </trkpt>
      <trkpt lat="46.75905" lon="5.61502">
        <ele>257</ele>
        <time>2021-10-07T12:39:47Z</time>
      </trkpt>
      <trkpt lat="46.759" lon="5.61505">
        <ele>257.5</ele>
        <time>2021-10-07T12:39:52Z</time>
      </trkpt>
      <trkpt lat="46.75896" lon="5.61508">
        <ele>257.5</ele>
        <time>2021-10-07T12:39:56Z</time>
      </trkpt>
      <trkpt lat="46.75893" lon="5.61513">
        <ele>256.8</ele>
        <time>2021-10-07T12:40:02Z</time>
      </trkpt>
      <trkpt lat="46.75888" lon="5.61517">
        <ele>256</ele>
        <time>2021-10-07T12:40:09Z</time>
      </trkpt>
      <trkpt lat="46.75885" lon="5.61521">
        <ele>255.5</ele>
        <time>2021-10-07T12:40:14Z</time>
      </trkpt>
      <trkpt lat="46.7588" lon="5.61524">
        <ele>254.6</ele>
        <time>2021-10-07T12:40:19Z</time>
      </trkpt>
      <trkpt lat="46.75875" lon="5.61527">
        <ele>254.4</ele>
        <time>2021-10-07T12:40:24Z</time>
      </trkpt>
      <trkpt lat="46.75871" lon="5.61531">
        <ele>254.1</ele>
        <time>2021-10-07T12:40:29Z</time>
      </trkpt>
      <trkpt lat="46.75867" lon="5.61534">
        <ele>253.4</ele>
        <time>2021-10-07T12:40:34Z</time>
      </trkpt>
      <trkpt lat="46.75862" lon="5.61536">
        <ele>252.6</ele>
        <time>2021-10-07T12:40:39Z</time>
      </trkpt>
      <trkpt lat="46.75858" lon="5.61539">
        <ele>252.3</ele>
        <time>2021-10-07T12:40:43Z</time>
      </trkpt>
      <trkpt lat="46.75853" lon="5.61542">
        <ele>252.4</ele>
        <time>2021-10-07T12:40:48Z</time>
      </trkpt>
      <trkpt lat="46.75848" lon="5.61544">
        <ele>253.2</ele>
        <time>2021-10-07T12:40:52Z</time>
      </trkpt>
      <trkpt lat="46.75843" lon="5.61548">
        <ele>254.6</ele>
        <time>2021-10-07T12:40:56Z</time>
      </trkpt>
      <trkpt lat="46.75839" lon="5.61551">
        <ele>256.2</ele>
        <time>2021-10-07T12:41:00Z</time>
      </trkpt>
      <trkpt lat="46.75834" lon="5.61553">
        <ele>257.4</ele>
        <time>2021-10-07T12:41:04Z</time>
      </trkpt>
      <trkpt lat="46.75829" lon="5.61556">
        <ele>258</ele>
        <time>2021-10-07T12:41:08Z</time>
      </trkpt>
      <trkpt lat="46.75824" lon="5.61559">
        <ele>258.2</ele>
        <time>2021-10-07T12:41:14Z</time>
      </trkpt>
      <trkpt lat="46.7582" lon="5.6156">
        <ele>258.1</ele>
        <time>2021-10-07T12:41:18Z</time>
      </trkpt>
      <trkpt lat="46.75814" lon="5.61562">
        <ele>257.9</ele>
        <time>2021-10-07T12:41:22Z</time>
      </trkpt>
      <trkpt lat="46.7581" lon="5.61565">
        <ele>258.1</ele>
        <time>2021-10-07T12:41:26Z</time>
      </trkpt>
      <trkpt lat="46.75806" lon="5.61566">
        <ele>259.5</ele>
        <time>2021-10-07T12:41:31Z</time>
      </trkpt>
      <trkpt lat="46.75801" lon="5.61564">
        <ele>259.9</ele>
        <time>2021-10-07T12:41:36Z</time>
      </trkpt>
      <trkpt lat="46.75796" lon="5.61559">
        <ele>259.8</ele>
        <time>2021-10-07T12:41:41Z</time>
      </trkpt>
      <trkpt lat="46.75792" lon="5.61554">
        <ele>259.2</ele>
        <time>2021-10-07T12:41:46Z</time>
      </trkpt>
      <trkpt lat="46.75788" lon="5.61551">
        <ele>258.1</ele>
        <time>2021-10-07T12:41:54Z</time>
      </trkpt>
      <trkpt lat="46.75783" lon="5.61549">
        <ele>257.6</ele>
        <time>2021-10-07T12:41:59Z</time>
      </trkpt>
      <trkpt lat="46.75779" lon="5.61545">
        <ele>256.2</ele>
        <time>2021-10-07T12:42:04Z</time>
      </trkpt>
      <trkpt lat="46.75777" lon="5.61539">
        <ele>255.1</ele>
        <time>2021-10-07T12:42:09Z</time>
      </trkpt>
      <trkpt lat="46.75774" lon="5.61532">
        <ele>254.7</ele>
        <time>2021-10-07T12:42:15Z</time>
      </trkpt>
      <trkpt lat="46.75773" lon="5.61525">
        <ele>254.3</ele>
        <time>2021-10-07T12:42:21Z</time>
      </trkpt>
      <trkpt lat="46.7577" lon="5.61519">
        <ele>253.8</ele>
        <time>2021-10-07T12:42:26Z</time>
      </trkpt>
      <trkpt lat="46.75766" lon="5.61514">
        <ele>252.9</ele>
        <time>2021-10-07T12:42:31Z</time>
      </trkpt>
      <trkpt lat="46.75763" lon="5.61509">
        <ele>251.9</ele>
        <time>2021-10-07T12:42:36Z</time>
      </trkpt>
      <trkpt lat="46.7576" lon="5.61503">
        <ele>250.7</ele>
        <time>2021-10-07T12:42:41Z</time>
      </trkpt>
      <trkpt lat="46.75757" lon="5.61498">
        <ele>249.8</ele>
        <time>2021-10-07T12:42:48Z</time>
      </trkpt>
      <trkpt lat="46.75752" lon="5.61494">
        <ele>249.5</ele>
        <time>2021-10-07T12:42:54Z</time>
      </trkpt>
      <trkpt lat="46.75749" lon="5.6149">
        <ele>249.6</ele>
        <time>2021-10-07T12:42:59Z</time>
      </trkpt>
      <trkpt lat="46.75747" lon="5.61483">
        <ele>249.6</ele>
        <time>2021-10-07T12:43:04Z</time>
      </trkpt>
      <trkpt lat="46.75744" lon="5.61478">
        <ele>249.5</ele>
        <time>2021-10-07T12:43:08Z</time>
      </trkpt>
      <trkpt lat="46.75741" lon="5.61473">
        <ele>249.2</ele>
        <time>2021-10-07T12:43:12Z</time>
      </trkpt>
      <trkpt lat="46.75738" lon="5.61467">
        <ele>248.7</ele>
        <time>2021-10-07T12:43:16Z</time>
      </trkpt>
      <trkpt lat="46.75734" lon="5.61461">
        <ele>248.1</ele>
        <time>2021-10-07T12:43:21Z</time>
      </trkpt>
      <trkpt lat="46.75732" lon="5.61455">
        <ele>248.2</ele>
        <time>2021-10-07T12:43:26Z</time>
      </trkpt>
      <trkpt lat="46.7573" lon="5.61448">
        <ele>248.5</ele>
        <time>2021-10-07T12:43:32Z</time>
      </trkpt>
      <trkpt lat="46.75727" lon="5.61441">
        <ele>249</ele>
        <time>2021-10-07T12:43:38Z</time>
      </trkpt>
      <trkpt lat="46.75726" lon="5.61435">
        <ele>249.4</ele>
        <time>2021-10-07T12:43:44Z</time>
      </trkpt>
      <trkpt lat="46.75721" lon="5.61434">
        <ele>249.9</ele>
        <time>2021-10-07T12:43:50Z</time>
      </trkpt>
      <trkpt lat="46.75716" lon="5.6143">
        <ele>250.7</ele>
        <time>2021-10-07T12:43:55Z</time>
      </trkpt>
      <trkpt lat="46.75714" lon="5.61423">
        <ele>251</ele>
        <time>2021-10-07T12:44:01Z</time>
      </trkpt>
      <trkpt lat="46.75712" lon="5.61416">
        <ele>251.1</ele>
        <time>2021-10-07T12:44:05Z</time>
      </trkpt>
      <trkpt lat="46.75709" lon="5.6141">
        <ele>250.8</ele>
        <time>2021-10-07T12:44:09Z</time>
      </trkpt>
      <trkpt lat="46.75705" lon="5.61406">
        <ele>250.4</ele>
        <time>2021-10-07T12:44:13Z</time>
      </trkpt>
      <trkpt lat="46.75702" lon="5.614">
        <ele>250</ele>
        <time>2021-10-07T12:44:18Z</time>
      </trkpt>
      <trkpt lat="46.75699" lon="5.61394">
        <ele>249.7</ele>
        <time>2021-10-07T12:44:22Z</time>
      </trkpt>
      <trkpt lat="46.75694" lon="5.61391">
        <ele>249.3</ele>
        <time>2021-10-07T12:44:27Z</time>
      </trkpt>
      <trkpt lat="46.75691" lon="5.61387">
        <ele>249</ele>
        <time>2021-10-07T12:44:34Z</time>
      </trkpt>
      <trkpt lat="46.75686" lon="5.61384">
        <ele>248.5</ele>
        <time>2021-10-07T12:44:39Z</time>
      </trkpt>
      <trkpt lat="46.75683" lon="5.61378">
        <ele>247.8</ele>
        <time>2021-10-07T12:44:44Z</time>
      </trkpt>
      <trkpt lat="46.75679" lon="5.61374">
        <ele>245.7</ele>
        <time>2021-10-07T12:44:52Z</time>
      </trkpt>
      <trkpt lat="46.75677" lon="5.61368">
        <ele>243.6</ele>
        <time>2021-10-07T12:45:02Z</time>
      </trkpt>
      <trkpt lat="46.75673" lon="5.61362">
        <ele>242.4</ele>
        <time>2021-10-07T12:45:07Z</time>
      </trkpt>
      <trkpt lat="46.75669" lon="5.61357">
        <ele>241.5</ele>
        <time>2021-10-07T12:45:11Z</time>
      </trkpt>
      <trkpt lat="46.75665" lon="5.61353">
        <ele>240.8</ele>
        <time>2021-10-07T12:45:15Z</time>
      </trkpt>
      <trkpt lat="46.75663" lon="5.61346">
        <ele>240.1</ele>
        <time>2021-10-07T12:45:20Z</time>
      </trkpt>
      <trkpt lat="46.7566" lon="5.6134">
        <ele>239.7</ele>
        <time>2021-10-07T12:45:24Z</time>
      </trkpt>
      <trkpt lat="46.75654" lon="5.61336">
        <ele>239.6</ele>
        <time>2021-10-07T12:45:27Z</time>
      </trkpt>
      <trkpt lat="46.75647" lon="5.61334">
        <ele>239.5</ele>
        <time>2021-10-07T12:45:30Z</time>
      </trkpt>
      <trkpt lat="46.75641" lon="5.61333">
        <ele>239.6</ele>
        <time>2021-10-07T12:45:42Z</time>
      </trkpt>
      <trkpt lat="46.75635" lon="5.61333">
        <ele>239.6</ele>
        <time>2021-10-07T12:45:45Z</time>
      </trkpt>
      <trkpt lat="46.75631" lon="5.61329">
        <ele>239.4</ele>
        <time>2021-10-07T12:45:49Z</time>
      </trkpt>
      <trkpt lat="46.75627" lon="5.61326">
        <ele>239.2</ele>
        <time>2021-10-07T12:45:53Z</time>
      </trkpt>
      <trkpt lat="46.75624" lon="5.6132">
        <ele>240.3</ele>
        <time>2021-10-07T12:46:00Z</time>
      </trkpt>
      <trkpt lat="46.75619" lon="5.61318">
        <ele>242.3</ele>
        <time>2021-10-07T12:46:05Z</time>
      </trkpt>
      <trkpt lat="46.75614" lon="5.61315">
        <ele>244.2</ele>
        <time>2021-10-07T12:46:11Z</time>
      </trkpt>
      <trkpt lat="46.7561" lon="5.61313">
        <ele>245.1</ele>
        <time>2021-10-07T12:46:14Z</time>
      </trkpt>
      <trkpt lat="46.75605" lon="5.61311">
        <ele>246.3</ele>
        <time>2021-10-07T12:46:18Z</time>
      </trkpt>
      <trkpt lat="46.756" lon="5.6131">
        <ele>247.5</ele>
        <time>2021-10-07T12:46:22Z</time>
      </trkpt>
      <trkpt lat="46.75595" lon="5.61309">
        <ele>248.1</ele>
        <time>2021-10-07T12:46:25Z</time>
      </trkpt>
      <trkpt lat="46.75591" lon="5.61308">
        <ele>248.4</ele>
        <time>2021-10-07T12:46:29Z</time>
      </trkpt>
      <trkpt lat="46.75585" lon="5.61308">
        <ele>248.2</ele>
        <time>2021-10-07T12:46:34Z</time>
      </trkpt>
      <trkpt lat="46.7558" lon="5.61307">
        <ele>247.9</ele>
        <time>2021-10-07T12:46:38Z</time>
      </trkpt>
      <trkpt lat="46.75575" lon="5.61305">
        <ele>248.3</ele>
        <time>2021-10-07T12:46:44Z</time>
      </trkpt>
      <trkpt lat="46.7557" lon="5.61306">
        <ele>250.8</ele>
        <time>2021-10-07T12:46:51Z</time>
      </trkpt>
      <trkpt lat="46.75565" lon="5.61306">
        <ele>251.6</ele>
        <time>2021-10-07T12:46:56Z</time>
      </trkpt>
      <trkpt lat="46.75561" lon="5.61304">
        <ele>251.6</ele>
        <time>2021-10-07T12:47:00Z</time>
      </trkpt>
      <trkpt lat="46.75556" lon="5.61302">
        <ele>251.8</ele>
        <time>2021-10-07T12:47:03Z</time>
      </trkpt>
      <trkpt lat="46.75551" lon="5.61299">
        <ele>252.3</ele>
        <time>2021-10-07T12:47:06Z</time>
      </trkpt>
      <trkpt lat="46.75546" lon="5.61296">
        <ele>252.9</ele>
        <time>2021-10-07T12:47:09Z</time>
      </trkpt>
      <trkpt lat="46.75542" lon="5.61293">
        <ele>253.4</ele>
        <time>2021-10-07T12:47:12Z</time>
      </trkpt>
      <trkpt lat="46.75537" lon="5.61289">
        <ele>254.7</ele>
        <time>2021-10-07T12:47:19Z</time>
      </trkpt>
      <trkpt lat="46.75534" lon="5.61285">
        <ele>253.7</ele>
        <time>2021-10-07T12:47:28Z</time>
      </trkpt>
      <trkpt lat="46.75529" lon="5.61284">
        <ele>253.4</ele>
        <time>2021-10-07T12:47:31Z</time>
      </trkpt>
      <trkpt lat="46.75522" lon="5.61279">
        <ele>253.2</ele>
        <time>2021-10-07T12:47:34Z</time>
      </trkpt>
      <trkpt lat="46.75518" lon="5.61275">
        <ele>253.4</ele>
        <time>2021-10-07T12:47:37Z</time>
      </trkpt>
      <trkpt lat="46.75513" lon="5.61274">
        <ele>253.9</ele>
        <time>2021-10-07T12:47:43Z</time>
      </trkpt>
      <trkpt lat="46.75508" lon="5.61271">
        <ele>255</ele>
        <time>2021-10-07T12:47:48Z</time>
      </trkpt>
      <trkpt lat="46.75504" lon="5.61268">
        <ele>254.6</ele>
        <time>2021-10-07T12:47:59Z</time>
      </trkpt>
      <trkpt lat="46.755" lon="5.61264">
        <ele>253.8</ele>
        <time>2021-10-07T12:48:04Z</time>
      </trkpt>
      <trkpt lat="46.75495" lon="5.61261">
        <ele>252.8</ele>
        <time>2021-10-07T12:48:09Z</time>
      </trkpt>
      <trkpt lat="46.7549" lon="5.61261">
        <ele>251.9</ele>
        <time>2021-10-07T12:48:14Z</time>
      </trkpt>
      <trkpt lat="46.75486" lon="5.61259">
        <ele>251.4</ele>
        <time>2021-10-07T12:48:18Z</time>
      </trkpt>
      <trkpt lat="46.75481" lon="5.61257">
        <ele>251.5</ele>
        <time>2021-10-07T12:48:23Z</time>
      </trkpt>
      <trkpt lat="46.75477" lon="5.61254">
        <ele>252.1</ele>
        <time>2021-10-07T12:48:35Z</time>
      </trkpt>
      <trkpt lat="46.75475" lon="5.61248">
        <ele>252.3</ele>
        <time>2021-10-07T12:48:38Z</time>
      </trkpt>
      <trkpt lat="46.75475" lon="5.61238">
        <ele>252.4</ele>
        <time>2021-10-07T12:48:41Z</time>
      </trkpt>
      <trkpt lat="46.75475" lon="5.61229">
        <ele>252.5</ele>
        <time>2021-10-07T12:48:44Z</time>
      </trkpt>
      <trkpt lat="46.75474" lon="5.61221">
        <ele>252.5</ele>
        <time>2021-10-07T12:48:47Z</time>
      </trkpt>
      <trkpt lat="46.75475" lon="5.61214">
        <ele>252.6</ele>
        <time>2021-10-07T12:48:53Z</time>
      </trkpt>
      <trkpt lat="46.75475" lon="5.61207">
        <ele>252.1</ele>
        <time>2021-10-07T12:48:58Z</time>
      </trkpt>
      <trkpt lat="46.75476" lon="5.612">
        <ele>251.1</ele>
        <time>2021-10-07T12:49:04Z</time>
      </trkpt>
      <trkpt lat="46.75478" lon="5.61194">
        <ele>250.1</ele>
        <time>2021-10-07T12:49:09Z</time>
      </trkpt>
      <trkpt lat="46.75482" lon="5.61189">
        <ele>249.9</ele>
        <time>2021-10-07T12:49:13Z</time>
      </trkpt>
      <trkpt lat="46.75483" lon="5.61181">
        <ele>249.9</ele>
        <time>2021-10-07T12:49:18Z</time>
      </trkpt>
      <trkpt lat="46.75482" lon="5.61174">
        <ele>250.1</ele>
        <time>2021-10-07T12:49:24Z</time>
      </trkpt>
      <trkpt lat="46.75485" lon="5.61168">
        <ele>251</ele>
        <time>2021-10-07T12:49:45Z</time>
      </trkpt>
      <trkpt lat="46.75489" lon="5.61165">
        <ele>251</ele>
        <time>2021-10-07T12:49:51Z</time>
      </trkpt>
    </trkseg>
  </trk>
</gpx>